<?xml version="1.0" encoding="UTF-8" standalone="no" ?>
<gpx xmlns="http://www.topografix.com/GPX/1/1" xmlns:xsi="http://www.w3.org/2001/XMLSchema-instance" xsi:schemaLocation="http://www.topografix.com/GPX/1/1 http://www.topografix.com/GPX/1/1/gpx.xsd" version="1.1" creator="VisuGPX - https://www.visugpx.com">
  <metadata>
    <name>ANTOIGNE</name>
    <desc><![CDATA[Randonnée autour du village avec un aller retour vers le canal de la Dive.]]></desc>
  </metadata>
  <trk>
    <name><![CDATA[22/02/2013 14:25]]></name>
    <desc><![CDATA[]]></desc>
    <trkseg>
      <trkpt lat="47.08492" lon="-0.11217">
        <ele>43</ele>
        <time>2013-02-22T13:25:29.919Z</time>
      </trkpt>
      <trkpt lat="47.08492" lon="-0.11212">
        <ele>43</ele>
        <time>2013-02-22T13:25:38.999Z</time>
      </trkpt>
      <trkpt lat="47.08506" lon="-0.11221">
        <ele>42</ele>
        <time>2013-02-22T13:25:39.999Z</time>
      </trkpt>
      <trkpt lat="47.08508" lon="-0.11225">
        <ele>42</ele>
        <time>2013-02-22T13:25:43.999Z</time>
      </trkpt>
      <trkpt lat="47.08509" lon="-0.11228">
        <ele>42</ele>
        <time>2013-02-22T13:25:44.999Z</time>
      </trkpt>
      <trkpt lat="47.0851" lon="-0.1123">
        <ele>42</ele>
        <time>2013-02-22T13:25:49.999Z</time>
      </trkpt>
      <trkpt lat="47.08513" lon="-0.11235">
        <ele>42</ele>
        <time>2013-02-22T13:25:50.999Z</time>
      </trkpt>
      <trkpt lat="47.08514" lon="-0.11238">
        <ele>42</ele>
        <time>2013-02-22T13:26:01.999Z</time>
      </trkpt>
      <trkpt lat="47.08516" lon="-0.1125">
        <ele>43</ele>
        <time>2013-02-22T13:26:02.999Z</time>
      </trkpt>
      <trkpt lat="47.08517" lon="-0.11256">
        <ele>43</ele>
        <time>2013-02-22T13:26:06.999Z</time>
      </trkpt>
      <trkpt lat="47.08517" lon="-0.11259">
        <ele>43</ele>
        <time>2013-02-22T13:26:07.999Z</time>
      </trkpt>
      <trkpt lat="47.08517" lon="-0.11265">
        <ele>43</ele>
        <time>2013-02-22T13:26:10.999Z</time>
      </trkpt>
      <trkpt lat="47.08518" lon="-0.11267">
        <ele>43</ele>
        <time>2013-02-22T13:26:11.999Z</time>
      </trkpt>
      <trkpt lat="47.08519" lon="-0.11273">
        <ele>43</ele>
        <time>2013-02-22T13:26:18.999Z</time>
      </trkpt>
      <trkpt lat="47.08519" lon="-0.11274">
        <ele>43</ele>
        <time>2013-02-22T13:26:19.999Z</time>
      </trkpt>
      <trkpt lat="47.0852" lon="-0.11279">
        <ele>43</ele>
        <time>2013-02-22T13:26:22.999Z</time>
      </trkpt>
      <trkpt lat="47.08521" lon="-0.1128">
        <ele>43</ele>
        <time>2013-02-22T13:26:23.999Z</time>
      </trkpt>
      <trkpt lat="47.08523" lon="-0.11284">
        <ele>43</ele>
        <time>2013-02-22T13:26:26.999Z</time>
      </trkpt>
      <trkpt lat="47.08524" lon="-0.11285">
        <ele>43</ele>
        <time>2013-02-22T13:26:27.999Z</time>
      </trkpt>
      <trkpt lat="47.08527" lon="-0.11289">
        <ele>43</ele>
        <time>2013-02-22T13:26:30.999Z</time>
      </trkpt>
      <trkpt lat="47.08528" lon="-0.1129">
        <ele>43</ele>
        <time>2013-02-22T13:26:31.999Z</time>
      </trkpt>
      <trkpt lat="47.0853" lon="-0.11294">
        <ele>43</ele>
        <time>2013-02-22T13:26:34.999Z</time>
      </trkpt>
      <trkpt lat="47.08531" lon="-0.11296">
        <ele>43</ele>
        <time>2013-02-22T13:26:35.999Z</time>
      </trkpt>
      <trkpt lat="47.08533" lon="-0.11301">
        <ele>43</ele>
        <time>2013-02-22T13:26:39.999Z</time>
      </trkpt>
      <trkpt lat="47.08533" lon="-0.11302">
        <ele>43</ele>
        <time>2013-02-22T13:26:40.999Z</time>
      </trkpt>
      <trkpt lat="47.08536" lon="-0.11307">
        <ele>43</ele>
        <time>2013-02-22T13:26:46.999Z</time>
      </trkpt>
      <trkpt lat="47.08537" lon="-0.11309">
        <ele>43</ele>
        <time>2013-02-22T13:26:47.999Z</time>
      </trkpt>
      <trkpt lat="47.08538" lon="-0.11313">
        <ele>43</ele>
        <time>2013-02-22T13:26:51.999Z</time>
      </trkpt>
      <trkpt lat="47.08539" lon="-0.11316">
        <ele>44</ele>
        <time>2013-02-22T13:26:52.999Z</time>
      </trkpt>
      <trkpt lat="47.08541" lon="-0.11321">
        <ele>44</ele>
        <time>2013-02-22T13:26:56.999Z</time>
      </trkpt>
      <trkpt lat="47.08541" lon="-0.11322">
        <ele>43</ele>
        <time>2013-02-22T13:26:57.999Z</time>
      </trkpt>
      <trkpt lat="47.08543" lon="-0.11327">
        <ele>43</ele>
        <time>2013-02-22T13:27:01.999Z</time>
      </trkpt>
      <trkpt lat="47.08544" lon="-0.11329">
        <ele>43</ele>
        <time>2013-02-22T13:27:02.999Z</time>
      </trkpt>
      <trkpt lat="47.08545" lon="-0.11331">
        <ele>43</ele>
        <time>2013-02-22T13:27:03.999Z</time>
      </trkpt>
      <trkpt lat="47.08546" lon="-0.11335">
        <ele>45</ele>
        <time>2013-02-22T13:27:04.999Z</time>
      </trkpt>
      <trkpt lat="47.08548" lon="-0.11339">
        <ele>45</ele>
        <time>2013-02-22T13:27:06.999Z</time>
      </trkpt>
      <trkpt lat="47.08548" lon="-0.11341">
        <ele>45</ele>
        <time>2013-02-22T13:27:07.999Z</time>
      </trkpt>
      <trkpt lat="47.08549" lon="-0.11345">
        <ele>45</ele>
        <time>2013-02-22T13:27:09.999Z</time>
      </trkpt>
      <trkpt lat="47.0855" lon="-0.11348">
        <ele>45</ele>
        <time>2013-02-22T13:27:10.999Z</time>
      </trkpt>
      <trkpt lat="47.08552" lon="-0.11353">
        <ele>45</ele>
        <time>2013-02-22T13:27:13.999Z</time>
      </trkpt>
      <trkpt lat="47.08552" lon="-0.11355">
        <ele>45</ele>
        <time>2013-02-22T13:27:14.999Z</time>
      </trkpt>
      <trkpt lat="47.08553" lon="-0.11359">
        <ele>45</ele>
        <time>2013-02-22T13:27:16.999Z</time>
      </trkpt>
      <trkpt lat="47.08553" lon="-0.11361">
        <ele>45</ele>
        <time>2013-02-22T13:27:17.999Z</time>
      </trkpt>
      <trkpt lat="47.08555" lon="-0.11366">
        <ele>45</ele>
        <time>2013-02-22T13:27:21.999Z</time>
      </trkpt>
      <trkpt lat="47.08556" lon="-0.11367">
        <ele>45</ele>
        <time>2013-02-22T13:27:22.999Z</time>
      </trkpt>
      <trkpt lat="47.08558" lon="-0.11371">
        <ele>45</ele>
        <time>2013-02-22T13:27:24.999Z</time>
      </trkpt>
      <trkpt lat="47.0856" lon="-0.11372">
        <ele>45</ele>
        <time>2013-02-22T13:27:25.999Z</time>
      </trkpt>
      <trkpt lat="47.08562" lon="-0.11377">
        <ele>45</ele>
        <time>2013-02-22T13:27:29.999Z</time>
      </trkpt>
      <trkpt lat="47.08563" lon="-0.11379">
        <ele>45</ele>
        <time>2013-02-22T13:27:30.999Z</time>
      </trkpt>
      <trkpt lat="47.08564" lon="-0.11384">
        <ele>45</ele>
        <time>2013-02-22T13:27:34.999Z</time>
      </trkpt>
      <trkpt lat="47.08564" lon="-0.11385">
        <ele>45</ele>
        <time>2013-02-22T13:27:35.999Z</time>
      </trkpt>
      <trkpt lat="47.08567" lon="-0.1139">
        <ele>45</ele>
        <time>2013-02-22T13:27:39.999Z</time>
      </trkpt>
      <trkpt lat="47.08568" lon="-0.11391">
        <ele>44</ele>
        <time>2013-02-22T13:27:40.999Z</time>
      </trkpt>
      <trkpt lat="47.0857" lon="-0.11396">
        <ele>44</ele>
        <time>2013-02-22T13:27:44.999Z</time>
      </trkpt>
      <trkpt lat="47.08571" lon="-0.11398">
        <ele>44</ele>
        <time>2013-02-22T13:27:45.999Z</time>
      </trkpt>
      <trkpt lat="47.08574" lon="-0.11402">
        <ele>44</ele>
        <time>2013-02-22T13:27:49.999Z</time>
      </trkpt>
      <trkpt lat="47.08575" lon="-0.11403">
        <ele>44</ele>
        <time>2013-02-22T13:27:50.999Z</time>
      </trkpt>
      <trkpt lat="47.08576" lon="-0.11407">
        <ele>44</ele>
        <time>2013-02-22T13:27:52.999Z</time>
      </trkpt>
      <trkpt lat="47.08576" lon="-0.11409">
        <ele>44</ele>
        <time>2013-02-22T13:27:53.999Z</time>
      </trkpt>
      <trkpt lat="47.08578" lon="-0.11413">
        <ele>44</ele>
        <time>2013-02-22T13:27:55.999Z</time>
      </trkpt>
      <trkpt lat="47.08579" lon="-0.11415">
        <ele>43</ele>
        <time>2013-02-22T13:27:56.999Z</time>
      </trkpt>
      <trkpt lat="47.08581" lon="-0.1142">
        <ele>44</ele>
        <time>2013-02-22T13:28:00.999Z</time>
      </trkpt>
      <trkpt lat="47.08581" lon="-0.11421">
        <ele>44</ele>
        <time>2013-02-22T13:28:01.999Z</time>
      </trkpt>
      <trkpt lat="47.08582" lon="-0.11425">
        <ele>44</ele>
        <time>2013-02-22T13:28:04.999Z</time>
      </trkpt>
      <trkpt lat="47.08583" lon="-0.11427">
        <ele>44</ele>
        <time>2013-02-22T13:28:05.999Z</time>
      </trkpt>
      <trkpt lat="47.08585" lon="-0.11433">
        <ele>43</ele>
        <time>2013-02-22T13:28:08.999Z</time>
      </trkpt>
      <trkpt lat="47.08586" lon="-0.11434">
        <ele>43</ele>
        <time>2013-02-22T13:28:09.999Z</time>
      </trkpt>
      <trkpt lat="47.08588" lon="-0.1144">
        <ele>43</ele>
        <time>2013-02-22T13:28:12.999Z</time>
      </trkpt>
      <trkpt lat="47.08589" lon="-0.11442">
        <ele>43</ele>
        <time>2013-02-22T13:28:13.999Z</time>
      </trkpt>
      <trkpt lat="47.08592" lon="-0.11446">
        <ele>43</ele>
        <time>2013-02-22T13:28:16.999Z</time>
      </trkpt>
      <trkpt lat="47.08593" lon="-0.11447">
        <ele>43</ele>
        <time>2013-02-22T13:28:17.999Z</time>
      </trkpt>
      <trkpt lat="47.08595" lon="-0.11451">
        <ele>43</ele>
        <time>2013-02-22T13:28:19.999Z</time>
      </trkpt>
      <trkpt lat="47.08596" lon="-0.11453">
        <ele>43</ele>
        <time>2013-02-22T13:28:20.999Z</time>
      </trkpt>
      <trkpt lat="47.08599" lon="-0.11457">
        <ele>43</ele>
        <time>2013-02-22T13:28:23.999Z</time>
      </trkpt>
      <trkpt lat="47.086" lon="-0.11457">
        <ele>43</ele>
        <time>2013-02-22T13:28:24.999Z</time>
      </trkpt>
      <trkpt lat="47.08602" lon="-0.1146">
        <ele>43</ele>
        <time>2013-02-22T13:28:27.999Z</time>
      </trkpt>
      <trkpt lat="47.08604" lon="-0.11461">
        <ele>43</ele>
        <time>2013-02-22T13:28:28.999Z</time>
      </trkpt>
      <trkpt lat="47.08608" lon="-0.11463">
        <ele>43</ele>
        <time>2013-02-22T13:28:31.999Z</time>
      </trkpt>
      <trkpt lat="47.08608" lon="-0.11463">
        <ele>43</ele>
        <time>2013-02-22T13:28:32.999Z</time>
      </trkpt>
      <trkpt lat="47.08612" lon="-0.11466">
        <ele>43</ele>
        <time>2013-02-22T13:28:35.999Z</time>
      </trkpt>
      <trkpt lat="47.08613" lon="-0.11466">
        <ele>43</ele>
        <time>2013-02-22T13:28:36.999Z</time>
      </trkpt>
      <trkpt lat="47.08616" lon="-0.11468">
        <ele>43</ele>
        <time>2013-02-22T13:28:41.999Z</time>
      </trkpt>
      <trkpt lat="47.08617" lon="-0.11468">
        <ele>43</ele>
        <time>2013-02-22T13:28:42.999Z</time>
      </trkpt>
      <trkpt lat="47.0862" lon="-0.11469">
        <ele>42</ele>
        <time>2013-02-22T13:28:45.999Z</time>
      </trkpt>
      <trkpt lat="47.08622" lon="-0.11469">
        <ele>42</ele>
        <time>2013-02-22T13:28:46.999Z</time>
      </trkpt>
      <trkpt lat="47.08626" lon="-0.11469">
        <ele>42</ele>
        <time>2013-02-22T13:28:49.999Z</time>
      </trkpt>
      <trkpt lat="47.08627" lon="-0.11469">
        <ele>42</ele>
        <time>2013-02-22T13:28:50.999Z</time>
      </trkpt>
      <trkpt lat="47.08631" lon="-0.11469">
        <ele>42</ele>
        <time>2013-02-22T13:28:52.999Z</time>
      </trkpt>
      <trkpt lat="47.08634" lon="-0.1147">
        <ele>42</ele>
        <time>2013-02-22T13:28:53.999Z</time>
      </trkpt>
      <trkpt lat="47.08637" lon="-0.11469">
        <ele>42</ele>
        <time>2013-02-22T13:28:55.999Z</time>
      </trkpt>
      <trkpt lat="47.08639" lon="-0.11469">
        <ele>42</ele>
        <time>2013-02-22T13:28:56.999Z</time>
      </trkpt>
      <trkpt lat="47.08643" lon="-0.11469">
        <ele>42</ele>
        <time>2013-02-22T13:28:59.999Z</time>
      </trkpt>
      <trkpt lat="47.08644" lon="-0.11468">
        <ele>42</ele>
        <time>2013-02-22T13:29:00.999Z</time>
      </trkpt>
      <trkpt lat="47.08647" lon="-0.11466">
        <ele>42</ele>
        <time>2013-02-22T13:29:04.000Z</time>
      </trkpt>
      <trkpt lat="47.08648" lon="-0.11466">
        <ele>42</ele>
        <time>2013-02-22T13:29:05.000Z</time>
      </trkpt>
      <trkpt lat="47.08652" lon="-0.11467">
        <ele>42</ele>
        <time>2013-02-22T13:29:08.000Z</time>
      </trkpt>
      <trkpt lat="47.08654" lon="-0.11467">
        <ele>42</ele>
        <time>2013-02-22T13:29:09.000Z</time>
      </trkpt>
      <trkpt lat="47.08658" lon="-0.11467">
        <ele>42</ele>
        <time>2013-02-22T13:29:12.000Z</time>
      </trkpt>
      <trkpt lat="47.0866" lon="-0.11466">
        <ele>42</ele>
        <time>2013-02-22T13:29:13.000Z</time>
      </trkpt>
      <trkpt lat="47.08664" lon="-0.11464">
        <ele>42</ele>
        <time>2013-02-22T13:29:16.000Z</time>
      </trkpt>
      <trkpt lat="47.08665" lon="-0.11464">
        <ele>42</ele>
        <time>2013-02-22T13:29:17.000Z</time>
      </trkpt>
      <trkpt lat="47.08669" lon="-0.11463">
        <ele>40</ele>
        <time>2013-02-22T13:29:21.000Z</time>
      </trkpt>
      <trkpt lat="47.0867" lon="-0.11463">
        <ele>40</ele>
        <time>2013-02-22T13:29:22.000Z</time>
      </trkpt>
      <trkpt lat="47.08675" lon="-0.11463">
        <ele>40</ele>
        <time>2013-02-22T13:29:25.000Z</time>
      </trkpt>
      <trkpt lat="47.08676" lon="-0.11463">
        <ele>40</ele>
        <time>2013-02-22T13:29:26.000Z</time>
      </trkpt>
      <trkpt lat="47.0868" lon="-0.11463">
        <ele>40</ele>
        <time>2013-02-22T13:29:29.000Z</time>
      </trkpt>
      <trkpt lat="47.08681" lon="-0.11463">
        <ele>40</ele>
        <time>2013-02-22T13:29:30.000Z</time>
      </trkpt>
      <trkpt lat="47.08685" lon="-0.11463">
        <ele>40</ele>
        <time>2013-02-22T13:29:33.000Z</time>
      </trkpt>
      <trkpt lat="47.08686" lon="-0.11463">
        <ele>40</ele>
        <time>2013-02-22T13:29:34.000Z</time>
      </trkpt>
      <trkpt lat="47.0869" lon="-0.11463">
        <ele>40</ele>
        <time>2013-02-22T13:29:37.000Z</time>
      </trkpt>
      <trkpt lat="47.08691" lon="-0.11462">
        <ele>40</ele>
        <time>2013-02-22T13:29:38.000Z</time>
      </trkpt>
      <trkpt lat="47.08695" lon="-0.1146">
        <ele>40</ele>
        <time>2013-02-22T13:29:41.000Z</time>
      </trkpt>
      <trkpt lat="47.08696" lon="-0.1146">
        <ele>40</ele>
        <time>2013-02-22T13:29:42.000Z</time>
      </trkpt>
      <trkpt lat="47.08699" lon="-0.1146">
        <ele>40</ele>
        <time>2013-02-22T13:29:46.000Z</time>
      </trkpt>
      <trkpt lat="47.08701" lon="-0.1146">
        <ele>40</ele>
        <time>2013-02-22T13:29:47.000Z</time>
      </trkpt>
      <trkpt lat="47.08705" lon="-0.11459">
        <ele>40</ele>
        <time>2013-02-22T13:29:51.000Z</time>
      </trkpt>
      <trkpt lat="47.08705" lon="-0.11458">
        <ele>40</ele>
        <time>2013-02-22T13:29:52.000Z</time>
      </trkpt>
      <trkpt lat="47.08709" lon="-0.11458">
        <ele>40</ele>
        <time>2013-02-22T13:29:56.000Z</time>
      </trkpt>
      <trkpt lat="47.0871" lon="-0.11457">
        <ele>40</ele>
        <time>2013-02-22T13:29:57.000Z</time>
      </trkpt>
      <trkpt lat="47.08714" lon="-0.11455">
        <ele>40</ele>
        <time>2013-02-22T13:29:59.000Z</time>
      </trkpt>
      <trkpt lat="47.08715" lon="-0.11455">
        <ele>40</ele>
        <time>2013-02-22T13:30:00.000Z</time>
      </trkpt>
      <trkpt lat="47.08718" lon="-0.11453">
        <ele>40</ele>
        <time>2013-02-22T13:30:03.000Z</time>
      </trkpt>
      <trkpt lat="47.0872" lon="-0.11453">
        <ele>40</ele>
        <time>2013-02-22T13:30:04.000Z</time>
      </trkpt>
      <trkpt lat="47.08723" lon="-0.11451">
        <ele>40</ele>
        <time>2013-02-22T13:30:07.000Z</time>
      </trkpt>
      <trkpt lat="47.08724" lon="-0.11451">
        <ele>40</ele>
        <time>2013-02-22T13:30:08.000Z</time>
      </trkpt>
      <trkpt lat="47.08727" lon="-0.1145">
        <ele>40</ele>
        <time>2013-02-22T13:30:11.000Z</time>
      </trkpt>
      <trkpt lat="47.08729" lon="-0.1145">
        <ele>40</ele>
        <time>2013-02-22T13:30:12.000Z</time>
      </trkpt>
      <trkpt lat="47.08733" lon="-0.11449">
        <ele>40</ele>
        <time>2013-02-22T13:30:16.000Z</time>
      </trkpt>
      <trkpt lat="47.08735" lon="-0.11448">
        <ele>40</ele>
        <time>2013-02-22T13:30:17.000Z</time>
      </trkpt>
      <trkpt lat="47.08737" lon="-0.11447">
        <ele>39</ele>
        <time>2013-02-22T13:30:19.000Z</time>
      </trkpt>
      <trkpt lat="47.08739" lon="-0.11445">
        <ele>39</ele>
        <time>2013-02-22T13:30:20.000Z</time>
      </trkpt>
      <trkpt lat="47.08742" lon="-0.11443">
        <ele>39</ele>
        <time>2013-02-22T13:30:23.000Z</time>
      </trkpt>
      <trkpt lat="47.08743" lon="-0.11442">
        <ele>39</ele>
        <time>2013-02-22T13:30:24.000Z</time>
      </trkpt>
      <trkpt lat="47.08747" lon="-0.1144">
        <ele>39</ele>
        <time>2013-02-22T13:30:26.000Z</time>
      </trkpt>
      <trkpt lat="47.08748" lon="-0.11438">
        <ele>39</ele>
        <time>2013-02-22T13:30:27.000Z</time>
      </trkpt>
      <trkpt lat="47.08753" lon="-0.11437">
        <ele>39</ele>
        <time>2013-02-22T13:30:30.000Z</time>
      </trkpt>
      <trkpt lat="47.08754" lon="-0.11436">
        <ele>39</ele>
        <time>2013-02-22T13:30:31.000Z</time>
      </trkpt>
      <trkpt lat="47.08757" lon="-0.11436">
        <ele>39</ele>
        <time>2013-02-22T13:30:35.000Z</time>
      </trkpt>
      <trkpt lat="47.08758" lon="-0.11436">
        <ele>39</ele>
        <time>2013-02-22T13:30:36.000Z</time>
      </trkpt>
      <trkpt lat="47.08761" lon="-0.11435">
        <ele>39</ele>
        <time>2013-02-22T13:30:38.000Z</time>
      </trkpt>
      <trkpt lat="47.08763" lon="-0.11435">
        <ele>39</ele>
        <time>2013-02-22T13:30:39.000Z</time>
      </trkpt>
      <trkpt lat="47.08766" lon="-0.11434">
        <ele>39</ele>
        <time>2013-02-22T13:30:41.000Z</time>
      </trkpt>
      <trkpt lat="47.08768" lon="-0.11433">
        <ele>39</ele>
        <time>2013-02-22T13:30:42.000Z</time>
      </trkpt>
      <trkpt lat="47.08771" lon="-0.11431">
        <ele>39</ele>
        <time>2013-02-22T13:30:45.000Z</time>
      </trkpt>
      <trkpt lat="47.08772" lon="-0.1143">
        <ele>39</ele>
        <time>2013-02-22T13:30:46.000Z</time>
      </trkpt>
      <trkpt lat="47.08776" lon="-0.11428">
        <ele>39</ele>
        <time>2013-02-22T13:30:49.000Z</time>
      </trkpt>
      <trkpt lat="47.08777" lon="-0.11428">
        <ele>39</ele>
        <time>2013-02-22T13:30:50.000Z</time>
      </trkpt>
      <trkpt lat="47.08781" lon="-0.11426">
        <ele>39</ele>
        <time>2013-02-22T13:30:53.000Z</time>
      </trkpt>
      <trkpt lat="47.08782" lon="-0.11426">
        <ele>39</ele>
        <time>2013-02-22T13:30:54.000Z</time>
      </trkpt>
      <trkpt lat="47.08786" lon="-0.11425">
        <ele>39</ele>
        <time>2013-02-22T13:30:57.000Z</time>
      </trkpt>
      <trkpt lat="47.08787" lon="-0.11424">
        <ele>39</ele>
        <time>2013-02-22T13:30:58.000Z</time>
      </trkpt>
      <trkpt lat="47.0879" lon="-0.11424">
        <ele>39</ele>
        <time>2013-02-22T13:31:01.000Z</time>
      </trkpt>
      <trkpt lat="47.08791" lon="-0.11423">
        <ele>39</ele>
        <time>2013-02-22T13:31:02.000Z</time>
      </trkpt>
      <trkpt lat="47.08795" lon="-0.11422">
        <ele>38</ele>
        <time>2013-02-22T13:31:05.000Z</time>
      </trkpt>
      <trkpt lat="47.08796" lon="-0.11421">
        <ele>38</ele>
        <time>2013-02-22T13:31:06.000Z</time>
      </trkpt>
      <trkpt lat="47.088" lon="-0.11418">
        <ele>38</ele>
        <time>2013-02-22T13:31:09.000Z</time>
      </trkpt>
      <trkpt lat="47.088" lon="-0.11417">
        <ele>38</ele>
        <time>2013-02-22T13:31:10.000Z</time>
      </trkpt>
      <trkpt lat="47.08804" lon="-0.11417">
        <ele>39</ele>
        <time>2013-02-22T13:31:14.000Z</time>
      </trkpt>
      <trkpt lat="47.08805" lon="-0.11416">
        <ele>39</ele>
        <time>2013-02-22T13:31:15.000Z</time>
      </trkpt>
      <trkpt lat="47.08808" lon="-0.11414">
        <ele>38</ele>
        <time>2013-02-22T13:31:18.000Z</time>
      </trkpt>
      <trkpt lat="47.0881" lon="-0.11414">
        <ele>38</ele>
        <time>2013-02-22T13:31:19.000Z</time>
      </trkpt>
      <trkpt lat="47.08813" lon="-0.11411">
        <ele>38</ele>
        <time>2013-02-22T13:31:22.000Z</time>
      </trkpt>
      <trkpt lat="47.08814" lon="-0.1141">
        <ele>38</ele>
        <time>2013-02-22T13:31:23.000Z</time>
      </trkpt>
      <trkpt lat="47.08817" lon="-0.11409">
        <ele>38</ele>
        <time>2013-02-22T13:31:25.000Z</time>
      </trkpt>
      <trkpt lat="47.08819" lon="-0.11409">
        <ele>38</ele>
        <time>2013-02-22T13:31:26.000Z</time>
      </trkpt>
      <trkpt lat="47.08823" lon="-0.11407">
        <ele>38</ele>
        <time>2013-02-22T13:31:29.000Z</time>
      </trkpt>
      <trkpt lat="47.08824" lon="-0.11407">
        <ele>38</ele>
        <time>2013-02-22T13:31:30.000Z</time>
      </trkpt>
      <trkpt lat="47.08828" lon="-0.11405">
        <ele>38</ele>
        <time>2013-02-22T13:31:34.000Z</time>
      </trkpt>
      <trkpt lat="47.0883" lon="-0.11405">
        <ele>38</ele>
        <time>2013-02-22T13:31:35.000Z</time>
      </trkpt>
      <trkpt lat="47.08833" lon="-0.11404">
        <ele>38</ele>
        <time>2013-02-22T13:31:37.000Z</time>
      </trkpt>
      <trkpt lat="47.08835" lon="-0.11404">
        <ele>38</ele>
        <time>2013-02-22T13:31:38.000Z</time>
      </trkpt>
      <trkpt lat="47.08839" lon="-0.11403">
        <ele>38</ele>
        <time>2013-02-22T13:31:41.000Z</time>
      </trkpt>
      <trkpt lat="47.0884" lon="-0.11403">
        <ele>38</ele>
        <time>2013-02-22T13:31:42.000Z</time>
      </trkpt>
      <trkpt lat="47.08844" lon="-0.11402">
        <ele>38</ele>
        <time>2013-02-22T13:31:45.000Z</time>
      </trkpt>
      <trkpt lat="47.08845" lon="-0.11402">
        <ele>38</ele>
        <time>2013-02-22T13:31:46.000Z</time>
      </trkpt>
      <trkpt lat="47.08848" lon="-0.11402">
        <ele>38</ele>
        <time>2013-02-22T13:31:50.000Z</time>
      </trkpt>
      <trkpt lat="47.0885" lon="-0.11402">
        <ele>38</ele>
        <time>2013-02-22T13:31:51.000Z</time>
      </trkpt>
      <trkpt lat="47.08853" lon="-0.11403">
        <ele>38</ele>
        <time>2013-02-22T13:31:54.000Z</time>
      </trkpt>
      <trkpt lat="47.08855" lon="-0.11403">
        <ele>38</ele>
        <time>2013-02-22T13:31:55.000Z</time>
      </trkpt>
      <trkpt lat="47.08858" lon="-0.11405">
        <ele>38</ele>
        <time>2013-02-22T13:31:59.000Z</time>
      </trkpt>
      <trkpt lat="47.08859" lon="-0.11405">
        <ele>38</ele>
        <time>2013-02-22T13:32:00.000Z</time>
      </trkpt>
      <trkpt lat="47.08862" lon="-0.11406">
        <ele>38</ele>
        <time>2013-02-22T13:32:03.000Z</time>
      </trkpt>
      <trkpt lat="47.08865" lon="-0.11407">
        <ele>38</ele>
        <time>2013-02-22T13:32:04.000Z</time>
      </trkpt>
      <trkpt lat="47.08869" lon="-0.11409">
        <ele>38</ele>
        <time>2013-02-22T13:32:06.000Z</time>
      </trkpt>
      <trkpt lat="47.0887" lon="-0.11409">
        <ele>38</ele>
        <time>2013-02-22T13:32:07.000Z</time>
      </trkpt>
      <trkpt lat="47.08874" lon="-0.11411">
        <ele>38</ele>
        <time>2013-02-22T13:32:10.000Z</time>
      </trkpt>
      <trkpt lat="47.08875" lon="-0.11411">
        <ele>37</ele>
        <time>2013-02-22T13:32:11.000Z</time>
      </trkpt>
      <trkpt lat="47.08879" lon="-0.11411">
        <ele>37</ele>
        <time>2013-02-22T13:32:14.000Z</time>
      </trkpt>
      <trkpt lat="47.0888" lon="-0.11412">
        <ele>37</ele>
        <time>2013-02-22T13:32:15.000Z</time>
      </trkpt>
      <trkpt lat="47.08884" lon="-0.11414">
        <ele>37</ele>
        <time>2013-02-22T13:32:19.000Z</time>
      </trkpt>
      <trkpt lat="47.08885" lon="-0.11414">
        <ele>37</ele>
        <time>2013-02-22T13:32:20.000Z</time>
      </trkpt>
      <trkpt lat="47.08889" lon="-0.11416">
        <ele>37</ele>
        <time>2013-02-22T13:32:24.000Z</time>
      </trkpt>
      <trkpt lat="47.08889" lon="-0.11417">
        <ele>37</ele>
        <time>2013-02-22T13:32:25.000Z</time>
      </trkpt>
      <trkpt lat="47.08893" lon="-0.11419">
        <ele>37</ele>
        <time>2013-02-22T13:32:30.000Z</time>
      </trkpt>
      <trkpt lat="47.08895" lon="-0.11419">
        <ele>37</ele>
        <time>2013-02-22T13:32:31.000Z</time>
      </trkpt>
      <trkpt lat="47.08898" lon="-0.1142">
        <ele>37</ele>
        <time>2013-02-22T13:32:34.000Z</time>
      </trkpt>
      <trkpt lat="47.08899" lon="-0.11421">
        <ele>37</ele>
        <time>2013-02-22T13:32:35.000Z</time>
      </trkpt>
      <trkpt lat="47.08903" lon="-0.11424">
        <ele>37</ele>
        <time>2013-02-22T13:32:38.000Z</time>
      </trkpt>
      <trkpt lat="47.08904" lon="-0.11424">
        <ele>37</ele>
        <time>2013-02-22T13:32:39.000Z</time>
      </trkpt>
      <trkpt lat="47.08907" lon="-0.11427">
        <ele>37</ele>
        <time>2013-02-22T13:32:43.000Z</time>
      </trkpt>
      <trkpt lat="47.08908" lon="-0.11427">
        <ele>37</ele>
        <time>2013-02-22T13:32:44.000Z</time>
      </trkpt>
      <trkpt lat="47.08912" lon="-0.1143">
        <ele>37</ele>
        <time>2013-02-22T13:32:48.000Z</time>
      </trkpt>
      <trkpt lat="47.08913" lon="-0.1143">
        <ele>37</ele>
        <time>2013-02-22T13:32:49.000Z</time>
      </trkpt>
      <trkpt lat="47.08917" lon="-0.11431">
        <ele>37</ele>
        <time>2013-02-22T13:32:52.000Z</time>
      </trkpt>
      <trkpt lat="47.08919" lon="-0.11431">
        <ele>37</ele>
        <time>2013-02-22T13:32:53.000Z</time>
      </trkpt>
      <trkpt lat="47.08922" lon="-0.11431">
        <ele>37</ele>
        <time>2013-02-22T13:32:56.000Z</time>
      </trkpt>
      <trkpt lat="47.08923" lon="-0.11432">
        <ele>37</ele>
        <time>2013-02-22T13:32:57.000Z</time>
      </trkpt>
      <trkpt lat="47.08928" lon="-0.11432">
        <ele>37</ele>
        <time>2013-02-22T13:33:01.000Z</time>
      </trkpt>
      <trkpt lat="47.08929" lon="-0.11431">
        <ele>37</ele>
        <time>2013-02-22T13:33:02.000Z</time>
      </trkpt>
      <trkpt lat="47.08932" lon="-0.11432">
        <ele>37</ele>
        <time>2013-02-22T13:33:04.000Z</time>
      </trkpt>
      <trkpt lat="47.08934" lon="-0.11432">
        <ele>37</ele>
        <time>2013-02-22T13:33:05.000Z</time>
      </trkpt>
      <trkpt lat="47.08938" lon="-0.11433">
        <ele>38</ele>
        <time>2013-02-22T13:33:08.000Z</time>
      </trkpt>
      <trkpt lat="47.08939" lon="-0.11434">
        <ele>38</ele>
        <time>2013-02-22T13:33:09.000Z</time>
      </trkpt>
      <trkpt lat="47.08942" lon="-0.11434">
        <ele>38</ele>
        <time>2013-02-22T13:33:11.000Z</time>
      </trkpt>
      <trkpt lat="47.08943" lon="-0.11433">
        <ele>38</ele>
        <time>2013-02-22T13:33:12.000Z</time>
      </trkpt>
      <trkpt lat="47.08947" lon="-0.11432">
        <ele>38</ele>
        <time>2013-02-22T13:33:15.000Z</time>
      </trkpt>
      <trkpt lat="47.08948" lon="-0.11432">
        <ele>38</ele>
        <time>2013-02-22T13:33:16.000Z</time>
      </trkpt>
      <trkpt lat="47.08953" lon="-0.11432">
        <ele>38</ele>
        <time>2013-02-22T13:33:21.000Z</time>
      </trkpt>
      <trkpt lat="47.08954" lon="-0.11432">
        <ele>38</ele>
        <time>2013-02-22T13:33:22.000Z</time>
      </trkpt>
      <trkpt lat="47.08958" lon="-0.11432">
        <ele>38</ele>
        <time>2013-02-22T13:33:25.000Z</time>
      </trkpt>
      <trkpt lat="47.08959" lon="-0.11432">
        <ele>38</ele>
        <time>2013-02-22T13:33:26.000Z</time>
      </trkpt>
      <trkpt lat="47.08962" lon="-0.1143">
        <ele>38</ele>
        <time>2013-02-22T13:33:29.000Z</time>
      </trkpt>
      <trkpt lat="47.08964" lon="-0.11428">
        <ele>38</ele>
        <time>2013-02-22T13:33:30.000Z</time>
      </trkpt>
      <trkpt lat="47.08967" lon="-0.11425">
        <ele>38</ele>
        <time>2013-02-22T13:33:33.000Z</time>
      </trkpt>
      <trkpt lat="47.08968" lon="-0.11424">
        <ele>38</ele>
        <time>2013-02-22T13:33:34.000Z</time>
      </trkpt>
      <trkpt lat="47.08972" lon="-0.11422">
        <ele>38</ele>
        <time>2013-02-22T13:33:38.000Z</time>
      </trkpt>
      <trkpt lat="47.08973" lon="-0.11422">
        <ele>38</ele>
        <time>2013-02-22T13:33:39.000Z</time>
      </trkpt>
      <trkpt lat="47.08977" lon="-0.1142">
        <ele>38</ele>
        <time>2013-02-22T13:33:43.000Z</time>
      </trkpt>
      <trkpt lat="47.08979" lon="-0.1142">
        <ele>38</ele>
        <time>2013-02-22T13:33:44.000Z</time>
      </trkpt>
      <trkpt lat="47.08982" lon="-0.1142">
        <ele>38</ele>
        <time>2013-02-22T13:33:47.000Z</time>
      </trkpt>
      <trkpt lat="47.08984" lon="-0.1142">
        <ele>38</ele>
        <time>2013-02-22T13:33:48.000Z</time>
      </trkpt>
      <trkpt lat="47.08987" lon="-0.11419">
        <ele>38</ele>
        <time>2013-02-22T13:33:52.000Z</time>
      </trkpt>
      <trkpt lat="47.08988" lon="-0.11419">
        <ele>38</ele>
        <time>2013-02-22T13:33:53.000Z</time>
      </trkpt>
      <trkpt lat="47.08991" lon="-0.11417">
        <ele>38</ele>
        <time>2013-02-22T13:33:57.000Z</time>
      </trkpt>
      <trkpt lat="47.08992" lon="-0.11417">
        <ele>38</ele>
        <time>2013-02-22T13:33:58.000Z</time>
      </trkpt>
      <trkpt lat="47.08996" lon="-0.11415">
        <ele>38</ele>
        <time>2013-02-22T13:34:02.000Z</time>
      </trkpt>
      <trkpt lat="47.08997" lon="-0.11414">
        <ele>38</ele>
        <time>2013-02-22T13:34:03.000Z</time>
      </trkpt>
      <trkpt lat="47.09" lon="-0.11412">
        <ele>38</ele>
        <time>2013-02-22T13:34:06.000Z</time>
      </trkpt>
      <trkpt lat="47.09002" lon="-0.11411">
        <ele>38</ele>
        <time>2013-02-22T13:34:07.000Z</time>
      </trkpt>
      <trkpt lat="47.09005" lon="-0.11409">
        <ele>38</ele>
        <time>2013-02-22T13:34:11.000Z</time>
      </trkpt>
      <trkpt lat="47.09007" lon="-0.11408">
        <ele>38</ele>
        <time>2013-02-22T13:34:12.000Z</time>
      </trkpt>
      <trkpt lat="47.0901" lon="-0.11407">
        <ele>38</ele>
        <time>2013-02-22T13:34:14.000Z</time>
      </trkpt>
      <trkpt lat="47.09012" lon="-0.11406">
        <ele>38</ele>
        <time>2013-02-22T13:34:15.000Z</time>
      </trkpt>
      <trkpt lat="47.09015" lon="-0.11405">
        <ele>38</ele>
        <time>2013-02-22T13:34:17.000Z</time>
      </trkpt>
      <trkpt lat="47.09017" lon="-0.11404">
        <ele>38</ele>
        <time>2013-02-22T13:34:18.000Z</time>
      </trkpt>
      <trkpt lat="47.09021" lon="-0.11402">
        <ele>37</ele>
        <time>2013-02-22T13:34:21.000Z</time>
      </trkpt>
      <trkpt lat="47.09022" lon="-0.11401">
        <ele>37</ele>
        <time>2013-02-22T13:34:22.000Z</time>
      </trkpt>
      <trkpt lat="47.09026" lon="-0.11398">
        <ele>37</ele>
        <time>2013-02-22T13:34:25.000Z</time>
      </trkpt>
      <trkpt lat="47.09027" lon="-0.11398">
        <ele>37</ele>
        <time>2013-02-22T13:34:26.000Z</time>
      </trkpt>
      <trkpt lat="47.0903" lon="-0.11397">
        <ele>37</ele>
        <time>2013-02-22T13:34:28.000Z</time>
      </trkpt>
      <trkpt lat="47.09032" lon="-0.11396">
        <ele>37</ele>
        <time>2013-02-22T13:34:29.000Z</time>
      </trkpt>
      <trkpt lat="47.09036" lon="-0.11394">
        <ele>37</ele>
        <time>2013-02-22T13:34:33.000Z</time>
      </trkpt>
      <trkpt lat="47.09037" lon="-0.11394">
        <ele>37</ele>
        <time>2013-02-22T13:34:34.000Z</time>
      </trkpt>
      <trkpt lat="47.09041" lon="-0.11394">
        <ele>37</ele>
        <time>2013-02-22T13:34:37.000Z</time>
      </trkpt>
      <trkpt lat="47.09043" lon="-0.11394">
        <ele>37</ele>
        <time>2013-02-22T13:34:38.000Z</time>
      </trkpt>
      <trkpt lat="47.09047" lon="-0.11392">
        <ele>37</ele>
        <time>2013-02-22T13:34:41.000Z</time>
      </trkpt>
      <trkpt lat="47.09048" lon="-0.11392">
        <ele>37</ele>
        <time>2013-02-22T13:34:42.000Z</time>
      </trkpt>
      <trkpt lat="47.09052" lon="-0.1139">
        <ele>37</ele>
        <time>2013-02-22T13:34:45.000Z</time>
      </trkpt>
      <trkpt lat="47.09053" lon="-0.1139">
        <ele>37</ele>
        <time>2013-02-22T13:34:46.000Z</time>
      </trkpt>
      <trkpt lat="47.09057" lon="-0.11389">
        <ele>37</ele>
        <time>2013-02-22T13:34:49.000Z</time>
      </trkpt>
      <trkpt lat="47.09058" lon="-0.11389">
        <ele>37</ele>
        <time>2013-02-22T13:34:50.000Z</time>
      </trkpt>
      <trkpt lat="47.09061" lon="-0.11388">
        <ele>37</ele>
        <time>2013-02-22T13:34:53.000Z</time>
      </trkpt>
      <trkpt lat="47.09062" lon="-0.11387">
        <ele>37</ele>
        <time>2013-02-22T13:34:54.000Z</time>
      </trkpt>
      <trkpt lat="47.09066" lon="-0.11384">
        <ele>37</ele>
        <time>2013-02-22T13:34:58.000Z</time>
      </trkpt>
      <trkpt lat="47.09068" lon="-0.11384">
        <ele>37</ele>
        <time>2013-02-22T13:34:59.000Z</time>
      </trkpt>
      <trkpt lat="47.09071" lon="-0.11383">
        <ele>37</ele>
        <time>2013-02-22T13:35:02.000Z</time>
      </trkpt>
      <trkpt lat="47.09072" lon="-0.11382">
        <ele>37</ele>
        <time>2013-02-22T13:35:03.000Z</time>
      </trkpt>
      <trkpt lat="47.09076" lon="-0.1138">
        <ele>37</ele>
        <time>2013-02-22T13:35:07.000Z</time>
      </trkpt>
      <trkpt lat="47.09077" lon="-0.11379">
        <ele>37</ele>
        <time>2013-02-22T13:35:08.000Z</time>
      </trkpt>
      <trkpt lat="47.09082" lon="-0.11378">
        <ele>37</ele>
        <time>2013-02-22T13:35:11.000Z</time>
      </trkpt>
      <trkpt lat="47.09083" lon="-0.11377">
        <ele>37</ele>
        <time>2013-02-22T13:35:12.000Z</time>
      </trkpt>
      <trkpt lat="47.09087" lon="-0.11375">
        <ele>37</ele>
        <time>2013-02-22T13:35:15.000Z</time>
      </trkpt>
      <trkpt lat="47.09088" lon="-0.11374">
        <ele>37</ele>
        <time>2013-02-22T13:35:16.000Z</time>
      </trkpt>
      <trkpt lat="47.09092" lon="-0.11373">
        <ele>37</ele>
        <time>2013-02-22T13:35:20.000Z</time>
      </trkpt>
      <trkpt lat="47.09093" lon="-0.11373">
        <ele>37</ele>
        <time>2013-02-22T13:35:21.000Z</time>
      </trkpt>
      <trkpt lat="47.09097" lon="-0.11374">
        <ele>37</ele>
        <time>2013-02-22T13:35:24.000Z</time>
      </trkpt>
      <trkpt lat="47.09098" lon="-0.11374">
        <ele>37</ele>
        <time>2013-02-22T13:35:25.000Z</time>
      </trkpt>
      <trkpt lat="47.09101" lon="-0.11373">
        <ele>37</ele>
        <time>2013-02-22T13:35:27.000Z</time>
      </trkpt>
      <trkpt lat="47.09103" lon="-0.11373">
        <ele>37</ele>
        <time>2013-02-22T13:35:28.000Z</time>
      </trkpt>
      <trkpt lat="47.09107" lon="-0.11373">
        <ele>37</ele>
        <time>2013-02-22T13:35:31.000Z</time>
      </trkpt>
      <trkpt lat="47.09108" lon="-0.11372">
        <ele>37</ele>
        <time>2013-02-22T13:35:32.000Z</time>
      </trkpt>
      <trkpt lat="47.09111" lon="-0.11372">
        <ele>37</ele>
        <time>2013-02-22T13:35:35.000Z</time>
      </trkpt>
      <trkpt lat="47.09113" lon="-0.11371">
        <ele>37</ele>
        <time>2013-02-22T13:35:36.000Z</time>
      </trkpt>
      <trkpt lat="47.09117" lon="-0.1137">
        <ele>37</ele>
        <time>2013-02-22T13:35:39.000Z</time>
      </trkpt>
      <trkpt lat="47.09118" lon="-0.1137">
        <ele>37</ele>
        <time>2013-02-22T13:35:40.000Z</time>
      </trkpt>
      <trkpt lat="47.09123" lon="-0.1137">
        <ele>37</ele>
        <time>2013-02-22T13:35:44.000Z</time>
      </trkpt>
      <trkpt lat="47.09124" lon="-0.1137">
        <ele>37</ele>
        <time>2013-02-22T13:35:45.000Z</time>
      </trkpt>
      <trkpt lat="47.09128" lon="-0.11369">
        <ele>37</ele>
        <time>2013-02-22T13:35:49.000Z</time>
      </trkpt>
      <trkpt lat="47.09129" lon="-0.11369">
        <ele>37</ele>
        <time>2013-02-22T13:35:50.000Z</time>
      </trkpt>
      <trkpt lat="47.09133" lon="-0.11369">
        <ele>37</ele>
        <time>2013-02-22T13:35:53.000Z</time>
      </trkpt>
      <trkpt lat="47.09134" lon="-0.11369">
        <ele>37</ele>
        <time>2013-02-22T13:35:54.000Z</time>
      </trkpt>
      <trkpt lat="47.09137" lon="-0.11368">
        <ele>37</ele>
        <time>2013-02-22T13:35:57.000Z</time>
      </trkpt>
      <trkpt lat="47.09139" lon="-0.11367">
        <ele>37</ele>
        <time>2013-02-22T13:35:58.000Z</time>
      </trkpt>
      <trkpt lat="47.09142" lon="-0.11365">
        <ele>37</ele>
        <time>2013-02-22T13:36:01.000Z</time>
      </trkpt>
      <trkpt lat="47.09143" lon="-0.11364">
        <ele>37</ele>
        <time>2013-02-22T13:36:02.000Z</time>
      </trkpt>
      <trkpt lat="47.09147" lon="-0.11364">
        <ele>37</ele>
        <time>2013-02-22T13:36:05.000Z</time>
      </trkpt>
      <trkpt lat="47.09149" lon="-0.11365">
        <ele>37</ele>
        <time>2013-02-22T13:36:06.000Z</time>
      </trkpt>
      <trkpt lat="47.09153" lon="-0.11365">
        <ele>37</ele>
        <time>2013-02-22T13:36:09.000Z</time>
      </trkpt>
      <trkpt lat="47.09154" lon="-0.11365">
        <ele>37</ele>
        <time>2013-02-22T13:36:10.000Z</time>
      </trkpt>
      <trkpt lat="47.09158" lon="-0.11365">
        <ele>37</ele>
        <time>2013-02-22T13:36:14.000Z</time>
      </trkpt>
      <trkpt lat="47.09159" lon="-0.11365">
        <ele>37</ele>
        <time>2013-02-22T13:36:15.000Z</time>
      </trkpt>
      <trkpt lat="47.09163" lon="-0.11366">
        <ele>37</ele>
        <time>2013-02-22T13:36:19.000Z</time>
      </trkpt>
      <trkpt lat="47.09165" lon="-0.11366">
        <ele>37</ele>
        <time>2013-02-22T13:36:20.000Z</time>
      </trkpt>
      <trkpt lat="47.09168" lon="-0.11367">
        <ele>37</ele>
        <time>2013-02-22T13:36:22.000Z</time>
      </trkpt>
      <trkpt lat="47.09169" lon="-0.11368">
        <ele>37</ele>
        <time>2013-02-22T13:36:23.000Z</time>
      </trkpt>
      <trkpt lat="47.09173" lon="-0.11369">
        <ele>37</ele>
        <time>2013-02-22T13:36:26.000Z</time>
      </trkpt>
      <trkpt lat="47.09175" lon="-0.11369">
        <ele>37</ele>
        <time>2013-02-22T13:36:27.000Z</time>
      </trkpt>
      <trkpt lat="47.09178" lon="-0.1137">
        <ele>37</ele>
        <time>2013-02-22T13:36:30.000Z</time>
      </trkpt>
      <trkpt lat="47.0918" lon="-0.1137">
        <ele>37</ele>
        <time>2013-02-22T13:36:31.000Z</time>
      </trkpt>
      <trkpt lat="47.09184" lon="-0.11371">
        <ele>37</ele>
        <time>2013-02-22T13:36:34.000Z</time>
      </trkpt>
      <trkpt lat="47.09184" lon="-0.11372">
        <ele>37</ele>
        <time>2013-02-22T13:36:35.000Z</time>
      </trkpt>
      <trkpt lat="47.09186" lon="-0.11378">
        <ele>37</ele>
        <time>2013-02-22T13:36:40.000Z</time>
      </trkpt>
      <trkpt lat="47.09186" lon="-0.11379">
        <ele>37</ele>
        <time>2013-02-22T13:36:41.000Z</time>
      </trkpt>
      <trkpt lat="47.09187" lon="-0.11386">
        <ele>37</ele>
        <time>2013-02-22T13:36:51.000Z</time>
      </trkpt>
      <trkpt lat="47.09187" lon="-0.11387">
        <ele>37</ele>
        <time>2013-02-22T13:36:52.000Z</time>
      </trkpt>
      <trkpt lat="47.09187" lon="-0.11392">
        <ele>37</ele>
        <time>2013-02-22T13:36:58.000Z</time>
      </trkpt>
      <trkpt lat="47.09188" lon="-0.11394">
        <ele>37</ele>
        <time>2013-02-22T13:36:59.000Z</time>
      </trkpt>
      <trkpt lat="47.09188" lon="-0.11399">
        <ele>37</ele>
        <time>2013-02-22T13:37:02.000Z</time>
      </trkpt>
      <trkpt lat="47.09189" lon="-0.11401">
        <ele>37</ele>
        <time>2013-02-22T13:37:03.000Z</time>
      </trkpt>
      <trkpt lat="47.0919" lon="-0.11406">
        <ele>37</ele>
        <time>2013-02-22T13:37:06.000Z</time>
      </trkpt>
      <trkpt lat="47.0919" lon="-0.11408">
        <ele>37</ele>
        <time>2013-02-22T13:37:07.000Z</time>
      </trkpt>
      <trkpt lat="47.09192" lon="-0.11413">
        <ele>37</ele>
        <time>2013-02-22T13:37:14.000Z</time>
      </trkpt>
      <trkpt lat="47.09192" lon="-0.11415">
        <ele>37</ele>
        <time>2013-02-22T13:37:15.000Z</time>
      </trkpt>
      <trkpt lat="47.09191" lon="-0.1142">
        <ele>37</ele>
        <time>2013-02-22T13:37:19.000Z</time>
      </trkpt>
      <trkpt lat="47.09192" lon="-0.11422">
        <ele>37</ele>
        <time>2013-02-22T13:37:20.000Z</time>
      </trkpt>
      <trkpt lat="47.09193" lon="-0.11427">
        <ele>37</ele>
        <time>2013-02-22T13:37:23.000Z</time>
      </trkpt>
      <trkpt lat="47.09193" lon="-0.1143">
        <ele>37</ele>
        <time>2013-02-22T13:37:24.000Z</time>
      </trkpt>
      <trkpt lat="47.09194" lon="-0.11436">
        <ele>37</ele>
        <time>2013-02-22T13:37:29.000Z</time>
      </trkpt>
      <trkpt lat="47.09194" lon="-0.11437">
        <ele>37</ele>
        <time>2013-02-22T13:37:30.000Z</time>
      </trkpt>
      <trkpt lat="47.09195" lon="-0.11442">
        <ele>37</ele>
        <time>2013-02-22T13:37:33.000Z</time>
      </trkpt>
      <trkpt lat="47.09196" lon="-0.11444">
        <ele>37</ele>
        <time>2013-02-22T13:37:34.000Z</time>
      </trkpt>
      <trkpt lat="47.09196" lon="-0.11449">
        <ele>37</ele>
        <time>2013-02-22T13:37:37.000Z</time>
      </trkpt>
      <trkpt lat="47.09197" lon="-0.11452">
        <ele>37</ele>
        <time>2013-02-22T13:37:38.000Z</time>
      </trkpt>
      <trkpt lat="47.09198" lon="-0.11457">
        <ele>37</ele>
        <time>2013-02-22T13:37:42.000Z</time>
      </trkpt>
      <trkpt lat="47.09199" lon="-0.11459">
        <ele>37</ele>
        <time>2013-02-22T13:37:43.000Z</time>
      </trkpt>
      <trkpt lat="47.092" lon="-0.11464">
        <ele>37</ele>
        <time>2013-02-22T13:37:47.000Z</time>
      </trkpt>
      <trkpt lat="47.092" lon="-0.11466">
        <ele>37</ele>
        <time>2013-02-22T13:37:48.000Z</time>
      </trkpt>
      <trkpt lat="47.09201" lon="-0.11471">
        <ele>37</ele>
        <time>2013-02-22T13:37:52.000Z</time>
      </trkpt>
      <trkpt lat="47.09202" lon="-0.11473">
        <ele>37</ele>
        <time>2013-02-22T13:37:53.000Z</time>
      </trkpt>
      <trkpt lat="47.09203" lon="-0.11479">
        <ele>37</ele>
        <time>2013-02-22T13:37:57.000Z</time>
      </trkpt>
      <trkpt lat="47.09203" lon="-0.1148">
        <ele>37</ele>
        <time>2013-02-22T13:37:58.000Z</time>
      </trkpt>
      <trkpt lat="47.09203" lon="-0.11486">
        <ele>37</ele>
        <time>2013-02-22T13:38:03.000Z</time>
      </trkpt>
      <trkpt lat="47.09203" lon="-0.11487">
        <ele>37</ele>
        <time>2013-02-22T13:38:04.000Z</time>
      </trkpt>
      <trkpt lat="47.09204" lon="-0.11493">
        <ele>37</ele>
        <time>2013-02-22T13:38:09.000Z</time>
      </trkpt>
      <trkpt lat="47.09204" lon="-0.11494">
        <ele>37</ele>
        <time>2013-02-22T13:38:10.000Z</time>
      </trkpt>
      <trkpt lat="47.09205" lon="-0.11499">
        <ele>37</ele>
        <time>2013-02-22T13:38:13.000Z</time>
      </trkpt>
      <trkpt lat="47.09205" lon="-0.11502">
        <ele>37</ele>
        <time>2013-02-22T13:38:14.000Z</time>
      </trkpt>
      <trkpt lat="47.09205" lon="-0.11507">
        <ele>37</ele>
        <time>2013-02-22T13:38:17.000Z</time>
      </trkpt>
      <trkpt lat="47.09206" lon="-0.11509">
        <ele>37</ele>
        <time>2013-02-22T13:38:18.000Z</time>
      </trkpt>
      <trkpt lat="47.09205" lon="-0.11515">
        <ele>37</ele>
        <time>2013-02-22T13:38:22.000Z</time>
      </trkpt>
      <trkpt lat="47.09205" lon="-0.11516">
        <ele>37</ele>
        <time>2013-02-22T13:38:23.000Z</time>
      </trkpt>
      <trkpt lat="47.09206" lon="-0.11522">
        <ele>37</ele>
        <time>2013-02-22T13:38:27.000Z</time>
      </trkpt>
      <trkpt lat="47.09205" lon="-0.11524">
        <ele>37</ele>
        <time>2013-02-22T13:38:28.000Z</time>
      </trkpt>
      <trkpt lat="47.09206" lon="-0.11529">
        <ele>37</ele>
        <time>2013-02-22T13:38:31.000Z</time>
      </trkpt>
      <trkpt lat="47.09206" lon="-0.11532">
        <ele>37</ele>
        <time>2013-02-22T13:38:32.000Z</time>
      </trkpt>
      <trkpt lat="47.09206" lon="-0.11537">
        <ele>37</ele>
        <time>2013-02-22T13:38:34.000Z</time>
      </trkpt>
      <trkpt lat="47.09206" lon="-0.1154">
        <ele>37</ele>
        <time>2013-02-22T13:38:35.000Z</time>
      </trkpt>
      <trkpt lat="47.09206" lon="-0.11547">
        <ele>38</ele>
        <time>2013-02-22T13:38:38.000Z</time>
      </trkpt>
      <trkpt lat="47.09206" lon="-0.11548">
        <ele>38</ele>
        <time>2013-02-22T13:38:39.000Z</time>
      </trkpt>
      <trkpt lat="47.09206" lon="-0.11553">
        <ele>38</ele>
        <time>2013-02-22T13:38:42.000Z</time>
      </trkpt>
      <trkpt lat="47.09206" lon="-0.11555">
        <ele>38</ele>
        <time>2013-02-22T13:38:43.000Z</time>
      </trkpt>
      <trkpt lat="47.09205" lon="-0.11561">
        <ele>38</ele>
        <time>2013-02-22T13:38:46.000Z</time>
      </trkpt>
      <trkpt lat="47.09205" lon="-0.11563">
        <ele>38</ele>
        <time>2013-02-22T13:38:47.000Z</time>
      </trkpt>
      <trkpt lat="47.09204" lon="-0.11568">
        <ele>38</ele>
        <time>2013-02-22T13:38:49.000Z</time>
      </trkpt>
      <trkpt lat="47.09203" lon="-0.1157">
        <ele>38</ele>
        <time>2013-02-22T13:38:50.000Z</time>
      </trkpt>
      <trkpt lat="47.09203" lon="-0.11575">
        <ele>38</ele>
        <time>2013-02-22T13:38:53.000Z</time>
      </trkpt>
      <trkpt lat="47.09203" lon="-0.11577">
        <ele>38</ele>
        <time>2013-02-22T13:38:54.000Z</time>
      </trkpt>
      <trkpt lat="47.09203" lon="-0.11581">
        <ele>38</ele>
        <time>2013-02-22T13:38:56.000Z</time>
      </trkpt>
      <trkpt lat="47.09203" lon="-0.11584">
        <ele>38</ele>
        <time>2013-02-22T13:38:57.000Z</time>
      </trkpt>
      <trkpt lat="47.09203" lon="-0.11589">
        <ele>38</ele>
        <time>2013-02-22T13:39:00.000Z</time>
      </trkpt>
      <trkpt lat="47.09203" lon="-0.11591">
        <ele>38</ele>
        <time>2013-02-22T13:39:01.000Z</time>
      </trkpt>
      <trkpt lat="47.09203" lon="-0.11597">
        <ele>38</ele>
        <time>2013-02-22T13:39:04.000Z</time>
      </trkpt>
      <trkpt lat="47.09203" lon="-0.11598">
        <ele>38</ele>
        <time>2013-02-22T13:39:05.000Z</time>
      </trkpt>
      <trkpt lat="47.09204" lon="-0.11604">
        <ele>38</ele>
        <time>2013-02-22T13:39:09.000Z</time>
      </trkpt>
      <trkpt lat="47.09204" lon="-0.11606">
        <ele>38</ele>
        <time>2013-02-22T13:39:10.000Z</time>
      </trkpt>
      <trkpt lat="47.09205" lon="-0.11612">
        <ele>38</ele>
        <time>2013-02-22T13:39:13.000Z</time>
      </trkpt>
      <trkpt lat="47.09205" lon="-0.11614">
        <ele>38</ele>
        <time>2013-02-22T13:39:14.000Z</time>
      </trkpt>
      <trkpt lat="47.09206" lon="-0.11619">
        <ele>38</ele>
        <time>2013-02-22T13:39:17.000Z</time>
      </trkpt>
      <trkpt lat="47.09206" lon="-0.1162">
        <ele>38</ele>
        <time>2013-02-22T13:39:18.000Z</time>
      </trkpt>
      <trkpt lat="47.09207" lon="-0.11625">
        <ele>38</ele>
        <time>2013-02-22T13:39:22.000Z</time>
      </trkpt>
      <trkpt lat="47.09207" lon="-0.11627">
        <ele>37</ele>
        <time>2013-02-22T13:39:23.000Z</time>
      </trkpt>
      <trkpt lat="47.09208" lon="-0.11631">
        <ele>37</ele>
        <time>2013-02-22T13:39:26.000Z</time>
      </trkpt>
      <trkpt lat="47.09208" lon="-0.11633">
        <ele>37</ele>
        <time>2013-02-22T13:39:27.000Z</time>
      </trkpt>
      <trkpt lat="47.09208" lon="-0.11638">
        <ele>37</ele>
        <time>2013-02-22T13:39:32.000Z</time>
      </trkpt>
      <trkpt lat="47.09208" lon="-0.11641">
        <ele>37</ele>
        <time>2013-02-22T13:39:33.000Z</time>
      </trkpt>
      <trkpt lat="47.0921" lon="-0.11646">
        <ele>37</ele>
        <time>2013-02-22T13:39:36.000Z</time>
      </trkpt>
      <trkpt lat="47.09211" lon="-0.11648">
        <ele>37</ele>
        <time>2013-02-22T13:39:37.000Z</time>
      </trkpt>
      <trkpt lat="47.09213" lon="-0.11654">
        <ele>37</ele>
        <time>2013-02-22T13:39:41.000Z</time>
      </trkpt>
      <trkpt lat="47.09214" lon="-0.11655">
        <ele>37</ele>
        <time>2013-02-22T13:39:42.000Z</time>
      </trkpt>
      <trkpt lat="47.09215" lon="-0.11659">
        <ele>37</ele>
        <time>2013-02-22T13:39:46.000Z</time>
      </trkpt>
      <trkpt lat="47.09216" lon="-0.11661">
        <ele>37</ele>
        <time>2013-02-22T13:39:47.000Z</time>
      </trkpt>
      <trkpt lat="47.09217" lon="-0.11666">
        <ele>37</ele>
        <time>2013-02-22T13:39:51.000Z</time>
      </trkpt>
      <trkpt lat="47.09218" lon="-0.11668">
        <ele>37</ele>
        <time>2013-02-22T13:39:52.000Z</time>
      </trkpt>
      <trkpt lat="47.0922" lon="-0.11674">
        <ele>37</ele>
        <time>2013-02-22T13:39:56.000Z</time>
      </trkpt>
      <trkpt lat="47.0922" lon="-0.11675">
        <ele>37</ele>
        <time>2013-02-22T13:39:57.000Z</time>
      </trkpt>
      <trkpt lat="47.09222" lon="-0.1168">
        <ele>37</ele>
        <time>2013-02-22T13:40:01.000Z</time>
      </trkpt>
      <trkpt lat="47.09222" lon="-0.11682">
        <ele>37</ele>
        <time>2013-02-22T13:40:02.000Z</time>
      </trkpt>
      <trkpt lat="47.09223" lon="-0.11689">
        <ele>37</ele>
        <time>2013-02-22T13:40:06.000Z</time>
      </trkpt>
      <trkpt lat="47.09224" lon="-0.1169">
        <ele>37</ele>
        <time>2013-02-22T13:40:07.000Z</time>
      </trkpt>
      <trkpt lat="47.09224" lon="-0.11695">
        <ele>37</ele>
        <time>2013-02-22T13:40:10.000Z</time>
      </trkpt>
      <trkpt lat="47.09225" lon="-0.11697">
        <ele>37</ele>
        <time>2013-02-22T13:40:11.000Z</time>
      </trkpt>
      <trkpt lat="47.09225" lon="-0.11702">
        <ele>37</ele>
        <time>2013-02-22T13:40:14.000Z</time>
      </trkpt>
      <trkpt lat="47.09226" lon="-0.11704">
        <ele>37</ele>
        <time>2013-02-22T13:40:15.000Z</time>
      </trkpt>
      <trkpt lat="47.09226" lon="-0.1171">
        <ele>37</ele>
        <time>2013-02-22T13:40:18.000Z</time>
      </trkpt>
      <trkpt lat="47.09226" lon="-0.11711">
        <ele>37</ele>
        <time>2013-02-22T13:40:19.000Z</time>
      </trkpt>
      <trkpt lat="47.09227" lon="-0.11715">
        <ele>37</ele>
        <time>2013-02-22T13:40:23.000Z</time>
      </trkpt>
      <trkpt lat="47.09228" lon="-0.11718">
        <ele>37</ele>
        <time>2013-02-22T13:40:24.000Z</time>
      </trkpt>
      <trkpt lat="47.0923" lon="-0.11724">
        <ele>37</ele>
        <time>2013-02-22T13:40:27.000Z</time>
      </trkpt>
      <trkpt lat="47.09231" lon="-0.11726">
        <ele>37</ele>
        <time>2013-02-22T13:40:28.000Z</time>
      </trkpt>
      <trkpt lat="47.09233" lon="-0.11731">
        <ele>37</ele>
        <time>2013-02-22T13:40:31.000Z</time>
      </trkpt>
      <trkpt lat="47.09234" lon="-0.11732">
        <ele>37</ele>
        <time>2013-02-22T13:40:32.000Z</time>
      </trkpt>
      <trkpt lat="47.09235" lon="-0.11736">
        <ele>37</ele>
        <time>2013-02-22T13:40:34.000Z</time>
      </trkpt>
      <trkpt lat="47.09235" lon="-0.11738">
        <ele>37</ele>
        <time>2013-02-22T13:40:35.000Z</time>
      </trkpt>
      <trkpt lat="47.09236" lon="-0.11742">
        <ele>37</ele>
        <time>2013-02-22T13:40:37.000Z</time>
      </trkpt>
      <trkpt lat="47.09236" lon="-0.11744">
        <ele>38</ele>
        <time>2013-02-22T13:40:38.000Z</time>
      </trkpt>
      <trkpt lat="47.09237" lon="-0.11749">
        <ele>38</ele>
        <time>2013-02-22T13:40:40.000Z</time>
      </trkpt>
      <trkpt lat="47.09238" lon="-0.11751">
        <ele>38</ele>
        <time>2013-02-22T13:40:41.000Z</time>
      </trkpt>
      <trkpt lat="47.09239" lon="-0.11756">
        <ele>38</ele>
        <time>2013-02-22T13:40:44.000Z</time>
      </trkpt>
      <trkpt lat="47.0924" lon="-0.11758">
        <ele>38</ele>
        <time>2013-02-22T13:40:45.000Z</time>
      </trkpt>
      <trkpt lat="47.09241" lon="-0.11765">
        <ele>37</ele>
        <time>2013-02-22T13:40:48.000Z</time>
      </trkpt>
      <trkpt lat="47.09241" lon="-0.11767">
        <ele>37</ele>
        <time>2013-02-22T13:40:49.000Z</time>
      </trkpt>
      <trkpt lat="47.09241" lon="-0.11772">
        <ele>37</ele>
        <time>2013-02-22T13:40:51.000Z</time>
      </trkpt>
      <trkpt lat="47.09241" lon="-0.11774">
        <ele>37</ele>
        <time>2013-02-22T13:40:52.000Z</time>
      </trkpt>
      <trkpt lat="47.09243" lon="-0.11779">
        <ele>37</ele>
        <time>2013-02-22T13:40:55.000Z</time>
      </trkpt>
      <trkpt lat="47.09244" lon="-0.11781">
        <ele>37</ele>
        <time>2013-02-22T13:40:56.000Z</time>
      </trkpt>
      <trkpt lat="47.09246" lon="-0.11786">
        <ele>37</ele>
        <time>2013-02-22T13:41:01.000Z</time>
      </trkpt>
      <trkpt lat="47.09247" lon="-0.11788">
        <ele>37</ele>
        <time>2013-02-22T13:41:02.000Z</time>
      </trkpt>
      <trkpt lat="47.09249" lon="-0.11793">
        <ele>37</ele>
        <time>2013-02-22T13:41:05.000Z</time>
      </trkpt>
      <trkpt lat="47.0925" lon="-0.11794">
        <ele>37</ele>
        <time>2013-02-22T13:41:06.000Z</time>
      </trkpt>
      <trkpt lat="47.09252" lon="-0.11798">
        <ele>37</ele>
        <time>2013-02-22T13:41:09.000Z</time>
      </trkpt>
      <trkpt lat="47.09252" lon="-0.11801">
        <ele>37</ele>
        <time>2013-02-22T13:41:10.000Z</time>
      </trkpt>
      <trkpt lat="47.09255" lon="-0.11806">
        <ele>37</ele>
        <time>2013-02-22T13:41:13.000Z</time>
      </trkpt>
      <trkpt lat="47.09255" lon="-0.11808">
        <ele>37</ele>
        <time>2013-02-22T13:41:14.000Z</time>
      </trkpt>
      <trkpt lat="47.09257" lon="-0.11814">
        <ele>37</ele>
        <time>2013-02-22T13:41:17.000Z</time>
      </trkpt>
      <trkpt lat="47.09257" lon="-0.11815">
        <ele>37</ele>
        <time>2013-02-22T13:41:18.000Z</time>
      </trkpt>
      <trkpt lat="47.0926" lon="-0.11819">
        <ele>37</ele>
        <time>2013-02-22T13:41:21.000Z</time>
      </trkpt>
      <trkpt lat="47.09261" lon="-0.11821">
        <ele>37</ele>
        <time>2013-02-22T13:41:22.000Z</time>
      </trkpt>
      <trkpt lat="47.09262" lon="-0.11827">
        <ele>37</ele>
        <time>2013-02-22T13:41:25.000Z</time>
      </trkpt>
      <trkpt lat="47.09262" lon="-0.11828">
        <ele>37</ele>
        <time>2013-02-22T13:41:26.000Z</time>
      </trkpt>
      <trkpt lat="47.09264" lon="-0.11834">
        <ele>37</ele>
        <time>2013-02-22T13:41:30.000Z</time>
      </trkpt>
      <trkpt lat="47.09265" lon="-0.11835">
        <ele>37</ele>
        <time>2013-02-22T13:41:31.000Z</time>
      </trkpt>
      <trkpt lat="47.09267" lon="-0.1184">
        <ele>37</ele>
        <time>2013-02-22T13:41:34.000Z</time>
      </trkpt>
      <trkpt lat="47.09267" lon="-0.11842">
        <ele>37</ele>
        <time>2013-02-22T13:41:35.000Z</time>
      </trkpt>
      <trkpt lat="47.09268" lon="-0.11848">
        <ele>37</ele>
        <time>2013-02-22T13:41:38.000Z</time>
      </trkpt>
      <trkpt lat="47.09268" lon="-0.11849">
        <ele>37</ele>
        <time>2013-02-22T13:41:39.000Z</time>
      </trkpt>
      <trkpt lat="47.0927" lon="-0.11854">
        <ele>37</ele>
        <time>2013-02-22T13:41:42.000Z</time>
      </trkpt>
      <trkpt lat="47.09271" lon="-0.11855">
        <ele>37</ele>
        <time>2013-02-22T13:41:43.000Z</time>
      </trkpt>
      <trkpt lat="47.09273" lon="-0.11859">
        <ele>37</ele>
        <time>2013-02-22T13:41:45.000Z</time>
      </trkpt>
      <trkpt lat="47.09273" lon="-0.11862">
        <ele>37</ele>
        <time>2013-02-22T13:41:46.000Z</time>
      </trkpt>
      <trkpt lat="47.09274" lon="-0.11866">
        <ele>37</ele>
        <time>2013-02-22T13:41:48.000Z</time>
      </trkpt>
      <trkpt lat="47.09274" lon="-0.11868">
        <ele>37</ele>
        <time>2013-02-22T13:41:49.000Z</time>
      </trkpt>
      <trkpt lat="47.09275" lon="-0.11874">
        <ele>37</ele>
        <time>2013-02-22T13:41:53.000Z</time>
      </trkpt>
      <trkpt lat="47.09276" lon="-0.11875">
        <ele>37</ele>
        <time>2013-02-22T13:41:54.000Z</time>
      </trkpt>
      <trkpt lat="47.09277" lon="-0.11881">
        <ele>37</ele>
        <time>2013-02-22T13:42:00.000Z</time>
      </trkpt>
      <trkpt lat="47.09277" lon="-0.11882">
        <ele>37</ele>
        <time>2013-02-22T13:42:01.000Z</time>
      </trkpt>
      <trkpt lat="47.09279" lon="-0.11886">
        <ele>37</ele>
        <time>2013-02-22T13:42:05.000Z</time>
      </trkpt>
      <trkpt lat="47.0928" lon="-0.11887">
        <ele>37</ele>
        <time>2013-02-22T13:42:06.000Z</time>
      </trkpt>
      <trkpt lat="47.09281" lon="-0.11892">
        <ele>37</ele>
        <time>2013-02-22T13:42:09.000Z</time>
      </trkpt>
      <trkpt lat="47.09282" lon="-0.11894">
        <ele>37</ele>
        <time>2013-02-22T13:42:10.000Z</time>
      </trkpt>
      <trkpt lat="47.09283" lon="-0.11898">
        <ele>37</ele>
        <time>2013-02-22T13:42:12.000Z</time>
      </trkpt>
      <trkpt lat="47.09284" lon="-0.119">
        <ele>37</ele>
        <time>2013-02-22T13:42:13.000Z</time>
      </trkpt>
      <trkpt lat="47.09284" lon="-0.11906">
        <ele>37</ele>
        <time>2013-02-22T13:42:16.000Z</time>
      </trkpt>
      <trkpt lat="47.09285" lon="-0.11909">
        <ele>37</ele>
        <time>2013-02-22T13:42:17.000Z</time>
      </trkpt>
      <trkpt lat="47.09286" lon="-0.11915">
        <ele>37</ele>
        <time>2013-02-22T13:42:20.000Z</time>
      </trkpt>
      <trkpt lat="47.09286" lon="-0.11916">
        <ele>37</ele>
        <time>2013-02-22T13:42:21.000Z</time>
      </trkpt>
      <trkpt lat="47.09288" lon="-0.11921">
        <ele>37</ele>
        <time>2013-02-22T13:42:25.000Z</time>
      </trkpt>
      <trkpt lat="47.09288" lon="-0.11923">
        <ele>37</ele>
        <time>2013-02-22T13:42:26.000Z</time>
      </trkpt>
      <trkpt lat="47.0929" lon="-0.11928">
        <ele>37</ele>
        <time>2013-02-22T13:42:29.000Z</time>
      </trkpt>
      <trkpt lat="47.09291" lon="-0.1193">
        <ele>37</ele>
        <time>2013-02-22T13:42:30.000Z</time>
      </trkpt>
      <trkpt lat="47.09292" lon="-0.11937">
        <ele>37</ele>
        <time>2013-02-22T13:42:33.000Z</time>
      </trkpt>
      <trkpt lat="47.09292" lon="-0.1194">
        <ele>37</ele>
        <time>2013-02-22T13:42:34.000Z</time>
      </trkpt>
      <trkpt lat="47.09291" lon="-0.11945">
        <ele>37</ele>
        <time>2013-02-22T13:42:37.000Z</time>
      </trkpt>
      <trkpt lat="47.09291" lon="-0.11948">
        <ele>37</ele>
        <time>2013-02-22T13:42:38.000Z</time>
      </trkpt>
      <trkpt lat="47.09291" lon="-0.11953">
        <ele>37</ele>
        <time>2013-02-22T13:42:41.000Z</time>
      </trkpt>
      <trkpt lat="47.09291" lon="-0.11955">
        <ele>37</ele>
        <time>2013-02-22T13:42:42.000Z</time>
      </trkpt>
      <trkpt lat="47.09291" lon="-0.11961">
        <ele>38</ele>
        <time>2013-02-22T13:42:45.000Z</time>
      </trkpt>
      <trkpt lat="47.09291" lon="-0.11964">
        <ele>38</ele>
        <time>2013-02-22T13:42:46.000Z</time>
      </trkpt>
      <trkpt lat="47.09291" lon="-0.11967">
        <ele>38</ele>
        <time>2013-02-22T13:42:47.000Z</time>
      </trkpt>
      <trkpt lat="47.09292" lon="-0.1197">
        <ele>38</ele>
        <time>2013-02-22T13:42:48.000Z</time>
      </trkpt>
      <trkpt lat="47.09292" lon="-0.11974">
        <ele>38</ele>
        <time>2013-02-22T13:42:50.000Z</time>
      </trkpt>
      <trkpt lat="47.09292" lon="-0.11977">
        <ele>38</ele>
        <time>2013-02-22T13:42:51.000Z</time>
      </trkpt>
      <trkpt lat="47.09292" lon="-0.11982">
        <ele>38</ele>
        <time>2013-02-22T13:42:54.000Z</time>
      </trkpt>
      <trkpt lat="47.09292" lon="-0.11984">
        <ele>38</ele>
        <time>2013-02-22T13:42:55.000Z</time>
      </trkpt>
      <trkpt lat="47.09292" lon="-0.11989">
        <ele>38</ele>
        <time>2013-02-22T13:42:58.000Z</time>
      </trkpt>
      <trkpt lat="47.09292" lon="-0.11991">
        <ele>38</ele>
        <time>2013-02-22T13:42:59.000Z</time>
      </trkpt>
      <trkpt lat="47.09293" lon="-0.11997">
        <ele>38</ele>
        <time>2013-02-22T13:43:02.000Z</time>
      </trkpt>
      <trkpt lat="47.09294" lon="-0.11999">
        <ele>38</ele>
        <time>2013-02-22T13:43:03.000Z</time>
      </trkpt>
      <trkpt lat="47.09295" lon="-0.12004">
        <ele>38</ele>
        <time>2013-02-22T13:43:05.000Z</time>
      </trkpt>
      <trkpt lat="47.09295" lon="-0.12006">
        <ele>38</ele>
        <time>2013-02-22T13:43:06.000Z</time>
      </trkpt>
      <trkpt lat="47.09296" lon="-0.12012">
        <ele>38</ele>
        <time>2013-02-22T13:43:09.000Z</time>
      </trkpt>
      <trkpt lat="47.09297" lon="-0.12014">
        <ele>38</ele>
        <time>2013-02-22T13:43:10.000Z</time>
      </trkpt>
      <trkpt lat="47.09298" lon="-0.12019">
        <ele>38</ele>
        <time>2013-02-22T13:43:12.000Z</time>
      </trkpt>
      <trkpt lat="47.09298" lon="-0.12021">
        <ele>38</ele>
        <time>2013-02-22T13:43:13.000Z</time>
      </trkpt>
      <trkpt lat="47.09299" lon="-0.12027">
        <ele>38</ele>
        <time>2013-02-22T13:43:17.000Z</time>
      </trkpt>
      <trkpt lat="47.09299" lon="-0.12028">
        <ele>38</ele>
        <time>2013-02-22T13:43:18.000Z</time>
      </trkpt>
      <trkpt lat="47.09299" lon="-0.12033">
        <ele>38</ele>
        <time>2013-02-22T13:43:21.000Z</time>
      </trkpt>
      <trkpt lat="47.09299" lon="-0.12035">
        <ele>38</ele>
        <time>2013-02-22T13:43:22.000Z</time>
      </trkpt>
      <trkpt lat="47.09299" lon="-0.1204">
        <ele>38</ele>
        <time>2013-02-22T13:43:24.000Z</time>
      </trkpt>
      <trkpt lat="47.093" lon="-0.12042">
        <ele>37</ele>
        <time>2013-02-22T13:43:25.000Z</time>
      </trkpt>
      <trkpt lat="47.09301" lon="-0.12047">
        <ele>37</ele>
        <time>2013-02-22T13:43:27.000Z</time>
      </trkpt>
      <trkpt lat="47.09302" lon="-0.12049">
        <ele>37</ele>
        <time>2013-02-22T13:43:28.000Z</time>
      </trkpt>
      <trkpt lat="47.09304" lon="-0.12054">
        <ele>37</ele>
        <time>2013-02-22T13:43:34.000Z</time>
      </trkpt>
      <trkpt lat="47.09304" lon="-0.12056">
        <ele>37</ele>
        <time>2013-02-22T13:43:35.000Z</time>
      </trkpt>
      <trkpt lat="47.09306" lon="-0.12061">
        <ele>37</ele>
        <time>2013-02-22T13:43:39.000Z</time>
      </trkpt>
      <trkpt lat="47.09307" lon="-0.12063">
        <ele>37</ele>
        <time>2013-02-22T13:43:40.000Z</time>
      </trkpt>
      <trkpt lat="47.09309" lon="-0.12067">
        <ele>37</ele>
        <time>2013-02-22T13:43:42.000Z</time>
      </trkpt>
      <trkpt lat="47.0931" lon="-0.12068">
        <ele>37</ele>
        <time>2013-02-22T13:43:43.000Z</time>
      </trkpt>
      <trkpt lat="47.09311" lon="-0.12074">
        <ele>37</ele>
        <time>2013-02-22T13:43:48.000Z</time>
      </trkpt>
      <trkpt lat="47.09312" lon="-0.12075">
        <ele>37</ele>
        <time>2013-02-22T13:43:49.000Z</time>
      </trkpt>
      <trkpt lat="47.09313" lon="-0.1208">
        <ele>37</ele>
        <time>2013-02-22T13:43:54.000Z</time>
      </trkpt>
      <trkpt lat="47.09314" lon="-0.12082">
        <ele>37</ele>
        <time>2013-02-22T13:43:55.000Z</time>
      </trkpt>
      <trkpt lat="47.09315" lon="-0.12088">
        <ele>37</ele>
        <time>2013-02-22T13:43:58.000Z</time>
      </trkpt>
      <trkpt lat="47.09315" lon="-0.1209">
        <ele>37</ele>
        <time>2013-02-22T13:43:59.000Z</time>
      </trkpt>
      <trkpt lat="47.09315" lon="-0.12095">
        <ele>37</ele>
        <time>2013-02-22T13:44:02.000Z</time>
      </trkpt>
      <trkpt lat="47.09315" lon="-0.12098">
        <ele>37</ele>
        <time>2013-02-22T13:44:03.000Z</time>
      </trkpt>
      <trkpt lat="47.09316" lon="-0.12104">
        <ele>37</ele>
        <time>2013-02-22T13:44:07.000Z</time>
      </trkpt>
      <trkpt lat="47.09316" lon="-0.12105">
        <ele>37</ele>
        <time>2013-02-22T13:44:08.000Z</time>
      </trkpt>
      <trkpt lat="47.09318" lon="-0.1211">
        <ele>37</ele>
        <time>2013-02-22T13:44:11.000Z</time>
      </trkpt>
      <trkpt lat="47.09319" lon="-0.12112">
        <ele>37</ele>
        <time>2013-02-22T13:44:12.000Z</time>
      </trkpt>
      <trkpt lat="47.0932" lon="-0.12117">
        <ele>37</ele>
        <time>2013-02-22T13:44:14.000Z</time>
      </trkpt>
      <trkpt lat="47.0932" lon="-0.12119">
        <ele>37</ele>
        <time>2013-02-22T13:44:15.000Z</time>
      </trkpt>
      <trkpt lat="47.09321" lon="-0.12124">
        <ele>37</ele>
        <time>2013-02-22T13:44:17.000Z</time>
      </trkpt>
      <trkpt lat="47.09322" lon="-0.12126">
        <ele>37</ele>
        <time>2013-02-22T13:44:18.000Z</time>
      </trkpt>
      <trkpt lat="47.09321" lon="-0.12132">
        <ele>37</ele>
        <time>2013-02-22T13:44:21.000Z</time>
      </trkpt>
      <trkpt lat="47.09321" lon="-0.12133">
        <ele>37</ele>
        <time>2013-02-22T13:44:22.000Z</time>
      </trkpt>
      <trkpt lat="47.09322" lon="-0.12139">
        <ele>37</ele>
        <time>2013-02-22T13:44:26.000Z</time>
      </trkpt>
      <trkpt lat="47.09323" lon="-0.12141">
        <ele>37</ele>
        <time>2013-02-22T13:44:27.000Z</time>
      </trkpt>
      <trkpt lat="47.09323" lon="-0.12145">
        <ele>37</ele>
        <time>2013-02-22T13:44:30.000Z</time>
      </trkpt>
      <trkpt lat="47.09323" lon="-0.12148">
        <ele>37</ele>
        <time>2013-02-22T13:44:31.000Z</time>
      </trkpt>
      <trkpt lat="47.09324" lon="-0.12154">
        <ele>37</ele>
        <time>2013-02-22T13:44:34.000Z</time>
      </trkpt>
      <trkpt lat="47.09324" lon="-0.12156">
        <ele>37</ele>
        <time>2013-02-22T13:44:35.000Z</time>
      </trkpt>
      <trkpt lat="47.09325" lon="-0.12162">
        <ele>37</ele>
        <time>2013-02-22T13:44:39.000Z</time>
      </trkpt>
      <trkpt lat="47.09325" lon="-0.12164">
        <ele>37</ele>
        <time>2013-02-22T13:44:40.000Z</time>
      </trkpt>
      <trkpt lat="47.09326" lon="-0.12168">
        <ele>37</ele>
        <time>2013-02-22T13:44:42.000Z</time>
      </trkpt>
      <trkpt lat="47.09327" lon="-0.1217">
        <ele>37</ele>
        <time>2013-02-22T13:44:43.000Z</time>
      </trkpt>
      <trkpt lat="47.09328" lon="-0.12174">
        <ele>37</ele>
        <time>2013-02-22T13:44:45.000Z</time>
      </trkpt>
      <trkpt lat="47.09329" lon="-0.12177">
        <ele>37</ele>
        <time>2013-02-22T13:44:46.000Z</time>
      </trkpt>
      <trkpt lat="47.0933" lon="-0.12182">
        <ele>37</ele>
        <time>2013-02-22T13:44:48.000Z</time>
      </trkpt>
      <trkpt lat="47.09331" lon="-0.12183">
        <ele>37</ele>
        <time>2013-02-22T13:44:49.000Z</time>
      </trkpt>
      <trkpt lat="47.09333" lon="-0.12188">
        <ele>37</ele>
        <time>2013-02-22T13:44:53.000Z</time>
      </trkpt>
      <trkpt lat="47.09333" lon="-0.12189">
        <ele>37</ele>
        <time>2013-02-22T13:44:54.000Z</time>
      </trkpt>
      <trkpt lat="47.09335" lon="-0.12194">
        <ele>37</ele>
        <time>2013-02-22T13:45:01.000Z</time>
      </trkpt>
      <trkpt lat="47.09335" lon="-0.12196">
        <ele>37</ele>
        <time>2013-02-22T13:45:02.000Z</time>
      </trkpt>
      <trkpt lat="47.09336" lon="-0.12201">
        <ele>37</ele>
        <time>2013-02-22T13:45:05.000Z</time>
      </trkpt>
      <trkpt lat="47.09336" lon="-0.12202">
        <ele>37</ele>
        <time>2013-02-22T13:45:06.000Z</time>
      </trkpt>
      <trkpt lat="47.09336" lon="-0.12208">
        <ele>37</ele>
        <time>2013-02-22T13:45:10.000Z</time>
      </trkpt>
      <trkpt lat="47.09337" lon="-0.1221">
        <ele>37</ele>
        <time>2013-02-22T13:45:11.000Z</time>
      </trkpt>
      <trkpt lat="47.09337" lon="-0.12214">
        <ele>37</ele>
        <time>2013-02-22T13:45:13.000Z</time>
      </trkpt>
      <trkpt lat="47.09337" lon="-0.12218">
        <ele>37</ele>
        <time>2013-02-22T13:45:14.000Z</time>
      </trkpt>
      <trkpt lat="47.09338" lon="-0.12224">
        <ele>37</ele>
        <time>2013-02-22T13:45:16.000Z</time>
      </trkpt>
      <trkpt lat="47.09338" lon="-0.12226">
        <ele>37</ele>
        <time>2013-02-22T13:45:17.000Z</time>
      </trkpt>
      <trkpt lat="47.09338" lon="-0.12232">
        <ele>37</ele>
        <time>2013-02-22T13:45:20.000Z</time>
      </trkpt>
      <trkpt lat="47.09339" lon="-0.12233">
        <ele>37</ele>
        <time>2013-02-22T13:45:21.000Z</time>
      </trkpt>
      <trkpt lat="47.09339" lon="-0.12238">
        <ele>37</ele>
        <time>2013-02-22T13:45:24.000Z</time>
      </trkpt>
      <trkpt lat="47.09339" lon="-0.1224">
        <ele>37</ele>
        <time>2013-02-22T13:45:25.000Z</time>
      </trkpt>
      <trkpt lat="47.0934" lon="-0.12245">
        <ele>37</ele>
        <time>2013-02-22T13:45:27.000Z</time>
      </trkpt>
      <trkpt lat="47.09339" lon="-0.12248">
        <ele>37</ele>
        <time>2013-02-22T13:45:28.000Z</time>
      </trkpt>
      <trkpt lat="47.09339" lon="-0.12255">
        <ele>37</ele>
        <time>2013-02-22T13:45:30.000Z</time>
      </trkpt>
      <trkpt lat="47.09338" lon="-0.12257">
        <ele>37</ele>
        <time>2013-02-22T13:45:31.000Z</time>
      </trkpt>
      <trkpt lat="47.09339" lon="-0.12263">
        <ele>37</ele>
        <time>2013-02-22T13:45:34.000Z</time>
      </trkpt>
      <trkpt lat="47.09339" lon="-0.12264">
        <ele>37</ele>
        <time>2013-02-22T13:45:35.000Z</time>
      </trkpt>
      <trkpt lat="47.09339" lon="-0.12271">
        <ele>37</ele>
        <time>2013-02-22T13:45:39.000Z</time>
      </trkpt>
      <trkpt lat="47.09339" lon="-0.12272">
        <ele>37</ele>
        <time>2013-02-22T13:45:40.000Z</time>
      </trkpt>
      <trkpt lat="47.0934" lon="-0.12278">
        <ele>37</ele>
        <time>2013-02-22T13:45:43.000Z</time>
      </trkpt>
      <trkpt lat="47.0934" lon="-0.1228">
        <ele>37</ele>
        <time>2013-02-22T13:45:44.000Z</time>
      </trkpt>
      <trkpt lat="47.09341" lon="-0.12284">
        <ele>37</ele>
        <time>2013-02-22T13:45:46.000Z</time>
      </trkpt>
      <trkpt lat="47.09341" lon="-0.12287">
        <ele>37</ele>
        <time>2013-02-22T13:45:47.000Z</time>
      </trkpt>
      <trkpt lat="47.09341" lon="-0.12292">
        <ele>37</ele>
        <time>2013-02-22T13:45:49.000Z</time>
      </trkpt>
      <trkpt lat="47.09341" lon="-0.12294">
        <ele>37</ele>
        <time>2013-02-22T13:45:50.000Z</time>
      </trkpt>
      <trkpt lat="47.0934" lon="-0.12298">
        <ele>37</ele>
        <time>2013-02-22T13:45:52.000Z</time>
      </trkpt>
      <trkpt lat="47.0934" lon="-0.123">
        <ele>37</ele>
        <time>2013-02-22T13:45:53.000Z</time>
      </trkpt>
      <trkpt lat="47.09339" lon="-0.12305">
        <ele>37</ele>
        <time>2013-02-22T13:45:55.000Z</time>
      </trkpt>
      <trkpt lat="47.09339" lon="-0.12307">
        <ele>37</ele>
        <time>2013-02-22T13:45:56.000Z</time>
      </trkpt>
      <trkpt lat="47.0934" lon="-0.12314">
        <ele>37</ele>
        <time>2013-02-22T13:45:59.000Z</time>
      </trkpt>
      <trkpt lat="47.0934" lon="-0.12316">
        <ele>37</ele>
        <time>2013-02-22T13:46:00.000Z</time>
      </trkpt>
      <trkpt lat="47.0934" lon="-0.12321">
        <ele>37</ele>
        <time>2013-02-22T13:46:03.000Z</time>
      </trkpt>
      <trkpt lat="47.0934" lon="-0.12323">
        <ele>37</ele>
        <time>2013-02-22T13:46:04.000Z</time>
      </trkpt>
      <trkpt lat="47.09339" lon="-0.12328">
        <ele>37</ele>
        <time>2013-02-22T13:46:08.000Z</time>
      </trkpt>
      <trkpt lat="47.09339" lon="-0.12329">
        <ele>37</ele>
        <time>2013-02-22T13:46:09.000Z</time>
      </trkpt>
      <trkpt lat="47.0934" lon="-0.12336">
        <ele>37</ele>
        <time>2013-02-22T13:46:13.000Z</time>
      </trkpt>
      <trkpt lat="47.0934" lon="-0.12337">
        <ele>37</ele>
        <time>2013-02-22T13:46:14.000Z</time>
      </trkpt>
      <trkpt lat="47.09341" lon="-0.12342">
        <ele>37</ele>
        <time>2013-02-22T13:46:17.000Z</time>
      </trkpt>
      <trkpt lat="47.09341" lon="-0.12345">
        <ele>37</ele>
        <time>2013-02-22T13:46:18.000Z</time>
      </trkpt>
      <trkpt lat="47.09342" lon="-0.1235">
        <ele>37</ele>
        <time>2013-02-22T13:46:22.000Z</time>
      </trkpt>
      <trkpt lat="47.09343" lon="-0.12351">
        <ele>37</ele>
        <time>2013-02-22T13:46:23.000Z</time>
      </trkpt>
      <trkpt lat="47.09343" lon="-0.12357">
        <ele>37</ele>
        <time>2013-02-22T13:46:27.000Z</time>
      </trkpt>
      <trkpt lat="47.09343" lon="-0.12359">
        <ele>37</ele>
        <time>2013-02-22T13:46:28.000Z</time>
      </trkpt>
      <trkpt lat="47.09342" lon="-0.12364">
        <ele>37</ele>
        <time>2013-02-22T13:46:31.000Z</time>
      </trkpt>
      <trkpt lat="47.09342" lon="-0.12366">
        <ele>37</ele>
        <time>2013-02-22T13:46:32.000Z</time>
      </trkpt>
      <trkpt lat="47.09342" lon="-0.12372">
        <ele>37</ele>
        <time>2013-02-22T13:46:36.000Z</time>
      </trkpt>
      <trkpt lat="47.09342" lon="-0.12374">
        <ele>37</ele>
        <time>2013-02-22T13:46:37.000Z</time>
      </trkpt>
      <trkpt lat="47.09343" lon="-0.12379">
        <ele>37</ele>
        <time>2013-02-22T13:46:40.000Z</time>
      </trkpt>
      <trkpt lat="47.09343" lon="-0.12381">
        <ele>37</ele>
        <time>2013-02-22T13:46:41.000Z</time>
      </trkpt>
      <trkpt lat="47.09343" lon="-0.12387">
        <ele>37</ele>
        <time>2013-02-22T13:46:44.000Z</time>
      </trkpt>
      <trkpt lat="47.09343" lon="-0.12389">
        <ele>37</ele>
        <time>2013-02-22T13:46:45.000Z</time>
      </trkpt>
      <trkpt lat="47.09343" lon="-0.12394">
        <ele>37</ele>
        <time>2013-02-22T13:46:49.000Z</time>
      </trkpt>
      <trkpt lat="47.09343" lon="-0.12395">
        <ele>37</ele>
        <time>2013-02-22T13:46:50.000Z</time>
      </trkpt>
      <trkpt lat="47.09345" lon="-0.12401">
        <ele>37</ele>
        <time>2013-02-22T13:46:55.000Z</time>
      </trkpt>
      <trkpt lat="47.09345" lon="-0.12403">
        <ele>37</ele>
        <time>2013-02-22T13:46:56.000Z</time>
      </trkpt>
      <trkpt lat="47.09347" lon="-0.12408">
        <ele>37</ele>
        <time>2013-02-22T13:46:59.000Z</time>
      </trkpt>
      <trkpt lat="47.09347" lon="-0.12409">
        <ele>37</ele>
        <time>2013-02-22T13:47:00.000Z</time>
      </trkpt>
      <trkpt lat="47.09347" lon="-0.12415">
        <ele>37</ele>
        <time>2013-02-22T13:47:04.000Z</time>
      </trkpt>
      <trkpt lat="47.09347" lon="-0.12416">
        <ele>37</ele>
        <time>2013-02-22T13:47:05.000Z</time>
      </trkpt>
      <trkpt lat="47.09347" lon="-0.12423">
        <ele>37</ele>
        <time>2013-02-22T13:47:08.000Z</time>
      </trkpt>
      <trkpt lat="47.09347" lon="-0.12424">
        <ele>37</ele>
        <time>2013-02-22T13:47:09.000Z</time>
      </trkpt>
      <trkpt lat="47.09347" lon="-0.1243">
        <ele>38</ele>
        <time>2013-02-22T13:47:14.000Z</time>
      </trkpt>
      <trkpt lat="47.09347" lon="-0.12432">
        <ele>38</ele>
        <time>2013-02-22T13:47:15.000Z</time>
      </trkpt>
      <trkpt lat="47.09348" lon="-0.12438">
        <ele>38</ele>
        <time>2013-02-22T13:47:19.000Z</time>
      </trkpt>
      <trkpt lat="47.09348" lon="-0.1244">
        <ele>38</ele>
        <time>2013-02-22T13:47:20.000Z</time>
      </trkpt>
      <trkpt lat="47.09348" lon="-0.12445">
        <ele>38</ele>
        <time>2013-02-22T13:47:24.000Z</time>
      </trkpt>
      <trkpt lat="47.09348" lon="-0.12447">
        <ele>38</ele>
        <time>2013-02-22T13:47:25.000Z</time>
      </trkpt>
      <trkpt lat="47.09349" lon="-0.12453">
        <ele>38</ele>
        <time>2013-02-22T13:47:29.000Z</time>
      </trkpt>
      <trkpt lat="47.09349" lon="-0.12454">
        <ele>38</ele>
        <time>2013-02-22T13:47:30.000Z</time>
      </trkpt>
      <trkpt lat="47.09349" lon="-0.1246">
        <ele>38</ele>
        <time>2013-02-22T13:47:34.000Z</time>
      </trkpt>
      <trkpt lat="47.0935" lon="-0.12462">
        <ele>38</ele>
        <time>2013-02-22T13:47:35.000Z</time>
      </trkpt>
      <trkpt lat="47.0935" lon="-0.12468">
        <ele>38</ele>
        <time>2013-02-22T13:47:38.000Z</time>
      </trkpt>
      <trkpt lat="47.0935" lon="-0.1247">
        <ele>38</ele>
        <time>2013-02-22T13:47:39.000Z</time>
      </trkpt>
      <trkpt lat="47.09349" lon="-0.12476">
        <ele>38</ele>
        <time>2013-02-22T13:47:42.000Z</time>
      </trkpt>
      <trkpt lat="47.09349" lon="-0.12478">
        <ele>38</ele>
        <time>2013-02-22T13:47:43.000Z</time>
      </trkpt>
      <trkpt lat="47.09349" lon="-0.12484">
        <ele>38</ele>
        <time>2013-02-22T13:47:47.000Z</time>
      </trkpt>
      <trkpt lat="47.09349" lon="-0.12486">
        <ele>38</ele>
        <time>2013-02-22T13:47:48.000Z</time>
      </trkpt>
      <trkpt lat="47.09349" lon="-0.12492">
        <ele>39</ele>
        <time>2013-02-22T13:47:51.000Z</time>
      </trkpt>
      <trkpt lat="47.09349" lon="-0.12494">
        <ele>39</ele>
        <time>2013-02-22T13:47:52.000Z</time>
      </trkpt>
      <trkpt lat="47.09347" lon="-0.125">
        <ele>39</ele>
        <time>2013-02-22T13:47:55.000Z</time>
      </trkpt>
      <trkpt lat="47.09347" lon="-0.12502">
        <ele>39</ele>
        <time>2013-02-22T13:47:56.000Z</time>
      </trkpt>
      <trkpt lat="47.09347" lon="-0.12507">
        <ele>39</ele>
        <time>2013-02-22T13:47:58.000Z</time>
      </trkpt>
      <trkpt lat="47.09346" lon="-0.12509">
        <ele>39</ele>
        <time>2013-02-22T13:47:59.000Z</time>
      </trkpt>
      <trkpt lat="47.09344" lon="-0.12513">
        <ele>39</ele>
        <time>2013-02-22T13:48:01.000Z</time>
      </trkpt>
      <trkpt lat="47.09343" lon="-0.12516">
        <ele>39</ele>
        <time>2013-02-22T13:48:02.000Z</time>
      </trkpt>
      <trkpt lat="47.09341" lon="-0.1252">
        <ele>39</ele>
        <time>2013-02-22T13:48:04.000Z</time>
      </trkpt>
      <trkpt lat="47.0934" lon="-0.12522">
        <ele>39</ele>
        <time>2013-02-22T13:48:05.000Z</time>
      </trkpt>
      <trkpt lat="47.09337" lon="-0.12525">
        <ele>39</ele>
        <time>2013-02-22T13:48:08.000Z</time>
      </trkpt>
      <trkpt lat="47.09337" lon="-0.12526">
        <ele>39</ele>
        <time>2013-02-22T13:48:09.000Z</time>
      </trkpt>
      <trkpt lat="47.09333" lon="-0.12529">
        <ele>39</ele>
        <time>2013-02-22T13:48:12.000Z</time>
      </trkpt>
      <trkpt lat="47.09332" lon="-0.1253">
        <ele>39</ele>
        <time>2013-02-22T13:48:13.000Z</time>
      </trkpt>
      <trkpt lat="47.0933" lon="-0.12534">
        <ele>39</ele>
        <time>2013-02-22T13:48:19.000Z</time>
      </trkpt>
      <trkpt lat="47.09328" lon="-0.12534">
        <ele>39</ele>
        <time>2013-02-22T13:48:20.000Z</time>
      </trkpt>
      <trkpt lat="47.09325" lon="-0.12539">
        <ele>39</ele>
        <time>2013-02-22T13:48:25.000Z</time>
      </trkpt>
      <trkpt lat="47.09325" lon="-0.12539">
        <ele>39</ele>
        <time>2013-02-22T13:48:26.000Z</time>
      </trkpt>
      <trkpt lat="47.09322" lon="-0.12544">
        <ele>39</ele>
        <time>2013-02-22T13:48:30.000Z</time>
      </trkpt>
      <trkpt lat="47.09322" lon="-0.12545">
        <ele>39</ele>
        <time>2013-02-22T13:48:31.000Z</time>
      </trkpt>
      <trkpt lat="47.0932" lon="-0.12551">
        <ele>39</ele>
        <time>2013-02-22T13:48:35.000Z</time>
      </trkpt>
      <trkpt lat="47.09319" lon="-0.12552">
        <ele>39</ele>
        <time>2013-02-22T13:48:36.000Z</time>
      </trkpt>
      <trkpt lat="47.09316" lon="-0.12555">
        <ele>39</ele>
        <time>2013-02-22T13:48:39.000Z</time>
      </trkpt>
      <trkpt lat="47.09315" lon="-0.12556">
        <ele>39</ele>
        <time>2013-02-22T13:48:40.000Z</time>
      </trkpt>
      <trkpt lat="47.09312" lon="-0.1256">
        <ele>39</ele>
        <time>2013-02-22T13:48:43.000Z</time>
      </trkpt>
      <trkpt lat="47.09312" lon="-0.12561">
        <ele>39</ele>
        <time>2013-02-22T13:48:44.000Z</time>
      </trkpt>
      <trkpt lat="47.09309" lon="-0.12564">
        <ele>39</ele>
        <time>2013-02-22T13:48:48.000Z</time>
      </trkpt>
      <trkpt lat="47.09308" lon="-0.12565">
        <ele>39</ele>
        <time>2013-02-22T13:48:49.000Z</time>
      </trkpt>
      <trkpt lat="47.09305" lon="-0.12568">
        <ele>39</ele>
        <time>2013-02-22T13:48:52.000Z</time>
      </trkpt>
      <trkpt lat="47.09304" lon="-0.12569">
        <ele>39</ele>
        <time>2013-02-22T13:48:53.000Z</time>
      </trkpt>
      <trkpt lat="47.09299" lon="-0.1257">
        <ele>39</ele>
        <time>2013-02-22T13:48:57.000Z</time>
      </trkpt>
      <trkpt lat="47.09299" lon="-0.12572">
        <ele>39</ele>
        <time>2013-02-22T13:48:58.000Z</time>
      </trkpt>
      <trkpt lat="47.09295" lon="-0.12573">
        <ele>39</ele>
        <time>2013-02-22T13:49:01.000Z</time>
      </trkpt>
      <trkpt lat="47.09294" lon="-0.12574">
        <ele>39</ele>
        <time>2013-02-22T13:49:02.000Z</time>
      </trkpt>
      <trkpt lat="47.09291" lon="-0.12577">
        <ele>39</ele>
        <time>2013-02-22T13:49:05.000Z</time>
      </trkpt>
      <trkpt lat="47.09289" lon="-0.12577">
        <ele>39</ele>
        <time>2013-02-22T13:49:06.000Z</time>
      </trkpt>
      <trkpt lat="47.09285" lon="-0.1258">
        <ele>39</ele>
        <time>2013-02-22T13:49:11.000Z</time>
      </trkpt>
      <trkpt lat="47.09284" lon="-0.12581">
        <ele>39</ele>
        <time>2013-02-22T13:49:12.000Z</time>
      </trkpt>
      <trkpt lat="47.09282" lon="-0.12587">
        <ele>40</ele>
        <time>2013-02-22T13:49:15.000Z</time>
      </trkpt>
      <trkpt lat="47.0928" lon="-0.12588">
        <ele>40</ele>
        <time>2013-02-22T13:49:16.000Z</time>
      </trkpt>
      <trkpt lat="47.09279" lon="-0.12592">
        <ele>40</ele>
        <time>2013-02-22T13:49:17.000Z</time>
      </trkpt>
      <trkpt lat="47.09278" lon="-0.12595">
        <ele>40</ele>
        <time>2013-02-22T13:49:18.000Z</time>
      </trkpt>
      <trkpt lat="47.09276" lon="-0.12599">
        <ele>40</ele>
        <time>2013-02-22T13:49:20.000Z</time>
      </trkpt>
      <trkpt lat="47.09274" lon="-0.12601">
        <ele>40</ele>
        <time>2013-02-22T13:49:21.000Z</time>
      </trkpt>
      <trkpt lat="47.09271" lon="-0.12602">
        <ele>40</ele>
        <time>2013-02-22T13:49:22.000Z</time>
      </trkpt>
      <trkpt lat="47.0927" lon="-0.12603">
        <ele>40</ele>
        <time>2013-02-22T13:49:23.000Z</time>
      </trkpt>
      <trkpt lat="47.09268" lon="-0.12607">
        <ele>40</ele>
        <time>2013-02-22T13:49:26.000Z</time>
      </trkpt>
      <trkpt lat="47.09267" lon="-0.12608">
        <ele>40</ele>
        <time>2013-02-22T13:49:27.000Z</time>
      </trkpt>
      <trkpt lat="47.09265" lon="-0.12614">
        <ele>40</ele>
        <time>2013-02-22T13:49:30.000Z</time>
      </trkpt>
      <trkpt lat="47.09265" lon="-0.12617">
        <ele>40</ele>
        <time>2013-02-22T13:49:31.000Z</time>
      </trkpt>
      <trkpt lat="47.09265" lon="-0.12622">
        <ele>40</ele>
        <time>2013-02-22T13:49:34.000Z</time>
      </trkpt>
      <trkpt lat="47.09264" lon="-0.12624">
        <ele>40</ele>
        <time>2013-02-22T13:49:35.000Z</time>
      </trkpt>
      <trkpt lat="47.09266" lon="-0.12629">
        <ele>40</ele>
        <time>2013-02-22T13:49:40.000Z</time>
      </trkpt>
      <trkpt lat="47.09266" lon="-0.12631">
        <ele>40</ele>
        <time>2013-02-22T13:49:41.000Z</time>
      </trkpt>
      <trkpt lat="47.09267" lon="-0.12636">
        <ele>40</ele>
        <time>2013-02-22T13:49:44.000Z</time>
      </trkpt>
      <trkpt lat="47.09267" lon="-0.12638">
        <ele>40</ele>
        <time>2013-02-22T13:49:45.000Z</time>
      </trkpt>
      <trkpt lat="47.09269" lon="-0.12642">
        <ele>40</ele>
        <time>2013-02-22T13:49:48.000Z</time>
      </trkpt>
      <trkpt lat="47.0927" lon="-0.12643">
        <ele>40</ele>
        <time>2013-02-22T13:49:49.000Z</time>
      </trkpt>
      <trkpt lat="47.0927" lon="-0.12648">
        <ele>40</ele>
        <time>2013-02-22T13:49:52.000Z</time>
      </trkpt>
      <trkpt lat="47.0927" lon="-0.1265">
        <ele>40</ele>
        <time>2013-02-22T13:49:53.000Z</time>
      </trkpt>
      <trkpt lat="47.09271" lon="-0.12655">
        <ele>40</ele>
        <time>2013-02-22T13:49:56.000Z</time>
      </trkpt>
      <trkpt lat="47.09271" lon="-0.12657">
        <ele>40</ele>
        <time>2013-02-22T13:49:57.000Z</time>
      </trkpt>
      <trkpt lat="47.09272" lon="-0.12661">
        <ele>40</ele>
        <time>2013-02-22T13:49:59.000Z</time>
      </trkpt>
      <trkpt lat="47.09272" lon="-0.12663">
        <ele>40</ele>
        <time>2013-02-22T13:50:00.000Z</time>
      </trkpt>
      <trkpt lat="47.09273" lon="-0.12668">
        <ele>40</ele>
        <time>2013-02-22T13:50:02.000Z</time>
      </trkpt>
      <trkpt lat="47.09273" lon="-0.1267">
        <ele>40</ele>
        <time>2013-02-22T13:50:03.000Z</time>
      </trkpt>
      <trkpt lat="47.09273" lon="-0.12675">
        <ele>40</ele>
        <time>2013-02-22T13:50:06.000Z</time>
      </trkpt>
      <trkpt lat="47.09274" lon="-0.12677">
        <ele>40</ele>
        <time>2013-02-22T13:50:07.000Z</time>
      </trkpt>
      <trkpt lat="47.09275" lon="-0.12682">
        <ele>40</ele>
        <time>2013-02-22T13:50:10.000Z</time>
      </trkpt>
      <trkpt lat="47.09275" lon="-0.12684">
        <ele>40</ele>
        <time>2013-02-22T13:50:11.000Z</time>
      </trkpt>
      <trkpt lat="47.09274" lon="-0.1269">
        <ele>40</ele>
        <time>2013-02-22T13:50:14.000Z</time>
      </trkpt>
      <trkpt lat="47.09274" lon="-0.12691">
        <ele>40</ele>
        <time>2013-02-22T13:50:15.000Z</time>
      </trkpt>
      <trkpt lat="47.09273" lon="-0.12696">
        <ele>40</ele>
        <time>2013-02-22T13:50:19.000Z</time>
      </trkpt>
      <trkpt lat="47.09273" lon="-0.12697">
        <ele>40</ele>
        <time>2013-02-22T13:50:20.000Z</time>
      </trkpt>
      <trkpt lat="47.09272" lon="-0.12703">
        <ele>40</ele>
        <time>2013-02-22T13:50:24.000Z</time>
      </trkpt>
      <trkpt lat="47.0927" lon="-0.12705">
        <ele>40</ele>
        <time>2013-02-22T13:50:25.000Z</time>
      </trkpt>
      <trkpt lat="47.09268" lon="-0.12709">
        <ele>40</ele>
        <time>2013-02-22T13:50:28.000Z</time>
      </trkpt>
      <trkpt lat="47.09267" lon="-0.1271">
        <ele>40</ele>
        <time>2013-02-22T13:50:29.000Z</time>
      </trkpt>
      <trkpt lat="47.09264" lon="-0.12713">
        <ele>40</ele>
        <time>2013-02-22T13:50:32.000Z</time>
      </trkpt>
      <trkpt lat="47.09263" lon="-0.12715">
        <ele>40</ele>
        <time>2013-02-22T13:50:33.000Z</time>
      </trkpt>
      <trkpt lat="47.0926" lon="-0.12719">
        <ele>40</ele>
        <time>2013-02-22T13:50:37.000Z</time>
      </trkpt>
      <trkpt lat="47.09259" lon="-0.12719">
        <ele>40</ele>
        <time>2013-02-22T13:50:38.000Z</time>
      </trkpt>
      <trkpt lat="47.09255" lon="-0.12722">
        <ele>40</ele>
        <time>2013-02-22T13:50:43.000Z</time>
      </trkpt>
      <trkpt lat="47.09255" lon="-0.12723">
        <ele>40</ele>
        <time>2013-02-22T13:50:44.000Z</time>
      </trkpt>
      <trkpt lat="47.09251" lon="-0.12723">
        <ele>40</ele>
        <time>2013-02-22T13:50:47.000Z</time>
      </trkpt>
      <trkpt lat="47.0925" lon="-0.12724">
        <ele>40</ele>
        <time>2013-02-22T13:50:48.000Z</time>
      </trkpt>
      <trkpt lat="47.09246" lon="-0.12726">
        <ele>40</ele>
        <time>2013-02-22T13:50:51.000Z</time>
      </trkpt>
      <trkpt lat="47.09245" lon="-0.12726">
        <ele>40</ele>
        <time>2013-02-22T13:50:52.000Z</time>
      </trkpt>
      <trkpt lat="47.09241" lon="-0.12729">
        <ele>40</ele>
        <time>2013-02-22T13:50:55.000Z</time>
      </trkpt>
      <trkpt lat="47.0924" lon="-0.12729">
        <ele>40</ele>
        <time>2013-02-22T13:50:56.000Z</time>
      </trkpt>
      <trkpt lat="47.09236" lon="-0.12732">
        <ele>40</ele>
        <time>2013-02-22T13:51:00.000Z</time>
      </trkpt>
      <trkpt lat="47.09235" lon="-0.12733">
        <ele>40</ele>
        <time>2013-02-22T13:51:01.000Z</time>
      </trkpt>
      <trkpt lat="47.09231" lon="-0.12735">
        <ele>40</ele>
        <time>2013-02-22T13:51:06.000Z</time>
      </trkpt>
      <trkpt lat="47.0923" lon="-0.12736">
        <ele>40</ele>
        <time>2013-02-22T13:51:07.000Z</time>
      </trkpt>
      <trkpt lat="47.09226" lon="-0.12738">
        <ele>40</ele>
        <time>2013-02-22T13:51:10.000Z</time>
      </trkpt>
      <trkpt lat="47.09226" lon="-0.12738">
        <ele>40</ele>
        <time>2013-02-22T13:51:11.000Z</time>
      </trkpt>
      <trkpt lat="47.09222" lon="-0.1274">
        <ele>40</ele>
        <time>2013-02-22T13:51:14.000Z</time>
      </trkpt>
      <trkpt lat="47.0922" lon="-0.12741">
        <ele>40</ele>
        <time>2013-02-22T13:51:15.000Z</time>
      </trkpt>
      <trkpt lat="47.09217" lon="-0.12744">
        <ele>40</ele>
        <time>2013-02-22T13:51:19.000Z</time>
      </trkpt>
      <trkpt lat="47.09217" lon="-0.12745">
        <ele>40</ele>
        <time>2013-02-22T13:51:20.000Z</time>
      </trkpt>
      <trkpt lat="47.09214" lon="-0.12748">
        <ele>40</ele>
        <time>2013-02-22T13:51:24.000Z</time>
      </trkpt>
      <trkpt lat="47.09213" lon="-0.1275">
        <ele>40</ele>
        <time>2013-02-22T13:51:25.000Z</time>
      </trkpt>
      <trkpt lat="47.0921" lon="-0.12753">
        <ele>41</ele>
        <time>2013-02-22T13:51:29.000Z</time>
      </trkpt>
      <trkpt lat="47.0921" lon="-0.12755">
        <ele>41</ele>
        <time>2013-02-22T13:51:30.000Z</time>
      </trkpt>
      <trkpt lat="47.09207" lon="-0.1276">
        <ele>41</ele>
        <time>2013-02-22T13:51:33.000Z</time>
      </trkpt>
      <trkpt lat="47.09206" lon="-0.12762">
        <ele>41</ele>
        <time>2013-02-22T13:51:34.000Z</time>
      </trkpt>
      <trkpt lat="47.09204" lon="-0.12766">
        <ele>41</ele>
        <time>2013-02-22T13:51:37.000Z</time>
      </trkpt>
      <trkpt lat="47.09203" lon="-0.12767">
        <ele>41</ele>
        <time>2013-02-22T13:51:38.000Z</time>
      </trkpt>
      <trkpt lat="47.092" lon="-0.12771">
        <ele>41</ele>
        <time>2013-02-22T13:51:41.000Z</time>
      </trkpt>
      <trkpt lat="47.09199" lon="-0.12772">
        <ele>41</ele>
        <time>2013-02-22T13:51:42.000Z</time>
      </trkpt>
      <trkpt lat="47.09198" lon="-0.12777">
        <ele>41</ele>
        <time>2013-02-22T13:51:46.000Z</time>
      </trkpt>
      <trkpt lat="47.09197" lon="-0.12779">
        <ele>41</ele>
        <time>2013-02-22T13:51:47.000Z</time>
      </trkpt>
      <trkpt lat="47.09196" lon="-0.12784">
        <ele>41</ele>
        <time>2013-02-22T13:51:50.000Z</time>
      </trkpt>
      <trkpt lat="47.09196" lon="-0.12785">
        <ele>41</ele>
        <time>2013-02-22T13:51:51.000Z</time>
      </trkpt>
      <trkpt lat="47.09195" lon="-0.1279">
        <ele>41</ele>
        <time>2013-02-22T13:51:54.000Z</time>
      </trkpt>
      <trkpt lat="47.09195" lon="-0.12792">
        <ele>41</ele>
        <time>2013-02-22T13:51:55.000Z</time>
      </trkpt>
      <trkpt lat="47.09193" lon="-0.12796">
        <ele>41</ele>
        <time>2013-02-22T13:51:58.000Z</time>
      </trkpt>
      <trkpt lat="47.09192" lon="-0.12798">
        <ele>41</ele>
        <time>2013-02-22T13:51:59.000Z</time>
      </trkpt>
      <trkpt lat="47.09191" lon="-0.12802">
        <ele>41</ele>
        <time>2013-02-22T13:52:02.000Z</time>
      </trkpt>
      <trkpt lat="47.0919" lon="-0.12804">
        <ele>41</ele>
        <time>2013-02-22T13:52:03.000Z</time>
      </trkpt>
      <trkpt lat="47.09188" lon="-0.12809">
        <ele>41</ele>
        <time>2013-02-22T13:52:06.000Z</time>
      </trkpt>
      <trkpt lat="47.09187" lon="-0.1281">
        <ele>41</ele>
        <time>2013-02-22T13:52:07.000Z</time>
      </trkpt>
      <trkpt lat="47.09185" lon="-0.12814">
        <ele>41</ele>
        <time>2013-02-22T13:52:09.000Z</time>
      </trkpt>
      <trkpt lat="47.09185" lon="-0.12816">
        <ele>41</ele>
        <time>2013-02-22T13:52:10.000Z</time>
      </trkpt>
      <trkpt lat="47.09181" lon="-0.1282">
        <ele>41</ele>
        <time>2013-02-22T13:52:12.000Z</time>
      </trkpt>
      <trkpt lat="47.0918" lon="-0.12821">
        <ele>41</ele>
        <time>2013-02-22T13:52:13.000Z</time>
      </trkpt>
      <trkpt lat="47.09176" lon="-0.12824">
        <ele>42</ele>
        <time>2013-02-22T13:52:17.000Z</time>
      </trkpt>
      <trkpt lat="47.09176" lon="-0.12826">
        <ele>42</ele>
        <time>2013-02-22T13:52:18.000Z</time>
      </trkpt>
      <trkpt lat="47.09174" lon="-0.1283">
        <ele>42</ele>
        <time>2013-02-22T13:52:21.000Z</time>
      </trkpt>
      <trkpt lat="47.09174" lon="-0.12832">
        <ele>42</ele>
        <time>2013-02-22T13:52:22.000Z</time>
      </trkpt>
      <trkpt lat="47.09173" lon="-0.12837">
        <ele>42</ele>
        <time>2013-02-22T13:52:24.000Z</time>
      </trkpt>
      <trkpt lat="47.09173" lon="-0.12839">
        <ele>42</ele>
        <time>2013-02-22T13:52:25.000Z</time>
      </trkpt>
      <trkpt lat="47.0917" lon="-0.12842">
        <ele>42</ele>
        <time>2013-02-22T13:52:27.000Z</time>
      </trkpt>
      <trkpt lat="47.0917" lon="-0.12843">
        <ele>42</ele>
        <time>2013-02-22T13:52:28.000Z</time>
      </trkpt>
      <trkpt lat="47.09167" lon="-0.12848">
        <ele>42</ele>
        <time>2013-02-22T13:52:31.000Z</time>
      </trkpt>
      <trkpt lat="47.09166" lon="-0.1285">
        <ele>42</ele>
        <time>2013-02-22T13:52:32.000Z</time>
      </trkpt>
      <trkpt lat="47.09164" lon="-0.12853">
        <ele>42</ele>
        <time>2013-02-22T13:52:34.000Z</time>
      </trkpt>
      <trkpt lat="47.09162" lon="-0.12855">
        <ele>42</ele>
        <time>2013-02-22T13:52:35.000Z</time>
      </trkpt>
      <trkpt lat="47.0916" lon="-0.12858">
        <ele>42</ele>
        <time>2013-02-22T13:52:37.000Z</time>
      </trkpt>
      <trkpt lat="47.09159" lon="-0.1286">
        <ele>42</ele>
        <time>2013-02-22T13:52:38.000Z</time>
      </trkpt>
      <trkpt lat="47.09157" lon="-0.12864">
        <ele>42</ele>
        <time>2013-02-22T13:52:40.000Z</time>
      </trkpt>
      <trkpt lat="47.09156" lon="-0.12865">
        <ele>42</ele>
        <time>2013-02-22T13:52:41.000Z</time>
      </trkpt>
      <trkpt lat="47.09154" lon="-0.12868">
        <ele>42</ele>
        <time>2013-02-22T13:52:43.000Z</time>
      </trkpt>
      <trkpt lat="47.09153" lon="-0.12871">
        <ele>42</ele>
        <time>2013-02-22T13:52:44.000Z</time>
      </trkpt>
      <trkpt lat="47.09152" lon="-0.12875">
        <ele>42</ele>
        <time>2013-02-22T13:52:46.000Z</time>
      </trkpt>
      <trkpt lat="47.09151" lon="-0.12876">
        <ele>43</ele>
        <time>2013-02-22T13:52:47.000Z</time>
      </trkpt>
      <trkpt lat="47.09149" lon="-0.12882">
        <ele>43</ele>
        <time>2013-02-22T13:52:50.000Z</time>
      </trkpt>
      <trkpt lat="47.09148" lon="-0.12883">
        <ele>43</ele>
        <time>2013-02-22T13:52:51.000Z</time>
      </trkpt>
      <trkpt lat="47.09146" lon="-0.12889">
        <ele>43</ele>
        <time>2013-02-22T13:52:56.000Z</time>
      </trkpt>
      <trkpt lat="47.09146" lon="-0.1289">
        <ele>43</ele>
        <time>2013-02-22T13:52:57.000Z</time>
      </trkpt>
      <trkpt lat="47.09145" lon="-0.12897">
        <ele>43</ele>
        <time>2013-02-22T13:53:03.000Z</time>
      </trkpt>
      <trkpt lat="47.09145" lon="-0.12898">
        <ele>43</ele>
        <time>2013-02-22T13:53:04.000Z</time>
      </trkpt>
      <trkpt lat="47.09143" lon="-0.12903">
        <ele>43</ele>
        <time>2013-02-22T13:53:09.000Z</time>
      </trkpt>
      <trkpt lat="47.09142" lon="-0.12904">
        <ele>43</ele>
        <time>2013-02-22T13:53:10.000Z</time>
      </trkpt>
      <trkpt lat="47.09141" lon="-0.12908">
        <ele>43</ele>
        <time>2013-02-22T13:53:15.000Z</time>
      </trkpt>
      <trkpt lat="47.0914" lon="-0.1291">
        <ele>43</ele>
        <time>2013-02-22T13:53:16.000Z</time>
      </trkpt>
      <trkpt lat="47.09138" lon="-0.12915">
        <ele>43</ele>
        <time>2013-02-22T13:53:18.000Z</time>
      </trkpt>
      <trkpt lat="47.09137" lon="-0.12917">
        <ele>43</ele>
        <time>2013-02-22T13:53:19.000Z</time>
      </trkpt>
      <trkpt lat="47.09135" lon="-0.12922">
        <ele>43</ele>
        <time>2013-02-22T13:53:22.000Z</time>
      </trkpt>
      <trkpt lat="47.09134" lon="-0.12923">
        <ele>43</ele>
        <time>2013-02-22T13:53:23.000Z</time>
      </trkpt>
      <trkpt lat="47.09133" lon="-0.12925">
        <ele>43</ele>
        <time>2013-02-22T13:53:26.000Z</time>
      </trkpt>
      <trkpt lat="47.09132" lon="-0.12928">
        <ele>43</ele>
        <time>2013-02-22T13:53:27.000Z</time>
      </trkpt>
      <trkpt lat="47.09131" lon="-0.12933">
        <ele>43</ele>
        <time>2013-02-22T13:53:29.000Z</time>
      </trkpt>
      <trkpt lat="47.0913" lon="-0.12936">
        <ele>43</ele>
        <time>2013-02-22T13:53:30.000Z</time>
      </trkpt>
      <trkpt lat="47.09127" lon="-0.12941">
        <ele>43</ele>
        <time>2013-02-22T13:53:33.000Z</time>
      </trkpt>
      <trkpt lat="47.09127" lon="-0.12942">
        <ele>43</ele>
        <time>2013-02-22T13:53:34.000Z</time>
      </trkpt>
      <trkpt lat="47.09125" lon="-0.12947">
        <ele>43</ele>
        <time>2013-02-22T13:53:38.000Z</time>
      </trkpt>
      <trkpt lat="47.09125" lon="-0.12949">
        <ele>43</ele>
        <time>2013-02-22T13:53:39.000Z</time>
      </trkpt>
      <trkpt lat="47.09122" lon="-0.12953">
        <ele>43</ele>
        <time>2013-02-22T13:53:42.000Z</time>
      </trkpt>
      <trkpt lat="47.09121" lon="-0.12955">
        <ele>43</ele>
        <time>2013-02-22T13:53:43.000Z</time>
      </trkpt>
      <trkpt lat="47.09119" lon="-0.12959">
        <ele>44</ele>
        <time>2013-02-22T13:53:45.000Z</time>
      </trkpt>
      <trkpt lat="47.09118" lon="-0.1296">
        <ele>44</ele>
        <time>2013-02-22T13:53:46.000Z</time>
      </trkpt>
      <trkpt lat="47.09116" lon="-0.12965">
        <ele>44</ele>
        <time>2013-02-22T13:53:50.000Z</time>
      </trkpt>
      <trkpt lat="47.09116" lon="-0.12966">
        <ele>44</ele>
        <time>2013-02-22T13:53:51.000Z</time>
      </trkpt>
      <trkpt lat="47.09114" lon="-0.12971">
        <ele>44</ele>
        <time>2013-02-22T13:53:55.000Z</time>
      </trkpt>
      <trkpt lat="47.09113" lon="-0.12974">
        <ele>44</ele>
        <time>2013-02-22T13:53:56.000Z</time>
      </trkpt>
      <trkpt lat="47.0911" lon="-0.12979">
        <ele>44</ele>
        <time>2013-02-22T13:53:59.000Z</time>
      </trkpt>
      <trkpt lat="47.0911" lon="-0.12981">
        <ele>44</ele>
        <time>2013-02-22T13:54:00.000Z</time>
      </trkpt>
      <trkpt lat="47.09109" lon="-0.12986">
        <ele>44</ele>
        <time>2013-02-22T13:54:03.000Z</time>
      </trkpt>
      <trkpt lat="47.09108" lon="-0.12988">
        <ele>44</ele>
        <time>2013-02-22T13:54:04.000Z</time>
      </trkpt>
      <trkpt lat="47.09104" lon="-0.1299">
        <ele>44</ele>
        <time>2013-02-22T13:54:06.000Z</time>
      </trkpt>
      <trkpt lat="47.09103" lon="-0.12991">
        <ele>44</ele>
        <time>2013-02-22T13:54:07.000Z</time>
      </trkpt>
      <trkpt lat="47.091" lon="-0.12996">
        <ele>44</ele>
        <time>2013-02-22T13:54:13.000Z</time>
      </trkpt>
      <trkpt lat="47.091" lon="-0.12997">
        <ele>44</ele>
        <time>2013-02-22T13:54:14.000Z</time>
      </trkpt>
      <trkpt lat="47.09097" lon="-0.13">
        <ele>44</ele>
        <time>2013-02-22T13:54:17.000Z</time>
      </trkpt>
      <trkpt lat="47.09096" lon="-0.13002">
        <ele>44</ele>
        <time>2013-02-22T13:54:18.000Z</time>
      </trkpt>
      <trkpt lat="47.09095" lon="-0.13007">
        <ele>44</ele>
        <time>2013-02-22T13:54:21.000Z</time>
      </trkpt>
      <trkpt lat="47.09094" lon="-0.13008">
        <ele>44</ele>
        <time>2013-02-22T13:54:22.000Z</time>
      </trkpt>
      <trkpt lat="47.09092" lon="-0.13012">
        <ele>44</ele>
        <time>2013-02-22T13:54:25.000Z</time>
      </trkpt>
      <trkpt lat="47.09091" lon="-0.13014">
        <ele>45</ele>
        <time>2013-02-22T13:54:26.000Z</time>
      </trkpt>
      <trkpt lat="47.09089" lon="-0.13019">
        <ele>45</ele>
        <time>2013-02-22T13:54:29.000Z</time>
      </trkpt>
      <trkpt lat="47.09088" lon="-0.1302">
        <ele>45</ele>
        <time>2013-02-22T13:54:30.000Z</time>
      </trkpt>
      <trkpt lat="47.09086" lon="-0.13025">
        <ele>45</ele>
        <time>2013-02-22T13:54:34.000Z</time>
      </trkpt>
      <trkpt lat="47.09085" lon="-0.13026">
        <ele>45</ele>
        <time>2013-02-22T13:54:35.000Z</time>
      </trkpt>
      <trkpt lat="47.09083" lon="-0.13031">
        <ele>46</ele>
        <time>2013-02-22T13:54:39.000Z</time>
      </trkpt>
      <trkpt lat="47.09082" lon="-0.13032">
        <ele>46</ele>
        <time>2013-02-22T13:54:40.000Z</time>
      </trkpt>
      <trkpt lat="47.09079" lon="-0.13035">
        <ele>46</ele>
        <time>2013-02-22T13:54:42.000Z</time>
      </trkpt>
      <trkpt lat="47.09078" lon="-0.13037">
        <ele>46</ele>
        <time>2013-02-22T13:54:43.000Z</time>
      </trkpt>
      <trkpt lat="47.09074" lon="-0.1304">
        <ele>46</ele>
        <time>2013-02-22T13:54:45.000Z</time>
      </trkpt>
      <trkpt lat="47.09073" lon="-0.13042">
        <ele>46</ele>
        <time>2013-02-22T13:54:46.000Z</time>
      </trkpt>
      <trkpt lat="47.09071" lon="-0.13045">
        <ele>46</ele>
        <time>2013-02-22T13:54:48.000Z</time>
      </trkpt>
      <trkpt lat="47.09071" lon="-0.13048">
        <ele>46</ele>
        <time>2013-02-22T13:54:49.000Z</time>
      </trkpt>
      <trkpt lat="47.09067" lon="-0.13051">
        <ele>46</ele>
        <time>2013-02-22T13:55:05.000Z</time>
      </trkpt>
      <trkpt lat="47.09066" lon="-0.13052">
        <ele>46</ele>
        <time>2013-02-22T13:55:06.000Z</time>
      </trkpt>
      <trkpt lat="47.09063" lon="-0.13055">
        <ele>47</ele>
        <time>2013-02-22T13:55:34.000Z</time>
      </trkpt>
      <trkpt lat="47.09063" lon="-0.13056">
        <ele>47</ele>
        <time>2013-02-22T13:55:35.000Z</time>
      </trkpt>
      <trkpt lat="47.09063" lon="-0.13061">
        <ele>47</ele>
        <time>2013-02-22T13:56:29.000Z</time>
      </trkpt>
      <trkpt lat="47.09063" lon="-0.13063">
        <ele>47</ele>
        <time>2013-02-22T13:56:30.000Z</time>
      </trkpt>
      <trkpt lat="47.09066" lon="-0.13067">
        <ele>47</ele>
        <time>2013-02-22T13:56:34.000Z</time>
      </trkpt>
      <trkpt lat="47.09067" lon="-0.13068">
        <ele>47</ele>
        <time>2013-02-22T13:56:35.000Z</time>
      </trkpt>
      <trkpt lat="47.0907" lon="-0.13071">
        <ele>47</ele>
        <time>2013-02-22T13:56:38.000Z</time>
      </trkpt>
      <trkpt lat="47.09071" lon="-0.13072">
        <ele>47</ele>
        <time>2013-02-22T13:56:39.000Z</time>
      </trkpt>
      <trkpt lat="47.09073" lon="-0.13077">
        <ele>47</ele>
        <time>2013-02-22T13:56:44.000Z</time>
      </trkpt>
      <trkpt lat="47.09074" lon="-0.13077">
        <ele>47</ele>
        <time>2013-02-22T13:56:45.000Z</time>
      </trkpt>
      <trkpt lat="47.09076" lon="-0.13083">
        <ele>47</ele>
        <time>2013-02-22T13:56:51.000Z</time>
      </trkpt>
      <trkpt lat="47.09076" lon="-0.13084">
        <ele>48</ele>
        <time>2013-02-22T13:56:52.000Z</time>
      </trkpt>
      <trkpt lat="47.09078" lon="-0.13089">
        <ele>48</ele>
        <time>2013-02-22T13:56:56.000Z</time>
      </trkpt>
      <trkpt lat="47.09079" lon="-0.13091">
        <ele>48</ele>
        <time>2013-02-22T13:56:57.000Z</time>
      </trkpt>
      <trkpt lat="47.09082" lon="-0.13095">
        <ele>48</ele>
        <time>2013-02-22T13:57:01.000Z</time>
      </trkpt>
      <trkpt lat="47.09082" lon="-0.13097">
        <ele>48</ele>
        <time>2013-02-22T13:57:02.000Z</time>
      </trkpt>
      <trkpt lat="47.09083" lon="-0.13103">
        <ele>49</ele>
        <time>2013-02-22T13:57:08.000Z</time>
      </trkpt>
      <trkpt lat="47.09084" lon="-0.13104">
        <ele>48</ele>
        <time>2013-02-22T13:57:09.000Z</time>
      </trkpt>
      <trkpt lat="47.09085" lon="-0.1311">
        <ele>48</ele>
        <time>2013-02-22T13:57:13.000Z</time>
      </trkpt>
      <trkpt lat="47.09085" lon="-0.13111">
        <ele>48</ele>
        <time>2013-02-22T13:57:14.000Z</time>
      </trkpt>
      <trkpt lat="47.09086" lon="-0.13116">
        <ele>48</ele>
        <time>2013-02-22T13:57:21.000Z</time>
      </trkpt>
      <trkpt lat="47.09086" lon="-0.13117">
        <ele>48</ele>
        <time>2013-02-22T13:57:22.000Z</time>
      </trkpt>
      <trkpt lat="47.09089" lon="-0.13122">
        <ele>48</ele>
        <time>2013-02-22T13:57:25.000Z</time>
      </trkpt>
      <trkpt lat="47.0909" lon="-0.13123">
        <ele>48</ele>
        <time>2013-02-22T13:57:26.000Z</time>
      </trkpt>
      <trkpt lat="47.09093" lon="-0.13127">
        <ele>48</ele>
        <time>2013-02-22T13:57:31.000Z</time>
      </trkpt>
      <trkpt lat="47.09093" lon="-0.13129">
        <ele>48</ele>
        <time>2013-02-22T13:57:32.000Z</time>
      </trkpt>
      <trkpt lat="47.09095" lon="-0.13135">
        <ele>49</ele>
        <time>2013-02-22T13:57:36.000Z</time>
      </trkpt>
      <trkpt lat="47.09096" lon="-0.13136">
        <ele>49</ele>
        <time>2013-02-22T13:57:37.000Z</time>
      </trkpt>
      <trkpt lat="47.09097" lon="-0.13142">
        <ele>49</ele>
        <time>2013-02-22T13:57:41.000Z</time>
      </trkpt>
      <trkpt lat="47.09098" lon="-0.13144">
        <ele>49</ele>
        <time>2013-02-22T13:57:42.000Z</time>
      </trkpt>
      <trkpt lat="47.091" lon="-0.13148">
        <ele>49</ele>
        <time>2013-02-22T13:57:47.000Z</time>
      </trkpt>
      <trkpt lat="47.091" lon="-0.13149">
        <ele>49</ele>
        <time>2013-02-22T13:57:48.000Z</time>
      </trkpt>
      <trkpt lat="47.09103" lon="-0.13152">
        <ele>49</ele>
        <time>2013-02-22T13:57:50.000Z</time>
      </trkpt>
      <trkpt lat="47.09104" lon="-0.13153">
        <ele>49</ele>
        <time>2013-02-22T13:57:51.000Z</time>
      </trkpt>
      <trkpt lat="47.09108" lon="-0.13156">
        <ele>49</ele>
        <time>2013-02-22T13:57:54.000Z</time>
      </trkpt>
      <trkpt lat="47.09109" lon="-0.13158">
        <ele>49</ele>
        <time>2013-02-22T13:57:55.000Z</time>
      </trkpt>
      <trkpt lat="47.09112" lon="-0.13163">
        <ele>49</ele>
        <time>2013-02-22T13:58:00.000Z</time>
      </trkpt>
      <trkpt lat="47.09112" lon="-0.13163">
        <ele>49</ele>
        <time>2013-02-22T13:58:01.000Z</time>
      </trkpt>
      <trkpt lat="47.09115" lon="-0.13166">
        <ele>49</ele>
        <time>2013-02-22T13:58:06.000Z</time>
      </trkpt>
      <trkpt lat="47.09116" lon="-0.13167">
        <ele>51</ele>
        <time>2013-02-22T13:58:07.000Z</time>
      </trkpt>
      <trkpt lat="47.0912" lon="-0.13168">
        <ele>50</ele>
        <time>2013-02-22T13:58:11.000Z</time>
      </trkpt>
      <trkpt lat="47.0912" lon="-0.13168">
        <ele>50</ele>
        <time>2013-02-22T13:58:12.000Z</time>
      </trkpt>
      <trkpt lat="47.09123" lon="-0.13172">
        <ele>50</ele>
        <time>2013-02-22T13:58:15.000Z</time>
      </trkpt>
      <trkpt lat="47.09123" lon="-0.13173">
        <ele>50</ele>
        <time>2013-02-22T13:58:16.000Z</time>
      </trkpt>
      <trkpt lat="47.09126" lon="-0.13177">
        <ele>50</ele>
        <time>2013-02-22T13:58:19.000Z</time>
      </trkpt>
      <trkpt lat="47.09126" lon="-0.13179">
        <ele>50</ele>
        <time>2013-02-22T13:58:20.000Z</time>
      </trkpt>
      <trkpt lat="47.09129" lon="-0.13182">
        <ele>50</ele>
        <time>2013-02-22T13:58:23.000Z</time>
      </trkpt>
      <trkpt lat="47.0913" lon="-0.13183">
        <ele>50</ele>
        <time>2013-02-22T13:58:24.000Z</time>
      </trkpt>
      <trkpt lat="47.09132" lon="-0.13187">
        <ele>50</ele>
        <time>2013-02-22T13:58:26.000Z</time>
      </trkpt>
      <trkpt lat="47.09133" lon="-0.1319">
        <ele>50</ele>
        <time>2013-02-22T13:58:27.000Z</time>
      </trkpt>
      <trkpt lat="47.09135" lon="-0.13195">
        <ele>50</ele>
        <time>2013-02-22T13:58:30.000Z</time>
      </trkpt>
      <trkpt lat="47.09135" lon="-0.13197">
        <ele>50</ele>
        <time>2013-02-22T13:58:31.000Z</time>
      </trkpt>
      <trkpt lat="47.09137" lon="-0.13203">
        <ele>50</ele>
        <time>2013-02-22T13:58:34.000Z</time>
      </trkpt>
      <trkpt lat="47.09137" lon="-0.13205">
        <ele>50</ele>
        <time>2013-02-22T13:58:35.000Z</time>
      </trkpt>
      <trkpt lat="47.09138" lon="-0.1321">
        <ele>50</ele>
        <time>2013-02-22T13:58:38.000Z</time>
      </trkpt>
      <trkpt lat="47.09139" lon="-0.13212">
        <ele>50</ele>
        <time>2013-02-22T13:58:39.000Z</time>
      </trkpt>
      <trkpt lat="47.0914" lon="-0.13216">
        <ele>50</ele>
        <time>2013-02-22T13:58:41.000Z</time>
      </trkpt>
      <trkpt lat="47.09141" lon="-0.13218">
        <ele>50</ele>
        <time>2013-02-22T13:58:42.000Z</time>
      </trkpt>
      <trkpt lat="47.09142" lon="-0.13223">
        <ele>50</ele>
        <time>2013-02-22T13:58:45.000Z</time>
      </trkpt>
      <trkpt lat="47.09143" lon="-0.13225">
        <ele>50</ele>
        <time>2013-02-22T13:58:46.000Z</time>
      </trkpt>
      <trkpt lat="47.09145" lon="-0.13229">
        <ele>50</ele>
        <time>2013-02-22T13:58:50.000Z</time>
      </trkpt>
      <trkpt lat="47.09146" lon="-0.13231">
        <ele>50</ele>
        <time>2013-02-22T13:58:51.000Z</time>
      </trkpt>
      <trkpt lat="47.09147" lon="-0.13235">
        <ele>50</ele>
        <time>2013-02-22T13:58:54.000Z</time>
      </trkpt>
      <trkpt lat="47.09148" lon="-0.13237">
        <ele>50</ele>
        <time>2013-02-22T13:58:55.000Z</time>
      </trkpt>
      <trkpt lat="47.09148" lon="-0.13242">
        <ele>50</ele>
        <time>2013-02-22T13:58:57.000Z</time>
      </trkpt>
      <trkpt lat="47.09149" lon="-0.13244">
        <ele>50</ele>
        <time>2013-02-22T13:58:58.000Z</time>
      </trkpt>
      <trkpt lat="47.0915" lon="-0.1325">
        <ele>50</ele>
        <time>2013-02-22T13:59:01.000Z</time>
      </trkpt>
      <trkpt lat="47.0915" lon="-0.13252">
        <ele>51</ele>
        <time>2013-02-22T13:59:02.000Z</time>
      </trkpt>
      <trkpt lat="47.09152" lon="-0.13258">
        <ele>51</ele>
        <time>2013-02-22T13:59:05.000Z</time>
      </trkpt>
      <trkpt lat="47.09153" lon="-0.13259">
        <ele>51</ele>
        <time>2013-02-22T13:59:06.000Z</time>
      </trkpt>
      <trkpt lat="47.09156" lon="-0.13263">
        <ele>51</ele>
        <time>2013-02-22T13:59:10.000Z</time>
      </trkpt>
      <trkpt lat="47.09157" lon="-0.13264">
        <ele>51</ele>
        <time>2013-02-22T13:59:11.000Z</time>
      </trkpt>
      <trkpt lat="47.09161" lon="-0.13266">
        <ele>51</ele>
        <time>2013-02-22T13:59:14.000Z</time>
      </trkpt>
      <trkpt lat="47.09162" lon="-0.13267">
        <ele>51</ele>
        <time>2013-02-22T13:59:15.000Z</time>
      </trkpt>
      <trkpt lat="47.09165" lon="-0.13271">
        <ele>51</ele>
        <time>2013-02-22T13:59:18.000Z</time>
      </trkpt>
      <trkpt lat="47.09166" lon="-0.13272">
        <ele>51</ele>
        <time>2013-02-22T13:59:19.000Z</time>
      </trkpt>
      <trkpt lat="47.09167" lon="-0.13278">
        <ele>52</ele>
        <time>2013-02-22T13:59:24.000Z</time>
      </trkpt>
      <trkpt lat="47.09167" lon="-0.13279">
        <ele>52</ele>
        <time>2013-02-22T13:59:25.000Z</time>
      </trkpt>
      <trkpt lat="47.09167" lon="-0.13284">
        <ele>49</ele>
        <time>2013-02-22T13:59:30.000Z</time>
      </trkpt>
      <trkpt lat="47.09167" lon="-0.13286">
        <ele>49</ele>
        <time>2013-02-22T13:59:31.000Z</time>
      </trkpt>
      <trkpt lat="47.09164" lon="-0.13289">
        <ele>52</ele>
        <time>2013-02-22T13:59:35.000Z</time>
      </trkpt>
      <trkpt lat="47.09163" lon="-0.1329">
        <ele>52</ele>
        <time>2013-02-22T13:59:36.000Z</time>
      </trkpt>
      <trkpt lat="47.09159" lon="-0.13293">
        <ele>52</ele>
        <time>2013-02-22T13:59:40.000Z</time>
      </trkpt>
      <trkpt lat="47.09158" lon="-0.13293">
        <ele>52</ele>
        <time>2013-02-22T13:59:41.000Z</time>
      </trkpt>
      <trkpt lat="47.09155" lon="-0.13296">
        <ele>52</ele>
        <time>2013-02-22T13:59:44.000Z</time>
      </trkpt>
      <trkpt lat="47.09154" lon="-0.13298">
        <ele>52</ele>
        <time>2013-02-22T13:59:45.000Z</time>
      </trkpt>
      <trkpt lat="47.09151" lon="-0.13303">
        <ele>52</ele>
        <time>2013-02-22T13:59:49.000Z</time>
      </trkpt>
      <trkpt lat="47.0915" lon="-0.13303">
        <ele>53</ele>
        <time>2013-02-22T13:59:50.000Z</time>
      </trkpt>
      <trkpt lat="47.09148" lon="-0.13306">
        <ele>53</ele>
        <time>2013-02-22T13:59:52.000Z</time>
      </trkpt>
      <trkpt lat="47.09147" lon="-0.13308">
        <ele>53</ele>
        <time>2013-02-22T13:59:53.000Z</time>
      </trkpt>
      <trkpt lat="47.09143" lon="-0.13311">
        <ele>53</ele>
        <time>2013-02-22T13:59:57.000Z</time>
      </trkpt>
      <trkpt lat="47.09142" lon="-0.13313">
        <ele>53</ele>
        <time>2013-02-22T13:59:58.000Z</time>
      </trkpt>
      <trkpt lat="47.09139" lon="-0.13317">
        <ele>53</ele>
        <time>2013-02-22T14:00:01.000Z</time>
      </trkpt>
      <trkpt lat="47.09139" lon="-0.13318">
        <ele>53</ele>
        <time>2013-02-22T14:00:02.000Z</time>
      </trkpt>
      <trkpt lat="47.09138" lon="-0.13322">
        <ele>53</ele>
        <time>2013-02-22T14:00:05.000Z</time>
      </trkpt>
      <trkpt lat="47.09136" lon="-0.13324">
        <ele>53</ele>
        <time>2013-02-22T14:00:06.000Z</time>
      </trkpt>
      <trkpt lat="47.09134" lon="-0.1333">
        <ele>53</ele>
        <time>2013-02-22T14:00:10.000Z</time>
      </trkpt>
      <trkpt lat="47.09133" lon="-0.1333">
        <ele>53</ele>
        <time>2013-02-22T14:00:11.000Z</time>
      </trkpt>
      <trkpt lat="47.09131" lon="-0.13336">
        <ele>55</ele>
        <time>2013-02-22T14:00:15.000Z</time>
      </trkpt>
      <trkpt lat="47.09131" lon="-0.13337">
        <ele>55</ele>
        <time>2013-02-22T14:00:16.000Z</time>
      </trkpt>
      <trkpt lat="47.09128" lon="-0.1334">
        <ele>55</ele>
        <time>2013-02-22T14:00:19.000Z</time>
      </trkpt>
      <trkpt lat="47.09126" lon="-0.13341">
        <ele>55</ele>
        <time>2013-02-22T14:00:20.000Z</time>
      </trkpt>
      <trkpt lat="47.09124" lon="-0.13346">
        <ele>55</ele>
        <time>2013-02-22T14:00:24.000Z</time>
      </trkpt>
      <trkpt lat="47.09123" lon="-0.13348">
        <ele>55</ele>
        <time>2013-02-22T14:00:25.000Z</time>
      </trkpt>
      <trkpt lat="47.0912" lon="-0.13351">
        <ele>55</ele>
        <time>2013-02-22T14:00:28.000Z</time>
      </trkpt>
      <trkpt lat="47.09119" lon="-0.13352">
        <ele>55</ele>
        <time>2013-02-22T14:00:29.000Z</time>
      </trkpt>
      <trkpt lat="47.09117" lon="-0.13356">
        <ele>56</ele>
        <time>2013-02-22T14:00:32.000Z</time>
      </trkpt>
      <trkpt lat="47.09115" lon="-0.13357">
        <ele>56</ele>
        <time>2013-02-22T14:00:33.000Z</time>
      </trkpt>
      <trkpt lat="47.09111" lon="-0.13358">
        <ele>56</ele>
        <time>2013-02-22T14:00:36.000Z</time>
      </trkpt>
      <trkpt lat="47.0911" lon="-0.13359">
        <ele>56</ele>
        <time>2013-02-22T14:00:37.000Z</time>
      </trkpt>
      <trkpt lat="47.09106" lon="-0.13362">
        <ele>56</ele>
        <time>2013-02-22T14:00:40.000Z</time>
      </trkpt>
      <trkpt lat="47.09105" lon="-0.13362">
        <ele>56</ele>
        <time>2013-02-22T14:00:41.000Z</time>
      </trkpt>
      <trkpt lat="47.09101" lon="-0.13364">
        <ele>56</ele>
        <time>2013-02-22T14:00:44.000Z</time>
      </trkpt>
      <trkpt lat="47.091" lon="-0.13365">
        <ele>56</ele>
        <time>2013-02-22T14:00:45.000Z</time>
      </trkpt>
      <trkpt lat="47.09097" lon="-0.13369">
        <ele>56</ele>
        <time>2013-02-22T14:00:54.000Z</time>
      </trkpt>
      <trkpt lat="47.09097" lon="-0.13369">
        <ele>56</ele>
        <time>2013-02-22T14:00:55.000Z</time>
      </trkpt>
      <trkpt lat="47.09093" lon="-0.13371">
        <ele>56</ele>
        <time>2013-02-22T14:00:58.000Z</time>
      </trkpt>
      <trkpt lat="47.09091" lon="-0.13372">
        <ele>56</ele>
        <time>2013-02-22T14:00:59.000Z</time>
      </trkpt>
      <trkpt lat="47.09088" lon="-0.13375">
        <ele>56</ele>
        <time>2013-02-22T14:01:03.000Z</time>
      </trkpt>
      <trkpt lat="47.09086" lon="-0.13375">
        <ele>56</ele>
        <time>2013-02-22T14:01:04.000Z</time>
      </trkpt>
      <trkpt lat="47.09083" lon="-0.13377">
        <ele>58</ele>
        <time>2013-02-22T14:01:07.000Z</time>
      </trkpt>
      <trkpt lat="47.09081" lon="-0.13378">
        <ele>58</ele>
        <time>2013-02-22T14:01:08.000Z</time>
      </trkpt>
      <trkpt lat="47.09078" lon="-0.13381">
        <ele>58</ele>
        <time>2013-02-22T14:01:13.000Z</time>
      </trkpt>
      <trkpt lat="47.09077" lon="-0.13382">
        <ele>58</ele>
        <time>2013-02-22T14:01:14.000Z</time>
      </trkpt>
      <trkpt lat="47.09073" lon="-0.13384">
        <ele>58</ele>
        <time>2013-02-22T14:01:17.000Z</time>
      </trkpt>
      <trkpt lat="47.09072" lon="-0.13385">
        <ele>58</ele>
        <time>2013-02-22T14:01:18.000Z</time>
      </trkpt>
      <trkpt lat="47.09068" lon="-0.1339">
        <ele>58</ele>
        <time>2013-02-22T14:01:22.000Z</time>
      </trkpt>
      <trkpt lat="47.09068" lon="-0.13391">
        <ele>58</ele>
        <time>2013-02-22T14:01:23.000Z</time>
      </trkpt>
      <trkpt lat="47.09064" lon="-0.13393">
        <ele>58</ele>
        <time>2013-02-22T14:01:26.000Z</time>
      </trkpt>
      <trkpt lat="47.09063" lon="-0.13394">
        <ele>58</ele>
        <time>2013-02-22T14:01:27.000Z</time>
      </trkpt>
      <trkpt lat="47.0906" lon="-0.13397">
        <ele>58</ele>
        <time>2013-02-22T14:01:30.000Z</time>
      </trkpt>
      <trkpt lat="47.09059" lon="-0.13398">
        <ele>58</ele>
        <time>2013-02-22T14:01:31.000Z</time>
      </trkpt>
      <trkpt lat="47.09058" lon="-0.13404">
        <ele>58</ele>
        <time>2013-02-22T14:01:35.000Z</time>
      </trkpt>
      <trkpt lat="47.09057" lon="-0.13405">
        <ele>58</ele>
        <time>2013-02-22T14:01:36.000Z</time>
      </trkpt>
      <trkpt lat="47.09057" lon="-0.1341">
        <ele>58</ele>
        <time>2013-02-22T14:01:39.000Z</time>
      </trkpt>
      <trkpt lat="47.09057" lon="-0.13411">
        <ele>58</ele>
        <time>2013-02-22T14:01:40.000Z</time>
      </trkpt>
      <trkpt lat="47.09056" lon="-0.13418">
        <ele>59</ele>
        <time>2013-02-22T14:01:43.000Z</time>
      </trkpt>
      <trkpt lat="47.09055" lon="-0.1342">
        <ele>59</ele>
        <time>2013-02-22T14:01:44.000Z</time>
      </trkpt>
      <trkpt lat="47.09054" lon="-0.13425">
        <ele>59</ele>
        <time>2013-02-22T14:01:48.000Z</time>
      </trkpt>
      <trkpt lat="47.09055" lon="-0.13427">
        <ele>59</ele>
        <time>2013-02-22T14:01:49.000Z</time>
      </trkpt>
      <trkpt lat="47.09054" lon="-0.13433">
        <ele>59</ele>
        <time>2013-02-22T14:01:52.000Z</time>
      </trkpt>
      <trkpt lat="47.09053" lon="-0.13435">
        <ele>59</ele>
        <time>2013-02-22T14:01:53.000Z</time>
      </trkpt>
      <trkpt lat="47.09052" lon="-0.13439">
        <ele>59</ele>
        <time>2013-02-22T14:01:56.000Z</time>
      </trkpt>
      <trkpt lat="47.09051" lon="-0.13441">
        <ele>59</ele>
        <time>2013-02-22T14:01:57.000Z</time>
      </trkpt>
      <trkpt lat="47.09049" lon="-0.13446">
        <ele>60</ele>
        <time>2013-02-22T14:02:00.000Z</time>
      </trkpt>
      <trkpt lat="47.09048" lon="-0.13448">
        <ele>60</ele>
        <time>2013-02-22T14:02:01.000Z</time>
      </trkpt>
      <trkpt lat="47.09047" lon="-0.13453">
        <ele>60</ele>
        <time>2013-02-22T14:02:04.000Z</time>
      </trkpt>
      <trkpt lat="47.09047" lon="-0.13455">
        <ele>60</ele>
        <time>2013-02-22T14:02:05.000Z</time>
      </trkpt>
      <trkpt lat="47.09046" lon="-0.13461">
        <ele>60</ele>
        <time>2013-02-22T14:02:13.000Z</time>
      </trkpt>
      <trkpt lat="47.09046" lon="-0.13461">
        <ele>60</ele>
        <time>2013-02-22T14:02:14.000Z</time>
      </trkpt>
      <trkpt lat="47.09044" lon="-0.13465">
        <ele>60</ele>
        <time>2013-02-22T14:02:19.000Z</time>
      </trkpt>
      <trkpt lat="47.09042" lon="-0.13467">
        <ele>60</ele>
        <time>2013-02-22T14:02:20.000Z</time>
      </trkpt>
      <trkpt lat="47.09038" lon="-0.1347">
        <ele>60</ele>
        <time>2013-02-22T14:02:25.000Z</time>
      </trkpt>
      <trkpt lat="47.09038" lon="-0.13471">
        <ele>60</ele>
        <time>2013-02-22T14:02:26.000Z</time>
      </trkpt>
      <trkpt lat="47.09035" lon="-0.13476">
        <ele>60</ele>
        <time>2013-02-22T14:02:30.000Z</time>
      </trkpt>
      <trkpt lat="47.09035" lon="-0.13477">
        <ele>60</ele>
        <time>2013-02-22T14:02:31.000Z</time>
      </trkpt>
      <trkpt lat="47.09032" lon="-0.13481">
        <ele>60</ele>
        <time>2013-02-22T14:02:33.000Z</time>
      </trkpt>
      <trkpt lat="47.09031" lon="-0.13482">
        <ele>60</ele>
        <time>2013-02-22T14:02:34.000Z</time>
      </trkpt>
      <trkpt lat="47.09029" lon="-0.13486">
        <ele>60</ele>
        <time>2013-02-22T14:02:37.000Z</time>
      </trkpt>
      <trkpt lat="47.09028" lon="-0.13487">
        <ele>60</ele>
        <time>2013-02-22T14:02:38.000Z</time>
      </trkpt>
      <trkpt lat="47.09024" lon="-0.13491">
        <ele>60</ele>
        <time>2013-02-22T14:02:41.000Z</time>
      </trkpt>
      <trkpt lat="47.09024" lon="-0.13492">
        <ele>61</ele>
        <time>2013-02-22T14:02:42.000Z</time>
      </trkpt>
      <trkpt lat="47.09022" lon="-0.13495">
        <ele>61</ele>
        <time>2013-02-22T14:02:44.000Z</time>
      </trkpt>
      <trkpt lat="47.0902" lon="-0.13497">
        <ele>61</ele>
        <time>2013-02-22T14:02:45.000Z</time>
      </trkpt>
      <trkpt lat="47.09018" lon="-0.13501">
        <ele>61</ele>
        <time>2013-02-22T14:02:48.000Z</time>
      </trkpt>
      <trkpt lat="47.09016" lon="-0.13502">
        <ele>61</ele>
        <time>2013-02-22T14:02:49.000Z</time>
      </trkpt>
      <trkpt lat="47.09014" lon="-0.13504">
        <ele>61</ele>
        <time>2013-02-22T14:02:52.000Z</time>
      </trkpt>
      <trkpt lat="47.09012" lon="-0.13505">
        <ele>61</ele>
        <time>2013-02-22T14:02:53.000Z</time>
      </trkpt>
      <trkpt lat="47.09009" lon="-0.13509">
        <ele>61</ele>
        <time>2013-02-22T14:02:57.000Z</time>
      </trkpt>
      <trkpt lat="47.09009" lon="-0.1351">
        <ele>61</ele>
        <time>2013-02-22T14:02:58.000Z</time>
      </trkpt>
      <trkpt lat="47.09006" lon="-0.13514">
        <ele>61</ele>
        <time>2013-02-22T14:03:02.000Z</time>
      </trkpt>
      <trkpt lat="47.09005" lon="-0.13515">
        <ele>61</ele>
        <time>2013-02-22T14:03:03.000Z</time>
      </trkpt>
      <trkpt lat="47.09003" lon="-0.13518">
        <ele>61</ele>
        <time>2013-02-22T14:03:05.000Z</time>
      </trkpt>
      <trkpt lat="47.09001" lon="-0.13519">
        <ele>61</ele>
        <time>2013-02-22T14:03:06.000Z</time>
      </trkpt>
      <trkpt lat="47.08998" lon="-0.13522">
        <ele>63</ele>
        <time>2013-02-22T14:03:09.000Z</time>
      </trkpt>
      <trkpt lat="47.08997" lon="-0.13523">
        <ele>63</ele>
        <time>2013-02-22T14:03:10.000Z</time>
      </trkpt>
      <trkpt lat="47.08993" lon="-0.13525">
        <ele>63</ele>
        <time>2013-02-22T14:03:13.000Z</time>
      </trkpt>
      <trkpt lat="47.08992" lon="-0.13526">
        <ele>63</ele>
        <time>2013-02-22T14:03:14.000Z</time>
      </trkpt>
      <trkpt lat="47.08989" lon="-0.1353">
        <ele>63</ele>
        <time>2013-02-22T14:03:18.000Z</time>
      </trkpt>
      <trkpt lat="47.08988" lon="-0.1353">
        <ele>63</ele>
        <time>2013-02-22T14:03:19.000Z</time>
      </trkpt>
      <trkpt lat="47.08986" lon="-0.13534">
        <ele>63</ele>
        <time>2013-02-22T14:03:22.000Z</time>
      </trkpt>
      <trkpt lat="47.08985" lon="-0.13536">
        <ele>63</ele>
        <time>2013-02-22T14:03:23.000Z</time>
      </trkpt>
      <trkpt lat="47.08982" lon="-0.13541">
        <ele>63</ele>
        <time>2013-02-22T14:03:27.000Z</time>
      </trkpt>
      <trkpt lat="47.08981" lon="-0.13542">
        <ele>63</ele>
        <time>2013-02-22T14:03:28.000Z</time>
      </trkpt>
      <trkpt lat="47.08978" lon="-0.13544">
        <ele>63</ele>
        <time>2013-02-22T14:03:30.000Z</time>
      </trkpt>
      <trkpt lat="47.08976" lon="-0.13545">
        <ele>63</ele>
        <time>2013-02-22T14:03:31.000Z</time>
      </trkpt>
      <trkpt lat="47.08974" lon="-0.1355">
        <ele>63</ele>
        <time>2013-02-22T14:03:34.000Z</time>
      </trkpt>
      <trkpt lat="47.08973" lon="-0.13553">
        <ele>63</ele>
        <time>2013-02-22T14:03:35.000Z</time>
      </trkpt>
      <trkpt lat="47.0897" lon="-0.13556">
        <ele>63</ele>
        <time>2013-02-22T14:03:38.000Z</time>
      </trkpt>
      <trkpt lat="47.0897" lon="-0.13558">
        <ele>63</ele>
        <time>2013-02-22T14:03:39.000Z</time>
      </trkpt>
      <trkpt lat="47.08967" lon="-0.13562">
        <ele>63</ele>
        <time>2013-02-22T14:03:45.000Z</time>
      </trkpt>
      <trkpt lat="47.08966" lon="-0.13562">
        <ele>63</ele>
        <time>2013-02-22T14:03:46.000Z</time>
      </trkpt>
      <trkpt lat="47.08964" lon="-0.13566">
        <ele>63</ele>
        <time>2013-02-22T14:03:49.000Z</time>
      </trkpt>
      <trkpt lat="47.08963" lon="-0.13567">
        <ele>63</ele>
        <time>2013-02-22T14:03:50.000Z</time>
      </trkpt>
      <trkpt lat="47.08959" lon="-0.13569">
        <ele>63</ele>
        <time>2013-02-22T14:03:53.000Z</time>
      </trkpt>
      <trkpt lat="47.08957" lon="-0.1357">
        <ele>63</ele>
        <time>2013-02-22T14:03:54.000Z</time>
      </trkpt>
      <trkpt lat="47.08954" lon="-0.13572">
        <ele>63</ele>
        <time>2013-02-22T14:03:56.000Z</time>
      </trkpt>
      <trkpt lat="47.08952" lon="-0.13574">
        <ele>63</ele>
        <time>2013-02-22T14:03:57.000Z</time>
      </trkpt>
      <trkpt lat="47.08948" lon="-0.13576">
        <ele>64</ele>
        <time>2013-02-22T14:04:01.000Z</time>
      </trkpt>
      <trkpt lat="47.08948" lon="-0.13576">
        <ele>64</ele>
        <time>2013-02-22T14:04:02.000Z</time>
      </trkpt>
      <trkpt lat="47.08945" lon="-0.13579">
        <ele>64</ele>
        <time>2013-02-22T14:04:05.000Z</time>
      </trkpt>
      <trkpt lat="47.08944" lon="-0.13579">
        <ele>64</ele>
        <time>2013-02-22T14:04:06.000Z</time>
      </trkpt>
      <trkpt lat="47.0894" lon="-0.13581">
        <ele>64</ele>
        <time>2013-02-22T14:04:10.000Z</time>
      </trkpt>
      <trkpt lat="47.08939" lon="-0.13582">
        <ele>64</ele>
        <time>2013-02-22T14:04:11.000Z</time>
      </trkpt>
      <trkpt lat="47.08936" lon="-0.13587">
        <ele>65</ele>
        <time>2013-02-22T14:04:16.000Z</time>
      </trkpt>
      <trkpt lat="47.08935" lon="-0.13588">
        <ele>65</ele>
        <time>2013-02-22T14:04:17.000Z</time>
      </trkpt>
      <trkpt lat="47.08932" lon="-0.13592">
        <ele>65</ele>
        <time>2013-02-22T14:04:21.000Z</time>
      </trkpt>
      <trkpt lat="47.08931" lon="-0.13594">
        <ele>65</ele>
        <time>2013-02-22T14:04:22.000Z</time>
      </trkpt>
      <trkpt lat="47.08929" lon="-0.13597">
        <ele>65</ele>
        <time>2013-02-22T14:04:26.000Z</time>
      </trkpt>
      <trkpt lat="47.08928" lon="-0.13599">
        <ele>65</ele>
        <time>2013-02-22T14:04:27.000Z</time>
      </trkpt>
      <trkpt lat="47.08926" lon="-0.13604">
        <ele>65</ele>
        <time>2013-02-22T14:04:30.000Z</time>
      </trkpt>
      <trkpt lat="47.08925" lon="-0.13604">
        <ele>65</ele>
        <time>2013-02-22T14:04:31.000Z</time>
      </trkpt>
      <trkpt lat="47.08922" lon="-0.13608">
        <ele>65</ele>
        <time>2013-02-22T14:04:35.000Z</time>
      </trkpt>
      <trkpt lat="47.08921" lon="-0.13609">
        <ele>65</ele>
        <time>2013-02-22T14:04:36.000Z</time>
      </trkpt>
      <trkpt lat="47.08918" lon="-0.13612">
        <ele>65</ele>
        <time>2013-02-22T14:04:39.000Z</time>
      </trkpt>
      <trkpt lat="47.08917" lon="-0.13613">
        <ele>65</ele>
        <time>2013-02-22T14:04:40.000Z</time>
      </trkpt>
      <trkpt lat="47.08913" lon="-0.13615">
        <ele>66</ele>
        <time>2013-02-22T14:04:44.000Z</time>
      </trkpt>
      <trkpt lat="47.08913" lon="-0.13616">
        <ele>66</ele>
        <time>2013-02-22T14:04:45.000Z</time>
      </trkpt>
      <trkpt lat="47.08909" lon="-0.13619">
        <ele>66</ele>
        <time>2013-02-22T14:04:50.000Z</time>
      </trkpt>
      <trkpt lat="47.08909" lon="-0.1362">
        <ele>66</ele>
        <time>2013-02-22T14:04:51.000Z</time>
      </trkpt>
      <trkpt lat="47.08906" lon="-0.13625">
        <ele>66</ele>
        <time>2013-02-22T14:04:55.000Z</time>
      </trkpt>
      <trkpt lat="47.08905" lon="-0.13625">
        <ele>66</ele>
        <time>2013-02-22T14:04:56.000Z</time>
      </trkpt>
      <trkpt lat="47.08903" lon="-0.1363">
        <ele>66</ele>
        <time>2013-02-22T14:05:00.000Z</time>
      </trkpt>
      <trkpt lat="47.08901" lon="-0.13632">
        <ele>66</ele>
        <time>2013-02-22T14:05:01.000Z</time>
      </trkpt>
      <trkpt lat="47.08898" lon="-0.13635">
        <ele>67</ele>
        <time>2013-02-22T14:05:03.000Z</time>
      </trkpt>
      <trkpt lat="47.08896" lon="-0.13636">
        <ele>67</ele>
        <time>2013-02-22T14:05:04.000Z</time>
      </trkpt>
      <trkpt lat="47.08895" lon="-0.13639">
        <ele>67</ele>
        <time>2013-02-22T14:05:05.000Z</time>
      </trkpt>
      <trkpt lat="47.08892" lon="-0.13641">
        <ele>67</ele>
        <time>2013-02-22T14:05:06.000Z</time>
      </trkpt>
      <trkpt lat="47.08889" lon="-0.13644">
        <ele>67</ele>
        <time>2013-02-22T14:05:08.000Z</time>
      </trkpt>
      <trkpt lat="47.08887" lon="-0.13646">
        <ele>67</ele>
        <time>2013-02-22T14:05:09.000Z</time>
      </trkpt>
      <trkpt lat="47.08884" lon="-0.1365">
        <ele>67</ele>
        <time>2013-02-22T14:05:11.000Z</time>
      </trkpt>
      <trkpt lat="47.08882" lon="-0.13651">
        <ele>67</ele>
        <time>2013-02-22T14:05:12.000Z</time>
      </trkpt>
      <trkpt lat="47.08879" lon="-0.13654">
        <ele>67</ele>
        <time>2013-02-22T14:05:14.000Z</time>
      </trkpt>
      <trkpt lat="47.08878" lon="-0.13655">
        <ele>67</ele>
        <time>2013-02-22T14:05:15.000Z</time>
      </trkpt>
      <trkpt lat="47.08876" lon="-0.13659">
        <ele>67</ele>
        <time>2013-02-22T14:05:19.000Z</time>
      </trkpt>
      <trkpt lat="47.08875" lon="-0.1366">
        <ele>67</ele>
        <time>2013-02-22T14:05:20.000Z</time>
      </trkpt>
      <trkpt lat="47.08872" lon="-0.13664">
        <ele>67</ele>
        <time>2013-02-22T14:05:23.000Z</time>
      </trkpt>
      <trkpt lat="47.08871" lon="-0.13666">
        <ele>67</ele>
        <time>2013-02-22T14:05:24.000Z</time>
      </trkpt>
      <trkpt lat="47.08868" lon="-0.13669">
        <ele>67</ele>
        <time>2013-02-22T14:05:26.000Z</time>
      </trkpt>
      <trkpt lat="47.08867" lon="-0.13671">
        <ele>67</ele>
        <time>2013-02-22T14:05:27.000Z</time>
      </trkpt>
      <trkpt lat="47.08864" lon="-0.13674">
        <ele>67</ele>
        <time>2013-02-22T14:05:31.000Z</time>
      </trkpt>
      <trkpt lat="47.08863" lon="-0.13675">
        <ele>67</ele>
        <time>2013-02-22T14:05:32.000Z</time>
      </trkpt>
      <trkpt lat="47.0886" lon="-0.13678">
        <ele>67</ele>
        <time>2013-02-22T14:05:37.000Z</time>
      </trkpt>
      <trkpt lat="47.08859" lon="-0.1368">
        <ele>67</ele>
        <time>2013-02-22T14:05:38.000Z</time>
      </trkpt>
      <trkpt lat="47.08857" lon="-0.13683">
        <ele>67</ele>
        <time>2013-02-22T14:05:42.000Z</time>
      </trkpt>
      <trkpt lat="47.08856" lon="-0.13684">
        <ele>67</ele>
        <time>2013-02-22T14:05:43.000Z</time>
      </trkpt>
      <trkpt lat="47.08853" lon="-0.13687">
        <ele>67</ele>
        <time>2013-02-22T14:05:49.000Z</time>
      </trkpt>
      <trkpt lat="47.08852" lon="-0.13687">
        <ele>67</ele>
        <time>2013-02-22T14:05:50.000Z</time>
      </trkpt>
      <trkpt lat="47.08848" lon="-0.13691">
        <ele>67</ele>
        <time>2013-02-22T14:05:55.000Z</time>
      </trkpt>
      <trkpt lat="47.08847" lon="-0.13691">
        <ele>67</ele>
        <time>2013-02-22T14:05:56.000Z</time>
      </trkpt>
      <trkpt lat="47.08844" lon="-0.13696">
        <ele>67</ele>
        <time>2013-02-22T14:05:59.000Z</time>
      </trkpt>
      <trkpt lat="47.08844" lon="-0.13696">
        <ele>67</ele>
        <time>2013-02-22T14:06:00.000Z</time>
      </trkpt>
      <trkpt lat="47.08842" lon="-0.13701">
        <ele>67</ele>
        <time>2013-02-22T14:06:05.000Z</time>
      </trkpt>
      <trkpt lat="47.08843" lon="-0.13703">
        <ele>67</ele>
        <time>2013-02-22T14:06:06.000Z</time>
      </trkpt>
      <trkpt lat="47.0884" lon="-0.13707">
        <ele>67</ele>
        <time>2013-02-22T14:06:10.000Z</time>
      </trkpt>
      <trkpt lat="47.08838" lon="-0.13708">
        <ele>67</ele>
        <time>2013-02-22T14:06:11.000Z</time>
      </trkpt>
      <trkpt lat="47.08836" lon="-0.13711">
        <ele>67</ele>
        <time>2013-02-22T14:06:13.000Z</time>
      </trkpt>
      <trkpt lat="47.08834" lon="-0.13712">
        <ele>67</ele>
        <time>2013-02-22T14:06:14.000Z</time>
      </trkpt>
      <trkpt lat="47.08831" lon="-0.13715">
        <ele>68</ele>
        <time>2013-02-22T14:06:17.000Z</time>
      </trkpt>
      <trkpt lat="47.0883" lon="-0.13716">
        <ele>68</ele>
        <time>2013-02-22T14:06:18.000Z</time>
      </trkpt>
      <trkpt lat="47.08826" lon="-0.13718">
        <ele>68</ele>
        <time>2013-02-22T14:06:21.000Z</time>
      </trkpt>
      <trkpt lat="47.08825" lon="-0.1372">
        <ele>68</ele>
        <time>2013-02-22T14:06:22.000Z</time>
      </trkpt>
      <trkpt lat="47.08822" lon="-0.13724">
        <ele>68</ele>
        <time>2013-02-22T14:06:26.000Z</time>
      </trkpt>
      <trkpt lat="47.08821" lon="-0.13724">
        <ele>68</ele>
        <time>2013-02-22T14:06:27.000Z</time>
      </trkpt>
      <trkpt lat="47.08819" lon="-0.13727">
        <ele>68</ele>
        <time>2013-02-22T14:06:30.000Z</time>
      </trkpt>
      <trkpt lat="47.08817" lon="-0.13728">
        <ele>68</ele>
        <time>2013-02-22T14:06:31.000Z</time>
      </trkpt>
      <trkpt lat="47.08813" lon="-0.13731">
        <ele>68</ele>
        <time>2013-02-22T14:06:34.000Z</time>
      </trkpt>
      <trkpt lat="47.08812" lon="-0.13733">
        <ele>68</ele>
        <time>2013-02-22T14:06:35.000Z</time>
      </trkpt>
      <trkpt lat="47.08809" lon="-0.13736">
        <ele>68</ele>
        <time>2013-02-22T14:06:43.000Z</time>
      </trkpt>
      <trkpt lat="47.08807" lon="-0.13738">
        <ele>68</ele>
        <time>2013-02-22T14:06:44.000Z</time>
      </trkpt>
      <trkpt lat="47.08804" lon="-0.13742">
        <ele>68</ele>
        <time>2013-02-22T14:06:47.000Z</time>
      </trkpt>
      <trkpt lat="47.08803" lon="-0.13742">
        <ele>68</ele>
        <time>2013-02-22T14:06:48.000Z</time>
      </trkpt>
      <trkpt lat="47.08801" lon="-0.13746">
        <ele>68</ele>
        <time>2013-02-22T14:06:50.000Z</time>
      </trkpt>
      <trkpt lat="47.08799" lon="-0.13747">
        <ele>68</ele>
        <time>2013-02-22T14:06:51.000Z</time>
      </trkpt>
      <trkpt lat="47.08796" lon="-0.1375">
        <ele>68</ele>
        <time>2013-02-22T14:06:53.000Z</time>
      </trkpt>
      <trkpt lat="47.08795" lon="-0.13751">
        <ele>68</ele>
        <time>2013-02-22T14:06:54.000Z</time>
      </trkpt>
      <trkpt lat="47.08791" lon="-0.13754">
        <ele>68</ele>
        <time>2013-02-22T14:06:55.000Z</time>
      </trkpt>
      <trkpt lat="47.08789" lon="-0.13756">
        <ele>68</ele>
        <time>2013-02-22T14:06:56.000Z</time>
      </trkpt>
      <trkpt lat="47.08785" lon="-0.13757">
        <ele>68</ele>
        <time>2013-02-22T14:06:59.000Z</time>
      </trkpt>
      <trkpt lat="47.08784" lon="-0.13758">
        <ele>68</ele>
        <time>2013-02-22T14:07:00.000Z</time>
      </trkpt>
      <trkpt lat="47.08782" lon="-0.13761">
        <ele>68</ele>
        <time>2013-02-22T14:07:02.000Z</time>
      </trkpt>
      <trkpt lat="47.0878" lon="-0.13763">
        <ele>69</ele>
        <time>2013-02-22T14:07:03.000Z</time>
      </trkpt>
      <trkpt lat="47.08777" lon="-0.13767">
        <ele>69</ele>
        <time>2013-02-22T14:07:07.000Z</time>
      </trkpt>
      <trkpt lat="47.08776" lon="-0.13768">
        <ele>69</ele>
        <time>2013-02-22T14:07:08.000Z</time>
      </trkpt>
      <trkpt lat="47.08772" lon="-0.13771">
        <ele>69</ele>
        <time>2013-02-22T14:07:14.000Z</time>
      </trkpt>
      <trkpt lat="47.08772" lon="-0.13771">
        <ele>69</ele>
        <time>2013-02-22T14:07:15.000Z</time>
      </trkpt>
      <trkpt lat="47.08768" lon="-0.13774">
        <ele>69</ele>
        <time>2013-02-22T14:07:22.000Z</time>
      </trkpt>
      <trkpt lat="47.08768" lon="-0.13775">
        <ele>69</ele>
        <time>2013-02-22T14:07:23.000Z</time>
      </trkpt>
      <trkpt lat="47.08764" lon="-0.13779">
        <ele>69</ele>
        <time>2013-02-22T14:07:28.000Z</time>
      </trkpt>
      <trkpt lat="47.08763" lon="-0.1378">
        <ele>69</ele>
        <time>2013-02-22T14:07:29.000Z</time>
      </trkpt>
      <trkpt lat="47.0876" lon="-0.13784">
        <ele>69</ele>
        <time>2013-02-22T14:07:33.000Z</time>
      </trkpt>
      <trkpt lat="47.08759" lon="-0.13785">
        <ele>69</ele>
        <time>2013-02-22T14:07:34.000Z</time>
      </trkpt>
      <trkpt lat="47.08757" lon="-0.13787">
        <ele>69</ele>
        <time>2013-02-22T14:07:37.000Z</time>
      </trkpt>
      <trkpt lat="47.08755" lon="-0.13788">
        <ele>69</ele>
        <time>2013-02-22T14:07:38.000Z</time>
      </trkpt>
      <trkpt lat="47.08752" lon="-0.1379">
        <ele>69</ele>
        <time>2013-02-22T14:07:40.000Z</time>
      </trkpt>
      <trkpt lat="47.0875" lon="-0.13791">
        <ele>69</ele>
        <time>2013-02-22T14:07:41.000Z</time>
      </trkpt>
      <trkpt lat="47.08746" lon="-0.13792">
        <ele>70</ele>
        <time>2013-02-22T14:07:43.000Z</time>
      </trkpt>
      <trkpt lat="47.08745" lon="-0.13792">
        <ele>70</ele>
        <time>2013-02-22T14:07:44.000Z</time>
      </trkpt>
      <trkpt lat="47.08742" lon="-0.13796">
        <ele>70</ele>
        <time>2013-02-22T14:07:48.000Z</time>
      </trkpt>
      <trkpt lat="47.08741" lon="-0.13796">
        <ele>70</ele>
        <time>2013-02-22T14:07:49.000Z</time>
      </trkpt>
      <trkpt lat="47.08739" lon="-0.138">
        <ele>70</ele>
        <time>2013-02-22T14:07:52.000Z</time>
      </trkpt>
      <trkpt lat="47.08738" lon="-0.13802">
        <ele>70</ele>
        <time>2013-02-22T14:07:53.000Z</time>
      </trkpt>
      <trkpt lat="47.08736" lon="-0.13806">
        <ele>70</ele>
        <time>2013-02-22T14:07:55.000Z</time>
      </trkpt>
      <trkpt lat="47.08734" lon="-0.13806">
        <ele>70</ele>
        <time>2013-02-22T14:07:56.000Z</time>
      </trkpt>
      <trkpt lat="47.08732" lon="-0.13808">
        <ele>70</ele>
        <time>2013-02-22T14:07:58.000Z</time>
      </trkpt>
      <trkpt lat="47.0873" lon="-0.13808">
        <ele>70</ele>
        <time>2013-02-22T14:07:59.000Z</time>
      </trkpt>
      <trkpt lat="47.08726" lon="-0.1381">
        <ele>70</ele>
        <time>2013-02-22T14:08:01.000Z</time>
      </trkpt>
      <trkpt lat="47.08723" lon="-0.13811">
        <ele>70</ele>
        <time>2013-02-22T14:08:02.000Z</time>
      </trkpt>
      <trkpt lat="47.08719" lon="-0.13814">
        <ele>70</ele>
        <time>2013-02-22T14:08:05.000Z</time>
      </trkpt>
      <trkpt lat="47.08718" lon="-0.13814">
        <ele>70</ele>
        <time>2013-02-22T14:08:06.000Z</time>
      </trkpt>
      <trkpt lat="47.08715" lon="-0.13817">
        <ele>70</ele>
        <time>2013-02-22T14:08:11.000Z</time>
      </trkpt>
      <trkpt lat="47.08714" lon="-0.13818">
        <ele>70</ele>
        <time>2013-02-22T14:08:12.000Z</time>
      </trkpt>
      <trkpt lat="47.08711" lon="-0.1382">
        <ele>70</ele>
        <time>2013-02-22T14:08:14.000Z</time>
      </trkpt>
      <trkpt lat="47.0871" lon="-0.13821">
        <ele>70</ele>
        <time>2013-02-22T14:08:15.000Z</time>
      </trkpt>
      <trkpt lat="47.08706" lon="-0.13824">
        <ele>70</ele>
        <time>2013-02-22T14:08:19.000Z</time>
      </trkpt>
      <trkpt lat="47.08705" lon="-0.13825">
        <ele>70</ele>
        <time>2013-02-22T14:08:20.000Z</time>
      </trkpt>
      <trkpt lat="47.08702" lon="-0.13828">
        <ele>70</ele>
        <time>2013-02-22T14:08:31.000Z</time>
      </trkpt>
      <trkpt lat="47.08701" lon="-0.13829">
        <ele>70</ele>
        <time>2013-02-22T14:08:32.000Z</time>
      </trkpt>
      <trkpt lat="47.08697" lon="-0.13832">
        <ele>70</ele>
        <time>2013-02-22T14:08:41.000Z</time>
      </trkpt>
      <trkpt lat="47.08696" lon="-0.13833">
        <ele>70</ele>
        <time>2013-02-22T14:08:42.000Z</time>
      </trkpt>
      <trkpt lat="47.08693" lon="-0.13834">
        <ele>70</ele>
        <time>2013-02-22T14:08:44.000Z</time>
      </trkpt>
      <trkpt lat="47.08691" lon="-0.13834">
        <ele>70</ele>
        <time>2013-02-22T14:08:45.000Z</time>
      </trkpt>
      <trkpt lat="47.08688" lon="-0.13836">
        <ele>70</ele>
        <time>2013-02-22T14:08:47.000Z</time>
      </trkpt>
      <trkpt lat="47.08687" lon="-0.13837">
        <ele>70</ele>
        <time>2013-02-22T14:08:48.000Z</time>
      </trkpt>
      <trkpt lat="47.08683" lon="-0.13839">
        <ele>70</ele>
        <time>2013-02-22T14:08:51.000Z</time>
      </trkpt>
      <trkpt lat="47.08682" lon="-0.1384">
        <ele>70</ele>
        <time>2013-02-22T14:08:52.000Z</time>
      </trkpt>
      <trkpt lat="47.08679" lon="-0.13843">
        <ele>70</ele>
        <time>2013-02-22T14:08:54.000Z</time>
      </trkpt>
      <trkpt lat="47.08677" lon="-0.13843">
        <ele>70</ele>
        <time>2013-02-22T14:08:55.000Z</time>
      </trkpt>
      <trkpt lat="47.08674" lon="-0.13844">
        <ele>70</ele>
        <time>2013-02-22T14:08:56.000Z</time>
      </trkpt>
      <trkpt lat="47.08673" lon="-0.13844">
        <ele>70</ele>
        <time>2013-02-22T14:08:57.000Z</time>
      </trkpt>
      <trkpt lat="47.08668" lon="-0.13844">
        <ele>70</ele>
        <time>2013-02-22T14:09:01.000Z</time>
      </trkpt>
      <trkpt lat="47.08668" lon="-0.13845">
        <ele>70</ele>
        <time>2013-02-22T14:09:02.000Z</time>
      </trkpt>
      <trkpt lat="47.08665" lon="-0.13849">
        <ele>70</ele>
        <time>2013-02-22T14:09:07.000Z</time>
      </trkpt>
      <trkpt lat="47.08664" lon="-0.1385">
        <ele>70</ele>
        <time>2013-02-22T14:09:08.000Z</time>
      </trkpt>
      <trkpt lat="47.08661" lon="-0.13853">
        <ele>70</ele>
        <time>2013-02-22T14:09:13.000Z</time>
      </trkpt>
      <trkpt lat="47.0866" lon="-0.13854">
        <ele>70</ele>
        <time>2013-02-22T14:09:14.000Z</time>
      </trkpt>
      <trkpt lat="47.08656" lon="-0.13857">
        <ele>70</ele>
        <time>2013-02-22T14:09:20.000Z</time>
      </trkpt>
      <trkpt lat="47.08655" lon="-0.13858">
        <ele>70</ele>
        <time>2013-02-22T14:09:21.000Z</time>
      </trkpt>
      <trkpt lat="47.08652" lon="-0.13862">
        <ele>70</ele>
        <time>2013-02-22T14:09:27.000Z</time>
      </trkpt>
      <trkpt lat="47.08651" lon="-0.13863">
        <ele>70</ele>
        <time>2013-02-22T14:09:28.000Z</time>
      </trkpt>
      <trkpt lat="47.08648" lon="-0.13865">
        <ele>70</ele>
        <time>2013-02-22T14:09:32.000Z</time>
      </trkpt>
      <trkpt lat="47.08646" lon="-0.13866">
        <ele>70</ele>
        <time>2013-02-22T14:09:33.000Z</time>
      </trkpt>
      <trkpt lat="47.08643" lon="-0.13868">
        <ele>70</ele>
        <time>2013-02-22T14:09:36.000Z</time>
      </trkpt>
      <trkpt lat="47.08642" lon="-0.13869">
        <ele>70</ele>
        <time>2013-02-22T14:09:37.000Z</time>
      </trkpt>
      <trkpt lat="47.08638" lon="-0.1387">
        <ele>70</ele>
        <time>2013-02-22T14:09:40.000Z</time>
      </trkpt>
      <trkpt lat="47.08637" lon="-0.1387">
        <ele>70</ele>
        <time>2013-02-22T14:09:41.000Z</time>
      </trkpt>
      <trkpt lat="47.08633" lon="-0.13871">
        <ele>70</ele>
        <time>2013-02-22T14:09:51.000Z</time>
      </trkpt>
      <trkpt lat="47.08632" lon="-0.13871">
        <ele>70</ele>
        <time>2013-02-22T14:09:52.000Z</time>
      </trkpt>
      <trkpt lat="47.0863" lon="-0.13871">
        <ele>70</ele>
        <time>2013-02-22T14:09:56.000Z</time>
      </trkpt>
      <trkpt lat="47.08619" lon="-0.13889">
        <ele>71</ele>
        <time>2013-02-22T14:10:08.534Z</time>
      </trkpt>
      <trkpt lat="47.08618" lon="-0.13887">
        <ele>71</ele>
        <time>2013-02-22T14:10:56.001Z</time>
      </trkpt>
      <trkpt lat="47.08613" lon="-0.13887">
        <ele>71</ele>
        <time>2013-02-22T14:10:57.001Z</time>
      </trkpt>
      <trkpt lat="47.0861" lon="-0.13891">
        <ele>71</ele>
        <time>2013-02-22T14:11:01.001Z</time>
      </trkpt>
      <trkpt lat="47.08609" lon="-0.13893">
        <ele>71</ele>
        <time>2013-02-22T14:11:02.001Z</time>
      </trkpt>
      <trkpt lat="47.08605" lon="-0.13896">
        <ele>71</ele>
        <time>2013-02-22T14:11:11.001Z</time>
      </trkpt>
      <trkpt lat="47.086" lon="-0.13901">
        <ele>71</ele>
        <time>2013-02-22T14:11:12.001Z</time>
      </trkpt>
      <trkpt lat="47.08595" lon="-0.13903">
        <ele>71</ele>
        <time>2013-02-22T14:11:16.001Z</time>
      </trkpt>
      <trkpt lat="47.08594" lon="-0.13904">
        <ele>71</ele>
        <time>2013-02-22T14:11:17.001Z</time>
      </trkpt>
      <trkpt lat="47.0859" lon="-0.13905">
        <ele>71</ele>
        <time>2013-02-22T14:11:22.001Z</time>
      </trkpt>
      <trkpt lat="47.0859" lon="-0.13905">
        <ele>71</ele>
        <time>2013-02-22T14:11:23.001Z</time>
      </trkpt>
      <trkpt lat="47.08588" lon="-0.13905">
        <ele>71</ele>
        <time>2013-02-22T14:11:27.001Z</time>
      </trkpt>
      <trkpt lat="47.08585" lon="-0.13906">
        <ele>71</ele>
        <time>2013-02-22T14:11:28.001Z</time>
      </trkpt>
      <trkpt lat="47.08581" lon="-0.13908">
        <ele>71</ele>
        <time>2013-02-22T14:11:32.001Z</time>
      </trkpt>
      <trkpt lat="47.0858" lon="-0.13908">
        <ele>71</ele>
        <time>2013-02-22T14:11:33.001Z</time>
      </trkpt>
      <trkpt lat="47.08577" lon="-0.13911">
        <ele>71</ele>
        <time>2013-02-22T14:11:36.001Z</time>
      </trkpt>
      <trkpt lat="47.08576" lon="-0.13912">
        <ele>71</ele>
        <time>2013-02-22T14:11:37.001Z</time>
      </trkpt>
      <trkpt lat="47.08573" lon="-0.13915">
        <ele>71</ele>
        <time>2013-02-22T14:11:39.001Z</time>
      </trkpt>
      <trkpt lat="47.08572" lon="-0.13916">
        <ele>71</ele>
        <time>2013-02-22T14:11:40.001Z</time>
      </trkpt>
      <trkpt lat="47.08569" lon="-0.13919">
        <ele>71</ele>
        <time>2013-02-22T14:11:42.001Z</time>
      </trkpt>
      <trkpt lat="47.08568" lon="-0.1392">
        <ele>71</ele>
        <time>2013-02-22T14:11:43.001Z</time>
      </trkpt>
      <trkpt lat="47.08564" lon="-0.13923">
        <ele>71</ele>
        <time>2013-02-22T14:11:46.001Z</time>
      </trkpt>
      <trkpt lat="47.08563" lon="-0.13923">
        <ele>71</ele>
        <time>2013-02-22T14:11:47.001Z</time>
      </trkpt>
      <trkpt lat="47.08559" lon="-0.13925">
        <ele>71</ele>
        <time>2013-02-22T14:11:50.001Z</time>
      </trkpt>
      <trkpt lat="47.08558" lon="-0.13925">
        <ele>71</ele>
        <time>2013-02-22T14:11:51.001Z</time>
      </trkpt>
      <trkpt lat="47.08554" lon="-0.13926">
        <ele>71</ele>
        <time>2013-02-22T14:11:54.001Z</time>
      </trkpt>
      <trkpt lat="47.08552" lon="-0.13927">
        <ele>71</ele>
        <time>2013-02-22T14:11:55.001Z</time>
      </trkpt>
      <trkpt lat="47.08548" lon="-0.13928">
        <ele>71</ele>
        <time>2013-02-22T14:11:59.001Z</time>
      </trkpt>
      <trkpt lat="47.08547" lon="-0.13929">
        <ele>71</ele>
        <time>2013-02-22T14:12:00.001Z</time>
      </trkpt>
      <trkpt lat="47.08542" lon="-0.1393">
        <ele>71</ele>
        <time>2013-02-22T14:12:04.001Z</time>
      </trkpt>
      <trkpt lat="47.08541" lon="-0.13931">
        <ele>71</ele>
        <time>2013-02-22T14:12:05.001Z</time>
      </trkpt>
      <trkpt lat="47.08537" lon="-0.13933">
        <ele>71</ele>
        <time>2013-02-22T14:12:09.001Z</time>
      </trkpt>
      <trkpt lat="47.08535" lon="-0.13933">
        <ele>71</ele>
        <time>2013-02-22T14:12:10.001Z</time>
      </trkpt>
      <trkpt lat="47.08531" lon="-0.13934">
        <ele>71</ele>
        <time>2013-02-22T14:12:16.001Z</time>
      </trkpt>
      <trkpt lat="47.08531" lon="-0.13934">
        <ele>71</ele>
        <time>2013-02-22T14:12:17.001Z</time>
      </trkpt>
      <trkpt lat="47.08527" lon="-0.13937">
        <ele>71</ele>
        <time>2013-02-22T14:12:20.001Z</time>
      </trkpt>
      <trkpt lat="47.08526" lon="-0.13938">
        <ele>71</ele>
        <time>2013-02-22T14:12:21.001Z</time>
      </trkpt>
      <trkpt lat="47.08522" lon="-0.13939">
        <ele>71</ele>
        <time>2013-02-22T14:12:27.001Z</time>
      </trkpt>
      <trkpt lat="47.08521" lon="-0.1394">
        <ele>71</ele>
        <time>2013-02-22T14:12:28.001Z</time>
      </trkpt>
      <trkpt lat="47.0852" lon="-0.13943">
        <ele>71</ele>
        <time>2013-02-22T14:12:37.001Z</time>
      </trkpt>
      <trkpt lat="47.08518" lon="-0.13944">
        <ele>71</ele>
        <time>2013-02-22T14:12:38.001Z</time>
      </trkpt>
      <trkpt lat="47.08514" lon="-0.13946">
        <ele>71</ele>
        <time>2013-02-22T14:12:41.001Z</time>
      </trkpt>
      <trkpt lat="47.08513" lon="-0.13946">
        <ele>71</ele>
        <time>2013-02-22T14:12:42.001Z</time>
      </trkpt>
      <trkpt lat="47.08509" lon="-0.13948">
        <ele>71</ele>
        <time>2013-02-22T14:12:46.001Z</time>
      </trkpt>
      <trkpt lat="47.08508" lon="-0.13948">
        <ele>71</ele>
        <time>2013-02-22T14:12:47.001Z</time>
      </trkpt>
      <trkpt lat="47.08505" lon="-0.13951">
        <ele>71</ele>
        <time>2013-02-22T14:12:49.001Z</time>
      </trkpt>
      <trkpt lat="47.08503" lon="-0.13951">
        <ele>71</ele>
        <time>2013-02-22T14:12:50.001Z</time>
      </trkpt>
      <trkpt lat="47.085" lon="-0.13953">
        <ele>71</ele>
        <time>2013-02-22T14:12:52.001Z</time>
      </trkpt>
      <trkpt lat="47.08499" lon="-0.13954">
        <ele>70</ele>
        <time>2013-02-22T14:12:53.001Z</time>
      </trkpt>
      <trkpt lat="47.08496" lon="-0.13958">
        <ele>71</ele>
        <time>2013-02-22T14:12:57.001Z</time>
      </trkpt>
      <trkpt lat="47.08495" lon="-0.13958">
        <ele>71</ele>
        <time>2013-02-22T14:12:58.001Z</time>
      </trkpt>
      <trkpt lat="47.08491" lon="-0.13961">
        <ele>71</ele>
        <time>2013-02-22T14:13:03.001Z</time>
      </trkpt>
      <trkpt lat="47.0849" lon="-0.13962">
        <ele>71</ele>
        <time>2013-02-22T14:13:04.001Z</time>
      </trkpt>
      <trkpt lat="47.08486" lon="-0.13964">
        <ele>71</ele>
        <time>2013-02-22T14:13:07.001Z</time>
      </trkpt>
      <trkpt lat="47.08484" lon="-0.13965">
        <ele>71</ele>
        <time>2013-02-22T14:13:08.001Z</time>
      </trkpt>
      <trkpt lat="47.08481" lon="-0.13966">
        <ele>71</ele>
        <time>2013-02-22T14:13:10.001Z</time>
      </trkpt>
      <trkpt lat="47.0848" lon="-0.13967">
        <ele>71</ele>
        <time>2013-02-22T14:13:11.001Z</time>
      </trkpt>
      <trkpt lat="47.08476" lon="-0.13969">
        <ele>71</ele>
        <time>2013-02-22T14:13:15.001Z</time>
      </trkpt>
      <trkpt lat="47.08475" lon="-0.1397">
        <ele>71</ele>
        <time>2013-02-22T14:13:16.001Z</time>
      </trkpt>
      <trkpt lat="47.08471" lon="-0.13974">
        <ele>71</ele>
        <time>2013-02-22T14:13:21.001Z</time>
      </trkpt>
      <trkpt lat="47.0847" lon="-0.13974">
        <ele>71</ele>
        <time>2013-02-22T14:13:22.001Z</time>
      </trkpt>
      <trkpt lat="47.08466" lon="-0.13976">
        <ele>70</ele>
        <time>2013-02-22T14:13:25.001Z</time>
      </trkpt>
      <trkpt lat="47.08464" lon="-0.13977">
        <ele>70</ele>
        <time>2013-02-22T14:13:26.001Z</time>
      </trkpt>
      <trkpt lat="47.08462" lon="-0.13979">
        <ele>70</ele>
        <time>2013-02-22T14:13:29.001Z</time>
      </trkpt>
      <trkpt lat="47.0846" lon="-0.1398">
        <ele>70</ele>
        <time>2013-02-22T14:13:30.001Z</time>
      </trkpt>
      <trkpt lat="47.08456" lon="-0.13982">
        <ele>70</ele>
        <time>2013-02-22T14:13:34.001Z</time>
      </trkpt>
      <trkpt lat="47.08455" lon="-0.13983">
        <ele>70</ele>
        <time>2013-02-22T14:13:35.001Z</time>
      </trkpt>
      <trkpt lat="47.08452" lon="-0.13985">
        <ele>70</ele>
        <time>2013-02-22T14:13:38.001Z</time>
      </trkpt>
      <trkpt lat="47.08451" lon="-0.13985">
        <ele>70</ele>
        <time>2013-02-22T14:13:39.001Z</time>
      </trkpt>
      <trkpt lat="47.08447" lon="-0.13988">
        <ele>70</ele>
        <time>2013-02-22T14:13:45.001Z</time>
      </trkpt>
      <trkpt lat="47.08446" lon="-0.13988">
        <ele>70</ele>
        <time>2013-02-22T14:13:46.001Z</time>
      </trkpt>
      <trkpt lat="47.08442" lon="-0.13991">
        <ele>70</ele>
        <time>2013-02-22T14:13:50.001Z</time>
      </trkpt>
      <trkpt lat="47.08441" lon="-0.13992">
        <ele>70</ele>
        <time>2013-02-22T14:13:51.001Z</time>
      </trkpt>
      <trkpt lat="47.08438" lon="-0.13995">
        <ele>70</ele>
        <time>2013-02-22T14:13:54.001Z</time>
      </trkpt>
      <trkpt lat="47.08436" lon="-0.13996">
        <ele>70</ele>
        <time>2013-02-22T14:13:55.001Z</time>
      </trkpt>
      <trkpt lat="47.08432" lon="-0.13996">
        <ele>70</ele>
        <time>2013-02-22T14:13:58.001Z</time>
      </trkpt>
      <trkpt lat="47.0843" lon="-0.13997">
        <ele>70</ele>
        <time>2013-02-22T14:13:59.001Z</time>
      </trkpt>
      <trkpt lat="47.08427" lon="-0.13999">
        <ele>70</ele>
        <time>2013-02-22T14:14:01.001Z</time>
      </trkpt>
      <trkpt lat="47.08426" lon="-0.14">
        <ele>70</ele>
        <time>2013-02-22T14:14:02.001Z</time>
      </trkpt>
      <trkpt lat="47.08422" lon="-0.14003">
        <ele>70</ele>
        <time>2013-02-22T14:14:08.001Z</time>
      </trkpt>
      <trkpt lat="47.08422" lon="-0.14004">
        <ele>70</ele>
        <time>2013-02-22T14:14:09.001Z</time>
      </trkpt>
      <trkpt lat="47.08418" lon="-0.14007">
        <ele>70</ele>
        <time>2013-02-22T14:14:13.001Z</time>
      </trkpt>
      <trkpt lat="47.08417" lon="-0.14007">
        <ele>70</ele>
        <time>2013-02-22T14:14:14.001Z</time>
      </trkpt>
      <trkpt lat="47.08414" lon="-0.1401">
        <ele>70</ele>
        <time>2013-02-22T14:14:17.001Z</time>
      </trkpt>
      <trkpt lat="47.08412" lon="-0.1401">
        <ele>70</ele>
        <time>2013-02-22T14:14:18.001Z</time>
      </trkpt>
      <trkpt lat="47.08409" lon="-0.14013">
        <ele>70</ele>
        <time>2013-02-22T14:14:22.001Z</time>
      </trkpt>
      <trkpt lat="47.08408" lon="-0.14014">
        <ele>70</ele>
        <time>2013-02-22T14:14:23.001Z</time>
      </trkpt>
      <trkpt lat="47.08404" lon="-0.14017">
        <ele>70</ele>
        <time>2013-02-22T14:14:26.001Z</time>
      </trkpt>
      <trkpt lat="47.08403" lon="-0.14018">
        <ele>70</ele>
        <time>2013-02-22T14:14:27.001Z</time>
      </trkpt>
      <trkpt lat="47.08399" lon="-0.14018">
        <ele>70</ele>
        <time>2013-02-22T14:14:30.001Z</time>
      </trkpt>
      <trkpt lat="47.08398" lon="-0.14019">
        <ele>70</ele>
        <time>2013-02-22T14:14:31.001Z</time>
      </trkpt>
      <trkpt lat="47.08395" lon="-0.14022">
        <ele>70</ele>
        <time>2013-02-22T14:14:34.001Z</time>
      </trkpt>
      <trkpt lat="47.08394" lon="-0.14023">
        <ele>70</ele>
        <time>2013-02-22T14:14:35.001Z</time>
      </trkpt>
      <trkpt lat="47.0839" lon="-0.14026">
        <ele>70</ele>
        <time>2013-02-22T14:14:38.001Z</time>
      </trkpt>
      <trkpt lat="47.08389" lon="-0.14027">
        <ele>70</ele>
        <time>2013-02-22T14:14:39.001Z</time>
      </trkpt>
      <trkpt lat="47.08386" lon="-0.1403">
        <ele>70</ele>
        <time>2013-02-22T14:14:42.001Z</time>
      </trkpt>
      <trkpt lat="47.08385" lon="-0.14031">
        <ele>70</ele>
        <time>2013-02-22T14:14:43.001Z</time>
      </trkpt>
      <trkpt lat="47.08382" lon="-0.14035">
        <ele>70</ele>
        <time>2013-02-22T14:14:46.001Z</time>
      </trkpt>
      <trkpt lat="47.08381" lon="-0.14036">
        <ele>70</ele>
        <time>2013-02-22T14:14:47.001Z</time>
      </trkpt>
      <trkpt lat="47.08377" lon="-0.14037">
        <ele>70</ele>
        <time>2013-02-22T14:14:50.001Z</time>
      </trkpt>
      <trkpt lat="47.08376" lon="-0.14038">
        <ele>70</ele>
        <time>2013-02-22T14:14:51.001Z</time>
      </trkpt>
      <trkpt lat="47.08374" lon="-0.14038">
        <ele>70</ele>
        <time>2013-02-22T14:14:54.001Z</time>
      </trkpt>
      <trkpt lat="47.08372" lon="-0.1404">
        <ele>70</ele>
        <time>2013-02-22T14:14:55.001Z</time>
      </trkpt>
      <trkpt lat="47.08369" lon="-0.14042">
        <ele>70</ele>
        <time>2013-02-22T14:14:57.001Z</time>
      </trkpt>
      <trkpt lat="47.08368" lon="-0.14043">
        <ele>70</ele>
        <time>2013-02-22T14:14:58.001Z</time>
      </trkpt>
      <trkpt lat="47.08364" lon="-0.14045">
        <ele>70</ele>
        <time>2013-02-22T14:15:01.001Z</time>
      </trkpt>
      <trkpt lat="47.08363" lon="-0.14046">
        <ele>70</ele>
        <time>2013-02-22T14:15:02.001Z</time>
      </trkpt>
      <trkpt lat="47.0836" lon="-0.14048">
        <ele>70</ele>
        <time>2013-02-22T14:15:05.001Z</time>
      </trkpt>
      <trkpt lat="47.08358" lon="-0.14049">
        <ele>70</ele>
        <time>2013-02-22T14:15:06.001Z</time>
      </trkpt>
      <trkpt lat="47.08355" lon="-0.14051">
        <ele>70</ele>
        <time>2013-02-22T14:15:10.001Z</time>
      </trkpt>
      <trkpt lat="47.08354" lon="-0.14052">
        <ele>70</ele>
        <time>2013-02-22T14:15:11.001Z</time>
      </trkpt>
      <trkpt lat="47.0835" lon="-0.14055">
        <ele>70</ele>
        <time>2013-02-22T14:15:44.001Z</time>
      </trkpt>
      <trkpt lat="47.0835" lon="-0.14055">
        <ele>70</ele>
        <time>2013-02-22T14:15:45.001Z</time>
      </trkpt>
      <trkpt lat="47.08346" lon="-0.14057">
        <ele>70</ele>
        <time>2013-02-22T14:15:59.001Z</time>
      </trkpt>
      <trkpt lat="47.08345" lon="-0.14057">
        <ele>70</ele>
        <time>2013-02-22T14:16:00.001Z</time>
      </trkpt>
      <trkpt lat="47.08344" lon="-0.14063">
        <ele>70</ele>
        <time>2013-02-22T14:16:16.001Z</time>
      </trkpt>
      <trkpt lat="47.08343" lon="-0.14063">
        <ele>70</ele>
        <time>2013-02-22T14:16:17.001Z</time>
      </trkpt>
      <trkpt lat="47.0834" lon="-0.14059">
        <ele>70</ele>
        <time>2013-02-22T14:16:34.001Z</time>
      </trkpt>
      <trkpt lat="47.0834" lon="-0.14057">
        <ele>70</ele>
        <time>2013-02-22T14:16:35.001Z</time>
      </trkpt>
      <trkpt lat="47.08336" lon="-0.14056">
        <ele>70</ele>
        <time>2013-02-22T14:16:57.001Z</time>
      </trkpt>
      <trkpt lat="47.08335" lon="-0.14056">
        <ele>70</ele>
        <time>2013-02-22T14:16:58.001Z</time>
      </trkpt>
      <trkpt lat="47.08337" lon="-0.14052">
        <ele>70</ele>
        <time>2013-02-22T14:17:54.001Z</time>
      </trkpt>
      <trkpt lat="47.08338" lon="-0.1405">
        <ele>70</ele>
        <time>2013-02-22T14:17:55.001Z</time>
      </trkpt>
      <trkpt lat="47.08341" lon="-0.14046">
        <ele>70</ele>
        <time>2013-02-22T14:17:58.001Z</time>
      </trkpt>
      <trkpt lat="47.08341" lon="-0.14044">
        <ele>70</ele>
        <time>2013-02-22T14:17:59.001Z</time>
      </trkpt>
      <trkpt lat="47.08343" lon="-0.14039">
        <ele>70</ele>
        <time>2013-02-22T14:18:06.001Z</time>
      </trkpt>
      <trkpt lat="47.08344" lon="-0.14038">
        <ele>70</ele>
        <time>2013-02-22T14:18:07.001Z</time>
      </trkpt>
      <trkpt lat="47.08345" lon="-0.14033">
        <ele>70</ele>
        <time>2013-02-22T14:18:11.001Z</time>
      </trkpt>
      <trkpt lat="47.08345" lon="-0.14032">
        <ele>70</ele>
        <time>2013-02-22T14:18:12.001Z</time>
      </trkpt>
      <trkpt lat="47.08347" lon="-0.14027">
        <ele>70</ele>
        <time>2013-02-22T14:18:16.001Z</time>
      </trkpt>
      <trkpt lat="47.08348" lon="-0.14026">
        <ele>70</ele>
        <time>2013-02-22T14:18:17.001Z</time>
      </trkpt>
      <trkpt lat="47.0835" lon="-0.14021">
        <ele>70</ele>
        <time>2013-02-22T14:18:20.001Z</time>
      </trkpt>
      <trkpt lat="47.0835" lon="-0.14019">
        <ele>70</ele>
        <time>2013-02-22T14:18:21.001Z</time>
      </trkpt>
      <trkpt lat="47.08353" lon="-0.14015">
        <ele>70</ele>
        <time>2013-02-22T14:18:25.001Z</time>
      </trkpt>
      <trkpt lat="47.08354" lon="-0.14013">
        <ele>70</ele>
        <time>2013-02-22T14:18:26.001Z</time>
      </trkpt>
      <trkpt lat="47.08356" lon="-0.14009">
        <ele>70</ele>
        <time>2013-02-22T14:18:28.001Z</time>
      </trkpt>
      <trkpt lat="47.08356" lon="-0.14007">
        <ele>70</ele>
        <time>2013-02-22T14:18:29.001Z</time>
      </trkpt>
      <trkpt lat="47.08358" lon="-0.14003">
        <ele>70</ele>
        <time>2013-02-22T14:18:32.001Z</time>
      </trkpt>
      <trkpt lat="47.08359" lon="-0.14001">
        <ele>70</ele>
        <time>2013-02-22T14:18:33.001Z</time>
      </trkpt>
      <trkpt lat="47.08361" lon="-0.13996">
        <ele>70</ele>
        <time>2013-02-22T14:18:36.001Z</time>
      </trkpt>
      <trkpt lat="47.08361" lon="-0.13994">
        <ele>70</ele>
        <time>2013-02-22T14:18:37.001Z</time>
      </trkpt>
      <trkpt lat="47.08363" lon="-0.13989">
        <ele>70</ele>
        <time>2013-02-22T14:18:40.001Z</time>
      </trkpt>
      <trkpt lat="47.08364" lon="-0.13988">
        <ele>70</ele>
        <time>2013-02-22T14:18:41.001Z</time>
      </trkpt>
      <trkpt lat="47.08365" lon="-0.13982">
        <ele>70</ele>
        <time>2013-02-22T14:18:45.001Z</time>
      </trkpt>
      <trkpt lat="47.08366" lon="-0.13981">
        <ele>70</ele>
        <time>2013-02-22T14:18:46.001Z</time>
      </trkpt>
      <trkpt lat="47.08368" lon="-0.13976">
        <ele>70</ele>
        <time>2013-02-22T14:18:51.001Z</time>
      </trkpt>
      <trkpt lat="47.08368" lon="-0.13975">
        <ele>70</ele>
        <time>2013-02-22T14:18:52.001Z</time>
      </trkpt>
      <trkpt lat="47.0837" lon="-0.1397">
        <ele>70</ele>
        <time>2013-02-22T14:18:55.001Z</time>
      </trkpt>
      <trkpt lat="47.08371" lon="-0.13969">
        <ele>70</ele>
        <time>2013-02-22T14:18:56.001Z</time>
      </trkpt>
      <trkpt lat="47.08372" lon="-0.13964">
        <ele>70</ele>
        <time>2013-02-22T14:18:59.001Z</time>
      </trkpt>
      <trkpt lat="47.08373" lon="-0.13963">
        <ele>70</ele>
        <time>2013-02-22T14:19:00.001Z</time>
      </trkpt>
      <trkpt lat="47.08375" lon="-0.13957">
        <ele>70</ele>
        <time>2013-02-22T14:19:03.001Z</time>
      </trkpt>
      <trkpt lat="47.08375" lon="-0.13956">
        <ele>70</ele>
        <time>2013-02-22T14:19:04.001Z</time>
      </trkpt>
      <trkpt lat="47.08376" lon="-0.1395">
        <ele>70</ele>
        <time>2013-02-22T14:19:08.001Z</time>
      </trkpt>
      <trkpt lat="47.08376" lon="-0.13949">
        <ele>70</ele>
        <time>2013-02-22T14:19:09.001Z</time>
      </trkpt>
      <trkpt lat="47.08378" lon="-0.13943">
        <ele>70</ele>
        <time>2013-02-22T14:19:13.001Z</time>
      </trkpt>
      <trkpt lat="47.08378" lon="-0.13942">
        <ele>70</ele>
        <time>2013-02-22T14:19:14.001Z</time>
      </trkpt>
      <trkpt lat="47.08378" lon="-0.13936">
        <ele>70</ele>
        <time>2013-02-22T14:19:18.001Z</time>
      </trkpt>
      <trkpt lat="47.08378" lon="-0.13934">
        <ele>70</ele>
        <time>2013-02-22T14:19:19.001Z</time>
      </trkpt>
      <trkpt lat="47.08378" lon="-0.13928">
        <ele>70</ele>
        <time>2013-02-22T14:19:22.001Z</time>
      </trkpt>
      <trkpt lat="47.08378" lon="-0.13926">
        <ele>70</ele>
        <time>2013-02-22T14:19:23.001Z</time>
      </trkpt>
      <trkpt lat="47.08379" lon="-0.13921">
        <ele>70</ele>
        <time>2013-02-22T14:19:26.001Z</time>
      </trkpt>
      <trkpt lat="47.08379" lon="-0.13919">
        <ele>70</ele>
        <time>2013-02-22T14:19:27.001Z</time>
      </trkpt>
      <trkpt lat="47.08379" lon="-0.13913">
        <ele>69</ele>
        <time>2013-02-22T14:19:30.001Z</time>
      </trkpt>
      <trkpt lat="47.08379" lon="-0.13911">
        <ele>69</ele>
        <time>2013-02-22T14:19:31.001Z</time>
      </trkpt>
      <trkpt lat="47.08379" lon="-0.13905">
        <ele>69</ele>
        <time>2013-02-22T14:19:35.001Z</time>
      </trkpt>
      <trkpt lat="47.08379" lon="-0.13903">
        <ele>69</ele>
        <time>2013-02-22T14:19:36.001Z</time>
      </trkpt>
      <trkpt lat="47.08379" lon="-0.13898">
        <ele>69</ele>
        <time>2013-02-22T14:19:39.001Z</time>
      </trkpt>
      <trkpt lat="47.08379" lon="-0.13896">
        <ele>69</ele>
        <time>2013-02-22T14:19:40.001Z</time>
      </trkpt>
      <trkpt lat="47.08379" lon="-0.13891">
        <ele>69</ele>
        <time>2013-02-22T14:19:43.001Z</time>
      </trkpt>
      <trkpt lat="47.08379" lon="-0.13889">
        <ele>69</ele>
        <time>2013-02-22T14:19:44.001Z</time>
      </trkpt>
      <trkpt lat="47.08379" lon="-0.13883">
        <ele>69</ele>
        <time>2013-02-22T14:19:49.001Z</time>
      </trkpt>
      <trkpt lat="47.08379" lon="-0.13882">
        <ele>69</ele>
        <time>2013-02-22T14:19:50.001Z</time>
      </trkpt>
      <trkpt lat="47.08378" lon="-0.13875">
        <ele>69</ele>
        <time>2013-02-22T14:19:54.001Z</time>
      </trkpt>
      <trkpt lat="47.08378" lon="-0.13873">
        <ele>69</ele>
        <time>2013-02-22T14:19:55.001Z</time>
      </trkpt>
      <trkpt lat="47.08378" lon="-0.13867">
        <ele>69</ele>
        <time>2013-02-22T14:19:59.001Z</time>
      </trkpt>
      <trkpt lat="47.08379" lon="-0.13866">
        <ele>69</ele>
        <time>2013-02-22T14:20:00.001Z</time>
      </trkpt>
      <trkpt lat="47.08379" lon="-0.1386">
        <ele>69</ele>
        <time>2013-02-22T14:20:05.001Z</time>
      </trkpt>
      <trkpt lat="47.08379" lon="-0.13859">
        <ele>69</ele>
        <time>2013-02-22T14:20:06.001Z</time>
      </trkpt>
      <trkpt lat="47.08379" lon="-0.13853">
        <ele>69</ele>
        <time>2013-02-22T14:20:09.001Z</time>
      </trkpt>
      <trkpt lat="47.08379" lon="-0.13851">
        <ele>69</ele>
        <time>2013-02-22T14:20:10.001Z</time>
      </trkpt>
      <trkpt lat="47.08379" lon="-0.13845">
        <ele>69</ele>
        <time>2013-02-22T14:20:13.001Z</time>
      </trkpt>
      <trkpt lat="47.08379" lon="-0.13843">
        <ele>69</ele>
        <time>2013-02-22T14:20:14.001Z</time>
      </trkpt>
      <trkpt lat="47.08378" lon="-0.13838">
        <ele>69</ele>
        <time>2013-02-22T14:20:18.001Z</time>
      </trkpt>
      <trkpt lat="47.08378" lon="-0.13837">
        <ele>69</ele>
        <time>2013-02-22T14:20:19.001Z</time>
      </trkpt>
      <trkpt lat="47.08378" lon="-0.13831">
        <ele>69</ele>
        <time>2013-02-22T14:20:22.001Z</time>
      </trkpt>
      <trkpt lat="47.08378" lon="-0.13828">
        <ele>69</ele>
        <time>2013-02-22T14:20:23.001Z</time>
      </trkpt>
      <trkpt lat="47.08378" lon="-0.13822">
        <ele>69</ele>
        <time>2013-02-22T14:20:27.001Z</time>
      </trkpt>
      <trkpt lat="47.08378" lon="-0.1382">
        <ele>69</ele>
        <time>2013-02-22T14:20:28.001Z</time>
      </trkpt>
      <trkpt lat="47.08379" lon="-0.13814">
        <ele>69</ele>
        <time>2013-02-22T14:20:32.001Z</time>
      </trkpt>
      <trkpt lat="47.08379" lon="-0.13813">
        <ele>69</ele>
        <time>2013-02-22T14:20:33.001Z</time>
      </trkpt>
      <trkpt lat="47.08379" lon="-0.13807">
        <ele>69</ele>
        <time>2013-02-22T14:20:36.001Z</time>
      </trkpt>
      <trkpt lat="47.08379" lon="-0.13805">
        <ele>69</ele>
        <time>2013-02-22T14:20:37.001Z</time>
      </trkpt>
      <trkpt lat="47.08378" lon="-0.138">
        <ele>69</ele>
        <time>2013-02-22T14:20:42.001Z</time>
      </trkpt>
      <trkpt lat="47.08378" lon="-0.13798">
        <ele>69</ele>
        <time>2013-02-22T14:20:43.001Z</time>
      </trkpt>
      <trkpt lat="47.08378" lon="-0.13792">
        <ele>69</ele>
        <time>2013-02-22T14:20:47.001Z</time>
      </trkpt>
      <trkpt lat="47.08378" lon="-0.13791">
        <ele>69</ele>
        <time>2013-02-22T14:20:48.001Z</time>
      </trkpt>
      <trkpt lat="47.08378" lon="-0.13784">
        <ele>69</ele>
        <time>2013-02-22T14:20:52.001Z</time>
      </trkpt>
      <trkpt lat="47.08378" lon="-0.13782">
        <ele>69</ele>
        <time>2013-02-22T14:20:53.001Z</time>
      </trkpt>
      <trkpt lat="47.08378" lon="-0.13776">
        <ele>69</ele>
        <time>2013-02-22T14:20:55.001Z</time>
      </trkpt>
      <trkpt lat="47.08378" lon="-0.13773">
        <ele>69</ele>
        <time>2013-02-22T14:20:56.001Z</time>
      </trkpt>
      <trkpt lat="47.08378" lon="-0.13767">
        <ele>69</ele>
        <time>2013-02-22T14:20:59.001Z</time>
      </trkpt>
      <trkpt lat="47.08379" lon="-0.13765">
        <ele>69</ele>
        <time>2013-02-22T14:21:00.001Z</time>
      </trkpt>
      <trkpt lat="47.0838" lon="-0.13759">
        <ele>69</ele>
        <time>2013-02-22T14:21:03.001Z</time>
      </trkpt>
      <trkpt lat="47.08381" lon="-0.13757">
        <ele>69</ele>
        <time>2013-02-22T14:21:04.001Z</time>
      </trkpt>
      <trkpt lat="47.08383" lon="-0.13752">
        <ele>69</ele>
        <time>2013-02-22T14:21:07.001Z</time>
      </trkpt>
      <trkpt lat="47.08383" lon="-0.1375">
        <ele>70</ele>
        <time>2013-02-22T14:21:08.001Z</time>
      </trkpt>
      <trkpt lat="47.08385" lon="-0.13744">
        <ele>69</ele>
        <time>2013-02-22T14:21:11.001Z</time>
      </trkpt>
      <trkpt lat="47.08385" lon="-0.13743">
        <ele>69</ele>
        <time>2013-02-22T14:21:12.001Z</time>
      </trkpt>
      <trkpt lat="47.08387" lon="-0.13737">
        <ele>69</ele>
        <time>2013-02-22T14:21:15.001Z</time>
      </trkpt>
      <trkpt lat="47.08388" lon="-0.13735">
        <ele>69</ele>
        <time>2013-02-22T14:21:16.001Z</time>
      </trkpt>
      <trkpt lat="47.0839" lon="-0.13731">
        <ele>69</ele>
        <time>2013-02-22T14:21:18.001Z</time>
      </trkpt>
      <trkpt lat="47.0839" lon="-0.13729">
        <ele>69</ele>
        <time>2013-02-22T14:21:19.001Z</time>
      </trkpt>
      <trkpt lat="47.08392" lon="-0.13724">
        <ele>69</ele>
        <time>2013-02-22T14:21:21.001Z</time>
      </trkpt>
      <trkpt lat="47.08392" lon="-0.13722">
        <ele>69</ele>
        <time>2013-02-22T14:21:22.001Z</time>
      </trkpt>
      <trkpt lat="47.08393" lon="-0.13716">
        <ele>69</ele>
        <time>2013-02-22T14:21:25.001Z</time>
      </trkpt>
      <trkpt lat="47.08394" lon="-0.13714">
        <ele>69</ele>
        <time>2013-02-22T14:21:26.001Z</time>
      </trkpt>
      <trkpt lat="47.08395" lon="-0.13709">
        <ele>69</ele>
        <time>2013-02-22T14:21:30.001Z</time>
      </trkpt>
      <trkpt lat="47.08395" lon="-0.13707">
        <ele>69</ele>
        <time>2013-02-22T14:21:31.001Z</time>
      </trkpt>
      <trkpt lat="47.08395" lon="-0.13701">
        <ele>69</ele>
        <time>2013-02-22T14:21:34.001Z</time>
      </trkpt>
      <trkpt lat="47.08395" lon="-0.137">
        <ele>69</ele>
        <time>2013-02-22T14:21:35.001Z</time>
      </trkpt>
      <trkpt lat="47.08395" lon="-0.13696">
        <ele>69</ele>
        <time>2013-02-22T14:21:38.001Z</time>
      </trkpt>
      <trkpt lat="47.08395" lon="-0.13694">
        <ele>69</ele>
        <time>2013-02-22T14:21:39.001Z</time>
      </trkpt>
      <trkpt lat="47.08396" lon="-0.13689">
        <ele>69</ele>
        <time>2013-02-22T14:21:43.001Z</time>
      </trkpt>
      <trkpt lat="47.08396" lon="-0.13686">
        <ele>69</ele>
        <time>2013-02-22T14:21:44.001Z</time>
      </trkpt>
      <trkpt lat="47.08398" lon="-0.13681">
        <ele>69</ele>
        <time>2013-02-22T14:21:52.001Z</time>
      </trkpt>
      <trkpt lat="47.08398" lon="-0.13679">
        <ele>69</ele>
        <time>2013-02-22T14:21:53.001Z</time>
      </trkpt>
      <trkpt lat="47.084" lon="-0.13674">
        <ele>69</ele>
        <time>2013-02-22T14:21:59.001Z</time>
      </trkpt>
      <trkpt lat="47.084" lon="-0.13673">
        <ele>69</ele>
        <time>2013-02-22T14:22:00.001Z</time>
      </trkpt>
      <trkpt lat="47.084" lon="-0.13667">
        <ele>69</ele>
        <time>2013-02-22T14:22:03.001Z</time>
      </trkpt>
      <trkpt lat="47.084" lon="-0.13666">
        <ele>69</ele>
        <time>2013-02-22T14:22:04.001Z</time>
      </trkpt>
      <trkpt lat="47.08402" lon="-0.1366">
        <ele>69</ele>
        <time>2013-02-22T14:22:07.001Z</time>
      </trkpt>
      <trkpt lat="47.08402" lon="-0.13658">
        <ele>69</ele>
        <time>2013-02-22T14:22:08.001Z</time>
      </trkpt>
      <trkpt lat="47.08402" lon="-0.13653">
        <ele>69</ele>
        <time>2013-02-22T14:22:10.001Z</time>
      </trkpt>
      <trkpt lat="47.08403" lon="-0.1365">
        <ele>69</ele>
        <time>2013-02-22T14:22:11.001Z</time>
      </trkpt>
      <trkpt lat="47.08404" lon="-0.13645">
        <ele>69</ele>
        <time>2013-02-22T14:22:13.001Z</time>
      </trkpt>
      <trkpt lat="47.08404" lon="-0.13643">
        <ele>69</ele>
        <time>2013-02-22T14:22:14.001Z</time>
      </trkpt>
      <trkpt lat="47.08405" lon="-0.13639">
        <ele>69</ele>
        <time>2013-02-22T14:22:16.001Z</time>
      </trkpt>
      <trkpt lat="47.08406" lon="-0.13636">
        <ele>69</ele>
        <time>2013-02-22T14:22:17.001Z</time>
      </trkpt>
      <trkpt lat="47.08407" lon="-0.1363">
        <ele>69</ele>
        <time>2013-02-22T14:22:21.001Z</time>
      </trkpt>
      <trkpt lat="47.08408" lon="-0.13629">
        <ele>69</ele>
        <time>2013-02-22T14:22:22.001Z</time>
      </trkpt>
      <trkpt lat="47.08408" lon="-0.13624">
        <ele>68</ele>
        <time>2013-02-22T14:22:26.001Z</time>
      </trkpt>
      <trkpt lat="47.08409" lon="-0.13622">
        <ele>68</ele>
        <time>2013-02-22T14:22:27.001Z</time>
      </trkpt>
      <trkpt lat="47.0841" lon="-0.13617">
        <ele>68</ele>
        <time>2013-02-22T14:22:30.001Z</time>
      </trkpt>
      <trkpt lat="47.0841" lon="-0.13615">
        <ele>68</ele>
        <time>2013-02-22T14:22:31.001Z</time>
      </trkpt>
      <trkpt lat="47.08411" lon="-0.13609">
        <ele>68</ele>
        <time>2013-02-22T14:22:34.001Z</time>
      </trkpt>
      <trkpt lat="47.08412" lon="-0.13607">
        <ele>68</ele>
        <time>2013-02-22T14:22:35.001Z</time>
      </trkpt>
      <trkpt lat="47.08413" lon="-0.13601">
        <ele>68</ele>
        <time>2013-02-22T14:22:38.001Z</time>
      </trkpt>
      <trkpt lat="47.08413" lon="-0.13599">
        <ele>68</ele>
        <time>2013-02-22T14:22:39.001Z</time>
      </trkpt>
      <trkpt lat="47.08414" lon="-0.13594">
        <ele>68</ele>
        <time>2013-02-22T14:22:42.001Z</time>
      </trkpt>
      <trkpt lat="47.08414" lon="-0.13592">
        <ele>68</ele>
        <time>2013-02-22T14:22:43.001Z</time>
      </trkpt>
      <trkpt lat="47.08415" lon="-0.13586">
        <ele>68</ele>
        <time>2013-02-22T14:22:46.001Z</time>
      </trkpt>
      <trkpt lat="47.08415" lon="-0.13584">
        <ele>68</ele>
        <time>2013-02-22T14:22:47.001Z</time>
      </trkpt>
      <trkpt lat="47.08416" lon="-0.13579">
        <ele>68</ele>
        <time>2013-02-22T14:22:51.001Z</time>
      </trkpt>
      <trkpt lat="47.08416" lon="-0.13577">
        <ele>68</ele>
        <time>2013-02-22T14:22:52.001Z</time>
      </trkpt>
      <trkpt lat="47.08417" lon="-0.13572">
        <ele>68</ele>
        <time>2013-02-22T14:22:55.001Z</time>
      </trkpt>
      <trkpt lat="47.08418" lon="-0.1357">
        <ele>68</ele>
        <time>2013-02-22T14:22:56.001Z</time>
      </trkpt>
      <trkpt lat="47.08418" lon="-0.13564">
        <ele>68</ele>
        <time>2013-02-22T14:23:00.001Z</time>
      </trkpt>
      <trkpt lat="47.08418" lon="-0.13563">
        <ele>68</ele>
        <time>2013-02-22T14:23:01.001Z</time>
      </trkpt>
      <trkpt lat="47.08417" lon="-0.13557">
        <ele>68</ele>
        <time>2013-02-22T14:23:06.001Z</time>
      </trkpt>
      <trkpt lat="47.08417" lon="-0.13555">
        <ele>68</ele>
        <time>2013-02-22T14:23:07.001Z</time>
      </trkpt>
      <trkpt lat="47.08417" lon="-0.13549">
        <ele>68</ele>
        <time>2013-02-22T14:23:10.001Z</time>
      </trkpt>
      <trkpt lat="47.08417" lon="-0.13548">
        <ele>68</ele>
        <time>2013-02-22T14:23:11.001Z</time>
      </trkpt>
      <trkpt lat="47.08416" lon="-0.13542">
        <ele>68</ele>
        <time>2013-02-22T14:23:16.001Z</time>
      </trkpt>
      <trkpt lat="47.08415" lon="-0.1354">
        <ele>68</ele>
        <time>2013-02-22T14:23:17.001Z</time>
      </trkpt>
      <trkpt lat="47.08416" lon="-0.13534">
        <ele>68</ele>
        <time>2013-02-22T14:23:23.001Z</time>
      </trkpt>
      <trkpt lat="47.08416" lon="-0.13533">
        <ele>68</ele>
        <time>2013-02-22T14:23:24.001Z</time>
      </trkpt>
      <trkpt lat="47.08415" lon="-0.13528">
        <ele>68</ele>
        <time>2013-02-22T14:23:29.001Z</time>
      </trkpt>
      <trkpt lat="47.08415" lon="-0.13526">
        <ele>68</ele>
        <time>2013-02-22T14:23:30.001Z</time>
      </trkpt>
      <trkpt lat="47.08415" lon="-0.1352">
        <ele>68</ele>
        <time>2013-02-22T14:23:34.001Z</time>
      </trkpt>
      <trkpt lat="47.08415" lon="-0.13519">
        <ele>68</ele>
        <time>2013-02-22T14:23:35.001Z</time>
      </trkpt>
      <trkpt lat="47.08416" lon="-0.13514">
        <ele>68</ele>
        <time>2013-02-22T14:23:39.001Z</time>
      </trkpt>
      <trkpt lat="47.08417" lon="-0.13512">
        <ele>68</ele>
        <time>2013-02-22T14:23:40.001Z</time>
      </trkpt>
      <trkpt lat="47.08417" lon="-0.13506">
        <ele>68</ele>
        <time>2013-02-22T14:23:44.001Z</time>
      </trkpt>
      <trkpt lat="47.08418" lon="-0.13504">
        <ele>68</ele>
        <time>2013-02-22T14:23:45.001Z</time>
      </trkpt>
      <trkpt lat="47.08417" lon="-0.13498">
        <ele>68</ele>
        <time>2013-02-22T14:23:48.001Z</time>
      </trkpt>
      <trkpt lat="47.08417" lon="-0.13496">
        <ele>68</ele>
        <time>2013-02-22T14:23:49.001Z</time>
      </trkpt>
      <trkpt lat="47.08419" lon="-0.1349">
        <ele>68</ele>
        <time>2013-02-22T14:23:53.001Z</time>
      </trkpt>
      <trkpt lat="47.08419" lon="-0.13489">
        <ele>68</ele>
        <time>2013-02-22T14:23:54.001Z</time>
      </trkpt>
      <trkpt lat="47.0842" lon="-0.13483">
        <ele>68</ele>
        <time>2013-02-22T14:23:58.001Z</time>
      </trkpt>
      <trkpt lat="47.0842" lon="-0.13482">
        <ele>68</ele>
        <time>2013-02-22T14:23:59.001Z</time>
      </trkpt>
      <trkpt lat="47.08421" lon="-0.13476">
        <ele>68</ele>
        <time>2013-02-22T14:24:03.001Z</time>
      </trkpt>
      <trkpt lat="47.0842" lon="-0.13475">
        <ele>68</ele>
        <time>2013-02-22T14:24:04.001Z</time>
      </trkpt>
      <trkpt lat="47.0842" lon="-0.1347">
        <ele>68</ele>
        <time>2013-02-22T14:24:08.001Z</time>
      </trkpt>
      <trkpt lat="47.0842" lon="-0.13468">
        <ele>68</ele>
        <time>2013-02-22T14:24:09.001Z</time>
      </trkpt>
      <trkpt lat="47.08422" lon="-0.13463">
        <ele>68</ele>
        <time>2013-02-22T14:24:13.001Z</time>
      </trkpt>
      <trkpt lat="47.08422" lon="-0.13461">
        <ele>68</ele>
        <time>2013-02-22T14:24:14.001Z</time>
      </trkpt>
      <trkpt lat="47.08423" lon="-0.13455">
        <ele>68</ele>
        <time>2013-02-22T14:24:17.001Z</time>
      </trkpt>
      <trkpt lat="47.08423" lon="-0.13453">
        <ele>68</ele>
        <time>2013-02-22T14:24:18.001Z</time>
      </trkpt>
      <trkpt lat="47.08423" lon="-0.13447">
        <ele>68</ele>
        <time>2013-02-22T14:24:20.001Z</time>
      </trkpt>
      <trkpt lat="47.08423" lon="-0.13445">
        <ele>68</ele>
        <time>2013-02-22T14:24:21.001Z</time>
      </trkpt>
      <trkpt lat="47.08423" lon="-0.1344">
        <ele>68</ele>
        <time>2013-02-22T14:24:23.001Z</time>
      </trkpt>
      <trkpt lat="47.08423" lon="-0.13437">
        <ele>68</ele>
        <time>2013-02-22T14:24:24.001Z</time>
      </trkpt>
      <trkpt lat="47.08423" lon="-0.13431">
        <ele>67</ele>
        <time>2013-02-22T14:24:27.001Z</time>
      </trkpt>
      <trkpt lat="47.08423" lon="-0.1343">
        <ele>67</ele>
        <time>2013-02-22T14:24:28.001Z</time>
      </trkpt>
      <trkpt lat="47.08423" lon="-0.13425">
        <ele>67</ele>
        <time>2013-02-22T14:24:31.001Z</time>
      </trkpt>
      <trkpt lat="47.08423" lon="-0.13423">
        <ele>67</ele>
        <time>2013-02-22T14:24:32.001Z</time>
      </trkpt>
      <trkpt lat="47.08422" lon="-0.13418">
        <ele>67</ele>
        <time>2013-02-22T14:24:34.001Z</time>
      </trkpt>
      <trkpt lat="47.08422" lon="-0.13416">
        <ele>67</ele>
        <time>2013-02-22T14:24:35.001Z</time>
      </trkpt>
      <trkpt lat="47.08422" lon="-0.13412">
        <ele>67</ele>
        <time>2013-02-22T14:24:37.001Z</time>
      </trkpt>
      <trkpt lat="47.08423" lon="-0.13409">
        <ele>67</ele>
        <time>2013-02-22T14:24:38.001Z</time>
      </trkpt>
      <trkpt lat="47.08424" lon="-0.13405">
        <ele>67</ele>
        <time>2013-02-22T14:24:42.001Z</time>
      </trkpt>
      <trkpt lat="47.08425" lon="-0.13403">
        <ele>67</ele>
        <time>2013-02-22T14:24:43.001Z</time>
      </trkpt>
      <trkpt lat="47.08426" lon="-0.13398">
        <ele>67</ele>
        <time>2013-02-22T14:24:45.001Z</time>
      </trkpt>
      <trkpt lat="47.08426" lon="-0.13395">
        <ele>67</ele>
        <time>2013-02-22T14:24:46.001Z</time>
      </trkpt>
      <trkpt lat="47.08426" lon="-0.13389">
        <ele>67</ele>
        <time>2013-02-22T14:24:48.001Z</time>
      </trkpt>
      <trkpt lat="47.08426" lon="-0.13387">
        <ele>67</ele>
        <time>2013-02-22T14:24:49.001Z</time>
      </trkpt>
      <trkpt lat="47.08425" lon="-0.13381">
        <ele>67</ele>
        <time>2013-02-22T14:24:52.001Z</time>
      </trkpt>
      <trkpt lat="47.08424" lon="-0.1338">
        <ele>67</ele>
        <time>2013-02-22T14:24:53.001Z</time>
      </trkpt>
      <trkpt lat="47.08424" lon="-0.13373">
        <ele>68</ele>
        <time>2013-02-22T14:24:57.001Z</time>
      </trkpt>
      <trkpt lat="47.08424" lon="-0.13371">
        <ele>68</ele>
        <time>2013-02-22T14:24:58.001Z</time>
      </trkpt>
      <trkpt lat="47.08423" lon="-0.13367">
        <ele>68</ele>
        <time>2013-02-22T14:25:01.001Z</time>
      </trkpt>
      <trkpt lat="47.08424" lon="-0.13364">
        <ele>68</ele>
        <time>2013-02-22T14:25:02.001Z</time>
      </trkpt>
      <trkpt lat="47.08425" lon="-0.13358">
        <ele>68</ele>
        <time>2013-02-22T14:25:05.001Z</time>
      </trkpt>
      <trkpt lat="47.08425" lon="-0.13356">
        <ele>68</ele>
        <time>2013-02-22T14:25:06.001Z</time>
      </trkpt>
      <trkpt lat="47.08427" lon="-0.13352">
        <ele>68</ele>
        <time>2013-02-22T14:25:08.001Z</time>
      </trkpt>
      <trkpt lat="47.08428" lon="-0.13349">
        <ele>68</ele>
        <time>2013-02-22T14:25:09.001Z</time>
      </trkpt>
      <trkpt lat="47.08429" lon="-0.13342">
        <ele>68</ele>
        <time>2013-02-22T14:25:12.001Z</time>
      </trkpt>
      <trkpt lat="47.08429" lon="-0.1334">
        <ele>68</ele>
        <time>2013-02-22T14:25:13.001Z</time>
      </trkpt>
      <trkpt lat="47.0843" lon="-0.13334">
        <ele>68</ele>
        <time>2013-02-22T14:25:15.001Z</time>
      </trkpt>
      <trkpt lat="47.0843" lon="-0.13331">
        <ele>68</ele>
        <time>2013-02-22T14:25:16.001Z</time>
      </trkpt>
      <trkpt lat="47.0843" lon="-0.13326">
        <ele>68</ele>
        <time>2013-02-22T14:25:18.001Z</time>
      </trkpt>
      <trkpt lat="47.0843" lon="-0.13324">
        <ele>68</ele>
        <time>2013-02-22T14:25:19.001Z</time>
      </trkpt>
      <trkpt lat="47.08431" lon="-0.1332">
        <ele>68</ele>
        <time>2013-02-22T14:25:21.001Z</time>
      </trkpt>
      <trkpt lat="47.08431" lon="-0.13318">
        <ele>68</ele>
        <time>2013-02-22T14:25:22.001Z</time>
      </trkpt>
      <trkpt lat="47.08432" lon="-0.13312">
        <ele>68</ele>
        <time>2013-02-22T14:25:27.001Z</time>
      </trkpt>
      <trkpt lat="47.08432" lon="-0.13311">
        <ele>68</ele>
        <time>2013-02-22T14:25:28.001Z</time>
      </trkpt>
      <trkpt lat="47.08432" lon="-0.13304">
        <ele>68</ele>
        <time>2013-02-22T14:25:33.001Z</time>
      </trkpt>
      <trkpt lat="47.08432" lon="-0.13302">
        <ele>68</ele>
        <time>2013-02-22T14:25:34.001Z</time>
      </trkpt>
      <trkpt lat="47.08434" lon="-0.13297">
        <ele>68</ele>
        <time>2013-02-22T14:25:38.001Z</time>
      </trkpt>
      <trkpt lat="47.08434" lon="-0.13296">
        <ele>68</ele>
        <time>2013-02-22T14:25:39.001Z</time>
      </trkpt>
      <trkpt lat="47.08434" lon="-0.1329">
        <ele>68</ele>
        <time>2013-02-22T14:25:43.001Z</time>
      </trkpt>
      <trkpt lat="47.08434" lon="-0.13289">
        <ele>68</ele>
        <time>2013-02-22T14:25:44.001Z</time>
      </trkpt>
      <trkpt lat="47.08432" lon="-0.13285">
        <ele>68</ele>
        <time>2013-02-22T14:25:51.001Z</time>
      </trkpt>
      <trkpt lat="47.08431" lon="-0.13283">
        <ele>68</ele>
        <time>2013-02-22T14:25:52.001Z</time>
      </trkpt>
      <trkpt lat="47.08429" lon="-0.13277">
        <ele>68</ele>
        <time>2013-02-22T14:25:56.001Z</time>
      </trkpt>
      <trkpt lat="47.08428" lon="-0.13276">
        <ele>68</ele>
        <time>2013-02-22T14:25:57.001Z</time>
      </trkpt>
      <trkpt lat="47.08427" lon="-0.13272">
        <ele>68</ele>
        <time>2013-02-22T14:26:00.001Z</time>
      </trkpt>
      <trkpt lat="47.08427" lon="-0.1327">
        <ele>68</ele>
        <time>2013-02-22T14:26:01.001Z</time>
      </trkpt>
      <trkpt lat="47.08426" lon="-0.13263">
        <ele>68</ele>
        <time>2013-02-22T14:26:04.001Z</time>
      </trkpt>
      <trkpt lat="47.08426" lon="-0.1326">
        <ele>68</ele>
        <time>2013-02-22T14:26:05.001Z</time>
      </trkpt>
      <trkpt lat="47.08425" lon="-0.13256">
        <ele>68</ele>
        <time>2013-02-22T14:26:07.001Z</time>
      </trkpt>
      <trkpt lat="47.08424" lon="-0.13254">
        <ele>68</ele>
        <time>2013-02-22T14:26:08.001Z</time>
      </trkpt>
      <trkpt lat="47.08422" lon="-0.13249">
        <ele>68</ele>
        <time>2013-02-22T14:26:11.001Z</time>
      </trkpt>
      <trkpt lat="47.08421" lon="-0.13247">
        <ele>68</ele>
        <time>2013-02-22T14:26:12.001Z</time>
      </trkpt>
      <trkpt lat="47.08419" lon="-0.13242">
        <ele>68</ele>
        <time>2013-02-22T14:26:15.001Z</time>
      </trkpt>
      <trkpt lat="47.08418" lon="-0.13241">
        <ele>68</ele>
        <time>2013-02-22T14:26:16.001Z</time>
      </trkpt>
      <trkpt lat="47.08416" lon="-0.13235">
        <ele>68</ele>
        <time>2013-02-22T14:26:19.001Z</time>
      </trkpt>
      <trkpt lat="47.08415" lon="-0.13233">
        <ele>68</ele>
        <time>2013-02-22T14:26:20.001Z</time>
      </trkpt>
      <trkpt lat="47.08413" lon="-0.13228">
        <ele>68</ele>
        <time>2013-02-22T14:26:23.001Z</time>
      </trkpt>
      <trkpt lat="47.08413" lon="-0.13226">
        <ele>68</ele>
        <time>2013-02-22T14:26:24.001Z</time>
      </trkpt>
      <trkpt lat="47.08411" lon="-0.13221">
        <ele>67</ele>
        <time>2013-02-22T14:26:27.001Z</time>
      </trkpt>
      <trkpt lat="47.0841" lon="-0.1322">
        <ele>67</ele>
        <time>2013-02-22T14:26:28.001Z</time>
      </trkpt>
      <trkpt lat="47.08409" lon="-0.13214">
        <ele>67</ele>
        <time>2013-02-22T14:26:32.001Z</time>
      </trkpt>
      <trkpt lat="47.08408" lon="-0.13213">
        <ele>67</ele>
        <time>2013-02-22T14:26:33.001Z</time>
      </trkpt>
      <trkpt lat="47.08406" lon="-0.13208">
        <ele>67</ele>
        <time>2013-02-22T14:26:38.001Z</time>
      </trkpt>
      <trkpt lat="47.08406" lon="-0.13207">
        <ele>67</ele>
        <time>2013-02-22T14:26:39.001Z</time>
      </trkpt>
      <trkpt lat="47.08404" lon="-0.13202">
        <ele>67</ele>
        <time>2013-02-22T14:26:42.001Z</time>
      </trkpt>
      <trkpt lat="47.08403" lon="-0.13201">
        <ele>67</ele>
        <time>2013-02-22T14:26:43.001Z</time>
      </trkpt>
      <trkpt lat="47.08401" lon="-0.13196">
        <ele>67</ele>
        <time>2013-02-22T14:26:48.001Z</time>
      </trkpt>
      <trkpt lat="47.08401" lon="-0.13194">
        <ele>67</ele>
        <time>2013-02-22T14:26:49.001Z</time>
      </trkpt>
      <trkpt lat="47.08399" lon="-0.13189">
        <ele>67</ele>
        <time>2013-02-22T14:26:58.001Z</time>
      </trkpt>
      <trkpt lat="47.08398" lon="-0.13188">
        <ele>67</ele>
        <time>2013-02-22T14:26:59.001Z</time>
      </trkpt>
      <trkpt lat="47.08397" lon="-0.13183">
        <ele>67</ele>
        <time>2013-02-22T14:27:03.001Z</time>
      </trkpt>
      <trkpt lat="47.08397" lon="-0.13182">
        <ele>67</ele>
        <time>2013-02-22T14:27:04.001Z</time>
      </trkpt>
      <trkpt lat="47.08395" lon="-0.13175">
        <ele>67</ele>
        <time>2013-02-22T14:27:09.001Z</time>
      </trkpt>
      <trkpt lat="47.08395" lon="-0.13174">
        <ele>67</ele>
        <time>2013-02-22T14:27:10.001Z</time>
      </trkpt>
      <trkpt lat="47.08393" lon="-0.13169">
        <ele>67</ele>
        <time>2013-02-22T14:27:15.001Z</time>
      </trkpt>
      <trkpt lat="47.08393" lon="-0.13167">
        <ele>67</ele>
        <time>2013-02-22T14:27:16.001Z</time>
      </trkpt>
      <trkpt lat="47.08392" lon="-0.13162">
        <ele>67</ele>
        <time>2013-02-22T14:27:19.001Z</time>
      </trkpt>
      <trkpt lat="47.08391" lon="-0.1316">
        <ele>67</ele>
        <time>2013-02-22T14:27:20.001Z</time>
      </trkpt>
      <trkpt lat="47.0839" lon="-0.13154">
        <ele>67</ele>
        <time>2013-02-22T14:27:23.001Z</time>
      </trkpt>
      <trkpt lat="47.08389" lon="-0.13152">
        <ele>67</ele>
        <time>2013-02-22T14:27:24.001Z</time>
      </trkpt>
      <trkpt lat="47.08388" lon="-0.13147">
        <ele>67</ele>
        <time>2013-02-22T14:27:27.001Z</time>
      </trkpt>
      <trkpt lat="47.08387" lon="-0.13146">
        <ele>67</ele>
        <time>2013-02-22T14:27:28.001Z</time>
      </trkpt>
      <trkpt lat="47.08386" lon="-0.1314">
        <ele>67</ele>
        <time>2013-02-22T14:27:31.001Z</time>
      </trkpt>
      <trkpt lat="47.08385" lon="-0.13138">
        <ele>67</ele>
        <time>2013-02-22T14:27:32.001Z</time>
      </trkpt>
      <trkpt lat="47.08383" lon="-0.13134">
        <ele>67</ele>
        <time>2013-02-22T14:27:34.001Z</time>
      </trkpt>
      <trkpt lat="47.08382" lon="-0.13132">
        <ele>67</ele>
        <time>2013-02-22T14:27:35.001Z</time>
      </trkpt>
      <trkpt lat="47.08379" lon="-0.13127">
        <ele>67</ele>
        <time>2013-02-22T14:27:38.001Z</time>
      </trkpt>
      <trkpt lat="47.08378" lon="-0.13126">
        <ele>67</ele>
        <time>2013-02-22T14:27:39.001Z</time>
      </trkpt>
      <trkpt lat="47.08376" lon="-0.13122">
        <ele>66</ele>
        <time>2013-02-22T14:27:42.001Z</time>
      </trkpt>
      <trkpt lat="47.08376" lon="-0.1312">
        <ele>66</ele>
        <time>2013-02-22T14:27:43.001Z</time>
      </trkpt>
      <trkpt lat="47.08374" lon="-0.13116">
        <ele>66</ele>
        <time>2013-02-22T14:27:46.001Z</time>
      </trkpt>
      <trkpt lat="47.08373" lon="-0.13113">
        <ele>66</ele>
        <time>2013-02-22T14:27:47.001Z</time>
      </trkpt>
      <trkpt lat="47.08371" lon="-0.13108">
        <ele>66</ele>
        <time>2013-02-22T14:27:52.001Z</time>
      </trkpt>
      <trkpt lat="47.08371" lon="-0.13106">
        <ele>66</ele>
        <time>2013-02-22T14:27:53.001Z</time>
      </trkpt>
      <trkpt lat="47.08368" lon="-0.13104">
        <ele>66</ele>
        <time>2013-02-22T14:27:55.001Z</time>
      </trkpt>
      <trkpt lat="47.08367" lon="-0.13101">
        <ele>66</ele>
        <time>2013-02-22T14:27:56.001Z</time>
      </trkpt>
      <trkpt lat="47.08365" lon="-0.13097">
        <ele>66</ele>
        <time>2013-02-22T14:27:57.001Z</time>
      </trkpt>
      <trkpt lat="47.08365" lon="-0.13094">
        <ele>66</ele>
        <time>2013-02-22T14:27:58.001Z</time>
      </trkpt>
      <trkpt lat="47.08364" lon="-0.13089">
        <ele>66</ele>
        <time>2013-02-22T14:28:00.001Z</time>
      </trkpt>
      <trkpt lat="47.08364" lon="-0.13087">
        <ele>66</ele>
        <time>2013-02-22T14:28:01.001Z</time>
      </trkpt>
      <trkpt lat="47.08363" lon="-0.13081">
        <ele>66</ele>
        <time>2013-02-22T14:28:03.001Z</time>
      </trkpt>
      <trkpt lat="47.08362" lon="-0.13079">
        <ele>66</ele>
        <time>2013-02-22T14:28:04.001Z</time>
      </trkpt>
      <trkpt lat="47.08361" lon="-0.13073">
        <ele>66</ele>
        <time>2013-02-22T14:28:07.001Z</time>
      </trkpt>
      <trkpt lat="47.08361" lon="-0.13071">
        <ele>66</ele>
        <time>2013-02-22T14:28:08.001Z</time>
      </trkpt>
      <trkpt lat="47.08362" lon="-0.13066">
        <ele>66</ele>
        <time>2013-02-22T14:28:14.001Z</time>
      </trkpt>
      <trkpt lat="47.08362" lon="-0.13062">
        <ele>66</ele>
        <time>2013-02-22T14:28:15.001Z</time>
      </trkpt>
      <trkpt lat="47.0836" lon="-0.13056">
        <ele>66</ele>
        <time>2013-02-22T14:28:17.001Z</time>
      </trkpt>
      <trkpt lat="47.08359" lon="-0.13054">
        <ele>66</ele>
        <time>2013-02-22T14:28:18.001Z</time>
      </trkpt>
      <trkpt lat="47.08358" lon="-0.1305">
        <ele>66</ele>
        <time>2013-02-22T14:28:20.001Z</time>
      </trkpt>
      <trkpt lat="47.08356" lon="-0.13047">
        <ele>66</ele>
        <time>2013-02-22T14:28:21.001Z</time>
      </trkpt>
      <trkpt lat="47.08354" lon="-0.13042">
        <ele>66</ele>
        <time>2013-02-22T14:28:23.001Z</time>
      </trkpt>
      <trkpt lat="47.08353" lon="-0.1304">
        <ele>66</ele>
        <time>2013-02-22T14:28:24.001Z</time>
      </trkpt>
      <trkpt lat="47.08351" lon="-0.13035">
        <ele>66</ele>
        <time>2013-02-22T14:28:26.001Z</time>
      </trkpt>
      <trkpt lat="47.0835" lon="-0.13032">
        <ele>66</ele>
        <time>2013-02-22T14:28:27.001Z</time>
      </trkpt>
      <trkpt lat="47.08348" lon="-0.13026">
        <ele>66</ele>
        <time>2013-02-22T14:28:31.001Z</time>
      </trkpt>
      <trkpt lat="47.08348" lon="-0.13024">
        <ele>66</ele>
        <time>2013-02-22T14:28:32.001Z</time>
      </trkpt>
      <trkpt lat="47.08346" lon="-0.13019">
        <ele>67</ele>
        <time>2013-02-22T14:28:35.001Z</time>
      </trkpt>
      <trkpt lat="47.08345" lon="-0.13017">
        <ele>67</ele>
        <time>2013-02-22T14:28:36.001Z</time>
      </trkpt>
      <trkpt lat="47.08342" lon="-0.13012">
        <ele>67</ele>
        <time>2013-02-22T14:28:40.001Z</time>
      </trkpt>
      <trkpt lat="47.08342" lon="-0.1301">
        <ele>67</ele>
        <time>2013-02-22T14:28:41.001Z</time>
      </trkpt>
      <trkpt lat="47.0834" lon="-0.13005">
        <ele>67</ele>
        <time>2013-02-22T14:28:44.001Z</time>
      </trkpt>
      <trkpt lat="47.08339" lon="-0.13004">
        <ele>67</ele>
        <time>2013-02-22T14:28:45.001Z</time>
      </trkpt>
      <trkpt lat="47.08338" lon="-0.12999">
        <ele>67</ele>
        <time>2013-02-22T14:28:48.001Z</time>
      </trkpt>
      <trkpt lat="47.08338" lon="-0.12997">
        <ele>67</ele>
        <time>2013-02-22T14:28:49.001Z</time>
      </trkpt>
      <trkpt lat="47.08336" lon="-0.12992">
        <ele>67</ele>
        <time>2013-02-22T14:28:52.001Z</time>
      </trkpt>
      <trkpt lat="47.08335" lon="-0.12991">
        <ele>67</ele>
        <time>2013-02-22T14:28:53.001Z</time>
      </trkpt>
      <trkpt lat="47.08333" lon="-0.12985">
        <ele>67</ele>
        <time>2013-02-22T14:28:57.001Z</time>
      </trkpt>
      <trkpt lat="47.08333" lon="-0.12983">
        <ele>67</ele>
        <time>2013-02-22T14:28:58.001Z</time>
      </trkpt>
      <trkpt lat="47.08331" lon="-0.12979">
        <ele>67</ele>
        <time>2013-02-22T14:29:01.001Z</time>
      </trkpt>
      <trkpt lat="47.08329" lon="-0.12977">
        <ele>67</ele>
        <time>2013-02-22T14:29:02.001Z</time>
      </trkpt>
      <trkpt lat="47.08327" lon="-0.12973">
        <ele>67</ele>
        <time>2013-02-22T14:29:04.001Z</time>
      </trkpt>
      <trkpt lat="47.08326" lon="-0.12972">
        <ele>67</ele>
        <time>2013-02-22T14:29:05.001Z</time>
      </trkpt>
      <trkpt lat="47.08324" lon="-0.12966">
        <ele>67</ele>
        <time>2013-02-22T14:29:09.001Z</time>
      </trkpt>
      <trkpt lat="47.08323" lon="-0.12964">
        <ele>67</ele>
        <time>2013-02-22T14:29:10.001Z</time>
      </trkpt>
      <trkpt lat="47.08321" lon="-0.12959">
        <ele>67</ele>
        <time>2013-02-22T14:29:16.001Z</time>
      </trkpt>
      <trkpt lat="47.0832" lon="-0.12958">
        <ele>67</ele>
        <time>2013-02-22T14:29:17.001Z</time>
      </trkpt>
      <trkpt lat="47.08319" lon="-0.12952">
        <ele>67</ele>
        <time>2013-02-22T14:29:24.001Z</time>
      </trkpt>
      <trkpt lat="47.08319" lon="-0.1295">
        <ele>67</ele>
        <time>2013-02-22T14:29:25.001Z</time>
      </trkpt>
      <trkpt lat="47.08317" lon="-0.12944">
        <ele>67</ele>
        <time>2013-02-22T14:29:29.001Z</time>
      </trkpt>
      <trkpt lat="47.08317" lon="-0.12942">
        <ele>67</ele>
        <time>2013-02-22T14:29:30.001Z</time>
      </trkpt>
      <trkpt lat="47.08315" lon="-0.12936">
        <ele>67</ele>
        <time>2013-02-22T14:29:33.001Z</time>
      </trkpt>
      <trkpt lat="47.08315" lon="-0.12934">
        <ele>67</ele>
        <time>2013-02-22T14:29:34.001Z</time>
      </trkpt>
      <trkpt lat="47.08313" lon="-0.12931">
        <ele>68</ele>
        <time>2013-02-22T14:29:37.001Z</time>
      </trkpt>
      <trkpt lat="47.08312" lon="-0.12929">
        <ele>68</ele>
        <time>2013-02-22T14:29:38.001Z</time>
      </trkpt>
      <trkpt lat="47.08309" lon="-0.12924">
        <ele>68</ele>
        <time>2013-02-22T14:29:43.001Z</time>
      </trkpt>
      <trkpt lat="47.08309" lon="-0.12922">
        <ele>68</ele>
        <time>2013-02-22T14:29:44.001Z</time>
      </trkpt>
      <trkpt lat="47.08308" lon="-0.12916">
        <ele>67</ele>
        <time>2013-02-22T14:29:49.001Z</time>
      </trkpt>
      <trkpt lat="47.08307" lon="-0.12916">
        <ele>67</ele>
        <time>2013-02-22T14:29:50.001Z</time>
      </trkpt>
      <trkpt lat="47.08306" lon="-0.1291">
        <ele>67</ele>
        <time>2013-02-22T14:29:55.001Z</time>
      </trkpt>
      <trkpt lat="47.08305" lon="-0.12908">
        <ele>67</ele>
        <time>2013-02-22T14:29:56.001Z</time>
      </trkpt>
      <trkpt lat="47.08304" lon="-0.12903">
        <ele>67</ele>
        <time>2013-02-22T14:29:59.001Z</time>
      </trkpt>
      <trkpt lat="47.08303" lon="-0.12901">
        <ele>67</ele>
        <time>2013-02-22T14:30:00.001Z</time>
      </trkpt>
      <trkpt lat="47.08301" lon="-0.12896">
        <ele>67</ele>
        <time>2013-02-22T14:30:04.001Z</time>
      </trkpt>
      <trkpt lat="47.08301" lon="-0.12894">
        <ele>67</ele>
        <time>2013-02-22T14:30:05.001Z</time>
      </trkpt>
      <trkpt lat="47.08299" lon="-0.12888">
        <ele>67</ele>
        <time>2013-02-22T14:30:07.001Z</time>
      </trkpt>
      <trkpt lat="47.08298" lon="-0.12884">
        <ele>67</ele>
        <time>2013-02-22T14:30:08.001Z</time>
      </trkpt>
      <trkpt lat="47.08297" lon="-0.1288">
        <ele>67</ele>
        <time>2013-02-22T14:30:11.001Z</time>
      </trkpt>
      <trkpt lat="47.08296" lon="-0.12878">
        <ele>67</ele>
        <time>2013-02-22T14:30:12.001Z</time>
      </trkpt>
      <trkpt lat="47.08295" lon="-0.12874">
        <ele>67</ele>
        <time>2013-02-22T14:30:14.001Z</time>
      </trkpt>
      <trkpt lat="47.08294" lon="-0.12871">
        <ele>67</ele>
        <time>2013-02-22T14:30:15.001Z</time>
      </trkpt>
      <trkpt lat="47.08293" lon="-0.12865">
        <ele>67</ele>
        <time>2013-02-22T14:30:18.001Z</time>
      </trkpt>
      <trkpt lat="47.08292" lon="-0.12863">
        <ele>67</ele>
        <time>2013-02-22T14:30:19.001Z</time>
      </trkpt>
      <trkpt lat="47.08291" lon="-0.12858">
        <ele>67</ele>
        <time>2013-02-22T14:30:21.001Z</time>
      </trkpt>
      <trkpt lat="47.08289" lon="-0.12855">
        <ele>67</ele>
        <time>2013-02-22T14:30:22.001Z</time>
      </trkpt>
      <trkpt lat="47.08288" lon="-0.1285">
        <ele>67</ele>
        <time>2013-02-22T14:30:24.001Z</time>
      </trkpt>
      <trkpt lat="47.08288" lon="-0.12848">
        <ele>67</ele>
        <time>2013-02-22T14:30:25.001Z</time>
      </trkpt>
      <trkpt lat="47.08286" lon="-0.12843">
        <ele>67</ele>
        <time>2013-02-22T14:30:27.001Z</time>
      </trkpt>
      <trkpt lat="47.08285" lon="-0.12841">
        <ele>67</ele>
        <time>2013-02-22T14:30:28.001Z</time>
      </trkpt>
      <trkpt lat="47.08284" lon="-0.12838">
        <ele>67</ele>
        <time>2013-02-22T14:30:29.001Z</time>
      </trkpt>
      <trkpt lat="47.08282" lon="-0.12836">
        <ele>67</ele>
        <time>2013-02-22T14:30:30.001Z</time>
      </trkpt>
      <trkpt lat="47.08281" lon="-0.12832">
        <ele>66</ele>
        <time>2013-02-22T14:30:32.001Z</time>
      </trkpt>
      <trkpt lat="47.0828" lon="-0.1283">
        <ele>66</ele>
        <time>2013-02-22T14:30:33.001Z</time>
      </trkpt>
      <trkpt lat="47.08278" lon="-0.12825">
        <ele>66</ele>
        <time>2013-02-22T14:30:37.001Z</time>
      </trkpt>
      <trkpt lat="47.08277" lon="-0.12823">
        <ele>66</ele>
        <time>2013-02-22T14:30:38.001Z</time>
      </trkpt>
      <trkpt lat="47.08275" lon="-0.12819">
        <ele>66</ele>
        <time>2013-02-22T14:30:42.001Z</time>
      </trkpt>
      <trkpt lat="47.08274" lon="-0.12818">
        <ele>66</ele>
        <time>2013-02-22T14:30:43.001Z</time>
      </trkpt>
      <trkpt lat="47.08271" lon="-0.12812">
        <ele>66</ele>
        <time>2013-02-22T14:30:47.001Z</time>
      </trkpt>
      <trkpt lat="47.08271" lon="-0.12811">
        <ele>66</ele>
        <time>2013-02-22T14:30:48.001Z</time>
      </trkpt>
      <trkpt lat="47.08269" lon="-0.12806">
        <ele>66</ele>
        <time>2013-02-22T14:30:52.001Z</time>
      </trkpt>
      <trkpt lat="47.08268" lon="-0.12805">
        <ele>66</ele>
        <time>2013-02-22T14:30:53.001Z</time>
      </trkpt>
      <trkpt lat="47.08266" lon="-0.12801">
        <ele>66</ele>
        <time>2013-02-22T14:30:55.001Z</time>
      </trkpt>
      <trkpt lat="47.08265" lon="-0.12799">
        <ele>66</ele>
        <time>2013-02-22T14:30:56.001Z</time>
      </trkpt>
      <trkpt lat="47.08264" lon="-0.12795">
        <ele>66</ele>
        <time>2013-02-22T14:30:58.001Z</time>
      </trkpt>
      <trkpt lat="47.08264" lon="-0.12793">
        <ele>66</ele>
        <time>2013-02-22T14:30:59.001Z</time>
      </trkpt>
      <trkpt lat="47.08262" lon="-0.12787">
        <ele>66</ele>
        <time>2013-02-22T14:31:03.001Z</time>
      </trkpt>
      <trkpt lat="47.08262" lon="-0.12786">
        <ele>66</ele>
        <time>2013-02-22T14:31:04.001Z</time>
      </trkpt>
      <trkpt lat="47.08261" lon="-0.1278">
        <ele>66</ele>
        <time>2013-02-22T14:31:07.001Z</time>
      </trkpt>
      <trkpt lat="47.08261" lon="-0.12778">
        <ele>66</ele>
        <time>2013-02-22T14:31:08.001Z</time>
      </trkpt>
      <trkpt lat="47.08261" lon="-0.12772">
        <ele>66</ele>
        <time>2013-02-22T14:31:11.001Z</time>
      </trkpt>
      <trkpt lat="47.08261" lon="-0.1277">
        <ele>66</ele>
        <time>2013-02-22T14:31:12.001Z</time>
      </trkpt>
      <trkpt lat="47.08259" lon="-0.12765">
        <ele>66</ele>
        <time>2013-02-22T14:31:17.001Z</time>
      </trkpt>
      <trkpt lat="47.08258" lon="-0.12763">
        <ele>66</ele>
        <time>2013-02-22T14:31:18.001Z</time>
      </trkpt>
      <trkpt lat="47.08257" lon="-0.12758">
        <ele>66</ele>
        <time>2013-02-22T14:31:24.001Z</time>
      </trkpt>
      <trkpt lat="47.08256" lon="-0.12756">
        <ele>66</ele>
        <time>2013-02-22T14:31:25.001Z</time>
      </trkpt>
      <trkpt lat="47.08254" lon="-0.12751">
        <ele>66</ele>
        <time>2013-02-22T14:31:30.001Z</time>
      </trkpt>
      <trkpt lat="47.08254" lon="-0.12749">
        <ele>66</ele>
        <time>2013-02-22T14:31:31.001Z</time>
      </trkpt>
      <trkpt lat="47.08253" lon="-0.12743">
        <ele>66</ele>
        <time>2013-02-22T14:31:34.001Z</time>
      </trkpt>
      <trkpt lat="47.08252" lon="-0.12741">
        <ele>66</ele>
        <time>2013-02-22T14:31:35.001Z</time>
      </trkpt>
      <trkpt lat="47.08251" lon="-0.12736">
        <ele>66</ele>
        <time>2013-02-22T14:31:38.001Z</time>
      </trkpt>
      <trkpt lat="47.0825" lon="-0.12734">
        <ele>66</ele>
        <time>2013-02-22T14:31:39.001Z</time>
      </trkpt>
      <trkpt lat="47.08248" lon="-0.1273">
        <ele>66</ele>
        <time>2013-02-22T14:31:42.001Z</time>
      </trkpt>
      <trkpt lat="47.08247" lon="-0.12728">
        <ele>66</ele>
        <time>2013-02-22T14:31:43.001Z</time>
      </trkpt>
      <trkpt lat="47.08245" lon="-0.12723">
        <ele>66</ele>
        <time>2013-02-22T14:31:48.001Z</time>
      </trkpt>
      <trkpt lat="47.08245" lon="-0.12722">
        <ele>66</ele>
        <time>2013-02-22T14:31:49.001Z</time>
      </trkpt>
      <trkpt lat="47.08242" lon="-0.12717">
        <ele>66</ele>
        <time>2013-02-22T14:31:52.001Z</time>
      </trkpt>
      <trkpt lat="47.08242" lon="-0.12716">
        <ele>66</ele>
        <time>2013-02-22T14:31:53.001Z</time>
      </trkpt>
      <trkpt lat="47.0824" lon="-0.12711">
        <ele>66</ele>
        <time>2013-02-22T14:31:56.001Z</time>
      </trkpt>
      <trkpt lat="47.08239" lon="-0.12709">
        <ele>66</ele>
        <time>2013-02-22T14:31:57.001Z</time>
      </trkpt>
      <trkpt lat="47.08238" lon="-0.12703">
        <ele>66</ele>
        <time>2013-02-22T14:32:01.001Z</time>
      </trkpt>
      <trkpt lat="47.08238" lon="-0.12703">
        <ele>66</ele>
        <time>2013-02-22T14:32:02.001Z</time>
      </trkpt>
      <trkpt lat="47.08235" lon="-0.12697">
        <ele>66</ele>
        <time>2013-02-22T14:32:07.001Z</time>
      </trkpt>
      <trkpt lat="47.08235" lon="-0.12696">
        <ele>66</ele>
        <time>2013-02-22T14:32:08.001Z</time>
      </trkpt>
      <trkpt lat="47.08233" lon="-0.1269">
        <ele>66</ele>
        <time>2013-02-22T14:32:13.001Z</time>
      </trkpt>
      <trkpt lat="47.08233" lon="-0.12688">
        <ele>66</ele>
        <time>2013-02-22T14:32:14.001Z</time>
      </trkpt>
      <trkpt lat="47.08232" lon="-0.12683">
        <ele>67</ele>
        <time>2013-02-22T14:32:17.001Z</time>
      </trkpt>
      <trkpt lat="47.08232" lon="-0.12681">
        <ele>67</ele>
        <time>2013-02-22T14:32:18.001Z</time>
      </trkpt>
      <trkpt lat="47.08231" lon="-0.12677">
        <ele>67</ele>
        <time>2013-02-22T14:32:21.001Z</time>
      </trkpt>
      <trkpt lat="47.08231" lon="-0.12674">
        <ele>67</ele>
        <time>2013-02-22T14:32:22.001Z</time>
      </trkpt>
      <trkpt lat="47.0823" lon="-0.12668">
        <ele>67</ele>
        <time>2013-02-22T14:32:25.001Z</time>
      </trkpt>
      <trkpt lat="47.08229" lon="-0.12666">
        <ele>67</ele>
        <time>2013-02-22T14:32:26.001Z</time>
      </trkpt>
      <trkpt lat="47.08228" lon="-0.1266">
        <ele>67</ele>
        <time>2013-02-22T14:32:29.001Z</time>
      </trkpt>
      <trkpt lat="47.08227" lon="-0.12658">
        <ele>67</ele>
        <time>2013-02-22T14:32:30.001Z</time>
      </trkpt>
      <trkpt lat="47.08225" lon="-0.12653">
        <ele>66</ele>
        <time>2013-02-22T14:32:33.001Z</time>
      </trkpt>
      <trkpt lat="47.08224" lon="-0.12651">
        <ele>66</ele>
        <time>2013-02-22T14:32:34.001Z</time>
      </trkpt>
      <trkpt lat="47.08222" lon="-0.12645">
        <ele>66</ele>
        <time>2013-02-22T14:32:39.001Z</time>
      </trkpt>
      <trkpt lat="47.08222" lon="-0.12644">
        <ele>66</ele>
        <time>2013-02-22T14:32:40.001Z</time>
      </trkpt>
      <trkpt lat="47.0822" lon="-0.12639">
        <ele>66</ele>
        <time>2013-02-22T14:32:43.001Z</time>
      </trkpt>
      <trkpt lat="47.0822" lon="-0.12637">
        <ele>66</ele>
        <time>2013-02-22T14:32:44.001Z</time>
      </trkpt>
      <trkpt lat="47.08218" lon="-0.12632">
        <ele>66</ele>
        <time>2013-02-22T14:32:48.001Z</time>
      </trkpt>
      <trkpt lat="47.08218" lon="-0.1263">
        <ele>66</ele>
        <time>2013-02-22T14:32:49.001Z</time>
      </trkpt>
      <trkpt lat="47.08215" lon="-0.12625">
        <ele>66</ele>
        <time>2013-02-22T14:32:52.001Z</time>
      </trkpt>
      <trkpt lat="47.08215" lon="-0.12624">
        <ele>66</ele>
        <time>2013-02-22T14:32:53.001Z</time>
      </trkpt>
      <trkpt lat="47.08214" lon="-0.1262">
        <ele>66</ele>
        <time>2013-02-22T14:32:55.001Z</time>
      </trkpt>
      <trkpt lat="47.08213" lon="-0.12617">
        <ele>66</ele>
        <time>2013-02-22T14:32:56.001Z</time>
      </trkpt>
      <trkpt lat="47.0821" lon="-0.12612">
        <ele>66</ele>
        <time>2013-02-22T14:32:59.001Z</time>
      </trkpt>
      <trkpt lat="47.08209" lon="-0.1261">
        <ele>66</ele>
        <time>2013-02-22T14:33:00.001Z</time>
      </trkpt>
      <trkpt lat="47.08208" lon="-0.12605">
        <ele>66</ele>
        <time>2013-02-22T14:33:04.001Z</time>
      </trkpt>
      <trkpt lat="47.08207" lon="-0.12604">
        <ele>66</ele>
        <time>2013-02-22T14:33:05.001Z</time>
      </trkpt>
      <trkpt lat="47.08205" lon="-0.12599">
        <ele>66</ele>
        <time>2013-02-22T14:33:13.001Z</time>
      </trkpt>
      <trkpt lat="47.08204" lon="-0.12597">
        <ele>66</ele>
        <time>2013-02-22T14:33:14.001Z</time>
      </trkpt>
      <trkpt lat="47.08201" lon="-0.12592">
        <ele>66</ele>
        <time>2013-02-22T14:33:20.001Z</time>
      </trkpt>
      <trkpt lat="47.08201" lon="-0.12591">
        <ele>66</ele>
        <time>2013-02-22T14:33:21.001Z</time>
      </trkpt>
      <trkpt lat="47.08199" lon="-0.12585">
        <ele>66</ele>
        <time>2013-02-22T14:33:25.001Z</time>
      </trkpt>
      <trkpt lat="47.08198" lon="-0.12584">
        <ele>66</ele>
        <time>2013-02-22T14:33:26.001Z</time>
      </trkpt>
      <trkpt lat="47.08196" lon="-0.12578">
        <ele>66</ele>
        <time>2013-02-22T14:33:30.001Z</time>
      </trkpt>
      <trkpt lat="47.08195" lon="-0.12577">
        <ele>66</ele>
        <time>2013-02-22T14:33:31.001Z</time>
      </trkpt>
      <trkpt lat="47.08194" lon="-0.12571">
        <ele>66</ele>
        <time>2013-02-22T14:33:37.001Z</time>
      </trkpt>
      <trkpt lat="47.08193" lon="-0.12569">
        <ele>66</ele>
        <time>2013-02-22T14:33:38.001Z</time>
      </trkpt>
      <trkpt lat="47.08192" lon="-0.12563">
        <ele>66</ele>
        <time>2013-02-22T14:33:41.001Z</time>
      </trkpt>
      <trkpt lat="47.08191" lon="-0.12561">
        <ele>66</ele>
        <time>2013-02-22T14:33:42.001Z</time>
      </trkpt>
      <trkpt lat="47.08189" lon="-0.12556">
        <ele>66</ele>
        <time>2013-02-22T14:33:45.001Z</time>
      </trkpt>
      <trkpt lat="47.08189" lon="-0.12555">
        <ele>66</ele>
        <time>2013-02-22T14:33:46.001Z</time>
      </trkpt>
      <trkpt lat="47.08188" lon="-0.12551">
        <ele>66</ele>
        <time>2013-02-22T14:33:49.001Z</time>
      </trkpt>
      <trkpt lat="47.08187" lon="-0.12549">
        <ele>66</ele>
        <time>2013-02-22T14:33:50.001Z</time>
      </trkpt>
      <trkpt lat="47.08186" lon="-0.12544">
        <ele>66</ele>
        <time>2013-02-22T14:33:53.001Z</time>
      </trkpt>
      <trkpt lat="47.08185" lon="-0.12543">
        <ele>66</ele>
        <time>2013-02-22T14:33:54.001Z</time>
      </trkpt>
      <trkpt lat="47.08183" lon="-0.12537">
        <ele>65</ele>
        <time>2013-02-22T14:33:58.001Z</time>
      </trkpt>
      <trkpt lat="47.08183" lon="-0.12535">
        <ele>65</ele>
        <time>2013-02-22T14:33:59.001Z</time>
      </trkpt>
      <trkpt lat="47.08182" lon="-0.1253">
        <ele>65</ele>
        <time>2013-02-22T14:34:02.001Z</time>
      </trkpt>
      <trkpt lat="47.08181" lon="-0.12528">
        <ele>65</ele>
        <time>2013-02-22T14:34:03.001Z</time>
      </trkpt>
      <trkpt lat="47.0818" lon="-0.12524">
        <ele>65</ele>
        <time>2013-02-22T14:34:06.001Z</time>
      </trkpt>
      <trkpt lat="47.08179" lon="-0.12522">
        <ele>65</ele>
        <time>2013-02-22T14:34:07.001Z</time>
      </trkpt>
      <trkpt lat="47.08178" lon="-0.12519">
        <ele>65</ele>
        <time>2013-02-22T14:34:10.001Z</time>
      </trkpt>
      <trkpt lat="47.08177" lon="-0.12517">
        <ele>65</ele>
        <time>2013-02-22T14:34:11.001Z</time>
      </trkpt>
      <trkpt lat="47.08175" lon="-0.12512">
        <ele>65</ele>
        <time>2013-02-22T14:34:14.001Z</time>
      </trkpt>
      <trkpt lat="47.08174" lon="-0.12511">
        <ele>65</ele>
        <time>2013-02-22T14:34:15.001Z</time>
      </trkpt>
      <trkpt lat="47.08172" lon="-0.12506">
        <ele>65</ele>
        <time>2013-02-22T14:34:17.001Z</time>
      </trkpt>
      <trkpt lat="47.08171" lon="-0.12504">
        <ele>65</ele>
        <time>2013-02-22T14:34:18.001Z</time>
      </trkpt>
      <trkpt lat="47.0817" lon="-0.12499">
        <ele>65</ele>
        <time>2013-02-22T14:34:20.001Z</time>
      </trkpt>
      <trkpt lat="47.08169" lon="-0.12496">
        <ele>65</ele>
        <time>2013-02-22T14:34:21.001Z</time>
      </trkpt>
      <trkpt lat="47.08169" lon="-0.1249">
        <ele>65</ele>
        <time>2013-02-22T14:34:24.001Z</time>
      </trkpt>
      <trkpt lat="47.08168" lon="-0.12488">
        <ele>65</ele>
        <time>2013-02-22T14:34:25.001Z</time>
      </trkpt>
      <trkpt lat="47.08167" lon="-0.12481">
        <ele>65</ele>
        <time>2013-02-22T14:34:29.001Z</time>
      </trkpt>
      <trkpt lat="47.08167" lon="-0.12481">
        <ele>65</ele>
        <time>2013-02-22T14:34:30.001Z</time>
      </trkpt>
      <trkpt lat="47.08166" lon="-0.12474">
        <ele>64</ele>
        <time>2013-02-22T14:34:36.001Z</time>
      </trkpt>
      <trkpt lat="47.08166" lon="-0.12473">
        <ele>64</ele>
        <time>2013-02-22T14:34:37.001Z</time>
      </trkpt>
      <trkpt lat="47.08164" lon="-0.12467">
        <ele>64</ele>
        <time>2013-02-22T14:34:44.001Z</time>
      </trkpt>
      <trkpt lat="47.08163" lon="-0.12466">
        <ele>64</ele>
        <time>2013-02-22T14:34:45.001Z</time>
      </trkpt>
      <trkpt lat="47.08162" lon="-0.1246">
        <ele>64</ele>
        <time>2013-02-22T14:34:49.001Z</time>
      </trkpt>
      <trkpt lat="47.08161" lon="-0.12458">
        <ele>64</ele>
        <time>2013-02-22T14:34:50.001Z</time>
      </trkpt>
      <trkpt lat="47.08159" lon="-0.12454">
        <ele>64</ele>
        <time>2013-02-22T14:34:53.001Z</time>
      </trkpt>
      <trkpt lat="47.08159" lon="-0.12452">
        <ele>64</ele>
        <time>2013-02-22T14:34:54.001Z</time>
      </trkpt>
      <trkpt lat="47.08157" lon="-0.12448">
        <ele>64</ele>
        <time>2013-02-22T14:34:56.001Z</time>
      </trkpt>
      <trkpt lat="47.08156" lon="-0.12446">
        <ele>64</ele>
        <time>2013-02-22T14:34:57.001Z</time>
      </trkpt>
      <trkpt lat="47.08155" lon="-0.12442">
        <ele>64</ele>
        <time>2013-02-22T14:34:59.001Z</time>
      </trkpt>
      <trkpt lat="47.08154" lon="-0.12439">
        <ele>64</ele>
        <time>2013-02-22T14:35:00.001Z</time>
      </trkpt>
      <trkpt lat="47.08153" lon="-0.12433">
        <ele>64</ele>
        <time>2013-02-22T14:35:02.001Z</time>
      </trkpt>
      <trkpt lat="47.08152" lon="-0.12431">
        <ele>64</ele>
        <time>2013-02-22T14:35:03.001Z</time>
      </trkpt>
      <trkpt lat="47.0815" lon="-0.12426">
        <ele>64</ele>
        <time>2013-02-22T14:35:06.001Z</time>
      </trkpt>
      <trkpt lat="47.08149" lon="-0.12423">
        <ele>64</ele>
        <time>2013-02-22T14:35:07.001Z</time>
      </trkpt>
      <trkpt lat="47.08147" lon="-0.12417">
        <ele>64</ele>
        <time>2013-02-22T14:35:11.001Z</time>
      </trkpt>
      <trkpt lat="47.08147" lon="-0.12416">
        <ele>64</ele>
        <time>2013-02-22T14:35:12.001Z</time>
      </trkpt>
      <trkpt lat="47.08145" lon="-0.12411">
        <ele>64</ele>
        <time>2013-02-22T14:35:14.001Z</time>
      </trkpt>
      <trkpt lat="47.08144" lon="-0.12409">
        <ele>64</ele>
        <time>2013-02-22T14:35:15.001Z</time>
      </trkpt>
      <trkpt lat="47.08142" lon="-0.12404">
        <ele>64</ele>
        <time>2013-02-22T14:35:17.001Z</time>
      </trkpt>
      <trkpt lat="47.08142" lon="-0.12401">
        <ele>64</ele>
        <time>2013-02-22T14:35:18.001Z</time>
      </trkpt>
      <trkpt lat="47.0814" lon="-0.12398">
        <ele>64</ele>
        <time>2013-02-22T14:35:22.001Z</time>
      </trkpt>
      <trkpt lat="47.0814" lon="-0.12395">
        <ele>64</ele>
        <time>2013-02-22T14:35:23.001Z</time>
      </trkpt>
      <trkpt lat="47.08138" lon="-0.1239">
        <ele>64</ele>
        <time>2013-02-22T14:35:26.001Z</time>
      </trkpt>
      <trkpt lat="47.08137" lon="-0.12389">
        <ele>64</ele>
        <time>2013-02-22T14:35:27.001Z</time>
      </trkpt>
      <trkpt lat="47.08135" lon="-0.12384">
        <ele>64</ele>
        <time>2013-02-22T14:35:30.001Z</time>
      </trkpt>
      <trkpt lat="47.08134" lon="-0.12383">
        <ele>64</ele>
        <time>2013-02-22T14:35:31.001Z</time>
      </trkpt>
      <trkpt lat="47.08132" lon="-0.12379">
        <ele>64</ele>
        <time>2013-02-22T14:35:34.001Z</time>
      </trkpt>
      <trkpt lat="47.08131" lon="-0.12377">
        <ele>64</ele>
        <time>2013-02-22T14:35:35.001Z</time>
      </trkpt>
      <trkpt lat="47.08129" lon="-0.12372">
        <ele>64</ele>
        <time>2013-02-22T14:35:40.001Z</time>
      </trkpt>
      <trkpt lat="47.08128" lon="-0.1237">
        <ele>63</ele>
        <time>2013-02-22T14:35:41.001Z</time>
      </trkpt>
      <trkpt lat="47.08126" lon="-0.12366">
        <ele>63</ele>
        <time>2013-02-22T14:35:44.001Z</time>
      </trkpt>
      <trkpt lat="47.08125" lon="-0.12363">
        <ele>63</ele>
        <time>2013-02-22T14:35:45.001Z</time>
      </trkpt>
      <trkpt lat="47.08123" lon="-0.12358">
        <ele>63</ele>
        <time>2013-02-22T14:35:49.001Z</time>
      </trkpt>
      <trkpt lat="47.08123" lon="-0.12356">
        <ele>63</ele>
        <time>2013-02-22T14:35:50.001Z</time>
      </trkpt>
      <trkpt lat="47.08121" lon="-0.12351">
        <ele>63</ele>
        <time>2013-02-22T14:35:53.001Z</time>
      </trkpt>
      <trkpt lat="47.0812" lon="-0.12349">
        <ele>63</ele>
        <time>2013-02-22T14:35:54.001Z</time>
      </trkpt>
      <trkpt lat="47.08119" lon="-0.12343">
        <ele>63</ele>
        <time>2013-02-22T14:36:00.001Z</time>
      </trkpt>
      <trkpt lat="47.08118" lon="-0.12342">
        <ele>63</ele>
        <time>2013-02-22T14:36:01.001Z</time>
      </trkpt>
      <trkpt lat="47.08115" lon="-0.12338">
        <ele>63</ele>
        <time>2013-02-22T14:36:06.001Z</time>
      </trkpt>
      <trkpt lat="47.08114" lon="-0.12336">
        <ele>63</ele>
        <time>2013-02-22T14:36:07.001Z</time>
      </trkpt>
      <trkpt lat="47.08113" lon="-0.12331">
        <ele>63</ele>
        <time>2013-02-22T14:36:10.001Z</time>
      </trkpt>
      <trkpt lat="47.08111" lon="-0.12328">
        <ele>63</ele>
        <time>2013-02-22T14:36:11.001Z</time>
      </trkpt>
      <trkpt lat="47.08109" lon="-0.12324">
        <ele>63</ele>
        <time>2013-02-22T14:36:13.001Z</time>
      </trkpt>
      <trkpt lat="47.08109" lon="-0.12322">
        <ele>63</ele>
        <time>2013-02-22T14:36:14.001Z</time>
      </trkpt>
      <trkpt lat="47.08107" lon="-0.12317">
        <ele>63</ele>
        <time>2013-02-22T14:36:17.001Z</time>
      </trkpt>
      <trkpt lat="47.08106" lon="-0.12316">
        <ele>63</ele>
        <time>2013-02-22T14:36:18.001Z</time>
      </trkpt>
      <trkpt lat="47.08104" lon="-0.12313">
        <ele>63</ele>
        <time>2013-02-22T14:36:21.001Z</time>
      </trkpt>
      <trkpt lat="47.08103" lon="-0.12312">
        <ele>63</ele>
        <time>2013-02-22T14:36:22.001Z</time>
      </trkpt>
      <trkpt lat="47.081" lon="-0.12306">
        <ele>63</ele>
        <time>2013-02-22T14:36:27.001Z</time>
      </trkpt>
      <trkpt lat="47.081" lon="-0.12305">
        <ele>63</ele>
        <time>2013-02-22T14:36:28.001Z</time>
      </trkpt>
      <trkpt lat="47.08099" lon="-0.12299">
        <ele>63</ele>
        <time>2013-02-22T14:36:32.001Z</time>
      </trkpt>
      <trkpt lat="47.08098" lon="-0.12297">
        <ele>63</ele>
        <time>2013-02-22T14:36:33.001Z</time>
      </trkpt>
      <trkpt lat="47.08097" lon="-0.12291">
        <ele>62</ele>
        <time>2013-02-22T14:36:35.001Z</time>
      </trkpt>
      <trkpt lat="47.08097" lon="-0.12288">
        <ele>62</ele>
        <time>2013-02-22T14:36:36.001Z</time>
      </trkpt>
      <trkpt lat="47.08095" lon="-0.12282">
        <ele>62</ele>
        <time>2013-02-22T14:36:39.001Z</time>
      </trkpt>
      <trkpt lat="47.08094" lon="-0.1228">
        <ele>62</ele>
        <time>2013-02-22T14:36:40.001Z</time>
      </trkpt>
      <trkpt lat="47.08093" lon="-0.12275">
        <ele>62</ele>
        <time>2013-02-22T14:36:42.001Z</time>
      </trkpt>
      <trkpt lat="47.08092" lon="-0.12272">
        <ele>62</ele>
        <time>2013-02-22T14:36:43.001Z</time>
      </trkpt>
      <trkpt lat="47.08092" lon="-0.12267">
        <ele>62</ele>
        <time>2013-02-22T14:36:45.001Z</time>
      </trkpt>
      <trkpt lat="47.08092" lon="-0.12264">
        <ele>62</ele>
        <time>2013-02-22T14:36:46.001Z</time>
      </trkpt>
      <trkpt lat="47.08092" lon="-0.12258">
        <ele>62</ele>
        <time>2013-02-22T14:36:49.001Z</time>
      </trkpt>
      <trkpt lat="47.08093" lon="-0.12257">
        <ele>62</ele>
        <time>2013-02-22T14:36:50.001Z</time>
      </trkpt>
      <trkpt lat="47.08091" lon="-0.12251">
        <ele>62</ele>
        <time>2013-02-22T14:36:55.001Z</time>
      </trkpt>
      <trkpt lat="47.08091" lon="-0.1225">
        <ele>62</ele>
        <time>2013-02-22T14:36:56.001Z</time>
      </trkpt>
      <trkpt lat="47.08088" lon="-0.12246">
        <ele>62</ele>
        <time>2013-02-22T14:37:02.001Z</time>
      </trkpt>
      <trkpt lat="47.08087" lon="-0.12245">
        <ele>62</ele>
        <time>2013-02-22T14:37:03.001Z</time>
      </trkpt>
      <trkpt lat="47.08085" lon="-0.12242">
        <ele>62</ele>
        <time>2013-02-22T14:37:08.001Z</time>
      </trkpt>
      <trkpt lat="47.08085" lon="-0.1224">
        <ele>62</ele>
        <time>2013-02-22T14:37:09.001Z</time>
      </trkpt>
      <trkpt lat="47.08083" lon="-0.12236">
        <ele>61</ele>
        <time>2013-02-22T14:37:11.001Z</time>
      </trkpt>
      <trkpt lat="47.08082" lon="-0.12234">
        <ele>61</ele>
        <time>2013-02-22T14:37:12.001Z</time>
      </trkpt>
      <trkpt lat="47.08083" lon="-0.12228">
        <ele>61</ele>
        <time>2013-02-22T14:38:21.001Z</time>
      </trkpt>
      <trkpt lat="47.08082" lon="-0.12227">
        <ele>61</ele>
        <time>2013-02-22T14:38:22.001Z</time>
      </trkpt>
      <trkpt lat="47.08083" lon="-0.12222">
        <ele>61</ele>
        <time>2013-02-22T14:38:43.001Z</time>
      </trkpt>
      <trkpt lat="47.08083" lon="-0.1222">
        <ele>61</ele>
        <time>2013-02-22T14:38:44.001Z</time>
      </trkpt>
      <trkpt lat="47.08085" lon="-0.12215">
        <ele>62</ele>
        <time>2013-02-22T14:38:51.001Z</time>
      </trkpt>
      <trkpt lat="47.08085" lon="-0.12213">
        <ele>62</ele>
        <time>2013-02-22T14:38:52.001Z</time>
      </trkpt>
      <trkpt lat="47.08088" lon="-0.12208">
        <ele>62</ele>
        <time>2013-02-22T14:38:56.001Z</time>
      </trkpt>
      <trkpt lat="47.08088" lon="-0.12207">
        <ele>62</ele>
        <time>2013-02-22T14:38:57.001Z</time>
      </trkpt>
      <trkpt lat="47.08091" lon="-0.12202">
        <ele>62</ele>
        <time>2013-02-22T14:39:00.001Z</time>
      </trkpt>
      <trkpt lat="47.08092" lon="-0.122">
        <ele>62</ele>
        <time>2013-02-22T14:39:01.001Z</time>
      </trkpt>
      <trkpt lat="47.08093" lon="-0.12196">
        <ele>62</ele>
        <time>2013-02-22T14:39:03.001Z</time>
      </trkpt>
      <trkpt lat="47.08094" lon="-0.12193">
        <ele>62</ele>
        <time>2013-02-22T14:39:04.001Z</time>
      </trkpt>
      <trkpt lat="47.08095" lon="-0.12187">
        <ele>62</ele>
        <time>2013-02-22T14:39:06.001Z</time>
      </trkpt>
      <trkpt lat="47.08095" lon="-0.12184">
        <ele>62</ele>
        <time>2013-02-22T14:39:07.001Z</time>
      </trkpt>
      <trkpt lat="47.08097" lon="-0.12179">
        <ele>62</ele>
        <time>2013-02-22T14:39:11.001Z</time>
      </trkpt>
      <trkpt lat="47.08098" lon="-0.12178">
        <ele>62</ele>
        <time>2013-02-22T14:39:12.001Z</time>
      </trkpt>
      <trkpt lat="47.08099" lon="-0.12174">
        <ele>62</ele>
        <time>2013-02-22T14:39:14.001Z</time>
      </trkpt>
      <trkpt lat="47.081" lon="-0.12171">
        <ele>62</ele>
        <time>2013-02-22T14:39:15.001Z</time>
      </trkpt>
      <trkpt lat="47.08101" lon="-0.12167">
        <ele>62</ele>
        <time>2013-02-22T14:39:17.001Z</time>
      </trkpt>
      <trkpt lat="47.08101" lon="-0.12164">
        <ele>62</ele>
        <time>2013-02-22T14:39:18.001Z</time>
      </trkpt>
      <trkpt lat="47.08102" lon="-0.12159">
        <ele>62</ele>
        <time>2013-02-22T14:39:21.001Z</time>
      </trkpt>
      <trkpt lat="47.08103" lon="-0.12157">
        <ele>62</ele>
        <time>2013-02-22T14:39:22.001Z</time>
      </trkpt>
      <trkpt lat="47.08102" lon="-0.12152">
        <ele>62</ele>
        <time>2013-02-22T14:39:24.001Z</time>
      </trkpt>
      <trkpt lat="47.08103" lon="-0.12151">
        <ele>62</ele>
        <time>2013-02-22T14:39:25.001Z</time>
      </trkpt>
      <trkpt lat="47.08105" lon="-0.12145">
        <ele>62</ele>
        <time>2013-02-22T14:39:30.001Z</time>
      </trkpt>
      <trkpt lat="47.08105" lon="-0.12144">
        <ele>62</ele>
        <time>2013-02-22T14:39:31.001Z</time>
      </trkpt>
      <trkpt lat="47.08107" lon="-0.12139">
        <ele>62</ele>
        <time>2013-02-22T14:39:34.001Z</time>
      </trkpt>
      <trkpt lat="47.08108" lon="-0.12137">
        <ele>62</ele>
        <time>2013-02-22T14:39:35.001Z</time>
      </trkpt>
      <trkpt lat="47.08109" lon="-0.12131">
        <ele>61</ele>
        <time>2013-02-22T14:39:39.000Z</time>
      </trkpt>
      <trkpt lat="47.0811" lon="-0.1213">
        <ele>61</ele>
        <time>2013-02-22T14:39:40.000Z</time>
      </trkpt>
      <trkpt lat="47.08112" lon="-0.12125">
        <ele>61</ele>
        <time>2013-02-22T14:39:43.000Z</time>
      </trkpt>
      <trkpt lat="47.08113" lon="-0.12123">
        <ele>61</ele>
        <time>2013-02-22T14:39:44.000Z</time>
      </trkpt>
      <trkpt lat="47.08115" lon="-0.1212">
        <ele>61</ele>
        <time>2013-02-22T14:39:47.000Z</time>
      </trkpt>
      <trkpt lat="47.08116" lon="-0.12118">
        <ele>61</ele>
        <time>2013-02-22T14:39:48.000Z</time>
      </trkpt>
      <trkpt lat="47.08119" lon="-0.12113">
        <ele>61</ele>
        <time>2013-02-22T14:39:51.000Z</time>
      </trkpt>
      <trkpt lat="47.08119" lon="-0.12112">
        <ele>61</ele>
        <time>2013-02-22T14:39:52.000Z</time>
      </trkpt>
      <trkpt lat="47.08121" lon="-0.12108">
        <ele>61</ele>
        <time>2013-02-22T14:39:57.000Z</time>
      </trkpt>
      <trkpt lat="47.08122" lon="-0.12106">
        <ele>61</ele>
        <time>2013-02-22T14:39:58.000Z</time>
      </trkpt>
      <trkpt lat="47.08123" lon="-0.12102">
        <ele>61</ele>
        <time>2013-02-22T14:40:00.000Z</time>
      </trkpt>
      <trkpt lat="47.08124" lon="-0.121">
        <ele>61</ele>
        <time>2013-02-22T14:40:01.000Z</time>
      </trkpt>
      <trkpt lat="47.08128" lon="-0.12097">
        <ele>61</ele>
        <time>2013-02-22T14:40:04.000Z</time>
      </trkpt>
      <trkpt lat="47.08128" lon="-0.12096">
        <ele>61</ele>
        <time>2013-02-22T14:40:05.000Z</time>
      </trkpt>
      <trkpt lat="47.0813" lon="-0.1209">
        <ele>61</ele>
        <time>2013-02-22T14:40:08.000Z</time>
      </trkpt>
      <trkpt lat="47.08131" lon="-0.12088">
        <ele>61</ele>
        <time>2013-02-22T14:40:09.000Z</time>
      </trkpt>
      <trkpt lat="47.08133" lon="-0.12084">
        <ele>61</ele>
        <time>2013-02-22T14:40:12.000Z</time>
      </trkpt>
      <trkpt lat="47.08133" lon="-0.12082">
        <ele>61</ele>
        <time>2013-02-22T14:40:13.000Z</time>
      </trkpt>
      <trkpt lat="47.08134" lon="-0.12076">
        <ele>61</ele>
        <time>2013-02-22T14:40:16.000Z</time>
      </trkpt>
      <trkpt lat="47.08134" lon="-0.12074">
        <ele>61</ele>
        <time>2013-02-22T14:40:17.000Z</time>
      </trkpt>
      <trkpt lat="47.08137" lon="-0.1207">
        <ele>61</ele>
        <time>2013-02-22T14:40:19.000Z</time>
      </trkpt>
      <trkpt lat="47.08138" lon="-0.12068">
        <ele>61</ele>
        <time>2013-02-22T14:40:20.000Z</time>
      </trkpt>
      <trkpt lat="47.0814" lon="-0.12064">
        <ele>61</ele>
        <time>2013-02-22T14:40:22.000Z</time>
      </trkpt>
      <trkpt lat="47.0814" lon="-0.12062">
        <ele>61</ele>
        <time>2013-02-22T14:40:23.000Z</time>
      </trkpt>
      <trkpt lat="47.08142" lon="-0.12057">
        <ele>61</ele>
        <time>2013-02-22T14:40:26.000Z</time>
      </trkpt>
      <trkpt lat="47.08143" lon="-0.12055">
        <ele>61</ele>
        <time>2013-02-22T14:40:27.000Z</time>
      </trkpt>
      <trkpt lat="47.08145" lon="-0.1205">
        <ele>61</ele>
        <time>2013-02-22T14:40:30.000Z</time>
      </trkpt>
      <trkpt lat="47.08146" lon="-0.12048">
        <ele>61</ele>
        <time>2013-02-22T14:40:31.000Z</time>
      </trkpt>
      <trkpt lat="47.08148" lon="-0.12043">
        <ele>61</ele>
        <time>2013-02-22T14:40:34.000Z</time>
      </trkpt>
      <trkpt lat="47.08149" lon="-0.12041">
        <ele>61</ele>
        <time>2013-02-22T14:40:35.000Z</time>
      </trkpt>
      <trkpt lat="47.08151" lon="-0.12036">
        <ele>61</ele>
        <time>2013-02-22T14:40:38.000Z</time>
      </trkpt>
      <trkpt lat="47.08152" lon="-0.12035">
        <ele>61</ele>
        <time>2013-02-22T14:40:39.000Z</time>
      </trkpt>
      <trkpt lat="47.08154" lon="-0.12031">
        <ele>61</ele>
        <time>2013-02-22T14:40:42.000Z</time>
      </trkpt>
      <trkpt lat="47.08155" lon="-0.1203">
        <ele>61</ele>
        <time>2013-02-22T14:40:43.000Z</time>
      </trkpt>
      <trkpt lat="47.08156" lon="-0.12026">
        <ele>61</ele>
        <time>2013-02-22T14:40:45.000Z</time>
      </trkpt>
      <trkpt lat="47.08157" lon="-0.12024">
        <ele>61</ele>
        <time>2013-02-22T14:40:46.000Z</time>
      </trkpt>
      <trkpt lat="47.08159" lon="-0.12019">
        <ele>61</ele>
        <time>2013-02-22T14:40:50.000Z</time>
      </trkpt>
      <trkpt lat="47.0816" lon="-0.12017">
        <ele>61</ele>
        <time>2013-02-22T14:40:51.000Z</time>
      </trkpt>
      <trkpt lat="47.0816" lon="-0.12011">
        <ele>61</ele>
        <time>2013-02-22T14:40:54.000Z</time>
      </trkpt>
      <trkpt lat="47.0816" lon="-0.12009">
        <ele>61</ele>
        <time>2013-02-22T14:40:55.000Z</time>
      </trkpt>
      <trkpt lat="47.08161" lon="-0.12004">
        <ele>61</ele>
        <time>2013-02-22T14:40:58.000Z</time>
      </trkpt>
      <trkpt lat="47.08161" lon="-0.12002">
        <ele>61</ele>
        <time>2013-02-22T14:40:59.000Z</time>
      </trkpt>
      <trkpt lat="47.08161" lon="-0.11996">
        <ele>60</ele>
        <time>2013-02-22T14:41:02.000Z</time>
      </trkpt>
      <trkpt lat="47.08162" lon="-0.11995">
        <ele>60</ele>
        <time>2013-02-22T14:41:03.000Z</time>
      </trkpt>
      <trkpt lat="47.08165" lon="-0.1199">
        <ele>60</ele>
        <time>2013-02-22T14:41:08.000Z</time>
      </trkpt>
      <trkpt lat="47.08166" lon="-0.1199">
        <ele>60</ele>
        <time>2013-02-22T14:41:09.000Z</time>
      </trkpt>
      <trkpt lat="47.08167" lon="-0.11984">
        <ele>60</ele>
        <time>2013-02-22T14:41:14.000Z</time>
      </trkpt>
      <trkpt lat="47.08168" lon="-0.11983">
        <ele>60</ele>
        <time>2013-02-22T14:41:15.000Z</time>
      </trkpt>
      <trkpt lat="47.0817" lon="-0.11977">
        <ele>60</ele>
        <time>2013-02-22T14:41:20.000Z</time>
      </trkpt>
      <trkpt lat="47.0817" lon="-0.11976">
        <ele>60</ele>
        <time>2013-02-22T14:41:21.000Z</time>
      </trkpt>
      <trkpt lat="47.08171" lon="-0.1197">
        <ele>60</ele>
        <time>2013-02-22T14:41:25.000Z</time>
      </trkpt>
      <trkpt lat="47.08171" lon="-0.11969">
        <ele>60</ele>
        <time>2013-02-22T14:41:26.000Z</time>
      </trkpt>
      <trkpt lat="47.08172" lon="-0.11963">
        <ele>60</ele>
        <time>2013-02-22T14:41:31.000Z</time>
      </trkpt>
      <trkpt lat="47.08173" lon="-0.11962">
        <ele>60</ele>
        <time>2013-02-22T14:41:32.000Z</time>
      </trkpt>
      <trkpt lat="47.08175" lon="-0.11957">
        <ele>60</ele>
        <time>2013-02-22T14:41:36.000Z</time>
      </trkpt>
      <trkpt lat="47.08175" lon="-0.11955">
        <ele>60</ele>
        <time>2013-02-22T14:41:37.000Z</time>
      </trkpt>
      <trkpt lat="47.08176" lon="-0.11951">
        <ele>60</ele>
        <time>2013-02-22T14:41:40.000Z</time>
      </trkpt>
      <trkpt lat="47.08177" lon="-0.11949">
        <ele>60</ele>
        <time>2013-02-22T14:41:41.000Z</time>
      </trkpt>
      <trkpt lat="47.08179" lon="-0.11943">
        <ele>60</ele>
        <time>2013-02-22T14:41:45.000Z</time>
      </trkpt>
      <trkpt lat="47.08179" lon="-0.11941">
        <ele>60</ele>
        <time>2013-02-22T14:41:46.000Z</time>
      </trkpt>
      <trkpt lat="47.0818" lon="-0.11937">
        <ele>60</ele>
        <time>2013-02-22T14:41:49.000Z</time>
      </trkpt>
      <trkpt lat="47.08181" lon="-0.11935">
        <ele>60</ele>
        <time>2013-02-22T14:41:50.000Z</time>
      </trkpt>
      <trkpt lat="47.08183" lon="-0.1193">
        <ele>59</ele>
        <time>2013-02-22T14:41:53.000Z</time>
      </trkpt>
      <trkpt lat="47.08183" lon="-0.11929">
        <ele>59</ele>
        <time>2013-02-22T14:41:54.000Z</time>
      </trkpt>
      <trkpt lat="47.08184" lon="-0.11925">
        <ele>59</ele>
        <time>2013-02-22T14:41:57.000Z</time>
      </trkpt>
      <trkpt lat="47.08185" lon="-0.11923">
        <ele>59</ele>
        <time>2013-02-22T14:41:58.000Z</time>
      </trkpt>
      <trkpt lat="47.08186" lon="-0.11918">
        <ele>59</ele>
        <time>2013-02-22T14:42:01.000Z</time>
      </trkpt>
      <trkpt lat="47.08187" lon="-0.11915">
        <ele>59</ele>
        <time>2013-02-22T14:42:02.000Z</time>
      </trkpt>
      <trkpt lat="47.08188" lon="-0.1191">
        <ele>59</ele>
        <time>2013-02-22T14:42:05.000Z</time>
      </trkpt>
      <trkpt lat="47.08189" lon="-0.11908">
        <ele>59</ele>
        <time>2013-02-22T14:42:06.000Z</time>
      </trkpt>
      <trkpt lat="47.0819" lon="-0.11903">
        <ele>59</ele>
        <time>2013-02-22T14:42:10.000Z</time>
      </trkpt>
      <trkpt lat="47.0819" lon="-0.11901">
        <ele>59</ele>
        <time>2013-02-22T14:42:11.000Z</time>
      </trkpt>
      <trkpt lat="47.0819" lon="-0.11894">
        <ele>59</ele>
        <time>2013-02-22T14:42:14.000Z</time>
      </trkpt>
      <trkpt lat="47.08191" lon="-0.11893">
        <ele>59</ele>
        <time>2013-02-22T14:42:15.000Z</time>
      </trkpt>
      <trkpt lat="47.08192" lon="-0.11888">
        <ele>59</ele>
        <time>2013-02-22T14:42:17.000Z</time>
      </trkpt>
      <trkpt lat="47.08193" lon="-0.11886">
        <ele>59</ele>
        <time>2013-02-22T14:42:18.000Z</time>
      </trkpt>
      <trkpt lat="47.08193" lon="-0.1188">
        <ele>59</ele>
        <time>2013-02-22T14:42:22.000Z</time>
      </trkpt>
      <trkpt lat="47.08193" lon="-0.11878">
        <ele>59</ele>
        <time>2013-02-22T14:42:23.000Z</time>
      </trkpt>
      <trkpt lat="47.08194" lon="-0.11873">
        <ele>59</ele>
        <time>2013-02-22T14:42:26.000Z</time>
      </trkpt>
      <trkpt lat="47.08194" lon="-0.11871">
        <ele>59</ele>
        <time>2013-02-22T14:42:27.000Z</time>
      </trkpt>
      <trkpt lat="47.0819" lon="-0.11874">
        <ele>59</ele>
        <time>2013-02-22T14:42:55.000Z</time>
      </trkpt>
      <trkpt lat="47.0819" lon="-0.11874">
        <ele>59</ele>
        <time>2013-02-22T14:42:56.000Z</time>
      </trkpt>
      <trkpt lat="47.08192" lon="-0.1187">
        <ele>59</ele>
        <time>2013-02-22T14:43:13.000Z</time>
      </trkpt>
      <trkpt lat="47.08192" lon="-0.11865">
        <ele>59</ele>
        <time>2013-02-22T14:43:14.000Z</time>
      </trkpt>
      <trkpt lat="47.0819" lon="-0.1186">
        <ele>59</ele>
        <time>2013-02-22T14:43:21.000Z</time>
      </trkpt>
      <trkpt lat="47.08191" lon="-0.11859">
        <ele>59</ele>
        <time>2013-02-22T14:43:22.000Z</time>
      </trkpt>
      <trkpt lat="47.08194" lon="-0.11856">
        <ele>59</ele>
        <time>2013-02-22T14:45:06.000Z</time>
      </trkpt>
      <trkpt lat="47.08194" lon="-0.11855">
        <ele>59</ele>
        <time>2013-02-22T14:45:07.000Z</time>
      </trkpt>
      <trkpt lat="47.08195" lon="-0.1185">
        <ele>59</ele>
        <time>2013-02-22T14:45:14.000Z</time>
      </trkpt>
      <trkpt lat="47.08195" lon="-0.11848">
        <ele>59</ele>
        <time>2013-02-22T14:45:15.000Z</time>
      </trkpt>
      <trkpt lat="47.08191" lon="-0.11844">
        <ele>59</ele>
        <time>2013-02-22T14:46:13.000Z</time>
      </trkpt>
      <trkpt lat="47.08191" lon="-0.11843">
        <ele>59</ele>
        <time>2013-02-22T14:46:14.000Z</time>
      </trkpt>
      <trkpt lat="47.0819" lon="-0.11837">
        <ele>59</ele>
        <time>2013-02-22T14:46:29.000Z</time>
      </trkpt>
      <trkpt lat="47.08189" lon="-0.11836">
        <ele>59</ele>
        <time>2013-02-22T14:46:30.000Z</time>
      </trkpt>
      <trkpt lat="47.08187" lon="-0.11831">
        <ele>58</ele>
        <time>2013-02-22T14:46:49.000Z</time>
      </trkpt>
      <trkpt lat="47.08187" lon="-0.1183">
        <ele>58</ele>
        <time>2013-02-22T14:46:50.000Z</time>
      </trkpt>
      <trkpt lat="47.08185" lon="-0.11825">
        <ele>57</ele>
        <time>2013-02-22T14:46:54.000Z</time>
      </trkpt>
      <trkpt lat="47.08184" lon="-0.11824">
        <ele>57</ele>
        <time>2013-02-22T14:46:55.000Z</time>
      </trkpt>
      <trkpt lat="47.08182" lon="-0.1182">
        <ele>57</ele>
        <time>2013-02-22T14:46:57.000Z</time>
      </trkpt>
      <trkpt lat="47.08181" lon="-0.11818">
        <ele>57</ele>
        <time>2013-02-22T14:46:58.000Z</time>
      </trkpt>
      <trkpt lat="47.08179" lon="-0.11814">
        <ele>57</ele>
        <time>2013-02-22T14:47:01.000Z</time>
      </trkpt>
      <trkpt lat="47.08178" lon="-0.11812">
        <ele>57</ele>
        <time>2013-02-22T14:47:02.000Z</time>
      </trkpt>
      <trkpt lat="47.08175" lon="-0.11808">
        <ele>57</ele>
        <time>2013-02-22T14:47:09.000Z</time>
      </trkpt>
      <trkpt lat="47.08174" lon="-0.11807">
        <ele>57</ele>
        <time>2013-02-22T14:47:10.000Z</time>
      </trkpt>
      <trkpt lat="47.08172" lon="-0.11804">
        <ele>57</ele>
        <time>2013-02-22T14:47:14.000Z</time>
      </trkpt>
      <trkpt lat="47.08171" lon="-0.11802">
        <ele>57</ele>
        <time>2013-02-22T14:47:15.000Z</time>
      </trkpt>
      <trkpt lat="47.08168" lon="-0.11798">
        <ele>57</ele>
        <time>2013-02-22T14:47:20.000Z</time>
      </trkpt>
      <trkpt lat="47.08167" lon="-0.11797">
        <ele>57</ele>
        <time>2013-02-22T14:47:21.000Z</time>
      </trkpt>
      <trkpt lat="47.08164" lon="-0.11793">
        <ele>55</ele>
        <time>2013-02-22T14:47:28.000Z</time>
      </trkpt>
      <trkpt lat="47.08164" lon="-0.11793">
        <ele>55</ele>
        <time>2013-02-22T14:47:29.000Z</time>
      </trkpt>
      <trkpt lat="47.08161" lon="-0.11788">
        <ele>54</ele>
        <time>2013-02-22T14:47:34.000Z</time>
      </trkpt>
      <trkpt lat="47.0816" lon="-0.11788">
        <ele>54</ele>
        <time>2013-02-22T14:47:35.000Z</time>
      </trkpt>
      <trkpt lat="47.08157" lon="-0.11783">
        <ele>54</ele>
        <time>2013-02-22T14:47:39.000Z</time>
      </trkpt>
      <trkpt lat="47.08156" lon="-0.11782">
        <ele>54</ele>
        <time>2013-02-22T14:47:40.000Z</time>
      </trkpt>
      <trkpt lat="47.08155" lon="-0.11776">
        <ele>54</ele>
        <time>2013-02-22T14:47:44.000Z</time>
      </trkpt>
      <trkpt lat="47.08154" lon="-0.11776">
        <ele>54</ele>
        <time>2013-02-22T14:47:45.000Z</time>
      </trkpt>
      <trkpt lat="47.08151" lon="-0.11771">
        <ele>54</ele>
        <time>2013-02-22T14:47:51.000Z</time>
      </trkpt>
      <trkpt lat="47.08151" lon="-0.1177">
        <ele>54</ele>
        <time>2013-02-22T14:47:52.000Z</time>
      </trkpt>
      <trkpt lat="47.08149" lon="-0.11765">
        <ele>54</ele>
        <time>2013-02-22T14:47:58.000Z</time>
      </trkpt>
      <trkpt lat="47.08149" lon="-0.11764">
        <ele>54</ele>
        <time>2013-02-22T14:47:59.000Z</time>
      </trkpt>
      <trkpt lat="47.08147" lon="-0.1176">
        <ele>54</ele>
        <time>2013-02-22T14:48:04.000Z</time>
      </trkpt>
      <trkpt lat="47.08147" lon="-0.11758">
        <ele>54</ele>
        <time>2013-02-22T14:48:05.000Z</time>
      </trkpt>
      <trkpt lat="47.08145" lon="-0.11753">
        <ele>54</ele>
        <time>2013-02-22T14:48:09.000Z</time>
      </trkpt>
      <trkpt lat="47.08144" lon="-0.11751">
        <ele>54</ele>
        <time>2013-02-22T14:48:10.000Z</time>
      </trkpt>
      <trkpt lat="47.08142" lon="-0.11746">
        <ele>52</ele>
        <time>2013-02-22T14:48:13.000Z</time>
      </trkpt>
      <trkpt lat="47.08141" lon="-0.11744">
        <ele>52</ele>
        <time>2013-02-22T14:48:14.000Z</time>
      </trkpt>
      <trkpt lat="47.08139" lon="-0.11738">
        <ele>52</ele>
        <time>2013-02-22T14:48:17.000Z</time>
      </trkpt>
      <trkpt lat="47.08138" lon="-0.11737">
        <ele>51</ele>
        <time>2013-02-22T14:48:18.000Z</time>
      </trkpt>
      <trkpt lat="47.08136" lon="-0.11733">
        <ele>51</ele>
        <time>2013-02-22T14:48:20.000Z</time>
      </trkpt>
      <trkpt lat="47.08136" lon="-0.1173">
        <ele>51</ele>
        <time>2013-02-22T14:48:21.000Z</time>
      </trkpt>
      <trkpt lat="47.08133" lon="-0.11724">
        <ele>51</ele>
        <time>2013-02-22T14:48:24.000Z</time>
      </trkpt>
      <trkpt lat="47.08133" lon="-0.11722">
        <ele>51</ele>
        <time>2013-02-22T14:48:25.000Z</time>
      </trkpt>
      <trkpt lat="47.0813" lon="-0.11717">
        <ele>51</ele>
        <time>2013-02-22T14:48:28.000Z</time>
      </trkpt>
      <trkpt lat="47.08129" lon="-0.11715">
        <ele>51</ele>
        <time>2013-02-22T14:48:29.000Z</time>
      </trkpt>
      <trkpt lat="47.08127" lon="-0.11712">
        <ele>51</ele>
        <time>2013-02-22T14:48:31.000Z</time>
      </trkpt>
      <trkpt lat="47.08126" lon="-0.1171">
        <ele>51</ele>
        <time>2013-02-22T14:48:32.000Z</time>
      </trkpt>
      <trkpt lat="47.08124" lon="-0.11704">
        <ele>50</ele>
        <time>2013-02-22T14:48:35.000Z</time>
      </trkpt>
      <trkpt lat="47.08123" lon="-0.11703">
        <ele>50</ele>
        <time>2013-02-22T14:48:36.000Z</time>
      </trkpt>
      <trkpt lat="47.08121" lon="-0.11698">
        <ele>50</ele>
        <time>2013-02-22T14:48:40.000Z</time>
      </trkpt>
      <trkpt lat="47.08121" lon="-0.11697">
        <ele>50</ele>
        <time>2013-02-22T14:48:41.000Z</time>
      </trkpt>
      <trkpt lat="47.08119" lon="-0.11691">
        <ele>50</ele>
        <time>2013-02-22T14:48:47.000Z</time>
      </trkpt>
      <trkpt lat="47.08118" lon="-0.1169">
        <ele>50</ele>
        <time>2013-02-22T14:48:48.000Z</time>
      </trkpt>
      <trkpt lat="47.08116" lon="-0.11686">
        <ele>50</ele>
        <time>2013-02-22T14:48:53.000Z</time>
      </trkpt>
      <trkpt lat="47.08115" lon="-0.11685">
        <ele>50</ele>
        <time>2013-02-22T14:48:54.000Z</time>
      </trkpt>
      <trkpt lat="47.08113" lon="-0.1168">
        <ele>50</ele>
        <time>2013-02-22T14:48:59.000Z</time>
      </trkpt>
      <trkpt lat="47.08112" lon="-0.11679">
        <ele>50</ele>
        <time>2013-02-22T14:49:00.000Z</time>
      </trkpt>
      <trkpt lat="47.0811" lon="-0.11675">
        <ele>49</ele>
        <time>2013-02-22T14:49:05.000Z</time>
      </trkpt>
      <trkpt lat="47.08109" lon="-0.11673">
        <ele>49</ele>
        <time>2013-02-22T14:49:06.000Z</time>
      </trkpt>
      <trkpt lat="47.08106" lon="-0.11669">
        <ele>49</ele>
        <time>2013-02-22T14:49:10.000Z</time>
      </trkpt>
      <trkpt lat="47.08106" lon="-0.11668">
        <ele>49</ele>
        <time>2013-02-22T14:49:11.000Z</time>
      </trkpt>
      <trkpt lat="47.08103" lon="-0.11664">
        <ele>48</ele>
        <time>2013-02-22T14:49:15.000Z</time>
      </trkpt>
      <trkpt lat="47.08103" lon="-0.11662">
        <ele>48</ele>
        <time>2013-02-22T14:49:16.000Z</time>
      </trkpt>
      <trkpt lat="47.081" lon="-0.11657">
        <ele>48</ele>
        <time>2013-02-22T14:49:19.000Z</time>
      </trkpt>
      <trkpt lat="47.081" lon="-0.11656">
        <ele>48</ele>
        <time>2013-02-22T14:49:20.000Z</time>
      </trkpt>
      <trkpt lat="47.08098" lon="-0.1165">
        <ele>48</ele>
        <time>2013-02-22T14:49:24.000Z</time>
      </trkpt>
      <trkpt lat="47.08098" lon="-0.11649">
        <ele>48</ele>
        <time>2013-02-22T14:49:25.000Z</time>
      </trkpt>
      <trkpt lat="47.08096" lon="-0.11645">
        <ele>48</ele>
        <time>2013-02-22T14:49:27.000Z</time>
      </trkpt>
      <trkpt lat="47.08096" lon="-0.11643">
        <ele>48</ele>
        <time>2013-02-22T14:49:28.000Z</time>
      </trkpt>
      <trkpt lat="47.08094" lon="-0.11637">
        <ele>47</ele>
        <time>2013-02-22T14:49:31.000Z</time>
      </trkpt>
      <trkpt lat="47.08093" lon="-0.11636">
        <ele>47</ele>
        <time>2013-02-22T14:49:32.000Z</time>
      </trkpt>
      <trkpt lat="47.08091" lon="-0.11631">
        <ele>47</ele>
        <time>2013-02-22T14:49:35.000Z</time>
      </trkpt>
      <trkpt lat="47.08091" lon="-0.11629">
        <ele>47</ele>
        <time>2013-02-22T14:49:36.000Z</time>
      </trkpt>
      <trkpt lat="47.08088" lon="-0.11624">
        <ele>47</ele>
        <time>2013-02-22T14:49:39.000Z</time>
      </trkpt>
      <trkpt lat="47.08088" lon="-0.11622">
        <ele>47</ele>
        <time>2013-02-22T14:49:40.000Z</time>
      </trkpt>
      <trkpt lat="47.08086" lon="-0.11617">
        <ele>47</ele>
        <time>2013-02-22T14:49:43.000Z</time>
      </trkpt>
      <trkpt lat="47.08084" lon="-0.11616">
        <ele>47</ele>
        <time>2013-02-22T14:49:44.000Z</time>
      </trkpt>
      <trkpt lat="47.08082" lon="-0.11611">
        <ele>45</ele>
        <time>2013-02-22T14:49:48.000Z</time>
      </trkpt>
      <trkpt lat="47.08081" lon="-0.11611">
        <ele>45</ele>
        <time>2013-02-22T14:49:49.000Z</time>
      </trkpt>
      <trkpt lat="47.08078" lon="-0.11606">
        <ele>45</ele>
        <time>2013-02-22T14:49:53.000Z</time>
      </trkpt>
      <trkpt lat="47.08077" lon="-0.11605">
        <ele>45</ele>
        <time>2013-02-22T14:49:54.000Z</time>
      </trkpt>
      <trkpt lat="47.08075" lon="-0.11601">
        <ele>45</ele>
        <time>2013-02-22T14:49:57.000Z</time>
      </trkpt>
      <trkpt lat="47.08074" lon="-0.116">
        <ele>45</ele>
        <time>2013-02-22T14:49:58.000Z</time>
      </trkpt>
      <trkpt lat="47.08073" lon="-0.11595">
        <ele>45</ele>
        <time>2013-02-22T14:50:02.000Z</time>
      </trkpt>
      <trkpt lat="47.08072" lon="-0.11594">
        <ele>45</ele>
        <time>2013-02-22T14:50:03.000Z</time>
      </trkpt>
      <trkpt lat="47.08069" lon="-0.11589">
        <ele>45</ele>
        <time>2013-02-22T14:50:08.000Z</time>
      </trkpt>
      <trkpt lat="47.08068" lon="-0.11588">
        <ele>45</ele>
        <time>2013-02-22T14:50:09.000Z</time>
      </trkpt>
      <trkpt lat="47.08066" lon="-0.11582">
        <ele>44</ele>
        <time>2013-02-22T14:50:13.000Z</time>
      </trkpt>
      <trkpt lat="47.08066" lon="-0.11581">
        <ele>44</ele>
        <time>2013-02-22T14:50:14.000Z</time>
      </trkpt>
      <trkpt lat="47.08064" lon="-0.11577">
        <ele>44</ele>
        <time>2013-02-22T14:50:16.000Z</time>
      </trkpt>
      <trkpt lat="47.08063" lon="-0.11576">
        <ele>44</ele>
        <time>2013-02-22T14:50:17.000Z</time>
      </trkpt>
      <trkpt lat="47.08062" lon="-0.1157">
        <ele>44</ele>
        <time>2013-02-22T14:50:21.000Z</time>
      </trkpt>
      <trkpt lat="47.08061" lon="-0.11569">
        <ele>44</ele>
        <time>2013-02-22T14:50:22.000Z</time>
      </trkpt>
      <trkpt lat="47.08059" lon="-0.11564">
        <ele>44</ele>
        <time>2013-02-22T14:50:26.000Z</time>
      </trkpt>
      <trkpt lat="47.08059" lon="-0.11562">
        <ele>44</ele>
        <time>2013-02-22T14:50:27.000Z</time>
      </trkpt>
      <trkpt lat="47.08057" lon="-0.11558">
        <ele>44</ele>
        <time>2013-02-22T14:50:30.000Z</time>
      </trkpt>
      <trkpt lat="47.08057" lon="-0.11556">
        <ele>44</ele>
        <time>2013-02-22T14:50:31.000Z</time>
      </trkpt>
      <trkpt lat="47.08055" lon="-0.1155">
        <ele>44</ele>
        <time>2013-02-22T14:50:36.000Z</time>
      </trkpt>
      <trkpt lat="47.08054" lon="-0.11549">
        <ele>44</ele>
        <time>2013-02-22T14:50:37.000Z</time>
      </trkpt>
      <trkpt lat="47.08051" lon="-0.11544">
        <ele>44</ele>
        <time>2013-02-22T14:50:42.000Z</time>
      </trkpt>
      <trkpt lat="47.08051" lon="-0.11543">
        <ele>44</ele>
        <time>2013-02-22T14:50:43.000Z</time>
      </trkpt>
      <trkpt lat="47.08049" lon="-0.11538">
        <ele>44</ele>
        <time>2013-02-22T14:50:46.000Z</time>
      </trkpt>
      <trkpt lat="47.08048" lon="-0.11537">
        <ele>44</ele>
        <time>2013-02-22T14:50:47.000Z</time>
      </trkpt>
      <trkpt lat="47.08046" lon="-0.11532">
        <ele>43</ele>
        <time>2013-02-22T14:50:51.000Z</time>
      </trkpt>
      <trkpt lat="47.08046" lon="-0.1153">
        <ele>43</ele>
        <time>2013-02-22T14:50:52.000Z</time>
      </trkpt>
      <trkpt lat="47.08045" lon="-0.11526">
        <ele>43</ele>
        <time>2013-02-22T14:50:56.000Z</time>
      </trkpt>
      <trkpt lat="47.08044" lon="-0.11524">
        <ele>43</ele>
        <time>2013-02-22T14:50:57.000Z</time>
      </trkpt>
      <trkpt lat="47.08043" lon="-0.11519">
        <ele>43</ele>
        <time>2013-02-22T14:50:59.000Z</time>
      </trkpt>
      <trkpt lat="47.08042" lon="-0.11517">
        <ele>43</ele>
        <time>2013-02-22T14:51:00.000Z</time>
      </trkpt>
      <trkpt lat="47.08041" lon="-0.11512">
        <ele>43</ele>
        <time>2013-02-22T14:51:03.000Z</time>
      </trkpt>
      <trkpt lat="47.08041" lon="-0.1151">
        <ele>43</ele>
        <time>2013-02-22T14:51:04.000Z</time>
      </trkpt>
      <trkpt lat="47.08039" lon="-0.11504">
        <ele>43</ele>
        <time>2013-02-22T14:51:07.000Z</time>
      </trkpt>
      <trkpt lat="47.08039" lon="-0.11503">
        <ele>43</ele>
        <time>2013-02-22T14:51:08.000Z</time>
      </trkpt>
      <trkpt lat="47.08037" lon="-0.11497">
        <ele>42</ele>
        <time>2013-02-22T14:51:13.000Z</time>
      </trkpt>
      <trkpt lat="47.08037" lon="-0.11496">
        <ele>42</ele>
        <time>2013-02-22T14:51:14.000Z</time>
      </trkpt>
      <trkpt lat="47.08035" lon="-0.1149">
        <ele>42</ele>
        <time>2013-02-22T14:51:19.000Z</time>
      </trkpt>
      <trkpt lat="47.08035" lon="-0.11489">
        <ele>42</ele>
        <time>2013-02-22T14:51:20.000Z</time>
      </trkpt>
      <trkpt lat="47.08033" lon="-0.11485">
        <ele>42</ele>
        <time>2013-02-22T14:51:23.000Z</time>
      </trkpt>
      <trkpt lat="47.08032" lon="-0.11483">
        <ele>42</ele>
        <time>2013-02-22T14:51:24.000Z</time>
      </trkpt>
      <trkpt lat="47.0803" lon="-0.11479">
        <ele>42</ele>
        <time>2013-02-22T14:51:26.000Z</time>
      </trkpt>
      <trkpt lat="47.08029" lon="-0.11478">
        <ele>42</ele>
        <time>2013-02-22T14:51:27.000Z</time>
      </trkpt>
      <trkpt lat="47.08026" lon="-0.11473">
        <ele>42</ele>
        <time>2013-02-22T14:51:30.000Z</time>
      </trkpt>
      <trkpt lat="47.08025" lon="-0.11473">
        <ele>42</ele>
        <time>2013-02-22T14:51:31.000Z</time>
      </trkpt>
      <trkpt lat="47.08023" lon="-0.11469">
        <ele>42</ele>
        <time>2013-02-22T14:51:36.000Z</time>
      </trkpt>
      <trkpt lat="47.08022" lon="-0.11468">
        <ele>42</ele>
        <time>2013-02-22T14:51:37.000Z</time>
      </trkpt>
      <trkpt lat="47.08019" lon="-0.11463">
        <ele>42</ele>
        <time>2013-02-22T14:51:42.000Z</time>
      </trkpt>
      <trkpt lat="47.08019" lon="-0.11461">
        <ele>42</ele>
        <time>2013-02-22T14:51:43.000Z</time>
      </trkpt>
      <trkpt lat="47.08017" lon="-0.11456">
        <ele>42</ele>
        <time>2013-02-22T14:51:47.000Z</time>
      </trkpt>
      <trkpt lat="47.08016" lon="-0.11453">
        <ele>42</ele>
        <time>2013-02-22T14:51:48.000Z</time>
      </trkpt>
      <trkpt lat="47.08015" lon="-0.11448">
        <ele>42</ele>
        <time>2013-02-22T14:51:50.000Z</time>
      </trkpt>
      <trkpt lat="47.08014" lon="-0.11446">
        <ele>42</ele>
        <time>2013-02-22T14:51:51.000Z</time>
      </trkpt>
      <trkpt lat="47.08012" lon="-0.11442">
        <ele>42</ele>
        <time>2013-02-22T14:51:53.000Z</time>
      </trkpt>
      <trkpt lat="47.08011" lon="-0.11439">
        <ele>42</ele>
        <time>2013-02-22T14:51:54.000Z</time>
      </trkpt>
      <trkpt lat="47.0801" lon="-0.11434">
        <ele>42</ele>
        <time>2013-02-22T14:51:56.000Z</time>
      </trkpt>
      <trkpt lat="47.08009" lon="-0.11432">
        <ele>42</ele>
        <time>2013-02-22T14:51:57.000Z</time>
      </trkpt>
      <trkpt lat="47.08008" lon="-0.11427">
        <ele>41</ele>
        <time>2013-02-22T14:51:59.000Z</time>
      </trkpt>
      <trkpt lat="47.08007" lon="-0.11425">
        <ele>41</ele>
        <time>2013-02-22T14:52:00.000Z</time>
      </trkpt>
      <trkpt lat="47.08006" lon="-0.1142">
        <ele>41</ele>
        <time>2013-02-22T14:52:02.000Z</time>
      </trkpt>
      <trkpt lat="47.08005" lon="-0.11417">
        <ele>41</ele>
        <time>2013-02-22T14:52:03.000Z</time>
      </trkpt>
      <trkpt lat="47.08004" lon="-0.11412">
        <ele>41</ele>
        <time>2013-02-22T14:52:05.000Z</time>
      </trkpt>
      <trkpt lat="47.08003" lon="-0.1141">
        <ele>41</ele>
        <time>2013-02-22T14:52:06.000Z</time>
      </trkpt>
      <trkpt lat="47.08001" lon="-0.11406">
        <ele>41</ele>
        <time>2013-02-22T14:52:10.000Z</time>
      </trkpt>
      <trkpt lat="47.08" lon="-0.11404">
        <ele>41</ele>
        <time>2013-02-22T14:52:11.000Z</time>
      </trkpt>
      <trkpt lat="47.07999" lon="-0.11399">
        <ele>41</ele>
        <time>2013-02-22T14:52:13.000Z</time>
      </trkpt>
      <trkpt lat="47.07998" lon="-0.11397">
        <ele>41</ele>
        <time>2013-02-22T14:52:14.000Z</time>
      </trkpt>
      <trkpt lat="47.07996" lon="-0.11393">
        <ele>41</ele>
        <time>2013-02-22T14:52:17.000Z</time>
      </trkpt>
      <trkpt lat="47.07995" lon="-0.11391">
        <ele>41</ele>
        <time>2013-02-22T14:52:18.000Z</time>
      </trkpt>
      <trkpt lat="47.07994" lon="-0.11385">
        <ele>41</ele>
        <time>2013-02-22T14:52:22.000Z</time>
      </trkpt>
      <trkpt lat="47.07993" lon="-0.11384">
        <ele>41</ele>
        <time>2013-02-22T14:52:23.000Z</time>
      </trkpt>
      <trkpt lat="47.07991" lon="-0.11379">
        <ele>41</ele>
        <time>2013-02-22T14:52:27.000Z</time>
      </trkpt>
      <trkpt lat="47.07991" lon="-0.11378">
        <ele>41</ele>
        <time>2013-02-22T14:52:28.000Z</time>
      </trkpt>
      <trkpt lat="47.07988" lon="-0.11373">
        <ele>40</ele>
        <time>2013-02-22T14:52:33.000Z</time>
      </trkpt>
      <trkpt lat="47.07987" lon="-0.11371">
        <ele>40</ele>
        <time>2013-02-22T14:52:34.000Z</time>
      </trkpt>
      <trkpt lat="47.07985" lon="-0.11367">
        <ele>40</ele>
        <time>2013-02-22T14:52:41.000Z</time>
      </trkpt>
      <trkpt lat="47.07985" lon="-0.11365">
        <ele>40</ele>
        <time>2013-02-22T14:52:42.000Z</time>
      </trkpt>
      <trkpt lat="47.07983" lon="-0.1136">
        <ele>40</ele>
        <time>2013-02-22T14:52:46.000Z</time>
      </trkpt>
      <trkpt lat="47.07982" lon="-0.11358">
        <ele>40</ele>
        <time>2013-02-22T14:52:47.000Z</time>
      </trkpt>
      <trkpt lat="47.0798" lon="-0.11354">
        <ele>40</ele>
        <time>2013-02-22T14:52:50.000Z</time>
      </trkpt>
      <trkpt lat="47.07979" lon="-0.11353">
        <ele>40</ele>
        <time>2013-02-22T14:52:51.000Z</time>
      </trkpt>
      <trkpt lat="47.07977" lon="-0.11348">
        <ele>40</ele>
        <time>2013-02-22T14:52:54.000Z</time>
      </trkpt>
      <trkpt lat="47.07976" lon="-0.11346">
        <ele>40</ele>
        <time>2013-02-22T14:52:55.000Z</time>
      </trkpt>
      <trkpt lat="47.07974" lon="-0.11341">
        <ele>40</ele>
        <time>2013-02-22T14:53:00.000Z</time>
      </trkpt>
      <trkpt lat="47.07973" lon="-0.11339">
        <ele>40</ele>
        <time>2013-02-22T14:53:01.000Z</time>
      </trkpt>
      <trkpt lat="47.07971" lon="-0.11335">
        <ele>40</ele>
        <time>2013-02-22T14:53:04.000Z</time>
      </trkpt>
      <trkpt lat="47.07969" lon="-0.11333">
        <ele>40</ele>
        <time>2013-02-22T14:53:05.000Z</time>
      </trkpt>
      <trkpt lat="47.07967" lon="-0.1133">
        <ele>40</ele>
        <time>2013-02-22T14:53:07.000Z</time>
      </trkpt>
      <trkpt lat="47.07966" lon="-0.11328">
        <ele>40</ele>
        <time>2013-02-22T14:53:08.000Z</time>
      </trkpt>
      <trkpt lat="47.07963" lon="-0.11325">
        <ele>40</ele>
        <time>2013-02-22T14:53:10.000Z</time>
      </trkpt>
      <trkpt lat="47.07962" lon="-0.11324">
        <ele>40</ele>
        <time>2013-02-22T14:53:11.000Z</time>
      </trkpt>
      <trkpt lat="47.07959" lon="-0.11322">
        <ele>40</ele>
        <time>2013-02-22T14:53:14.000Z</time>
      </trkpt>
      <trkpt lat="47.07958" lon="-0.11322">
        <ele>40</ele>
        <time>2013-02-22T14:53:15.000Z</time>
      </trkpt>
      <trkpt lat="47.07954" lon="-0.1132">
        <ele>40</ele>
        <time>2013-02-22T14:53:18.000Z</time>
      </trkpt>
      <trkpt lat="47.07952" lon="-0.11319">
        <ele>40</ele>
        <time>2013-02-22T14:53:19.000Z</time>
      </trkpt>
      <trkpt lat="47.07948" lon="-0.11317">
        <ele>40</ele>
        <time>2013-02-22T14:53:22.000Z</time>
      </trkpt>
      <trkpt lat="47.07947" lon="-0.11317">
        <ele>40</ele>
        <time>2013-02-22T14:53:23.000Z</time>
      </trkpt>
      <trkpt lat="47.07943" lon="-0.11314">
        <ele>40</ele>
        <time>2013-02-22T14:53:27.000Z</time>
      </trkpt>
      <trkpt lat="47.07943" lon="-0.11314">
        <ele>40</ele>
        <time>2013-02-22T14:53:28.000Z</time>
      </trkpt>
      <trkpt lat="47.07939" lon="-0.11315">
        <ele>40</ele>
        <time>2013-02-22T14:53:31.000Z</time>
      </trkpt>
      <trkpt lat="47.07938" lon="-0.11315">
        <ele>40</ele>
        <time>2013-02-22T14:53:32.000Z</time>
      </trkpt>
      <trkpt lat="47.07934" lon="-0.11314">
        <ele>40</ele>
        <time>2013-02-22T14:53:35.000Z</time>
      </trkpt>
      <trkpt lat="47.07933" lon="-0.11314">
        <ele>40</ele>
        <time>2013-02-22T14:53:36.000Z</time>
      </trkpt>
      <trkpt lat="47.0793" lon="-0.11309">
        <ele>40</ele>
        <time>2013-02-22T14:53:40.000Z</time>
      </trkpt>
      <trkpt lat="47.07929" lon="-0.11307">
        <ele>40</ele>
        <time>2013-02-22T14:53:41.000Z</time>
      </trkpt>
      <trkpt lat="47.07928" lon="-0.11302">
        <ele>40</ele>
        <time>2013-02-22T14:53:45.000Z</time>
      </trkpt>
      <trkpt lat="47.07927" lon="-0.113">
        <ele>40</ele>
        <time>2013-02-22T14:53:46.000Z</time>
      </trkpt>
      <trkpt lat="47.07926" lon="-0.11295">
        <ele>40</ele>
        <time>2013-02-22T14:53:50.000Z</time>
      </trkpt>
      <trkpt lat="47.07926" lon="-0.11294">
        <ele>40</ele>
        <time>2013-02-22T14:53:51.000Z</time>
      </trkpt>
      <trkpt lat="47.07924" lon="-0.11289">
        <ele>40</ele>
        <time>2013-02-22T14:53:54.000Z</time>
      </trkpt>
      <trkpt lat="47.07923" lon="-0.11287">
        <ele>40</ele>
        <time>2013-02-22T14:53:55.000Z</time>
      </trkpt>
      <trkpt lat="47.07921" lon="-0.11282">
        <ele>40</ele>
        <time>2013-02-22T14:53:58.000Z</time>
      </trkpt>
      <trkpt lat="47.0792" lon="-0.11281">
        <ele>40</ele>
        <time>2013-02-22T14:53:59.000Z</time>
      </trkpt>
      <trkpt lat="47.07919" lon="-0.11275">
        <ele>40</ele>
        <time>2013-02-22T14:54:03.000Z</time>
      </trkpt>
      <trkpt lat="47.07918" lon="-0.11273">
        <ele>40</ele>
        <time>2013-02-22T14:54:04.000Z</time>
      </trkpt>
      <trkpt lat="47.07917" lon="-0.11268">
        <ele>40</ele>
        <time>2013-02-22T14:54:09.000Z</time>
      </trkpt>
      <trkpt lat="47.07916" lon="-0.11267">
        <ele>40</ele>
        <time>2013-02-22T14:54:10.000Z</time>
      </trkpt>
      <trkpt lat="47.07915" lon="-0.11261">
        <ele>40</ele>
        <time>2013-02-22T14:54:14.000Z</time>
      </trkpt>
      <trkpt lat="47.07915" lon="-0.11259">
        <ele>40</ele>
        <time>2013-02-22T14:54:15.000Z</time>
      </trkpt>
      <trkpt lat="47.07913" lon="-0.11253">
        <ele>40</ele>
        <time>2013-02-22T14:54:20.000Z</time>
      </trkpt>
      <trkpt lat="47.07913" lon="-0.11252">
        <ele>40</ele>
        <time>2013-02-22T14:54:21.000Z</time>
      </trkpt>
      <trkpt lat="47.07913" lon="-0.11246">
        <ele>40</ele>
        <time>2013-02-22T14:54:25.000Z</time>
      </trkpt>
      <trkpt lat="47.07912" lon="-0.11244">
        <ele>40</ele>
        <time>2013-02-22T14:54:26.000Z</time>
      </trkpt>
      <trkpt lat="47.07912" lon="-0.11238">
        <ele>40</ele>
        <time>2013-02-22T14:54:29.000Z</time>
      </trkpt>
      <trkpt lat="47.07912" lon="-0.11237">
        <ele>40</ele>
        <time>2013-02-22T14:54:30.000Z</time>
      </trkpt>
      <trkpt lat="47.07911" lon="-0.11231">
        <ele>40</ele>
        <time>2013-02-22T14:54:35.000Z</time>
      </trkpt>
      <trkpt lat="47.07911" lon="-0.1123">
        <ele>40</ele>
        <time>2013-02-22T14:54:36.000Z</time>
      </trkpt>
      <trkpt lat="47.0791" lon="-0.11225">
        <ele>40</ele>
        <time>2013-02-22T14:54:41.000Z</time>
      </trkpt>
      <trkpt lat="47.07909" lon="-0.11224">
        <ele>40</ele>
        <time>2013-02-22T14:54:42.000Z</time>
      </trkpt>
      <trkpt lat="47.07909" lon="-0.11217">
        <ele>41</ele>
        <time>2013-02-22T14:54:46.000Z</time>
      </trkpt>
      <trkpt lat="47.07908" lon="-0.11215">
        <ele>41</ele>
        <time>2013-02-22T14:54:47.000Z</time>
      </trkpt>
      <trkpt lat="47.07907" lon="-0.11211">
        <ele>41</ele>
        <time>2013-02-22T14:54:50.000Z</time>
      </trkpt>
      <trkpt lat="47.07907" lon="-0.11209">
        <ele>41</ele>
        <time>2013-02-22T14:54:51.000Z</time>
      </trkpt>
      <trkpt lat="47.07905" lon="-0.11203">
        <ele>41</ele>
        <time>2013-02-22T14:54:54.000Z</time>
      </trkpt>
      <trkpt lat="47.07905" lon="-0.11202">
        <ele>41</ele>
        <time>2013-02-22T14:54:55.000Z</time>
      </trkpt>
      <trkpt lat="47.07903" lon="-0.11195">
        <ele>41</ele>
        <time>2013-02-22T14:55:01.000Z</time>
      </trkpt>
      <trkpt lat="47.07903" lon="-0.11193">
        <ele>41</ele>
        <time>2013-02-22T14:55:02.000Z</time>
      </trkpt>
      <trkpt lat="47.07902" lon="-0.11187">
        <ele>41</ele>
        <time>2013-02-22T14:55:06.000Z</time>
      </trkpt>
      <trkpt lat="47.07902" lon="-0.11186">
        <ele>41</ele>
        <time>2013-02-22T14:55:07.000Z</time>
      </trkpt>
      <trkpt lat="47.07901" lon="-0.1118">
        <ele>41</ele>
        <time>2013-02-22T14:55:11.000Z</time>
      </trkpt>
      <trkpt lat="47.07901" lon="-0.11179">
        <ele>41</ele>
        <time>2013-02-22T14:55:12.000Z</time>
      </trkpt>
      <trkpt lat="47.079" lon="-0.11174">
        <ele>41</ele>
        <time>2013-02-22T14:55:15.000Z</time>
      </trkpt>
      <trkpt lat="47.07899" lon="-0.11172">
        <ele>41</ele>
        <time>2013-02-22T14:55:16.000Z</time>
      </trkpt>
      <trkpt lat="47.07898" lon="-0.11166">
        <ele>42</ele>
        <time>2013-02-22T14:55:20.000Z</time>
      </trkpt>
      <trkpt lat="47.07897" lon="-0.11164">
        <ele>42</ele>
        <time>2013-02-22T14:55:21.000Z</time>
      </trkpt>
      <trkpt lat="47.07897" lon="-0.11159">
        <ele>42</ele>
        <time>2013-02-22T14:55:24.000Z</time>
      </trkpt>
      <trkpt lat="47.07896" lon="-0.11157">
        <ele>42</ele>
        <time>2013-02-22T14:55:25.000Z</time>
      </trkpt>
      <trkpt lat="47.07894" lon="-0.11151">
        <ele>41</ele>
        <time>2013-02-22T14:55:28.000Z</time>
      </trkpt>
      <trkpt lat="47.07894" lon="-0.1115">
        <ele>41</ele>
        <time>2013-02-22T14:55:29.000Z</time>
      </trkpt>
      <trkpt lat="47.07892" lon="-0.11145">
        <ele>41</ele>
        <time>2013-02-22T14:55:32.000Z</time>
      </trkpt>
      <trkpt lat="47.07892" lon="-0.11144">
        <ele>41</ele>
        <time>2013-02-22T14:55:33.000Z</time>
      </trkpt>
      <trkpt lat="47.07891" lon="-0.1114">
        <ele>41</ele>
        <time>2013-02-22T14:55:35.000Z</time>
      </trkpt>
      <trkpt lat="47.07891" lon="-0.11137">
        <ele>41</ele>
        <time>2013-02-22T14:55:36.000Z</time>
      </trkpt>
      <trkpt lat="47.07889" lon="-0.11131">
        <ele>41</ele>
        <time>2013-02-22T14:55:40.000Z</time>
      </trkpt>
      <trkpt lat="47.07889" lon="-0.1113">
        <ele>41</ele>
        <time>2013-02-22T14:55:41.000Z</time>
      </trkpt>
      <trkpt lat="47.07887" lon="-0.11124">
        <ele>41</ele>
        <time>2013-02-22T14:55:45.000Z</time>
      </trkpt>
      <trkpt lat="47.07887" lon="-0.11122">
        <ele>41</ele>
        <time>2013-02-22T14:55:46.000Z</time>
      </trkpt>
      <trkpt lat="47.07887" lon="-0.11116">
        <ele>41</ele>
        <time>2013-02-22T14:55:49.000Z</time>
      </trkpt>
      <trkpt lat="47.07886" lon="-0.11114">
        <ele>41</ele>
        <time>2013-02-22T14:55:50.000Z</time>
      </trkpt>
      <trkpt lat="47.07885" lon="-0.11108">
        <ele>41</ele>
        <time>2013-02-22T14:55:55.000Z</time>
      </trkpt>
      <trkpt lat="47.07885" lon="-0.11107">
        <ele>41</ele>
        <time>2013-02-22T14:55:56.000Z</time>
      </trkpt>
      <trkpt lat="47.07884" lon="-0.11101">
        <ele>41</ele>
        <time>2013-02-22T14:56:00.000Z</time>
      </trkpt>
      <trkpt lat="47.07884" lon="-0.111">
        <ele>41</ele>
        <time>2013-02-22T14:56:01.000Z</time>
      </trkpt>
      <trkpt lat="47.07883" lon="-0.11095">
        <ele>41</ele>
        <time>2013-02-22T14:56:04.000Z</time>
      </trkpt>
      <trkpt lat="47.07883" lon="-0.11093">
        <ele>41</ele>
        <time>2013-02-22T14:56:05.000Z</time>
      </trkpt>
      <trkpt lat="47.07881" lon="-0.11088">
        <ele>41</ele>
        <time>2013-02-22T14:56:09.000Z</time>
      </trkpt>
      <trkpt lat="47.07881" lon="-0.11086">
        <ele>41</ele>
        <time>2013-02-22T14:56:10.000Z</time>
      </trkpt>
      <trkpt lat="47.07879" lon="-0.11081">
        <ele>41</ele>
        <time>2013-02-22T14:56:14.000Z</time>
      </trkpt>
      <trkpt lat="47.07879" lon="-0.11079">
        <ele>41</ele>
        <time>2013-02-22T14:56:15.000Z</time>
      </trkpt>
      <trkpt lat="47.07878" lon="-0.11073">
        <ele>41</ele>
        <time>2013-02-22T14:56:19.000Z</time>
      </trkpt>
      <trkpt lat="47.07877" lon="-0.11072">
        <ele>41</ele>
        <time>2013-02-22T14:56:20.000Z</time>
      </trkpt>
      <trkpt lat="47.07876" lon="-0.11066">
        <ele>41</ele>
        <time>2013-02-22T14:56:26.000Z</time>
      </trkpt>
      <trkpt lat="47.07875" lon="-0.11065">
        <ele>41</ele>
        <time>2013-02-22T14:56:27.000Z</time>
      </trkpt>
      <trkpt lat="47.07874" lon="-0.11058">
        <ele>41</ele>
        <time>2013-02-22T14:56:31.000Z</time>
      </trkpt>
      <trkpt lat="47.07874" lon="-0.11056">
        <ele>41</ele>
        <time>2013-02-22T14:56:32.000Z</time>
      </trkpt>
      <trkpt lat="47.07874" lon="-0.11051">
        <ele>41</ele>
        <time>2013-02-22T14:56:34.000Z</time>
      </trkpt>
      <trkpt lat="47.07874" lon="-0.11048">
        <ele>41</ele>
        <time>2013-02-22T14:56:35.000Z</time>
      </trkpt>
      <trkpt lat="47.07873" lon="-0.11042">
        <ele>41</ele>
        <time>2013-02-22T14:56:39.000Z</time>
      </trkpt>
      <trkpt lat="47.07873" lon="-0.11041">
        <ele>40</ele>
        <time>2013-02-22T14:56:40.000Z</time>
      </trkpt>
      <trkpt lat="47.07871" lon="-0.11035">
        <ele>40</ele>
        <time>2013-02-22T14:56:44.000Z</time>
      </trkpt>
      <trkpt lat="47.07871" lon="-0.11034">
        <ele>40</ele>
        <time>2013-02-22T14:56:45.000Z</time>
      </trkpt>
      <trkpt lat="47.07871" lon="-0.11027">
        <ele>40</ele>
        <time>2013-02-22T14:56:48.000Z</time>
      </trkpt>
      <trkpt lat="47.0787" lon="-0.11025">
        <ele>40</ele>
        <time>2013-02-22T14:56:49.000Z</time>
      </trkpt>
      <trkpt lat="47.07869" lon="-0.1102">
        <ele>40</ele>
        <time>2013-02-22T14:56:52.000Z</time>
      </trkpt>
      <trkpt lat="47.07868" lon="-0.11018">
        <ele>40</ele>
        <time>2013-02-22T14:56:53.000Z</time>
      </trkpt>
      <trkpt lat="47.07868" lon="-0.11012">
        <ele>40</ele>
        <time>2013-02-22T14:56:55.000Z</time>
      </trkpt>
      <trkpt lat="47.07868" lon="-0.11009">
        <ele>40</ele>
        <time>2013-02-22T14:56:56.000Z</time>
      </trkpt>
      <trkpt lat="47.07866" lon="-0.11002">
        <ele>40</ele>
        <time>2013-02-22T14:56:59.000Z</time>
      </trkpt>
      <trkpt lat="47.07866" lon="-0.11001">
        <ele>40</ele>
        <time>2013-02-22T14:57:00.000Z</time>
      </trkpt>
      <trkpt lat="47.07865" lon="-0.10995">
        <ele>39</ele>
        <time>2013-02-22T14:57:04.000Z</time>
      </trkpt>
      <trkpt lat="47.07864" lon="-0.10993">
        <ele>39</ele>
        <time>2013-02-22T14:57:05.000Z</time>
      </trkpt>
      <trkpt lat="47.07863" lon="-0.10988">
        <ele>39</ele>
        <time>2013-02-22T14:57:08.000Z</time>
      </trkpt>
      <trkpt lat="47.07862" lon="-0.10986">
        <ele>39</ele>
        <time>2013-02-22T14:57:09.000Z</time>
      </trkpt>
      <trkpt lat="47.07862" lon="-0.10981">
        <ele>39</ele>
        <time>2013-02-22T14:57:11.000Z</time>
      </trkpt>
      <trkpt lat="47.07862" lon="-0.10979">
        <ele>39</ele>
        <time>2013-02-22T14:57:12.000Z</time>
      </trkpt>
      <trkpt lat="47.07862" lon="-0.10973">
        <ele>39</ele>
        <time>2013-02-22T14:57:14.000Z</time>
      </trkpt>
      <trkpt lat="47.07863" lon="-0.1097">
        <ele>39</ele>
        <time>2013-02-22T14:57:15.000Z</time>
      </trkpt>
      <trkpt lat="47.07862" lon="-0.10964">
        <ele>39</ele>
        <time>2013-02-22T14:57:18.000Z</time>
      </trkpt>
      <trkpt lat="47.07861" lon="-0.10962">
        <ele>39</ele>
        <time>2013-02-22T14:57:19.000Z</time>
      </trkpt>
      <trkpt lat="47.07859" lon="-0.10957">
        <ele>39</ele>
        <time>2013-02-22T14:57:23.000Z</time>
      </trkpt>
      <trkpt lat="47.07859" lon="-0.10956">
        <ele>39</ele>
        <time>2013-02-22T14:57:24.000Z</time>
      </trkpt>
      <trkpt lat="47.07858" lon="-0.1095">
        <ele>39</ele>
        <time>2013-02-22T14:57:27.000Z</time>
      </trkpt>
      <trkpt lat="47.07858" lon="-0.10949">
        <ele>39</ele>
        <time>2013-02-22T14:57:28.000Z</time>
      </trkpt>
      <trkpt lat="47.07856" lon="-0.10943">
        <ele>39</ele>
        <time>2013-02-22T14:57:31.000Z</time>
      </trkpt>
      <trkpt lat="47.07856" lon="-0.1094">
        <ele>39</ele>
        <time>2013-02-22T14:57:32.000Z</time>
      </trkpt>
      <trkpt lat="47.07855" lon="-0.10934">
        <ele>39</ele>
        <time>2013-02-22T14:57:35.000Z</time>
      </trkpt>
      <trkpt lat="47.07854" lon="-0.10932">
        <ele>38</ele>
        <time>2013-02-22T14:57:36.000Z</time>
      </trkpt>
      <trkpt lat="47.07853" lon="-0.10927">
        <ele>38</ele>
        <time>2013-02-22T14:57:39.000Z</time>
      </trkpt>
      <trkpt lat="47.07852" lon="-0.10925">
        <ele>38</ele>
        <time>2013-02-22T14:57:40.000Z</time>
      </trkpt>
      <trkpt lat="47.07851" lon="-0.1092">
        <ele>38</ele>
        <time>2013-02-22T14:57:43.000Z</time>
      </trkpt>
      <trkpt lat="47.07851" lon="-0.10919">
        <ele>38</ele>
        <time>2013-02-22T14:57:44.000Z</time>
      </trkpt>
      <trkpt lat="47.07849" lon="-0.10914">
        <ele>38</ele>
        <time>2013-02-22T14:57:47.000Z</time>
      </trkpt>
      <trkpt lat="47.07848" lon="-0.10912">
        <ele>38</ele>
        <time>2013-02-22T14:57:48.000Z</time>
      </trkpt>
      <trkpt lat="47.07846" lon="-0.10906">
        <ele>38</ele>
        <time>2013-02-22T14:57:51.000Z</time>
      </trkpt>
      <trkpt lat="47.07846" lon="-0.10904">
        <ele>38</ele>
        <time>2013-02-22T14:57:52.000Z</time>
      </trkpt>
      <trkpt lat="47.07845" lon="-0.10899">
        <ele>38</ele>
        <time>2013-02-22T14:57:55.000Z</time>
      </trkpt>
      <trkpt lat="47.07845" lon="-0.10897">
        <ele>38</ele>
        <time>2013-02-22T14:57:56.000Z</time>
      </trkpt>
      <trkpt lat="47.07844" lon="-0.10893">
        <ele>38</ele>
        <time>2013-02-22T14:57:59.000Z</time>
      </trkpt>
      <trkpt lat="47.07845" lon="-0.1089">
        <ele>38</ele>
        <time>2013-02-22T14:58:00.000Z</time>
      </trkpt>
      <trkpt lat="47.07846" lon="-0.10884">
        <ele>38</ele>
        <time>2013-02-22T14:58:02.000Z</time>
      </trkpt>
      <trkpt lat="47.07846" lon="-0.10881">
        <ele>38</ele>
        <time>2013-02-22T14:58:03.000Z</time>
      </trkpt>
      <trkpt lat="47.07845" lon="-0.10875">
        <ele>38</ele>
        <time>2013-02-22T14:58:07.000Z</time>
      </trkpt>
      <trkpt lat="47.07845" lon="-0.10874">
        <ele>39</ele>
        <time>2013-02-22T14:58:08.000Z</time>
      </trkpt>
      <trkpt lat="47.07844" lon="-0.1087">
        <ele>39</ele>
        <time>2013-02-22T14:58:11.000Z</time>
      </trkpt>
      <trkpt lat="47.07844" lon="-0.10868">
        <ele>39</ele>
        <time>2013-02-22T14:58:12.000Z</time>
      </trkpt>
      <trkpt lat="47.0784" lon="-0.10864">
        <ele>39</ele>
        <time>2013-02-22T14:58:17.000Z</time>
      </trkpt>
      <trkpt lat="47.0784" lon="-0.10862">
        <ele>39</ele>
        <time>2013-02-22T14:58:18.000Z</time>
      </trkpt>
      <trkpt lat="47.07837" lon="-0.10857">
        <ele>39</ele>
        <time>2013-02-22T14:58:22.000Z</time>
      </trkpt>
      <trkpt lat="47.07837" lon="-0.10855">
        <ele>39</ele>
        <time>2013-02-22T14:58:23.000Z</time>
      </trkpt>
      <trkpt lat="47.07835" lon="-0.10851">
        <ele>39</ele>
        <time>2013-02-22T14:58:26.000Z</time>
      </trkpt>
      <trkpt lat="47.07835" lon="-0.10849">
        <ele>39</ele>
        <time>2013-02-22T14:58:27.000Z</time>
      </trkpt>
      <trkpt lat="47.07834" lon="-0.10843">
        <ele>39</ele>
        <time>2013-02-22T14:58:31.000Z</time>
      </trkpt>
      <trkpt lat="47.07834" lon="-0.10842">
        <ele>39</ele>
        <time>2013-02-22T14:58:32.000Z</time>
      </trkpt>
      <trkpt lat="47.07833" lon="-0.10837">
        <ele>39</ele>
        <time>2013-02-22T14:58:35.000Z</time>
      </trkpt>
      <trkpt lat="47.07833" lon="-0.10835">
        <ele>39</ele>
        <time>2013-02-22T14:58:36.000Z</time>
      </trkpt>
      <trkpt lat="47.07831" lon="-0.10829">
        <ele>39</ele>
        <time>2013-02-22T14:58:39.000Z</time>
      </trkpt>
      <trkpt lat="47.07831" lon="-0.10827">
        <ele>39</ele>
        <time>2013-02-22T14:58:40.000Z</time>
      </trkpt>
      <trkpt lat="47.0783" lon="-0.10822">
        <ele>39</ele>
        <time>2013-02-22T14:58:43.000Z</time>
      </trkpt>
      <trkpt lat="47.0783" lon="-0.1082">
        <ele>39</ele>
        <time>2013-02-22T14:58:44.000Z</time>
      </trkpt>
      <trkpt lat="47.0783" lon="-0.10814">
        <ele>39</ele>
        <time>2013-02-22T14:58:47.000Z</time>
      </trkpt>
      <trkpt lat="47.0783" lon="-0.10812">
        <ele>39</ele>
        <time>2013-02-22T14:58:48.000Z</time>
      </trkpt>
      <trkpt lat="47.07829" lon="-0.10807">
        <ele>39</ele>
        <time>2013-02-22T14:58:52.000Z</time>
      </trkpt>
      <trkpt lat="47.07828" lon="-0.10805">
        <ele>39</ele>
        <time>2013-02-22T14:58:53.000Z</time>
      </trkpt>
      <trkpt lat="47.07827" lon="-0.108">
        <ele>39</ele>
        <time>2013-02-22T14:58:56.000Z</time>
      </trkpt>
      <trkpt lat="47.07826" lon="-0.10799">
        <ele>39</ele>
        <time>2013-02-22T14:58:57.000Z</time>
      </trkpt>
      <trkpt lat="47.07825" lon="-0.10794">
        <ele>39</ele>
        <time>2013-02-22T14:59:00.000Z</time>
      </trkpt>
      <trkpt lat="47.07824" lon="-0.10793">
        <ele>39</ele>
        <time>2013-02-22T14:59:01.000Z</time>
      </trkpt>
      <trkpt lat="47.07822" lon="-0.10788">
        <ele>39</ele>
        <time>2013-02-22T14:59:05.000Z</time>
      </trkpt>
      <trkpt lat="47.07822" lon="-0.10787">
        <ele>39</ele>
        <time>2013-02-22T14:59:06.000Z</time>
      </trkpt>
      <trkpt lat="47.0782" lon="-0.10781">
        <ele>39</ele>
        <time>2013-02-22T14:59:10.000Z</time>
      </trkpt>
      <trkpt lat="47.0782" lon="-0.10779">
        <ele>39</ele>
        <time>2013-02-22T14:59:11.000Z</time>
      </trkpt>
      <trkpt lat="47.07819" lon="-0.10774">
        <ele>39</ele>
        <time>2013-02-22T14:59:14.000Z</time>
      </trkpt>
      <trkpt lat="47.07819" lon="-0.10771">
        <ele>39</ele>
        <time>2013-02-22T14:59:15.000Z</time>
      </trkpt>
      <trkpt lat="47.07818" lon="-0.10766">
        <ele>39</ele>
        <time>2013-02-22T14:59:18.000Z</time>
      </trkpt>
      <trkpt lat="47.07818" lon="-0.10764">
        <ele>39</ele>
        <time>2013-02-22T14:59:19.000Z</time>
      </trkpt>
      <trkpt lat="47.07816" lon="-0.10759">
        <ele>39</ele>
        <time>2013-02-22T14:59:22.000Z</time>
      </trkpt>
      <trkpt lat="47.07816" lon="-0.10757">
        <ele>39</ele>
        <time>2013-02-22T14:59:23.000Z</time>
      </trkpt>
      <trkpt lat="47.07815" lon="-0.10752">
        <ele>39</ele>
        <time>2013-02-22T14:59:28.000Z</time>
      </trkpt>
      <trkpt lat="47.07815" lon="-0.10751">
        <ele>39</ele>
        <time>2013-02-22T14:59:29.000Z</time>
      </trkpt>
      <trkpt lat="47.07814" lon="-0.10746">
        <ele>39</ele>
        <time>2013-02-22T14:59:32.000Z</time>
      </trkpt>
      <trkpt lat="47.07813" lon="-0.10745">
        <ele>39</ele>
        <time>2013-02-22T14:59:33.000Z</time>
      </trkpt>
      <trkpt lat="47.07812" lon="-0.10739">
        <ele>39</ele>
        <time>2013-02-22T14:59:36.000Z</time>
      </trkpt>
      <trkpt lat="47.07812" lon="-0.10738">
        <ele>39</ele>
        <time>2013-02-22T14:59:37.000Z</time>
      </trkpt>
      <trkpt lat="47.07811" lon="-0.10732">
        <ele>39</ele>
        <time>2013-02-22T14:59:40.000Z</time>
      </trkpt>
      <trkpt lat="47.07811" lon="-0.10731">
        <ele>39</ele>
        <time>2013-02-22T14:59:41.000Z</time>
      </trkpt>
      <trkpt lat="47.07811" lon="-0.10725">
        <ele>39</ele>
        <time>2013-02-22T14:59:44.000Z</time>
      </trkpt>
      <trkpt lat="47.07811" lon="-0.10724">
        <ele>39</ele>
        <time>2013-02-22T14:59:45.000Z</time>
      </trkpt>
      <trkpt lat="47.07813" lon="-0.10719">
        <ele>39</ele>
        <time>2013-02-22T14:59:48.000Z</time>
      </trkpt>
      <trkpt lat="47.07814" lon="-0.10718">
        <ele>39</ele>
        <time>2013-02-22T14:59:49.000Z</time>
      </trkpt>
      <trkpt lat="47.07818" lon="-0.10715">
        <ele>39</ele>
        <time>2013-02-22T14:59:53.000Z</time>
      </trkpt>
      <trkpt lat="47.07819" lon="-0.10715">
        <ele>39</ele>
        <time>2013-02-22T14:59:54.000Z</time>
      </trkpt>
      <trkpt lat="47.07822" lon="-0.10714">
        <ele>39</ele>
        <time>2013-02-22T14:59:57.000Z</time>
      </trkpt>
      <trkpt lat="47.07823" lon="-0.10713">
        <ele>39</ele>
        <time>2013-02-22T14:59:58.000Z</time>
      </trkpt>
      <trkpt lat="47.07826" lon="-0.10712">
        <ele>39</ele>
        <time>2013-02-22T15:00:01.000Z</time>
      </trkpt>
      <trkpt lat="47.07828" lon="-0.10711">
        <ele>39</ele>
        <time>2013-02-22T15:00:02.000Z</time>
      </trkpt>
      <trkpt lat="47.07831" lon="-0.10709">
        <ele>39</ele>
        <time>2013-02-22T15:00:05.000Z</time>
      </trkpt>
      <trkpt lat="47.07833" lon="-0.10709">
        <ele>39</ele>
        <time>2013-02-22T15:00:06.000Z</time>
      </trkpt>
      <trkpt lat="47.07837" lon="-0.10707">
        <ele>39</ele>
        <time>2013-02-22T15:00:09.000Z</time>
      </trkpt>
      <trkpt lat="47.07838" lon="-0.10707">
        <ele>39</ele>
        <time>2013-02-22T15:00:10.000Z</time>
      </trkpt>
      <trkpt lat="47.07841" lon="-0.10708">
        <ele>39</ele>
        <time>2013-02-22T15:00:14.000Z</time>
      </trkpt>
      <trkpt lat="47.07842" lon="-0.10707">
        <ele>39</ele>
        <time>2013-02-22T15:00:15.000Z</time>
      </trkpt>
      <trkpt lat="47.07846" lon="-0.10704">
        <ele>39</ele>
        <time>2013-02-22T15:00:19.000Z</time>
      </trkpt>
      <trkpt lat="47.07847" lon="-0.10704">
        <ele>39</ele>
        <time>2013-02-22T15:00:20.000Z</time>
      </trkpt>
      <trkpt lat="47.07851" lon="-0.10703">
        <ele>39</ele>
        <time>2013-02-22T15:00:24.000Z</time>
      </trkpt>
      <trkpt lat="47.07852" lon="-0.10703">
        <ele>39</ele>
        <time>2013-02-22T15:00:25.000Z</time>
      </trkpt>
      <trkpt lat="47.07856" lon="-0.10701">
        <ele>39</ele>
        <time>2013-02-22T15:00:28.000Z</time>
      </trkpt>
      <trkpt lat="47.07857" lon="-0.10701">
        <ele>39</ele>
        <time>2013-02-22T15:00:29.000Z</time>
      </trkpt>
      <trkpt lat="47.07861" lon="-0.10699">
        <ele>39</ele>
        <time>2013-02-22T15:00:33.000Z</time>
      </trkpt>
      <trkpt lat="47.07862" lon="-0.10698">
        <ele>39</ele>
        <time>2013-02-22T15:00:34.000Z</time>
      </trkpt>
      <trkpt lat="47.07866" lon="-0.10696">
        <ele>39</ele>
        <time>2013-02-22T15:00:37.000Z</time>
      </trkpt>
      <trkpt lat="47.07868" lon="-0.10695">
        <ele>39</ele>
        <time>2013-02-22T15:00:38.000Z</time>
      </trkpt>
      <trkpt lat="47.07872" lon="-0.10693">
        <ele>39</ele>
        <time>2013-02-22T15:00:41.000Z</time>
      </trkpt>
      <trkpt lat="47.07872" lon="-0.10693">
        <ele>39</ele>
        <time>2013-02-22T15:00:42.000Z</time>
      </trkpt>
      <trkpt lat="47.07876" lon="-0.10689">
        <ele>39</ele>
        <time>2013-02-22T15:00:47.000Z</time>
      </trkpt>
      <trkpt lat="47.07877" lon="-0.10689">
        <ele>39</ele>
        <time>2013-02-22T15:00:48.000Z</time>
      </trkpt>
      <trkpt lat="47.07881" lon="-0.10686">
        <ele>39</ele>
        <time>2013-02-22T15:00:52.000Z</time>
      </trkpt>
      <trkpt lat="47.07882" lon="-0.10686">
        <ele>39</ele>
        <time>2013-02-22T15:00:53.000Z</time>
      </trkpt>
      <trkpt lat="47.07886" lon="-0.10685">
        <ele>39</ele>
        <time>2013-02-22T15:01:00.000Z</time>
      </trkpt>
      <trkpt lat="47.07887" lon="-0.10684">
        <ele>39</ele>
        <time>2013-02-22T15:01:01.000Z</time>
      </trkpt>
      <trkpt lat="47.07891" lon="-0.10685">
        <ele>39</ele>
        <time>2013-02-22T15:01:05.000Z</time>
      </trkpt>
      <trkpt lat="47.07892" lon="-0.10684">
        <ele>39</ele>
        <time>2013-02-22T15:01:06.000Z</time>
      </trkpt>
      <trkpt lat="47.07895" lon="-0.10684">
        <ele>39</ele>
        <time>2013-02-22T15:01:10.000Z</time>
      </trkpt>
      <trkpt lat="47.07897" lon="-0.10683">
        <ele>39</ele>
        <time>2013-02-22T15:01:11.000Z</time>
      </trkpt>
      <trkpt lat="47.079" lon="-0.10682">
        <ele>39</ele>
        <time>2013-02-22T15:01:13.000Z</time>
      </trkpt>
      <trkpt lat="47.07901" lon="-0.10682">
        <ele>39</ele>
        <time>2013-02-22T15:01:14.000Z</time>
      </trkpt>
      <trkpt lat="47.07905" lon="-0.10681">
        <ele>39</ele>
        <time>2013-02-22T15:01:18.000Z</time>
      </trkpt>
      <trkpt lat="47.07906" lon="-0.10681">
        <ele>39</ele>
        <time>2013-02-22T15:01:19.000Z</time>
      </trkpt>
      <trkpt lat="47.0791" lon="-0.10679">
        <ele>39</ele>
        <time>2013-02-22T15:01:22.000Z</time>
      </trkpt>
      <trkpt lat="47.07911" lon="-0.10679">
        <ele>39</ele>
        <time>2013-02-22T15:01:23.000Z</time>
      </trkpt>
      <trkpt lat="47.07915" lon="-0.10677">
        <ele>39</ele>
        <time>2013-02-22T15:01:26.000Z</time>
      </trkpt>
      <trkpt lat="47.07916" lon="-0.10678">
        <ele>39</ele>
        <time>2013-02-22T15:01:27.000Z</time>
      </trkpt>
      <trkpt lat="47.0792" lon="-0.10678">
        <ele>39</ele>
        <time>2013-02-22T15:01:31.000Z</time>
      </trkpt>
      <trkpt lat="47.07921" lon="-0.10678">
        <ele>39</ele>
        <time>2013-02-22T15:01:32.000Z</time>
      </trkpt>
      <trkpt lat="47.07924" lon="-0.10677">
        <ele>39</ele>
        <time>2013-02-22T15:01:34.000Z</time>
      </trkpt>
      <trkpt lat="47.07925" lon="-0.10677">
        <ele>39</ele>
        <time>2013-02-22T15:01:35.000Z</time>
      </trkpt>
      <trkpt lat="47.07928" lon="-0.10676">
        <ele>39</ele>
        <time>2013-02-22T15:01:37.000Z</time>
      </trkpt>
      <trkpt lat="47.0793" lon="-0.10675">
        <ele>39</ele>
        <time>2013-02-22T15:01:38.000Z</time>
      </trkpt>
      <trkpt lat="47.07933" lon="-0.10673">
        <ele>39</ele>
        <time>2013-02-22T15:01:41.000Z</time>
      </trkpt>
      <trkpt lat="47.07934" lon="-0.10672">
        <ele>39</ele>
        <time>2013-02-22T15:01:42.000Z</time>
      </trkpt>
      <trkpt lat="47.07938" lon="-0.10671">
        <ele>39</ele>
        <time>2013-02-22T15:01:45.000Z</time>
      </trkpt>
      <trkpt lat="47.07939" lon="-0.1067">
        <ele>39</ele>
        <time>2013-02-22T15:01:46.000Z</time>
      </trkpt>
      <trkpt lat="47.07943" lon="-0.10668">
        <ele>39</ele>
        <time>2013-02-22T15:01:50.000Z</time>
      </trkpt>
      <trkpt lat="47.07944" lon="-0.10667">
        <ele>39</ele>
        <time>2013-02-22T15:01:51.000Z</time>
      </trkpt>
      <trkpt lat="47.07948" lon="-0.10667">
        <ele>38</ele>
        <time>2013-02-22T15:01:54.000Z</time>
      </trkpt>
      <trkpt lat="47.07949" lon="-0.10666">
        <ele>38</ele>
        <time>2013-02-22T15:01:55.000Z</time>
      </trkpt>
      <trkpt lat="47.07953" lon="-0.10665">
        <ele>38</ele>
        <time>2013-02-22T15:01:58.000Z</time>
      </trkpt>
      <trkpt lat="47.07954" lon="-0.10665">
        <ele>38</ele>
        <time>2013-02-22T15:01:59.000Z</time>
      </trkpt>
      <trkpt lat="47.07957" lon="-0.10664">
        <ele>38</ele>
        <time>2013-02-22T15:02:01.000Z</time>
      </trkpt>
      <trkpt lat="47.07959" lon="-0.10663">
        <ele>38</ele>
        <time>2013-02-22T15:02:02.000Z</time>
      </trkpt>
      <trkpt lat="47.07962" lon="-0.10663">
        <ele>38</ele>
        <time>2013-02-22T15:02:04.000Z</time>
      </trkpt>
      <trkpt lat="47.07964" lon="-0.10663">
        <ele>38</ele>
        <time>2013-02-22T15:02:05.000Z</time>
      </trkpt>
      <trkpt lat="47.07968" lon="-0.10663">
        <ele>38</ele>
        <time>2013-02-22T15:02:08.000Z</time>
      </trkpt>
      <trkpt lat="47.07969" lon="-0.10663">
        <ele>38</ele>
        <time>2013-02-22T15:02:09.000Z</time>
      </trkpt>
      <trkpt lat="47.07973" lon="-0.10664">
        <ele>38</ele>
        <time>2013-02-22T15:02:15.000Z</time>
      </trkpt>
      <trkpt lat="47.07975" lon="-0.10664">
        <ele>38</ele>
        <time>2013-02-22T15:02:16.000Z</time>
      </trkpt>
      <trkpt lat="47.07979" lon="-0.10664">
        <ele>38</ele>
        <time>2013-02-22T15:02:19.000Z</time>
      </trkpt>
      <trkpt lat="47.0798" lon="-0.10663">
        <ele>38</ele>
        <time>2013-02-22T15:02:20.000Z</time>
      </trkpt>
      <trkpt lat="47.07984" lon="-0.10662">
        <ele>38</ele>
        <time>2013-02-22T15:02:23.000Z</time>
      </trkpt>
      <trkpt lat="47.07985" lon="-0.10662">
        <ele>38</ele>
        <time>2013-02-22T15:02:24.000Z</time>
      </trkpt>
      <trkpt lat="47.0799" lon="-0.1066">
        <ele>38</ele>
        <time>2013-02-22T15:02:27.000Z</time>
      </trkpt>
      <trkpt lat="47.07991" lon="-0.10659">
        <ele>38</ele>
        <time>2013-02-22T15:02:28.000Z</time>
      </trkpt>
      <trkpt lat="47.07995" lon="-0.10659">
        <ele>38</ele>
        <time>2013-02-22T15:02:30.000Z</time>
      </trkpt>
      <trkpt lat="47.07997" lon="-0.10659">
        <ele>38</ele>
        <time>2013-02-22T15:02:31.000Z</time>
      </trkpt>
      <trkpt lat="47.08" lon="-0.10658">
        <ele>38</ele>
        <time>2013-02-22T15:02:33.000Z</time>
      </trkpt>
      <trkpt lat="47.08002" lon="-0.10657">
        <ele>38</ele>
        <time>2013-02-22T15:02:34.000Z</time>
      </trkpt>
      <trkpt lat="47.08005" lon="-0.10656">
        <ele>38</ele>
        <time>2013-02-22T15:02:36.000Z</time>
      </trkpt>
      <trkpt lat="47.08007" lon="-0.10656">
        <ele>38</ele>
        <time>2013-02-22T15:02:37.000Z</time>
      </trkpt>
      <trkpt lat="47.0801" lon="-0.10655">
        <ele>38</ele>
        <time>2013-02-22T15:02:39.000Z</time>
      </trkpt>
      <trkpt lat="47.08012" lon="-0.10654">
        <ele>38</ele>
        <time>2013-02-22T15:02:40.000Z</time>
      </trkpt>
      <trkpt lat="47.08015" lon="-0.10652">
        <ele>38</ele>
        <time>2013-02-22T15:02:43.000Z</time>
      </trkpt>
      <trkpt lat="47.08017" lon="-0.10651">
        <ele>38</ele>
        <time>2013-02-22T15:02:44.000Z</time>
      </trkpt>
      <trkpt lat="47.0802" lon="-0.10649">
        <ele>38</ele>
        <time>2013-02-22T15:02:47.000Z</time>
      </trkpt>
      <trkpt lat="47.08021" lon="-0.10648">
        <ele>38</ele>
        <time>2013-02-22T15:02:48.000Z</time>
      </trkpt>
      <trkpt lat="47.08025" lon="-0.10648">
        <ele>38</ele>
        <time>2013-02-22T15:02:53.000Z</time>
      </trkpt>
      <trkpt lat="47.08026" lon="-0.10648">
        <ele>38</ele>
        <time>2013-02-22T15:02:54.000Z</time>
      </trkpt>
      <trkpt lat="47.08031" lon="-0.10647">
        <ele>38</ele>
        <time>2013-02-22T15:02:58.000Z</time>
      </trkpt>
      <trkpt lat="47.08032" lon="-0.10647">
        <ele>38</ele>
        <time>2013-02-22T15:02:59.000Z</time>
      </trkpt>
      <trkpt lat="47.08035" lon="-0.10647">
        <ele>38</ele>
        <time>2013-02-22T15:03:02.000Z</time>
      </trkpt>
      <trkpt lat="47.08036" lon="-0.10647">
        <ele>38</ele>
        <time>2013-02-22T15:03:03.000Z</time>
      </trkpt>
      <trkpt lat="47.0804" lon="-0.10647">
        <ele>38</ele>
        <time>2013-02-22T15:03:05.000Z</time>
      </trkpt>
      <trkpt lat="47.08041" lon="-0.10646">
        <ele>38</ele>
        <time>2013-02-22T15:03:06.000Z</time>
      </trkpt>
      <trkpt lat="47.08045" lon="-0.10646">
        <ele>38</ele>
        <time>2013-02-22T15:03:09.000Z</time>
      </trkpt>
      <trkpt lat="47.08047" lon="-0.10646">
        <ele>38</ele>
        <time>2013-02-22T15:03:10.000Z</time>
      </trkpt>
      <trkpt lat="47.0805" lon="-0.10645">
        <ele>38</ele>
        <time>2013-02-22T15:03:13.000Z</time>
      </trkpt>
      <trkpt lat="47.08051" lon="-0.10644">
        <ele>38</ele>
        <time>2013-02-22T15:03:14.000Z</time>
      </trkpt>
      <trkpt lat="47.08055" lon="-0.10643">
        <ele>38</ele>
        <time>2013-02-22T15:03:17.000Z</time>
      </trkpt>
      <trkpt lat="47.08056" lon="-0.10642">
        <ele>38</ele>
        <time>2013-02-22T15:03:18.000Z</time>
      </trkpt>
      <trkpt lat="47.0806" lon="-0.1064">
        <ele>38</ele>
        <time>2013-02-22T15:03:23.000Z</time>
      </trkpt>
      <trkpt lat="47.08061" lon="-0.10639">
        <ele>38</ele>
        <time>2013-02-22T15:03:24.000Z</time>
      </trkpt>
      <trkpt lat="47.08065" lon="-0.10637">
        <ele>38</ele>
        <time>2013-02-22T15:03:30.000Z</time>
      </trkpt>
      <trkpt lat="47.08066" lon="-0.10637">
        <ele>38</ele>
        <time>2013-02-22T15:03:31.000Z</time>
      </trkpt>
      <trkpt lat="47.08069" lon="-0.10635">
        <ele>38</ele>
        <time>2013-02-22T15:03:34.000Z</time>
      </trkpt>
      <trkpt lat="47.0807" lon="-0.10634">
        <ele>38</ele>
        <time>2013-02-22T15:03:35.000Z</time>
      </trkpt>
      <trkpt lat="47.08073" lon="-0.10631">
        <ele>38</ele>
        <time>2013-02-22T15:03:38.000Z</time>
      </trkpt>
      <trkpt lat="47.08075" lon="-0.1063">
        <ele>38</ele>
        <time>2013-02-22T15:03:39.000Z</time>
      </trkpt>
      <trkpt lat="47.08078" lon="-0.10628">
        <ele>38</ele>
        <time>2013-02-22T15:03:41.000Z</time>
      </trkpt>
      <trkpt lat="47.08079" lon="-0.10628">
        <ele>38</ele>
        <time>2013-02-22T15:03:42.000Z</time>
      </trkpt>
      <trkpt lat="47.08083" lon="-0.10626">
        <ele>38</ele>
        <time>2013-02-22T15:03:45.000Z</time>
      </trkpt>
      <trkpt lat="47.08084" lon="-0.10625">
        <ele>38</ele>
        <time>2013-02-22T15:03:46.000Z</time>
      </trkpt>
      <trkpt lat="47.08088" lon="-0.10623">
        <ele>38</ele>
        <time>2013-02-22T15:03:49.000Z</time>
      </trkpt>
      <trkpt lat="47.08089" lon="-0.10623">
        <ele>38</ele>
        <time>2013-02-22T15:03:50.000Z</time>
      </trkpt>
      <trkpt lat="47.08092" lon="-0.1062">
        <ele>38</ele>
        <time>2013-02-22T15:03:53.000Z</time>
      </trkpt>
      <trkpt lat="47.08093" lon="-0.10619">
        <ele>38</ele>
        <time>2013-02-22T15:03:54.000Z</time>
      </trkpt>
      <trkpt lat="47.08098" lon="-0.10619">
        <ele>38</ele>
        <time>2013-02-22T15:03:58.000Z</time>
      </trkpt>
      <trkpt lat="47.08099" lon="-0.10618">
        <ele>38</ele>
        <time>2013-02-22T15:03:59.000Z</time>
      </trkpt>
      <trkpt lat="47.08102" lon="-0.10617">
        <ele>38</ele>
        <time>2013-02-22T15:04:03.000Z</time>
      </trkpt>
      <trkpt lat="47.08103" lon="-0.10616">
        <ele>38</ele>
        <time>2013-02-22T15:04:04.000Z</time>
      </trkpt>
      <trkpt lat="47.08105" lon="-0.1061">
        <ele>38</ele>
        <time>2013-02-22T15:04:11.000Z</time>
      </trkpt>
      <trkpt lat="47.08104" lon="-0.10609">
        <ele>38</ele>
        <time>2013-02-22T15:04:12.000Z</time>
      </trkpt>
      <trkpt lat="47.08105" lon="-0.10603">
        <ele>38</ele>
        <time>2013-02-22T15:04:30.000Z</time>
      </trkpt>
      <trkpt lat="47.08105" lon="-0.10603">
        <ele>38</ele>
        <time>2013-02-22T15:04:31.000Z</time>
      </trkpt>
      <trkpt lat="47.08109" lon="-0.10602">
        <ele>38</ele>
        <time>2013-02-22T15:04:46.000Z</time>
      </trkpt>
      <trkpt lat="47.0811" lon="-0.10602">
        <ele>38</ele>
        <time>2013-02-22T15:04:47.000Z</time>
      </trkpt>
      <trkpt lat="47.08112" lon="-0.10607">
        <ele>38</ele>
        <time>2013-02-22T15:04:57.000Z</time>
      </trkpt>
      <trkpt lat="47.08113" lon="-0.10606">
        <ele>38</ele>
        <time>2013-02-22T15:04:58.000Z</time>
      </trkpt>
      <trkpt lat="47.08116" lon="-0.10602">
        <ele>38</ele>
        <time>2013-02-22T15:05:02.000Z</time>
      </trkpt>
      <trkpt lat="47.08116" lon="-0.10602">
        <ele>38</ele>
        <time>2013-02-22T15:05:03.000Z</time>
      </trkpt>
      <trkpt lat="47.08118" lon="-0.10597">
        <ele>38</ele>
        <time>2013-02-22T15:05:08.000Z</time>
      </trkpt>
      <trkpt lat="47.08119" lon="-0.10595">
        <ele>38</ele>
        <time>2013-02-22T15:05:09.000Z</time>
      </trkpt>
      <trkpt lat="47.08121" lon="-0.1059">
        <ele>38</ele>
        <time>2013-02-22T15:05:13.000Z</time>
      </trkpt>
      <trkpt lat="47.08121" lon="-0.10588">
        <ele>38</ele>
        <time>2013-02-22T15:05:14.000Z</time>
      </trkpt>
      <trkpt lat="47.08123" lon="-0.10584">
        <ele>38</ele>
        <time>2013-02-22T15:05:17.000Z</time>
      </trkpt>
      <trkpt lat="47.08124" lon="-0.10583">
        <ele>38</ele>
        <time>2013-02-22T15:05:18.000Z</time>
      </trkpt>
      <trkpt lat="47.08126" lon="-0.10577">
        <ele>38</ele>
        <time>2013-02-22T15:05:21.000Z</time>
      </trkpt>
      <trkpt lat="47.08127" lon="-0.10575">
        <ele>38</ele>
        <time>2013-02-22T15:05:22.000Z</time>
      </trkpt>
      <trkpt lat="47.08128" lon="-0.10572">
        <ele>38</ele>
        <time>2013-02-22T15:05:24.000Z</time>
      </trkpt>
      <trkpt lat="47.08129" lon="-0.10569">
        <ele>38</ele>
        <time>2013-02-22T15:05:25.000Z</time>
      </trkpt>
      <trkpt lat="47.08131" lon="-0.10565">
        <ele>38</ele>
        <time>2013-02-22T15:05:27.000Z</time>
      </trkpt>
      <trkpt lat="47.08132" lon="-0.10561">
        <ele>38</ele>
        <time>2013-02-22T15:05:29.000Z</time>
      </trkpt>
      <trkpt lat="47.08133" lon="-0.10556">
        <ele>38</ele>
        <time>2013-02-22T15:05:32.000Z</time>
      </trkpt>
      <trkpt lat="47.08134" lon="-0.10554">
        <ele>38</ele>
        <time>2013-02-22T15:05:33.000Z</time>
      </trkpt>
      <trkpt lat="47.08136" lon="-0.10552">
        <ele>38</ele>
        <time>2013-02-22T15:05:35.000Z</time>
      </trkpt>
      <trkpt lat="47.08137" lon="-0.10549">
        <ele>37</ele>
        <time>2013-02-22T15:05:36.000Z</time>
      </trkpt>
      <trkpt lat="47.0814" lon="-0.10546">
        <ele>37</ele>
        <time>2013-02-22T15:05:39.000Z</time>
      </trkpt>
      <trkpt lat="47.08142" lon="-0.10545">
        <ele>37</ele>
        <time>2013-02-22T15:05:40.000Z</time>
      </trkpt>
      <trkpt lat="47.08145" lon="-0.10545">
        <ele>37</ele>
        <time>2013-02-22T15:05:44.000Z</time>
      </trkpt>
      <trkpt lat="47.08147" lon="-0.10545">
        <ele>37</ele>
        <time>2013-02-22T15:05:45.000Z</time>
      </trkpt>
      <trkpt lat="47.0815" lon="-0.10544">
        <ele>37</ele>
        <time>2013-02-22T15:05:48.000Z</time>
      </trkpt>
      <trkpt lat="47.08151" lon="-0.10543">
        <ele>37</ele>
        <time>2013-02-22T15:05:49.000Z</time>
      </trkpt>
      <trkpt lat="47.08154" lon="-0.10542">
        <ele>37</ele>
        <time>2013-02-22T15:05:51.000Z</time>
      </trkpt>
      <trkpt lat="47.08156" lon="-0.10542">
        <ele>37</ele>
        <time>2013-02-22T15:05:52.000Z</time>
      </trkpt>
      <trkpt lat="47.08159" lon="-0.10543">
        <ele>37</ele>
        <time>2013-02-22T15:05:55.000Z</time>
      </trkpt>
      <trkpt lat="47.0816" lon="-0.10543">
        <ele>37</ele>
        <time>2013-02-22T15:05:56.000Z</time>
      </trkpt>
      <trkpt lat="47.08164" lon="-0.10543">
        <ele>37</ele>
        <time>2013-02-22T15:06:00.000Z</time>
      </trkpt>
      <trkpt lat="47.08165" lon="-0.10544">
        <ele>37</ele>
        <time>2013-02-22T15:06:01.000Z</time>
      </trkpt>
      <trkpt lat="47.08169" lon="-0.10542">
        <ele>37</ele>
        <time>2013-02-22T15:06:06.000Z</time>
      </trkpt>
      <trkpt lat="47.0817" lon="-0.10543">
        <ele>37</ele>
        <time>2013-02-22T15:06:07.000Z</time>
      </trkpt>
      <trkpt lat="47.08174" lon="-0.10542">
        <ele>37</ele>
        <time>2013-02-22T15:06:11.000Z</time>
      </trkpt>
      <trkpt lat="47.08176" lon="-0.10542">
        <ele>37</ele>
        <time>2013-02-22T15:06:12.000Z</time>
      </trkpt>
      <trkpt lat="47.0818" lon="-0.10542">
        <ele>37</ele>
        <time>2013-02-22T15:06:15.000Z</time>
      </trkpt>
      <trkpt lat="47.08181" lon="-0.10542">
        <ele>37</ele>
        <time>2013-02-22T15:06:16.000Z</time>
      </trkpt>
      <trkpt lat="47.08185" lon="-0.10541">
        <ele>37</ele>
        <time>2013-02-22T15:06:19.000Z</time>
      </trkpt>
      <trkpt lat="47.08186" lon="-0.10541">
        <ele>37</ele>
        <time>2013-02-22T15:06:20.000Z</time>
      </trkpt>
      <trkpt lat="47.0819" lon="-0.1054">
        <ele>37</ele>
        <time>2013-02-22T15:06:23.000Z</time>
      </trkpt>
      <trkpt lat="47.08192" lon="-0.1054">
        <ele>37</ele>
        <time>2013-02-22T15:06:24.000Z</time>
      </trkpt>
      <trkpt lat="47.08195" lon="-0.10538">
        <ele>37</ele>
        <time>2013-02-22T15:06:26.000Z</time>
      </trkpt>
      <trkpt lat="47.08196" lon="-0.10537">
        <ele>37</ele>
        <time>2013-02-22T15:06:27.000Z</time>
      </trkpt>
      <trkpt lat="47.082" lon="-0.10536">
        <ele>37</ele>
        <time>2013-02-22T15:06:30.000Z</time>
      </trkpt>
      <trkpt lat="47.08201" lon="-0.10536">
        <ele>37</ele>
        <time>2013-02-22T15:06:31.000Z</time>
      </trkpt>
      <trkpt lat="47.08205" lon="-0.10534">
        <ele>37</ele>
        <time>2013-02-22T15:06:34.000Z</time>
      </trkpt>
      <trkpt lat="47.08207" lon="-0.10534">
        <ele>37</ele>
        <time>2013-02-22T15:06:35.000Z</time>
      </trkpt>
      <trkpt lat="47.08211" lon="-0.10535">
        <ele>37</ele>
        <time>2013-02-22T15:06:38.000Z</time>
      </trkpt>
      <trkpt lat="47.08212" lon="-0.10535">
        <ele>37</ele>
        <time>2013-02-22T15:06:39.000Z</time>
      </trkpt>
      <trkpt lat="47.08216" lon="-0.10535">
        <ele>37</ele>
        <time>2013-02-22T15:06:42.000Z</time>
      </trkpt>
      <trkpt lat="47.08217" lon="-0.10535">
        <ele>37</ele>
        <time>2013-02-22T15:06:43.000Z</time>
      </trkpt>
      <trkpt lat="47.08221" lon="-0.10536">
        <ele>37</ele>
        <time>2013-02-22T15:06:47.000Z</time>
      </trkpt>
      <trkpt lat="47.08222" lon="-0.10536">
        <ele>37</ele>
        <time>2013-02-22T15:06:48.000Z</time>
      </trkpt>
      <trkpt lat="47.08226" lon="-0.10536">
        <ele>37</ele>
        <time>2013-02-22T15:06:52.000Z</time>
      </trkpt>
      <trkpt lat="47.08227" lon="-0.10536">
        <ele>37</ele>
        <time>2013-02-22T15:06:53.000Z</time>
      </trkpt>
      <trkpt lat="47.08231" lon="-0.10536">
        <ele>37</ele>
        <time>2013-02-22T15:06:56.000Z</time>
      </trkpt>
      <trkpt lat="47.08232" lon="-0.10536">
        <ele>37</ele>
        <time>2013-02-22T15:06:57.000Z</time>
      </trkpt>
      <trkpt lat="47.08236" lon="-0.10536">
        <ele>37</ele>
        <time>2013-02-22T15:07:00.000Z</time>
      </trkpt>
      <trkpt lat="47.08237" lon="-0.10536">
        <ele>37</ele>
        <time>2013-02-22T15:07:01.000Z</time>
      </trkpt>
      <trkpt lat="47.08241" lon="-0.10537">
        <ele>37</ele>
        <time>2013-02-22T15:07:04.000Z</time>
      </trkpt>
      <trkpt lat="47.08242" lon="-0.10536">
        <ele>37</ele>
        <time>2013-02-22T15:07:05.000Z</time>
      </trkpt>
      <trkpt lat="47.08246" lon="-0.10536">
        <ele>37</ele>
        <time>2013-02-22T15:07:08.000Z</time>
      </trkpt>
      <trkpt lat="47.08247" lon="-0.10536">
        <ele>37</ele>
        <time>2013-02-22T15:07:09.000Z</time>
      </trkpt>
      <trkpt lat="47.08251" lon="-0.10535">
        <ele>37</ele>
        <time>2013-02-22T15:07:12.000Z</time>
      </trkpt>
      <trkpt lat="47.08253" lon="-0.10535">
        <ele>37</ele>
        <time>2013-02-22T15:07:13.000Z</time>
      </trkpt>
      <trkpt lat="47.08257" lon="-0.10535">
        <ele>37</ele>
        <time>2013-02-22T15:07:16.000Z</time>
      </trkpt>
      <trkpt lat="47.08259" lon="-0.10534">
        <ele>37</ele>
        <time>2013-02-22T15:07:17.000Z</time>
      </trkpt>
      <trkpt lat="47.08262" lon="-0.10534">
        <ele>37</ele>
        <time>2013-02-22T15:07:20.000Z</time>
      </trkpt>
      <trkpt lat="47.08264" lon="-0.10534">
        <ele>37</ele>
        <time>2013-02-22T15:07:21.000Z</time>
      </trkpt>
      <trkpt lat="47.08267" lon="-0.10533">
        <ele>37</ele>
        <time>2013-02-22T15:07:23.000Z</time>
      </trkpt>
      <trkpt lat="47.08269" lon="-0.10533">
        <ele>37</ele>
        <time>2013-02-22T15:07:24.000Z</time>
      </trkpt>
      <trkpt lat="47.08273" lon="-0.10533">
        <ele>37</ele>
        <time>2013-02-22T15:07:27.000Z</time>
      </trkpt>
      <trkpt lat="47.08274" lon="-0.10532">
        <ele>37</ele>
        <time>2013-02-22T15:07:28.000Z</time>
      </trkpt>
      <trkpt lat="47.08277" lon="-0.10532">
        <ele>37</ele>
        <time>2013-02-22T15:07:31.000Z</time>
      </trkpt>
      <trkpt lat="47.08279" lon="-0.10532">
        <ele>37</ele>
        <time>2013-02-22T15:07:32.000Z</time>
      </trkpt>
      <trkpt lat="47.08282" lon="-0.10532">
        <ele>37</ele>
        <time>2013-02-22T15:07:35.000Z</time>
      </trkpt>
      <trkpt lat="47.08284" lon="-0.10533">
        <ele>37</ele>
        <time>2013-02-22T15:07:36.000Z</time>
      </trkpt>
      <trkpt lat="47.08288" lon="-0.10533">
        <ele>37</ele>
        <time>2013-02-22T15:07:40.000Z</time>
      </trkpt>
      <trkpt lat="47.08289" lon="-0.10532">
        <ele>37</ele>
        <time>2013-02-22T15:07:41.000Z</time>
      </trkpt>
      <trkpt lat="47.08292" lon="-0.10532">
        <ele>37</ele>
        <time>2013-02-22T15:07:43.000Z</time>
      </trkpt>
      <trkpt lat="47.08294" lon="-0.10532">
        <ele>37</ele>
        <time>2013-02-22T15:07:44.000Z</time>
      </trkpt>
      <trkpt lat="47.08298" lon="-0.10531">
        <ele>37</ele>
        <time>2013-02-22T15:07:47.000Z</time>
      </trkpt>
      <trkpt lat="47.08299" lon="-0.10532">
        <ele>37</ele>
        <time>2013-02-22T15:07:48.000Z</time>
      </trkpt>
      <trkpt lat="47.08303" lon="-0.10533">
        <ele>37</ele>
        <time>2013-02-22T15:07:51.000Z</time>
      </trkpt>
      <trkpt lat="47.08305" lon="-0.10533">
        <ele>37</ele>
        <time>2013-02-22T15:07:52.000Z</time>
      </trkpt>
      <trkpt lat="47.08308" lon="-0.10534">
        <ele>37</ele>
        <time>2013-02-22T15:07:54.000Z</time>
      </trkpt>
      <trkpt lat="47.0831" lon="-0.10535">
        <ele>37</ele>
        <time>2013-02-22T15:07:55.000Z</time>
      </trkpt>
      <trkpt lat="47.08314" lon="-0.10537">
        <ele>37</ele>
        <time>2013-02-22T15:07:58.000Z</time>
      </trkpt>
      <trkpt lat="47.08316" lon="-0.10537">
        <ele>37</ele>
        <time>2013-02-22T15:07:59.000Z</time>
      </trkpt>
      <trkpt lat="47.08319" lon="-0.10538">
        <ele>37</ele>
        <time>2013-02-22T15:08:02.000Z</time>
      </trkpt>
      <trkpt lat="47.0832" lon="-0.10538">
        <ele>37</ele>
        <time>2013-02-22T15:08:03.000Z</time>
      </trkpt>
      <trkpt lat="47.08324" lon="-0.10538">
        <ele>37</ele>
        <time>2013-02-22T15:08:06.000Z</time>
      </trkpt>
      <trkpt lat="47.08325" lon="-0.10539">
        <ele>37</ele>
        <time>2013-02-22T15:08:07.000Z</time>
      </trkpt>
      <trkpt lat="47.0833" lon="-0.10539">
        <ele>37</ele>
        <time>2013-02-22T15:08:11.000Z</time>
      </trkpt>
      <trkpt lat="47.08331" lon="-0.10539">
        <ele>37</ele>
        <time>2013-02-22T15:08:12.000Z</time>
      </trkpt>
      <trkpt lat="47.08334" lon="-0.10539">
        <ele>36</ele>
        <time>2013-02-22T15:08:15.000Z</time>
      </trkpt>
      <trkpt lat="47.08335" lon="-0.10539">
        <ele>36</ele>
        <time>2013-02-22T15:08:16.000Z</time>
      </trkpt>
      <trkpt lat="47.08339" lon="-0.10537">
        <ele>36</ele>
        <time>2013-02-22T15:08:19.000Z</time>
      </trkpt>
      <trkpt lat="47.0834" lon="-0.10537">
        <ele>36</ele>
        <time>2013-02-22T15:08:20.000Z</time>
      </trkpt>
      <trkpt lat="47.08344" lon="-0.10536">
        <ele>36</ele>
        <time>2013-02-22T15:08:24.000Z</time>
      </trkpt>
      <trkpt lat="47.08345" lon="-0.10536">
        <ele>36</ele>
        <time>2013-02-22T15:08:25.000Z</time>
      </trkpt>
      <trkpt lat="47.0835" lon="-0.10537">
        <ele>36</ele>
        <time>2013-02-22T15:08:28.000Z</time>
      </trkpt>
      <trkpt lat="47.08351" lon="-0.10536">
        <ele>36</ele>
        <time>2013-02-22T15:08:29.000Z</time>
      </trkpt>
      <trkpt lat="47.08354" lon="-0.10535">
        <ele>36</ele>
        <time>2013-02-22T15:08:32.000Z</time>
      </trkpt>
      <trkpt lat="47.08356" lon="-0.10535">
        <ele>36</ele>
        <time>2013-02-22T15:08:33.000Z</time>
      </trkpt>
      <trkpt lat="47.08359" lon="-0.10534">
        <ele>36</ele>
        <time>2013-02-22T15:08:35.000Z</time>
      </trkpt>
      <trkpt lat="47.08361" lon="-0.10533">
        <ele>36</ele>
        <time>2013-02-22T15:08:36.000Z</time>
      </trkpt>
      <trkpt lat="47.08364" lon="-0.1053">
        <ele>36</ele>
        <time>2013-02-22T15:08:41.000Z</time>
      </trkpt>
      <trkpt lat="47.08367" lon="-0.10531">
        <ele>36</ele>
        <time>2013-02-22T15:08:42.000Z</time>
      </trkpt>
      <trkpt lat="47.08371" lon="-0.10531">
        <ele>36</ele>
        <time>2013-02-22T15:08:51.000Z</time>
      </trkpt>
      <trkpt lat="47.08372" lon="-0.10529">
        <ele>36</ele>
        <time>2013-02-22T15:08:52.000Z</time>
      </trkpt>
      <trkpt lat="47.08376" lon="-0.10527">
        <ele>36</ele>
        <time>2013-02-22T15:09:00.000Z</time>
      </trkpt>
      <trkpt lat="47.08377" lon="-0.10527">
        <ele>36</ele>
        <time>2013-02-22T15:09:01.000Z</time>
      </trkpt>
      <trkpt lat="47.0838" lon="-0.10524">
        <ele>36</ele>
        <time>2013-02-22T15:09:14.000Z</time>
      </trkpt>
      <trkpt lat="47.08381" lon="-0.10523">
        <ele>36</ele>
        <time>2013-02-22T15:09:15.000Z</time>
      </trkpt>
      <trkpt lat="47.08382" lon="-0.10517">
        <ele>36</ele>
        <time>2013-02-22T15:09:22.000Z</time>
      </trkpt>
      <trkpt lat="47.08383" lon="-0.10516">
        <ele>36</ele>
        <time>2013-02-22T15:09:23.000Z</time>
      </trkpt>
      <trkpt lat="47.08385" lon="-0.10512">
        <ele>36</ele>
        <time>2013-02-22T15:09:26.000Z</time>
      </trkpt>
      <trkpt lat="47.08386" lon="-0.10511">
        <ele>36</ele>
        <time>2013-02-22T15:09:27.000Z</time>
      </trkpt>
      <trkpt lat="47.08389" lon="-0.10506">
        <ele>36</ele>
        <time>2013-02-22T15:09:30.000Z</time>
      </trkpt>
      <trkpt lat="47.0839" lon="-0.10506">
        <ele>36</ele>
        <time>2013-02-22T15:09:31.000Z</time>
      </trkpt>
      <trkpt lat="47.08394" lon="-0.10507">
        <ele>36</ele>
        <time>2013-02-22T15:09:33.000Z</time>
      </trkpt>
      <trkpt lat="47.08395" lon="-0.10507">
        <ele>35</ele>
        <time>2013-02-22T15:09:34.000Z</time>
      </trkpt>
      <trkpt lat="47.08399" lon="-0.10506">
        <ele>35</ele>
        <time>2013-02-22T15:09:38.000Z</time>
      </trkpt>
      <trkpt lat="47.084" lon="-0.10505">
        <ele>35</ele>
        <time>2013-02-22T15:09:39.000Z</time>
      </trkpt>
      <trkpt lat="47.08404" lon="-0.10502">
        <ele>35</ele>
        <time>2013-02-22T15:09:44.000Z</time>
      </trkpt>
      <trkpt lat="47.08405" lon="-0.10501">
        <ele>35</ele>
        <time>2013-02-22T15:09:45.000Z</time>
      </trkpt>
      <trkpt lat="47.08408" lon="-0.10499">
        <ele>35</ele>
        <time>2013-02-22T15:09:52.000Z</time>
      </trkpt>
      <trkpt lat="47.08409" lon="-0.10498">
        <ele>35</ele>
        <time>2013-02-22T15:09:53.000Z</time>
      </trkpt>
      <trkpt lat="47.08413" lon="-0.10497">
        <ele>35</ele>
        <time>2013-02-22T15:09:57.000Z</time>
      </trkpt>
      <trkpt lat="47.08414" lon="-0.10496">
        <ele>35</ele>
        <time>2013-02-22T15:09:58.000Z</time>
      </trkpt>
      <trkpt lat="47.08417" lon="-0.10497">
        <ele>35</ele>
        <time>2013-02-22T15:10:02.000Z</time>
      </trkpt>
      <trkpt lat="47.08419" lon="-0.10498">
        <ele>35</ele>
        <time>2013-02-22T15:10:03.000Z</time>
      </trkpt>
      <trkpt lat="47.08423" lon="-0.105">
        <ele>35</ele>
        <time>2013-02-22T15:10:06.000Z</time>
      </trkpt>
      <trkpt lat="47.08423" lon="-0.10501">
        <ele>35</ele>
        <time>2013-02-22T15:10:07.000Z</time>
      </trkpt>
      <trkpt lat="47.08426" lon="-0.10504">
        <ele>35</ele>
        <time>2013-02-22T15:10:11.000Z</time>
      </trkpt>
      <trkpt lat="47.08427" lon="-0.10505">
        <ele>35</ele>
        <time>2013-02-22T15:10:12.000Z</time>
      </trkpt>
      <trkpt lat="47.0843" lon="-0.10508">
        <ele>35</ele>
        <time>2013-02-22T15:10:14.000Z</time>
      </trkpt>
      <trkpt lat="47.08431" lon="-0.1051">
        <ele>35</ele>
        <time>2013-02-22T15:10:15.000Z</time>
      </trkpt>
      <trkpt lat="47.08431" lon="-0.10515">
        <ele>35</ele>
        <time>2013-02-22T15:10:19.000Z</time>
      </trkpt>
      <trkpt lat="47.08432" lon="-0.10516">
        <ele>35</ele>
        <time>2013-02-22T15:10:20.000Z</time>
      </trkpt>
      <trkpt lat="47.08433" lon="-0.10521">
        <ele>35</ele>
        <time>2013-02-22T15:10:22.000Z</time>
      </trkpt>
      <trkpt lat="47.08434" lon="-0.10523">
        <ele>35</ele>
        <time>2013-02-22T15:10:23.000Z</time>
      </trkpt>
      <trkpt lat="47.08435" lon="-0.10529">
        <ele>35</ele>
        <time>2013-02-22T15:10:26.000Z</time>
      </trkpt>
      <trkpt lat="47.08435" lon="-0.10531">
        <ele>35</ele>
        <time>2013-02-22T15:10:27.000Z</time>
      </trkpt>
      <trkpt lat="47.08437" lon="-0.10537">
        <ele>35</ele>
        <time>2013-02-22T15:10:31.000Z</time>
      </trkpt>
      <trkpt lat="47.08438" lon="-0.10537">
        <ele>35</ele>
        <time>2013-02-22T15:10:32.000Z</time>
      </trkpt>
      <trkpt lat="47.08442" lon="-0.10537">
        <ele>35</ele>
        <time>2013-02-22T15:10:36.000Z</time>
      </trkpt>
      <trkpt lat="47.08443" lon="-0.10537">
        <ele>35</ele>
        <time>2013-02-22T15:10:37.000Z</time>
      </trkpt>
      <trkpt lat="47.08446" lon="-0.10534">
        <ele>35</ele>
        <time>2013-02-22T15:10:42.000Z</time>
      </trkpt>
      <trkpt lat="47.08447" lon="-0.10533">
        <ele>35</ele>
        <time>2013-02-22T15:10:43.000Z</time>
      </trkpt>
      <trkpt lat="47.08451" lon="-0.10531">
        <ele>35</ele>
        <time>2013-02-22T15:10:47.000Z</time>
      </trkpt>
      <trkpt lat="47.08451" lon="-0.10531">
        <ele>35</ele>
        <time>2013-02-22T15:10:48.000Z</time>
      </trkpt>
      <trkpt lat="47.08455" lon="-0.10528">
        <ele>35</ele>
        <time>2013-02-22T15:10:53.000Z</time>
      </trkpt>
      <trkpt lat="47.08456" lon="-0.10528">
        <ele>35</ele>
        <time>2013-02-22T15:10:54.000Z</time>
      </trkpt>
      <trkpt lat="47.08459" lon="-0.10526">
        <ele>35</ele>
        <time>2013-02-22T15:11:01.000Z</time>
      </trkpt>
      <trkpt lat="47.08461" lon="-0.10525">
        <ele>35</ele>
        <time>2013-02-22T15:11:02.000Z</time>
      </trkpt>
      <trkpt lat="47.08464" lon="-0.10521">
        <ele>36</ele>
        <time>2013-02-22T15:11:04.000Z</time>
      </trkpt>
      <trkpt lat="47.08466" lon="-0.10519">
        <ele>36</ele>
        <time>2013-02-22T15:11:05.000Z</time>
      </trkpt>
      <trkpt lat="47.08469" lon="-0.10518">
        <ele>36</ele>
        <time>2013-02-22T15:11:07.000Z</time>
      </trkpt>
      <trkpt lat="47.08471" lon="-0.10517">
        <ele>36</ele>
        <time>2013-02-22T15:11:08.000Z</time>
      </trkpt>
      <trkpt lat="47.08475" lon="-0.10517">
        <ele>36</ele>
        <time>2013-02-22T15:11:10.000Z</time>
      </trkpt>
      <trkpt lat="47.08476" lon="-0.10516">
        <ele>36</ele>
        <time>2013-02-22T15:11:11.000Z</time>
      </trkpt>
      <trkpt lat="47.08479" lon="-0.10513">
        <ele>36</ele>
        <time>2013-02-22T15:11:15.000Z</time>
      </trkpt>
      <trkpt lat="47.08481" lon="-0.10511">
        <ele>36</ele>
        <time>2013-02-22T15:11:16.000Z</time>
      </trkpt>
      <trkpt lat="47.08483" lon="-0.10506">
        <ele>36</ele>
        <time>2013-02-22T15:11:19.000Z</time>
      </trkpt>
      <trkpt lat="47.08484" lon="-0.10503">
        <ele>36</ele>
        <time>2013-02-22T15:11:20.000Z</time>
      </trkpt>
      <trkpt lat="47.08486" lon="-0.10498">
        <ele>37</ele>
        <time>2013-02-22T15:11:23.000Z</time>
      </trkpt>
      <trkpt lat="47.08487" lon="-0.10495">
        <ele>37</ele>
        <time>2013-02-22T15:11:24.000Z</time>
      </trkpt>
      <trkpt lat="47.08487" lon="-0.10489">
        <ele>37</ele>
        <time>2013-02-22T15:11:26.000Z</time>
      </trkpt>
      <trkpt lat="47.08487" lon="-0.10488">
        <ele>36</ele>
        <time>2013-02-22T15:11:27.000Z</time>
      </trkpt>
      <trkpt lat="47.08488" lon="-0.10482">
        <ele>36</ele>
        <time>2013-02-22T15:11:30.000Z</time>
      </trkpt>
      <trkpt lat="47.08488" lon="-0.10481">
        <ele>36</ele>
        <time>2013-02-22T15:11:31.000Z</time>
      </trkpt>
      <trkpt lat="47.08491" lon="-0.10476">
        <ele>36</ele>
        <time>2013-02-22T15:11:34.000Z</time>
      </trkpt>
      <trkpt lat="47.08492" lon="-0.10475">
        <ele>36</ele>
        <time>2013-02-22T15:11:35.000Z</time>
      </trkpt>
      <trkpt lat="47.08493" lon="-0.10469">
        <ele>36</ele>
        <time>2013-02-22T15:11:41.000Z</time>
      </trkpt>
      <trkpt lat="47.08493" lon="-0.10468">
        <ele>36</ele>
        <time>2013-02-22T15:11:42.000Z</time>
      </trkpt>
      <trkpt lat="47.08494" lon="-0.10463">
        <ele>36</ele>
        <time>2013-02-22T15:11:44.000Z</time>
      </trkpt>
      <trkpt lat="47.08495" lon="-0.10461">
        <ele>36</ele>
        <time>2013-02-22T15:11:45.000Z</time>
      </trkpt>
      <trkpt lat="47.08497" lon="-0.10456">
        <ele>36</ele>
        <time>2013-02-22T15:11:49.000Z</time>
      </trkpt>
      <trkpt lat="47.08498" lon="-0.10454">
        <ele>36</ele>
        <time>2013-02-22T15:11:50.000Z</time>
      </trkpt>
      <trkpt lat="47.085" lon="-0.10449">
        <ele>36</ele>
        <time>2013-02-22T15:11:52.000Z</time>
      </trkpt>
      <trkpt lat="47.085" lon="-0.10447">
        <ele>37</ele>
        <time>2013-02-22T15:11:53.000Z</time>
      </trkpt>
      <trkpt lat="47.08502" lon="-0.10442">
        <ele>37</ele>
        <time>2013-02-22T15:11:58.000Z</time>
      </trkpt>
      <trkpt lat="47.08503" lon="-0.10441">
        <ele>37</ele>
        <time>2013-02-22T15:11:59.000Z</time>
      </trkpt>
      <trkpt lat="47.08504" lon="-0.10438">
        <ele>37</ele>
        <time>2013-02-22T15:12:01.000Z</time>
      </trkpt>
      <trkpt lat="47.08505" lon="-0.10435">
        <ele>37</ele>
        <time>2013-02-22T15:12:02.000Z</time>
      </trkpt>
      <trkpt lat="47.08507" lon="-0.10429">
        <ele>37</ele>
        <time>2013-02-22T15:12:04.000Z</time>
      </trkpt>
      <trkpt lat="47.08508" lon="-0.10425">
        <ele>37</ele>
        <time>2013-02-22T15:12:05.000Z</time>
      </trkpt>
      <trkpt lat="47.0851" lon="-0.10421">
        <ele>37</ele>
        <time>2013-02-22T15:12:07.000Z</time>
      </trkpt>
      <trkpt lat="47.08511" lon="-0.10419">
        <ele>37</ele>
        <time>2013-02-22T15:12:08.000Z</time>
      </trkpt>
      <trkpt lat="47.08512" lon="-0.10414">
        <ele>36</ele>
        <time>2013-02-22T15:12:13.000Z</time>
      </trkpt>
      <trkpt lat="47.08512" lon="-0.10412">
        <ele>36</ele>
        <time>2013-02-22T15:12:14.000Z</time>
      </trkpt>
      <trkpt lat="47.08513" lon="-0.10407">
        <ele>36</ele>
        <time>2013-02-22T15:12:16.000Z</time>
      </trkpt>
      <trkpt lat="47.08514" lon="-0.10405">
        <ele>36</ele>
        <time>2013-02-22T15:12:17.000Z</time>
      </trkpt>
      <trkpt lat="47.08516" lon="-0.104">
        <ele>36</ele>
        <time>2013-02-22T15:12:21.000Z</time>
      </trkpt>
      <trkpt lat="47.08516" lon="-0.10399">
        <ele>36</ele>
        <time>2013-02-22T15:12:22.000Z</time>
      </trkpt>
      <trkpt lat="47.08516" lon="-0.10393">
        <ele>36</ele>
        <time>2013-02-22T15:12:26.000Z</time>
      </trkpt>
      <trkpt lat="47.08516" lon="-0.10392">
        <ele>36</ele>
        <time>2013-02-22T15:12:27.000Z</time>
      </trkpt>
      <trkpt lat="47.08516" lon="-0.10385">
        <ele>36</ele>
        <time>2013-02-22T15:12:31.001Z</time>
      </trkpt>
      <trkpt lat="47.08515" lon="-0.10383">
        <ele>36</ele>
        <time>2013-02-22T15:12:32.001Z</time>
      </trkpt>
      <trkpt lat="47.08513" lon="-0.10379">
        <ele>36</ele>
        <time>2013-02-22T15:12:37.001Z</time>
      </trkpt>
      <trkpt lat="47.08513" lon="-0.10375">
        <ele>36</ele>
        <time>2013-02-22T15:12:38.001Z</time>
      </trkpt>
      <trkpt lat="47.08511" lon="-0.10371">
        <ele>36</ele>
        <time>2013-02-22T15:12:41.001Z</time>
      </trkpt>
      <trkpt lat="47.0851" lon="-0.1037">
        <ele>36</ele>
        <time>2013-02-22T15:12:42.001Z</time>
      </trkpt>
      <trkpt lat="47.08508" lon="-0.10364">
        <ele>36</ele>
        <time>2013-02-22T15:12:47.001Z</time>
      </trkpt>
      <trkpt lat="47.08508" lon="-0.10362">
        <ele>35</ele>
        <time>2013-02-22T15:12:48.001Z</time>
      </trkpt>
      <trkpt lat="47.08507" lon="-0.10358">
        <ele>35</ele>
        <time>2013-02-22T15:12:50.001Z</time>
      </trkpt>
      <trkpt lat="47.08507" lon="-0.10355">
        <ele>35</ele>
        <time>2013-02-22T15:12:51.001Z</time>
      </trkpt>
      <trkpt lat="47.08507" lon="-0.10349">
        <ele>35</ele>
        <time>2013-02-22T15:12:53.001Z</time>
      </trkpt>
      <trkpt lat="47.08506" lon="-0.10346">
        <ele>35</ele>
        <time>2013-02-22T15:12:54.001Z</time>
      </trkpt>
      <trkpt lat="47.08506" lon="-0.10342">
        <ele>35</ele>
        <time>2013-02-22T15:12:57.001Z</time>
      </trkpt>
      <trkpt lat="47.08506" lon="-0.10337">
        <ele>35</ele>
        <time>2013-02-22T15:12:58.001Z</time>
      </trkpt>
      <trkpt lat="47.08506" lon="-0.10334">
        <ele>35</ele>
        <time>2013-02-22T15:12:59.001Z</time>
      </trkpt>
      <trkpt lat="47.08506" lon="-0.1033">
        <ele>35</ele>
        <time>2013-02-22T15:13:00.001Z</time>
      </trkpt>
      <trkpt lat="47.08505" lon="-0.10324">
        <ele>35</ele>
        <time>2013-02-22T15:13:05.001Z</time>
      </trkpt>
      <trkpt lat="47.08505" lon="-0.10322">
        <ele>35</ele>
        <time>2013-02-22T15:13:06.001Z</time>
      </trkpt>
      <trkpt lat="47.08505" lon="-0.10317">
        <ele>35</ele>
        <time>2013-02-22T15:13:08.001Z</time>
      </trkpt>
      <trkpt lat="47.08505" lon="-0.10313">
        <ele>35</ele>
        <time>2013-02-22T15:13:09.001Z</time>
      </trkpt>
      <trkpt lat="47.08504" lon="-0.10309">
        <ele>35</ele>
        <time>2013-02-22T15:13:12.001Z</time>
      </trkpt>
      <trkpt lat="47.08504" lon="-0.10305">
        <ele>35</ele>
        <time>2013-02-22T15:13:13.001Z</time>
      </trkpt>
      <trkpt lat="47.08504" lon="-0.103">
        <ele>35</ele>
        <time>2013-02-22T15:13:15.001Z</time>
      </trkpt>
      <trkpt lat="47.08504" lon="-0.10298">
        <ele>35</ele>
        <time>2013-02-22T15:13:16.001Z</time>
      </trkpt>
      <trkpt lat="47.08504" lon="-0.10292">
        <ele>35</ele>
        <time>2013-02-22T15:13:20.001Z</time>
      </trkpt>
      <trkpt lat="47.08504" lon="-0.10291">
        <ele>35</ele>
        <time>2013-02-22T15:13:21.001Z</time>
      </trkpt>
      <trkpt lat="47.08504" lon="-0.10285">
        <ele>35</ele>
        <time>2013-02-22T15:13:24.001Z</time>
      </trkpt>
      <trkpt lat="47.08503" lon="-0.10284">
        <ele>35</ele>
        <time>2013-02-22T15:13:25.001Z</time>
      </trkpt>
      <trkpt lat="47.08502" lon="-0.10278">
        <ele>35</ele>
        <time>2013-02-22T15:13:29.001Z</time>
      </trkpt>
      <trkpt lat="47.08501" lon="-0.10276">
        <ele>36</ele>
        <time>2013-02-22T15:13:30.001Z</time>
      </trkpt>
      <trkpt lat="47.085" lon="-0.1027">
        <ele>36</ele>
        <time>2013-02-22T15:13:32.001Z</time>
      </trkpt>
      <trkpt lat="47.085" lon="-0.10267">
        <ele>36</ele>
        <time>2013-02-22T15:13:33.001Z</time>
      </trkpt>
      <trkpt lat="47.08499" lon="-0.10262">
        <ele>36</ele>
        <time>2013-02-22T15:13:35.001Z</time>
      </trkpt>
      <trkpt lat="47.08499" lon="-0.1026">
        <ele>36</ele>
        <time>2013-02-22T15:13:36.001Z</time>
      </trkpt>
      <trkpt lat="47.08499" lon="-0.10255">
        <ele>36</ele>
        <time>2013-02-22T15:13:39.001Z</time>
      </trkpt>
      <trkpt lat="47.08499" lon="-0.10254">
        <ele>36</ele>
        <time>2013-02-22T15:13:40.001Z</time>
      </trkpt>
      <trkpt lat="47.08498" lon="-0.10248">
        <ele>36</ele>
        <time>2013-02-22T15:13:44.001Z</time>
      </trkpt>
      <trkpt lat="47.08498" lon="-0.10246">
        <ele>36</ele>
        <time>2013-02-22T15:13:45.001Z</time>
      </trkpt>
      <trkpt lat="47.08498" lon="-0.1024">
        <ele>36</ele>
        <time>2013-02-22T15:13:48.001Z</time>
      </trkpt>
      <trkpt lat="47.08498" lon="-0.10238">
        <ele>36</ele>
        <time>2013-02-22T15:13:49.001Z</time>
      </trkpt>
      <trkpt lat="47.08498" lon="-0.10232">
        <ele>36</ele>
        <time>2013-02-22T15:13:54.001Z</time>
      </trkpt>
      <trkpt lat="47.08498" lon="-0.10229">
        <ele>36</ele>
        <time>2013-02-22T15:13:55.001Z</time>
      </trkpt>
      <trkpt lat="47.08498" lon="-0.10225">
        <ele>36</ele>
        <time>2013-02-22T15:13:58.001Z</time>
      </trkpt>
      <trkpt lat="47.08497" lon="-0.10222">
        <ele>36</ele>
        <time>2013-02-22T15:13:59.001Z</time>
      </trkpt>
      <trkpt lat="47.08496" lon="-0.10217">
        <ele>36</ele>
        <time>2013-02-22T15:14:01.001Z</time>
      </trkpt>
      <trkpt lat="47.08496" lon="-0.10214">
        <ele>36</ele>
        <time>2013-02-22T15:14:02.001Z</time>
      </trkpt>
      <trkpt lat="47.08496" lon="-0.10208">
        <ele>36</ele>
        <time>2013-02-22T15:14:04.001Z</time>
      </trkpt>
      <trkpt lat="47.08495" lon="-0.10205">
        <ele>36</ele>
        <time>2013-02-22T15:14:05.001Z</time>
      </trkpt>
      <trkpt lat="47.08496" lon="-0.10199">
        <ele>36</ele>
        <time>2013-02-22T15:14:07.001Z</time>
      </trkpt>
      <trkpt lat="47.08496" lon="-0.10197">
        <ele>36</ele>
        <time>2013-02-22T15:14:08.001Z</time>
      </trkpt>
      <trkpt lat="47.08496" lon="-0.10192">
        <ele>36</ele>
        <time>2013-02-22T15:14:10.001Z</time>
      </trkpt>
      <trkpt lat="47.08496" lon="-0.10189">
        <ele>36</ele>
        <time>2013-02-22T15:14:11.001Z</time>
      </trkpt>
      <trkpt lat="47.08496" lon="-0.10184">
        <ele>36</ele>
        <time>2013-02-22T15:14:13.001Z</time>
      </trkpt>
      <trkpt lat="47.08496" lon="-0.10181">
        <ele>35</ele>
        <time>2013-02-22T15:14:14.001Z</time>
      </trkpt>
      <trkpt lat="47.08496" lon="-0.10175">
        <ele>35</ele>
        <time>2013-02-22T15:14:19.001Z</time>
      </trkpt>
      <trkpt lat="47.08496" lon="-0.10173">
        <ele>35</ele>
        <time>2013-02-22T15:14:20.001Z</time>
      </trkpt>
      <trkpt lat="47.08496" lon="-0.10168">
        <ele>35</ele>
        <time>2013-02-22T15:14:24.001Z</time>
      </trkpt>
      <trkpt lat="47.08496" lon="-0.10167">
        <ele>35</ele>
        <time>2013-02-22T15:14:25.001Z</time>
      </trkpt>
      <trkpt lat="47.08496" lon="-0.10163">
        <ele>35</ele>
        <time>2013-02-22T15:14:27.001Z</time>
      </trkpt>
      <trkpt lat="47.08496" lon="-0.10158">
        <ele>35</ele>
        <time>2013-02-22T15:14:29.001Z</time>
      </trkpt>
      <trkpt lat="47.08495" lon="-0.10154">
        <ele>35</ele>
        <time>2013-02-22T15:14:32.001Z</time>
      </trkpt>
      <trkpt lat="47.08495" lon="-0.10151">
        <ele>35</ele>
        <time>2013-02-22T15:14:33.001Z</time>
      </trkpt>
      <trkpt lat="47.08495" lon="-0.10147">
        <ele>36</ele>
        <time>2013-02-22T15:14:35.001Z</time>
      </trkpt>
      <trkpt lat="47.08495" lon="-0.10144">
        <ele>36</ele>
        <time>2013-02-22T15:14:36.001Z</time>
      </trkpt>
      <trkpt lat="47.08495" lon="-0.10139">
        <ele>36</ele>
        <time>2013-02-22T15:14:39.001Z</time>
      </trkpt>
      <trkpt lat="47.08496" lon="-0.10137">
        <ele>36</ele>
        <time>2013-02-22T15:14:40.001Z</time>
      </trkpt>
      <trkpt lat="47.08495" lon="-0.10131">
        <ele>36</ele>
        <time>2013-02-22T15:14:43.001Z</time>
      </trkpt>
      <trkpt lat="47.08495" lon="-0.10128">
        <ele>36</ele>
        <time>2013-02-22T15:14:44.001Z</time>
      </trkpt>
      <trkpt lat="47.08495" lon="-0.10122">
        <ele>36</ele>
        <time>2013-02-22T15:14:47.001Z</time>
      </trkpt>
      <trkpt lat="47.08494" lon="-0.1012">
        <ele>36</ele>
        <time>2013-02-22T15:14:48.001Z</time>
      </trkpt>
      <trkpt lat="47.08493" lon="-0.10114">
        <ele>36</ele>
        <time>2013-02-22T15:14:50.001Z</time>
      </trkpt>
      <trkpt lat="47.08492" lon="-0.10112">
        <ele>36</ele>
        <time>2013-02-22T15:14:51.001Z</time>
      </trkpt>
      <trkpt lat="47.08492" lon="-0.10107">
        <ele>36</ele>
        <time>2013-02-22T15:14:54.001Z</time>
      </trkpt>
      <trkpt lat="47.08491" lon="-0.10106">
        <ele>36</ele>
        <time>2013-02-22T15:14:55.001Z</time>
      </trkpt>
      <trkpt lat="47.08489" lon="-0.10101">
        <ele>36</ele>
        <time>2013-02-22T15:15:01.001Z</time>
      </trkpt>
      <trkpt lat="47.0849" lon="-0.10099">
        <ele>36</ele>
        <time>2013-02-22T15:15:02.001Z</time>
      </trkpt>
      <trkpt lat="47.0849" lon="-0.10093">
        <ele>35</ele>
        <time>2013-02-22T15:15:06.001Z</time>
      </trkpt>
      <trkpt lat="47.0849" lon="-0.10091">
        <ele>35</ele>
        <time>2013-02-22T15:15:07.001Z</time>
      </trkpt>
      <trkpt lat="47.08489" lon="-0.10085">
        <ele>35</ele>
        <time>2013-02-22T15:15:18.001Z</time>
      </trkpt>
      <trkpt lat="47.08489" lon="-0.10083">
        <ele>35</ele>
        <time>2013-02-22T15:15:19.001Z</time>
      </trkpt>
      <trkpt lat="47.08487" lon="-0.10078">
        <ele>35</ele>
        <time>2013-02-22T15:15:26.001Z</time>
      </trkpt>
      <trkpt lat="47.08487" lon="-0.10077">
        <ele>35</ele>
        <time>2013-02-22T15:15:27.001Z</time>
      </trkpt>
      <trkpt lat="47.08484" lon="-0.10073">
        <ele>36</ele>
        <time>2013-02-22T15:15:34.001Z</time>
      </trkpt>
      <trkpt lat="47.08484" lon="-0.1007">
        <ele>36</ele>
        <time>2013-02-22T15:15:35.001Z</time>
      </trkpt>
      <trkpt lat="47.08483" lon="-0.10064">
        <ele>36</ele>
        <time>2013-02-22T15:15:37.001Z</time>
      </trkpt>
      <trkpt lat="47.08483" lon="-0.10062">
        <ele>36</ele>
        <time>2013-02-22T15:15:38.001Z</time>
      </trkpt>
      <trkpt lat="47.08483" lon="-0.10056">
        <ele>36</ele>
        <time>2013-02-22T15:15:41.001Z</time>
      </trkpt>
      <trkpt lat="47.08483" lon="-0.10052">
        <ele>36</ele>
        <time>2013-02-22T15:15:42.001Z</time>
      </trkpt>
      <trkpt lat="47.08482" lon="-0.10047">
        <ele>36</ele>
        <time>2013-02-22T15:15:44.001Z</time>
      </trkpt>
      <trkpt lat="47.08482" lon="-0.10044">
        <ele>36</ele>
        <time>2013-02-22T15:15:45.001Z</time>
      </trkpt>
      <trkpt lat="47.08482" lon="-0.10037">
        <ele>36</ele>
        <time>2013-02-22T15:15:48.001Z</time>
      </trkpt>
      <trkpt lat="47.08481" lon="-0.10036">
        <ele>36</ele>
        <time>2013-02-22T15:15:49.001Z</time>
      </trkpt>
      <trkpt lat="47.0848" lon="-0.10031">
        <ele>36</ele>
        <time>2013-02-22T15:15:53.001Z</time>
      </trkpt>
      <trkpt lat="47.0848" lon="-0.10029">
        <ele>36</ele>
        <time>2013-02-22T15:15:54.001Z</time>
      </trkpt>
      <trkpt lat="47.0848" lon="-0.10023">
        <ele>36</ele>
        <time>2013-02-22T15:15:56.001Z</time>
      </trkpt>
      <trkpt lat="47.08479" lon="-0.10021">
        <ele>36</ele>
        <time>2013-02-22T15:15:57.001Z</time>
      </trkpt>
      <trkpt lat="47.08476" lon="-0.10017">
        <ele>36</ele>
        <time>2013-02-22T15:15:59.001Z</time>
      </trkpt>
      <trkpt lat="47.08476" lon="-0.10015">
        <ele>36</ele>
        <time>2013-02-22T15:16:00.001Z</time>
      </trkpt>
      <trkpt lat="47.08474" lon="-0.1001">
        <ele>36</ele>
        <time>2013-02-22T15:16:02.001Z</time>
      </trkpt>
      <trkpt lat="47.08472" lon="-0.10004">
        <ele>36</ele>
        <time>2013-02-22T15:16:03.001Z</time>
      </trkpt>
      <trkpt lat="47.0847" lon="-0.09999">
        <ele>36</ele>
        <time>2013-02-22T15:16:08.001Z</time>
      </trkpt>
      <trkpt lat="47.08469" lon="-0.09997">
        <ele>36</ele>
        <time>2013-02-22T15:16:09.001Z</time>
      </trkpt>
      <trkpt lat="47.08466" lon="-0.09993">
        <ele>36</ele>
        <time>2013-02-22T15:16:16.001Z</time>
      </trkpt>
      <trkpt lat="47.08466" lon="-0.09992">
        <ele>36</ele>
        <time>2013-02-22T15:16:17.001Z</time>
      </trkpt>
      <trkpt lat="47.08465" lon="-0.09985">
        <ele>37</ele>
        <time>2013-02-22T15:16:22.001Z</time>
      </trkpt>
      <trkpt lat="47.08465" lon="-0.09984">
        <ele>37</ele>
        <time>2013-02-22T15:16:23.001Z</time>
      </trkpt>
      <trkpt lat="47.08464" lon="-0.09979">
        <ele>37</ele>
        <time>2013-02-22T15:16:27.001Z</time>
      </trkpt>
      <trkpt lat="47.08464" lon="-0.09977">
        <ele>37</ele>
        <time>2013-02-22T15:16:28.001Z</time>
      </trkpt>
      <trkpt lat="47.08463" lon="-0.09972">
        <ele>37</ele>
        <time>2013-02-22T15:16:31.001Z</time>
      </trkpt>
      <trkpt lat="47.08462" lon="-0.09969">
        <ele>37</ele>
        <time>2013-02-22T15:16:32.001Z</time>
      </trkpt>
      <trkpt lat="47.0846" lon="-0.09965">
        <ele>37</ele>
        <time>2013-02-22T15:16:37.001Z</time>
      </trkpt>
      <trkpt lat="47.08459" lon="-0.09963">
        <ele>37</ele>
        <time>2013-02-22T15:16:38.001Z</time>
      </trkpt>
      <trkpt lat="47.08458" lon="-0.09958">
        <ele>37</ele>
        <time>2013-02-22T15:16:40.001Z</time>
      </trkpt>
      <trkpt lat="47.08457" lon="-0.09956">
        <ele>37</ele>
        <time>2013-02-22T15:16:41.001Z</time>
      </trkpt>
      <trkpt lat="47.08455" lon="-0.09952">
        <ele>37</ele>
        <time>2013-02-22T15:16:43.001Z</time>
      </trkpt>
      <trkpt lat="47.08454" lon="-0.09949">
        <ele>37</ele>
        <time>2013-02-22T15:16:44.001Z</time>
      </trkpt>
      <trkpt lat="47.08452" lon="-0.09945">
        <ele>37</ele>
        <time>2013-02-22T15:16:48.001Z</time>
      </trkpt>
      <trkpt lat="47.08451" lon="-0.09943">
        <ele>37</ele>
        <time>2013-02-22T15:16:49.001Z</time>
      </trkpt>
      <trkpt lat="47.0845" lon="-0.09938">
        <ele>37</ele>
        <time>2013-02-22T15:16:51.001Z</time>
      </trkpt>
      <trkpt lat="47.08448" lon="-0.09935">
        <ele>37</ele>
        <time>2013-02-22T15:16:52.001Z</time>
      </trkpt>
      <trkpt lat="47.08447" lon="-0.09932">
        <ele>37</ele>
        <time>2013-02-22T15:16:54.001Z</time>
      </trkpt>
      <trkpt lat="47.08446" lon="-0.09929">
        <ele>37</ele>
        <time>2013-02-22T15:16:55.001Z</time>
      </trkpt>
      <trkpt lat="47.08444" lon="-0.09924">
        <ele>37</ele>
        <time>2013-02-22T15:16:59.001Z</time>
      </trkpt>
      <trkpt lat="47.08444" lon="-0.09922">
        <ele>37</ele>
        <time>2013-02-22T15:17:00.001Z</time>
      </trkpt>
      <trkpt lat="47.08443" lon="-0.09917">
        <ele>37</ele>
        <time>2013-02-22T15:17:02.001Z</time>
      </trkpt>
      <trkpt lat="47.08443" lon="-0.09914">
        <ele>38</ele>
        <time>2013-02-22T15:17:03.001Z</time>
      </trkpt>
      <trkpt lat="47.08441" lon="-0.09909">
        <ele>38</ele>
        <time>2013-02-22T15:17:05.001Z</time>
      </trkpt>
      <trkpt lat="47.0844" lon="-0.09907">
        <ele>38</ele>
        <time>2013-02-22T15:17:06.001Z</time>
      </trkpt>
      <trkpt lat="47.08438" lon="-0.09904">
        <ele>38</ele>
        <time>2013-02-22T15:17:08.001Z</time>
      </trkpt>
      <trkpt lat="47.08437" lon="-0.09901">
        <ele>38</ele>
        <time>2013-02-22T15:17:09.001Z</time>
      </trkpt>
      <trkpt lat="47.08435" lon="-0.09896">
        <ele>39</ele>
        <time>2013-02-22T15:17:12.001Z</time>
      </trkpt>
      <trkpt lat="47.08435" lon="-0.09895">
        <ele>39</ele>
        <time>2013-02-22T15:17:13.001Z</time>
      </trkpt>
      <trkpt lat="47.08433" lon="-0.09889">
        <ele>39</ele>
        <time>2013-02-22T15:17:18.001Z</time>
      </trkpt>
      <trkpt lat="47.08433" lon="-0.09888">
        <ele>39</ele>
        <time>2013-02-22T15:17:19.001Z</time>
      </trkpt>
      <trkpt lat="47.08432" lon="-0.09882">
        <ele>39</ele>
        <time>2013-02-22T15:17:26.001Z</time>
      </trkpt>
      <trkpt lat="47.08432" lon="-0.09881">
        <ele>39</ele>
        <time>2013-02-22T15:17:27.001Z</time>
      </trkpt>
      <trkpt lat="47.08434" lon="-0.09886">
        <ele>39</ele>
        <time>2013-02-22T15:19:50.001Z</time>
      </trkpt>
      <trkpt lat="47.08434" lon="-0.09887">
        <ele>39</ele>
        <time>2013-02-22T15:19:51.001Z</time>
      </trkpt>
      <trkpt lat="47.08435" lon="-0.09893">
        <ele>39</ele>
        <time>2013-02-22T15:19:55.001Z</time>
      </trkpt>
      <trkpt lat="47.08436" lon="-0.09894">
        <ele>39</ele>
        <time>2013-02-22T15:19:56.001Z</time>
      </trkpt>
      <trkpt lat="47.08438" lon="-0.09899">
        <ele>39</ele>
        <time>2013-02-22T15:19:58.001Z</time>
      </trkpt>
      <trkpt lat="47.08438" lon="-0.09901">
        <ele>38</ele>
        <time>2013-02-22T15:19:59.001Z</time>
      </trkpt>
      <trkpt lat="47.08439" lon="-0.09907">
        <ele>38</ele>
        <time>2013-02-22T15:20:03.001Z</time>
      </trkpt>
      <trkpt lat="47.0844" lon="-0.09908">
        <ele>38</ele>
        <time>2013-02-22T15:20:04.001Z</time>
      </trkpt>
      <trkpt lat="47.08442" lon="-0.09914">
        <ele>38</ele>
        <time>2013-02-22T15:20:08.001Z</time>
      </trkpt>
      <trkpt lat="47.08441" lon="-0.09916">
        <ele>38</ele>
        <time>2013-02-22T15:20:09.001Z</time>
      </trkpt>
      <trkpt lat="47.08439" lon="-0.09922">
        <ele>37</ele>
        <time>2013-02-22T15:20:11.001Z</time>
      </trkpt>
      <trkpt lat="47.08438" lon="-0.09926">
        <ele>37</ele>
        <time>2013-02-22T15:20:12.001Z</time>
      </trkpt>
      <trkpt lat="47.0844" lon="-0.09931">
        <ele>37</ele>
        <time>2013-02-22T15:20:16.001Z</time>
      </trkpt>
      <trkpt lat="47.0844" lon="-0.09933">
        <ele>37</ele>
        <time>2013-02-22T15:20:17.001Z</time>
      </trkpt>
      <trkpt lat="47.08442" lon="-0.09937">
        <ele>37</ele>
        <time>2013-02-22T15:20:19.001Z</time>
      </trkpt>
      <trkpt lat="47.08443" lon="-0.09939">
        <ele>37</ele>
        <time>2013-02-22T15:20:20.001Z</time>
      </trkpt>
      <trkpt lat="47.08443" lon="-0.09944">
        <ele>37</ele>
        <time>2013-02-22T15:20:23.001Z</time>
      </trkpt>
      <trkpt lat="47.08443" lon="-0.09946">
        <ele>37</ele>
        <time>2013-02-22T15:20:24.001Z</time>
      </trkpt>
      <trkpt lat="47.08445" lon="-0.09951">
        <ele>37</ele>
        <time>2013-02-22T15:20:26.001Z</time>
      </trkpt>
      <trkpt lat="47.08445" lon="-0.09955">
        <ele>37</ele>
        <time>2013-02-22T15:20:27.001Z</time>
      </trkpt>
      <trkpt lat="47.08446" lon="-0.0996">
        <ele>37</ele>
        <time>2013-02-22T15:20:33.001Z</time>
      </trkpt>
      <trkpt lat="47.08447" lon="-0.09962">
        <ele>37</ele>
        <time>2013-02-22T15:20:34.001Z</time>
      </trkpt>
      <trkpt lat="47.08449" lon="-0.09967">
        <ele>37</ele>
        <time>2013-02-22T15:20:36.001Z</time>
      </trkpt>
      <trkpt lat="47.0845" lon="-0.09969">
        <ele>37</ele>
        <time>2013-02-22T15:20:37.001Z</time>
      </trkpt>
      <trkpt lat="47.08452" lon="-0.09974">
        <ele>37</ele>
        <time>2013-02-22T15:20:42.001Z</time>
      </trkpt>
      <trkpt lat="47.08453" lon="-0.09975">
        <ele>37</ele>
        <time>2013-02-22T15:20:43.001Z</time>
      </trkpt>
      <trkpt lat="47.08454" lon="-0.0998">
        <ele>37</ele>
        <time>2013-02-22T15:20:45.001Z</time>
      </trkpt>
      <trkpt lat="47.08455" lon="-0.09984">
        <ele>37</ele>
        <time>2013-02-22T15:20:46.001Z</time>
      </trkpt>
      <trkpt lat="47.08455" lon="-0.09989">
        <ele>37</ele>
        <time>2013-02-22T15:20:49.001Z</time>
      </trkpt>
      <trkpt lat="47.08456" lon="-0.09993">
        <ele>36</ele>
        <time>2013-02-22T15:20:50.001Z</time>
      </trkpt>
      <trkpt lat="47.08455" lon="-0.09999">
        <ele>36</ele>
        <time>2013-02-22T15:20:54.001Z</time>
      </trkpt>
      <trkpt lat="47.08455" lon="-0.1">
        <ele>36</ele>
        <time>2013-02-22T15:20:55.001Z</time>
      </trkpt>
      <trkpt lat="47.08455" lon="-0.10006">
        <ele>36</ele>
        <time>2013-02-22T15:20:59.001Z</time>
      </trkpt>
      <trkpt lat="47.08457" lon="-0.10009">
        <ele>36</ele>
        <time>2013-02-22T15:21:00.001Z</time>
      </trkpt>
      <trkpt lat="47.08458" lon="-0.10015">
        <ele>36</ele>
        <time>2013-02-22T15:21:06.001Z</time>
      </trkpt>
      <trkpt lat="47.08457" lon="-0.10017">
        <ele>36</ele>
        <time>2013-02-22T15:21:07.001Z</time>
      </trkpt>
      <trkpt lat="47.08458" lon="-0.10023">
        <ele>36</ele>
        <time>2013-02-22T15:21:10.001Z</time>
      </trkpt>
      <trkpt lat="47.08459" lon="-0.10024">
        <ele>36</ele>
        <time>2013-02-22T15:21:11.001Z</time>
      </trkpt>
      <trkpt lat="47.08461" lon="-0.10029">
        <ele>36</ele>
        <time>2013-02-22T15:21:14.001Z</time>
      </trkpt>
      <trkpt lat="47.08461" lon="-0.10031">
        <ele>36</ele>
        <time>2013-02-22T15:21:15.001Z</time>
      </trkpt>
      <trkpt lat="47.08462" lon="-0.10035">
        <ele>36</ele>
        <time>2013-02-22T15:21:17.001Z</time>
      </trkpt>
      <trkpt lat="47.08463" lon="-0.10039">
        <ele>36</ele>
        <time>2013-02-22T15:21:18.001Z</time>
      </trkpt>
      <trkpt lat="47.08464" lon="-0.10042">
        <ele>36</ele>
        <time>2013-02-22T15:21:19.001Z</time>
      </trkpt>
      <trkpt lat="47.08465" lon="-0.10044">
        <ele>36</ele>
        <time>2013-02-22T15:21:20.001Z</time>
      </trkpt>
      <trkpt lat="47.08467" lon="-0.1005">
        <ele>36</ele>
        <time>2013-02-22T15:21:22.001Z</time>
      </trkpt>
      <trkpt lat="47.08468" lon="-0.10053">
        <ele>36</ele>
        <time>2013-02-22T15:21:23.001Z</time>
      </trkpt>
      <trkpt lat="47.0847" lon="-0.10058">
        <ele>36</ele>
        <time>2013-02-22T15:21:26.001Z</time>
      </trkpt>
      <trkpt lat="47.08471" lon="-0.1006">
        <ele>36</ele>
        <time>2013-02-22T15:21:27.001Z</time>
      </trkpt>
      <trkpt lat="47.08472" lon="-0.10064">
        <ele>36</ele>
        <time>2013-02-22T15:21:30.001Z</time>
      </trkpt>
      <trkpt lat="47.08473" lon="-0.10066">
        <ele>36</ele>
        <time>2013-02-22T15:21:31.001Z</time>
      </trkpt>
      <trkpt lat="47.08475" lon="-0.1007">
        <ele>36</ele>
        <time>2013-02-22T15:21:36.001Z</time>
      </trkpt>
      <trkpt lat="47.08475" lon="-0.10072">
        <ele>36</ele>
        <time>2013-02-22T15:21:37.001Z</time>
      </trkpt>
      <trkpt lat="47.08478" lon="-0.10077">
        <ele>36</ele>
        <time>2013-02-22T15:21:40.001Z</time>
      </trkpt>
      <trkpt lat="47.08479" lon="-0.10079">
        <ele>36</ele>
        <time>2013-02-22T15:21:41.001Z</time>
      </trkpt>
      <trkpt lat="47.0848" lon="-0.10085">
        <ele>36</ele>
        <time>2013-02-22T15:21:45.001Z</time>
      </trkpt>
      <trkpt lat="47.0848" lon="-0.10086">
        <ele>36</ele>
        <time>2013-02-22T15:21:46.001Z</time>
      </trkpt>
      <trkpt lat="47.08481" lon="-0.10092">
        <ele>36</ele>
        <time>2013-02-22T15:21:52.001Z</time>
      </trkpt>
      <trkpt lat="47.08481" lon="-0.10094">
        <ele>36</ele>
        <time>2013-02-22T15:21:53.001Z</time>
      </trkpt>
      <trkpt lat="47.0848" lon="-0.10099">
        <ele>36</ele>
        <time>2013-02-22T15:21:56.001Z</time>
      </trkpt>
      <trkpt lat="47.0848" lon="-0.10101">
        <ele>36</ele>
        <time>2013-02-22T15:21:57.001Z</time>
      </trkpt>
      <trkpt lat="47.08479" lon="-0.10106">
        <ele>36</ele>
        <time>2013-02-22T15:22:00.001Z</time>
      </trkpt>
      <trkpt lat="47.08481" lon="-0.10108">
        <ele>36</ele>
        <time>2013-02-22T15:22:01.001Z</time>
      </trkpt>
      <trkpt lat="47.08482" lon="-0.10114">
        <ele>36</ele>
        <time>2013-02-22T15:22:04.001Z</time>
      </trkpt>
      <trkpt lat="47.08482" lon="-0.10115">
        <ele>36</ele>
        <time>2013-02-22T15:22:05.001Z</time>
      </trkpt>
      <trkpt lat="47.08482" lon="-0.10121">
        <ele>36</ele>
        <time>2013-02-22T15:22:08.001Z</time>
      </trkpt>
      <trkpt lat="47.08483" lon="-0.10123">
        <ele>36</ele>
        <time>2013-02-22T15:22:09.001Z</time>
      </trkpt>
      <trkpt lat="47.08485" lon="-0.10128">
        <ele>36</ele>
        <time>2013-02-22T15:22:12.001Z</time>
      </trkpt>
      <trkpt lat="47.08485" lon="-0.1013">
        <ele>36</ele>
        <time>2013-02-22T15:22:13.001Z</time>
      </trkpt>
      <trkpt lat="47.08486" lon="-0.10135">
        <ele>36</ele>
        <time>2013-02-22T15:22:17.001Z</time>
      </trkpt>
      <trkpt lat="47.08487" lon="-0.10137">
        <ele>36</ele>
        <time>2013-02-22T15:22:18.001Z</time>
      </trkpt>
      <trkpt lat="47.08487" lon="-0.10143">
        <ele>36</ele>
        <time>2013-02-22T15:22:22.001Z</time>
      </trkpt>
      <trkpt lat="47.08488" lon="-0.10144">
        <ele>36</ele>
        <time>2013-02-22T15:22:23.001Z</time>
      </trkpt>
      <trkpt lat="47.08488" lon="-0.1015">
        <ele>36</ele>
        <time>2013-02-22T15:22:26.001Z</time>
      </trkpt>
      <trkpt lat="47.08488" lon="-0.10151">
        <ele>36</ele>
        <time>2013-02-22T15:22:27.001Z</time>
      </trkpt>
      <trkpt lat="47.08489" lon="-0.10156">
        <ele>35</ele>
        <time>2013-02-22T15:22:30.001Z</time>
      </trkpt>
      <trkpt lat="47.08489" lon="-0.10158">
        <ele>35</ele>
        <time>2013-02-22T15:22:31.001Z</time>
      </trkpt>
      <trkpt lat="47.08491" lon="-0.10164">
        <ele>35</ele>
        <time>2013-02-22T15:22:35.001Z</time>
      </trkpt>
      <trkpt lat="47.08491" lon="-0.10166">
        <ele>35</ele>
        <time>2013-02-22T15:22:36.001Z</time>
      </trkpt>
      <trkpt lat="47.08492" lon="-0.10172">
        <ele>35</ele>
        <time>2013-02-22T15:22:39.001Z</time>
      </trkpt>
      <trkpt lat="47.08493" lon="-0.10173">
        <ele>35</ele>
        <time>2013-02-22T15:22:40.001Z</time>
      </trkpt>
      <trkpt lat="47.08495" lon="-0.10177">
        <ele>35</ele>
        <time>2013-02-22T15:22:43.001Z</time>
      </trkpt>
      <trkpt lat="47.08495" lon="-0.10179">
        <ele>35</ele>
        <time>2013-02-22T15:22:44.001Z</time>
      </trkpt>
      <trkpt lat="47.08496" lon="-0.10185">
        <ele>36</ele>
        <time>2013-02-22T15:22:48.001Z</time>
      </trkpt>
      <trkpt lat="47.08496" lon="-0.10186">
        <ele>36</ele>
        <time>2013-02-22T15:22:49.001Z</time>
      </trkpt>
      <trkpt lat="47.08497" lon="-0.10192">
        <ele>36</ele>
        <time>2013-02-22T15:22:52.001Z</time>
      </trkpt>
      <trkpt lat="47.08497" lon="-0.10194">
        <ele>36</ele>
        <time>2013-02-22T15:22:53.001Z</time>
      </trkpt>
      <trkpt lat="47.08498" lon="-0.102">
        <ele>36</ele>
        <time>2013-02-22T15:22:56.001Z</time>
      </trkpt>
      <trkpt lat="47.08499" lon="-0.10201">
        <ele>36</ele>
        <time>2013-02-22T15:22:57.001Z</time>
      </trkpt>
      <trkpt lat="47.085" lon="-0.10207">
        <ele>36</ele>
        <time>2013-02-22T15:23:01.001Z</time>
      </trkpt>
      <trkpt lat="47.08499" lon="-0.10208">
        <ele>36</ele>
        <time>2013-02-22T15:23:02.001Z</time>
      </trkpt>
      <trkpt lat="47.08499" lon="-0.10214">
        <ele>36</ele>
        <time>2013-02-22T15:23:05.001Z</time>
      </trkpt>
      <trkpt lat="47.08499" lon="-0.10217">
        <ele>36</ele>
        <time>2013-02-22T15:23:06.001Z</time>
      </trkpt>
      <trkpt lat="47.08499" lon="-0.10222">
        <ele>36</ele>
        <time>2013-02-22T15:23:09.001Z</time>
      </trkpt>
      <trkpt lat="47.08499" lon="-0.10224">
        <ele>36</ele>
        <time>2013-02-22T15:23:10.001Z</time>
      </trkpt>
      <trkpt lat="47.085" lon="-0.10231">
        <ele>36</ele>
        <time>2013-02-22T15:23:13.001Z</time>
      </trkpt>
      <trkpt lat="47.08501" lon="-0.10233">
        <ele>36</ele>
        <time>2013-02-22T15:23:14.001Z</time>
      </trkpt>
      <trkpt lat="47.08501" lon="-0.10239">
        <ele>36</ele>
        <time>2013-02-22T15:23:17.001Z</time>
      </trkpt>
      <trkpt lat="47.08502" lon="-0.10241">
        <ele>36</ele>
        <time>2013-02-22T15:23:18.001Z</time>
      </trkpt>
      <trkpt lat="47.08501" lon="-0.10247">
        <ele>36</ele>
        <time>2013-02-22T15:23:22.001Z</time>
      </trkpt>
      <trkpt lat="47.08501" lon="-0.10249">
        <ele>36</ele>
        <time>2013-02-22T15:23:23.001Z</time>
      </trkpt>
      <trkpt lat="47.08501" lon="-0.10254">
        <ele>36</ele>
        <time>2013-02-22T15:23:25.001Z</time>
      </trkpt>
      <trkpt lat="47.08502" lon="-0.10256">
        <ele>36</ele>
        <time>2013-02-22T15:23:26.001Z</time>
      </trkpt>
      <trkpt lat="47.08502" lon="-0.10262">
        <ele>36</ele>
        <time>2013-02-22T15:23:29.001Z</time>
      </trkpt>
      <trkpt lat="47.08503" lon="-0.10264">
        <ele>36</ele>
        <time>2013-02-22T15:23:30.001Z</time>
      </trkpt>
      <trkpt lat="47.08502" lon="-0.1027">
        <ele>36</ele>
        <time>2013-02-22T15:23:33.001Z</time>
      </trkpt>
      <trkpt lat="47.08502" lon="-0.10271">
        <ele>36</ele>
        <time>2013-02-22T15:23:34.001Z</time>
      </trkpt>
      <trkpt lat="47.08502" lon="-0.10277">
        <ele>35</ele>
        <time>2013-02-22T15:23:37.001Z</time>
      </trkpt>
      <trkpt lat="47.08501" lon="-0.1028">
        <ele>35</ele>
        <time>2013-02-22T15:23:38.001Z</time>
      </trkpt>
      <trkpt lat="47.08501" lon="-0.10285">
        <ele>35</ele>
        <time>2013-02-22T15:23:40.001Z</time>
      </trkpt>
      <trkpt lat="47.08501" lon="-0.10287">
        <ele>35</ele>
        <time>2013-02-22T15:23:41.001Z</time>
      </trkpt>
      <trkpt lat="47.08501" lon="-0.10293">
        <ele>35</ele>
        <time>2013-02-22T15:23:43.001Z</time>
      </trkpt>
      <trkpt lat="47.08502" lon="-0.10295">
        <ele>35</ele>
        <time>2013-02-22T15:23:44.001Z</time>
      </trkpt>
      <trkpt lat="47.08503" lon="-0.10301">
        <ele>35</ele>
        <time>2013-02-22T15:23:47.001Z</time>
      </trkpt>
      <trkpt lat="47.08503" lon="-0.10303">
        <ele>35</ele>
        <time>2013-02-22T15:23:48.001Z</time>
      </trkpt>
      <trkpt lat="47.08504" lon="-0.10309">
        <ele>35</ele>
        <time>2013-02-22T15:23:51.001Z</time>
      </trkpt>
      <trkpt lat="47.08504" lon="-0.1031">
        <ele>35</ele>
        <time>2013-02-22T15:23:52.001Z</time>
      </trkpt>
      <trkpt lat="47.08505" lon="-0.10317">
        <ele>35</ele>
        <time>2013-02-22T15:23:55.001Z</time>
      </trkpt>
      <trkpt lat="47.08505" lon="-0.10319">
        <ele>35</ele>
        <time>2013-02-22T15:23:56.001Z</time>
      </trkpt>
      <trkpt lat="47.08506" lon="-0.10324">
        <ele>35</ele>
        <time>2013-02-22T15:23:59.001Z</time>
      </trkpt>
      <trkpt lat="47.08506" lon="-0.10326">
        <ele>35</ele>
        <time>2013-02-22T15:24:00.001Z</time>
      </trkpt>
      <trkpt lat="47.08506" lon="-0.10331">
        <ele>35</ele>
        <time>2013-02-22T15:24:03.001Z</time>
      </trkpt>
      <trkpt lat="47.08505" lon="-0.10333">
        <ele>35</ele>
        <time>2013-02-22T15:24:04.001Z</time>
      </trkpt>
      <trkpt lat="47.08506" lon="-0.10338">
        <ele>35</ele>
        <time>2013-02-22T15:24:07.001Z</time>
      </trkpt>
      <trkpt lat="47.08506" lon="-0.1034">
        <ele>35</ele>
        <time>2013-02-22T15:24:08.001Z</time>
      </trkpt>
      <trkpt lat="47.08507" lon="-0.10346">
        <ele>35</ele>
        <time>2013-02-22T15:24:11.001Z</time>
      </trkpt>
      <trkpt lat="47.08507" lon="-0.10348">
        <ele>35</ele>
        <time>2013-02-22T15:24:12.001Z</time>
      </trkpt>
      <trkpt lat="47.08507" lon="-0.10354">
        <ele>35</ele>
        <time>2013-02-22T15:24:15.001Z</time>
      </trkpt>
      <trkpt lat="47.08507" lon="-0.10356">
        <ele>35</ele>
        <time>2013-02-22T15:24:16.001Z</time>
      </trkpt>
      <trkpt lat="47.08507" lon="-0.10363">
        <ele>35</ele>
        <time>2013-02-22T15:24:19.001Z</time>
      </trkpt>
      <trkpt lat="47.08507" lon="-0.10364">
        <ele>36</ele>
        <time>2013-02-22T15:24:20.001Z</time>
      </trkpt>
      <trkpt lat="47.08509" lon="-0.1037">
        <ele>36</ele>
        <time>2013-02-22T15:24:25.001Z</time>
      </trkpt>
      <trkpt lat="47.08509" lon="-0.10372">
        <ele>36</ele>
        <time>2013-02-22T15:24:26.001Z</time>
      </trkpt>
      <trkpt lat="47.0851" lon="-0.10376">
        <ele>36</ele>
        <time>2013-02-22T15:24:28.001Z</time>
      </trkpt>
      <trkpt lat="47.0851" lon="-0.10378">
        <ele>36</ele>
        <time>2013-02-22T15:24:29.001Z</time>
      </trkpt>
      <trkpt lat="47.0851" lon="-0.10383">
        <ele>36</ele>
        <time>2013-02-22T15:24:31.001Z</time>
      </trkpt>
      <trkpt lat="47.0851" lon="-0.10386">
        <ele>36</ele>
        <time>2013-02-22T15:24:32.001Z</time>
      </trkpt>
      <trkpt lat="47.0851" lon="-0.10391">
        <ele>36</ele>
        <time>2013-02-22T15:24:35.001Z</time>
      </trkpt>
      <trkpt lat="47.0851" lon="-0.10393">
        <ele>36</ele>
        <time>2013-02-22T15:24:36.001Z</time>
      </trkpt>
      <trkpt lat="47.08509" lon="-0.10399">
        <ele>36</ele>
        <time>2013-02-22T15:24:41.001Z</time>
      </trkpt>
      <trkpt lat="47.08509" lon="-0.10401">
        <ele>36</ele>
        <time>2013-02-22T15:24:42.001Z</time>
      </trkpt>
      <trkpt lat="47.08509" lon="-0.10407">
        <ele>36</ele>
        <time>2013-02-22T15:24:46.001Z</time>
      </trkpt>
      <trkpt lat="47.08509" lon="-0.10408">
        <ele>36</ele>
        <time>2013-02-22T15:24:47.001Z</time>
      </trkpt>
      <trkpt lat="47.08508" lon="-0.10413">
        <ele>37</ele>
        <time>2013-02-22T15:24:49.001Z</time>
      </trkpt>
      <trkpt lat="47.08507" lon="-0.10415">
        <ele>37</ele>
        <time>2013-02-22T15:24:50.001Z</time>
      </trkpt>
      <trkpt lat="47.08506" lon="-0.10419">
        <ele>37</ele>
        <time>2013-02-22T15:24:52.001Z</time>
      </trkpt>
      <trkpt lat="47.08505" lon="-0.10421">
        <ele>37</ele>
        <time>2013-02-22T15:24:53.001Z</time>
      </trkpt>
      <trkpt lat="47.08504" lon="-0.10426">
        <ele>37</ele>
        <time>2013-02-22T15:24:56.001Z</time>
      </trkpt>
      <trkpt lat="47.08504" lon="-0.10428">
        <ele>37</ele>
        <time>2013-02-22T15:24:57.001Z</time>
      </trkpt>
      <trkpt lat="47.08503" lon="-0.10433">
        <ele>37</ele>
        <time>2013-02-22T15:25:00.001Z</time>
      </trkpt>
      <trkpt lat="47.08503" lon="-0.10434">
        <ele>37</ele>
        <time>2013-02-22T15:25:01.001Z</time>
      </trkpt>
      <trkpt lat="47.08501" lon="-0.1044">
        <ele>37</ele>
        <time>2013-02-22T15:25:04.001Z</time>
      </trkpt>
      <trkpt lat="47.08501" lon="-0.10442">
        <ele>37</ele>
        <time>2013-02-22T15:25:05.001Z</time>
      </trkpt>
      <trkpt lat="47.085" lon="-0.10447">
        <ele>36</ele>
        <time>2013-02-22T15:25:08.001Z</time>
      </trkpt>
      <trkpt lat="47.08499" lon="-0.10449">
        <ele>36</ele>
        <time>2013-02-22T15:25:09.001Z</time>
      </trkpt>
      <trkpt lat="47.08498" lon="-0.10454">
        <ele>36</ele>
        <time>2013-02-22T15:25:11.001Z</time>
      </trkpt>
      <trkpt lat="47.08497" lon="-0.10456">
        <ele>36</ele>
        <time>2013-02-22T15:25:12.001Z</time>
      </trkpt>
      <trkpt lat="47.08496" lon="-0.10462">
        <ele>36</ele>
        <time>2013-02-22T15:25:15.001Z</time>
      </trkpt>
      <trkpt lat="47.08496" lon="-0.10463">
        <ele>36</ele>
        <time>2013-02-22T15:25:16.001Z</time>
      </trkpt>
      <trkpt lat="47.08495" lon="-0.10468">
        <ele>36</ele>
        <time>2013-02-22T15:25:19.001Z</time>
      </trkpt>
      <trkpt lat="47.08494" lon="-0.1047">
        <ele>36</ele>
        <time>2013-02-22T15:25:20.001Z</time>
      </trkpt>
      <trkpt lat="47.08492" lon="-0.10476">
        <ele>36</ele>
        <time>2013-02-22T15:25:23.001Z</time>
      </trkpt>
      <trkpt lat="47.08492" lon="-0.10478">
        <ele>36</ele>
        <time>2013-02-22T15:25:24.001Z</time>
      </trkpt>
      <trkpt lat="47.08489" lon="-0.10483">
        <ele>36</ele>
        <time>2013-02-22T15:25:28.001Z</time>
      </trkpt>
      <trkpt lat="47.08489" lon="-0.10484">
        <ele>36</ele>
        <time>2013-02-22T15:25:29.001Z</time>
      </trkpt>
      <trkpt lat="47.08488" lon="-0.1049">
        <ele>37</ele>
        <time>2013-02-22T15:25:33.001Z</time>
      </trkpt>
      <trkpt lat="47.08488" lon="-0.10491">
        <ele>37</ele>
        <time>2013-02-22T15:25:34.001Z</time>
      </trkpt>
      <trkpt lat="47.08487" lon="-0.10496">
        <ele>37</ele>
        <time>2013-02-22T15:25:37.001Z</time>
      </trkpt>
      <trkpt lat="47.08487" lon="-0.10498">
        <ele>37</ele>
        <time>2013-02-22T15:25:38.001Z</time>
      </trkpt>
      <trkpt lat="47.08485" lon="-0.10502">
        <ele>36</ele>
        <time>2013-02-22T15:25:40.001Z</time>
      </trkpt>
      <trkpt lat="47.08484" lon="-0.10504">
        <ele>36</ele>
        <time>2013-02-22T15:25:41.001Z</time>
      </trkpt>
      <trkpt lat="47.08482" lon="-0.10508">
        <ele>36</ele>
        <time>2013-02-22T15:25:43.001Z</time>
      </trkpt>
      <trkpt lat="47.08481" lon="-0.1051">
        <ele>36</ele>
        <time>2013-02-22T15:25:44.001Z</time>
      </trkpt>
      <trkpt lat="47.08478" lon="-0.10514">
        <ele>36</ele>
        <time>2013-02-22T15:25:47.001Z</time>
      </trkpt>
      <trkpt lat="47.08477" lon="-0.10514">
        <ele>36</ele>
        <time>2013-02-22T15:25:48.001Z</time>
      </trkpt>
      <trkpt lat="47.08474" lon="-0.10517">
        <ele>36</ele>
        <time>2013-02-22T15:25:51.001Z</time>
      </trkpt>
      <trkpt lat="47.08472" lon="-0.10518">
        <ele>36</ele>
        <time>2013-02-22T15:25:52.001Z</time>
      </trkpt>
      <trkpt lat="47.08468" lon="-0.10521">
        <ele>36</ele>
        <time>2013-02-22T15:25:55.001Z</time>
      </trkpt>
      <trkpt lat="47.08466" lon="-0.10522">
        <ele>36</ele>
        <time>2013-02-22T15:25:56.001Z</time>
      </trkpt>
      <trkpt lat="47.08463" lon="-0.10524">
        <ele>35</ele>
        <time>2013-02-22T15:25:58.001Z</time>
      </trkpt>
      <trkpt lat="47.08462" lon="-0.10525">
        <ele>35</ele>
        <time>2013-02-22T15:25:59.001Z</time>
      </trkpt>
      <trkpt lat="47.08459" lon="-0.10528">
        <ele>35</ele>
        <time>2013-02-22T15:26:02.001Z</time>
      </trkpt>
      <trkpt lat="47.08457" lon="-0.10529">
        <ele>35</ele>
        <time>2013-02-22T15:26:03.001Z</time>
      </trkpt>
      <trkpt lat="47.08454" lon="-0.10532">
        <ele>35</ele>
        <time>2013-02-22T15:26:07.001Z</time>
      </trkpt>
      <trkpt lat="47.08453" lon="-0.10533">
        <ele>35</ele>
        <time>2013-02-22T15:26:08.001Z</time>
      </trkpt>
      <trkpt lat="47.0845" lon="-0.10536">
        <ele>35</ele>
        <time>2013-02-22T15:26:11.001Z</time>
      </trkpt>
      <trkpt lat="47.08449" lon="-0.10537">
        <ele>35</ele>
        <time>2013-02-22T15:26:12.001Z</time>
      </trkpt>
      <trkpt lat="47.08446" lon="-0.1054">
        <ele>35</ele>
        <time>2013-02-22T15:26:15.001Z</time>
      </trkpt>
      <trkpt lat="47.08445" lon="-0.10542">
        <ele>35</ele>
        <time>2013-02-22T15:26:16.001Z</time>
      </trkpt>
      <trkpt lat="47.08441" lon="-0.10546">
        <ele>35</ele>
        <time>2013-02-22T15:26:19.001Z</time>
      </trkpt>
      <trkpt lat="47.08441" lon="-0.10547">
        <ele>35</ele>
        <time>2013-02-22T15:26:20.001Z</time>
      </trkpt>
      <trkpt lat="47.08439" lon="-0.10551">
        <ele>35</ele>
        <time>2013-02-22T15:26:23.001Z</time>
      </trkpt>
      <trkpt lat="47.08438" lon="-0.10553">
        <ele>35</ele>
        <time>2013-02-22T15:26:24.001Z</time>
      </trkpt>
      <trkpt lat="47.08436" lon="-0.10557">
        <ele>35</ele>
        <time>2013-02-22T15:26:27.001Z</time>
      </trkpt>
      <trkpt lat="47.08435" lon="-0.10559">
        <ele>35</ele>
        <time>2013-02-22T15:26:28.001Z</time>
      </trkpt>
      <trkpt lat="47.08433" lon="-0.10562">
        <ele>35</ele>
        <time>2013-02-22T15:26:31.001Z</time>
      </trkpt>
      <trkpt lat="47.08432" lon="-0.10564">
        <ele>35</ele>
        <time>2013-02-22T15:26:32.001Z</time>
      </trkpt>
      <trkpt lat="47.08429" lon="-0.10567">
        <ele>35</ele>
        <time>2013-02-22T15:26:34.001Z</time>
      </trkpt>
      <trkpt lat="47.08428" lon="-0.10568">
        <ele>35</ele>
        <time>2013-02-22T15:26:35.001Z</time>
      </trkpt>
      <trkpt lat="47.08424" lon="-0.10569">
        <ele>35</ele>
        <time>2013-02-22T15:26:39.001Z</time>
      </trkpt>
      <trkpt lat="47.08423" lon="-0.1057">
        <ele>35</ele>
        <time>2013-02-22T15:26:40.001Z</time>
      </trkpt>
      <trkpt lat="47.08419" lon="-0.10573">
        <ele>34</ele>
        <time>2013-02-22T15:26:43.001Z</time>
      </trkpt>
      <trkpt lat="47.08418" lon="-0.10574">
        <ele>34</ele>
        <time>2013-02-22T15:26:44.001Z</time>
      </trkpt>
      <trkpt lat="47.08416" lon="-0.10578">
        <ele>34</ele>
        <time>2013-02-22T15:26:47.001Z</time>
      </trkpt>
      <trkpt lat="47.08415" lon="-0.10579">
        <ele>34</ele>
        <time>2013-02-22T15:26:48.001Z</time>
      </trkpt>
      <trkpt lat="47.08411" lon="-0.10582">
        <ele>34</ele>
        <time>2013-02-22T15:26:52.001Z</time>
      </trkpt>
      <trkpt lat="47.0841" lon="-0.10583">
        <ele>34</ele>
        <time>2013-02-22T15:26:53.001Z</time>
      </trkpt>
      <trkpt lat="47.08407" lon="-0.10586">
        <ele>35</ele>
        <time>2013-02-22T15:26:56.001Z</time>
      </trkpt>
      <trkpt lat="47.08406" lon="-0.10587">
        <ele>35</ele>
        <time>2013-02-22T15:26:57.001Z</time>
      </trkpt>
      <trkpt lat="47.08405" lon="-0.10591">
        <ele>35</ele>
        <time>2013-02-22T15:26:59.001Z</time>
      </trkpt>
      <trkpt lat="47.08404" lon="-0.10593">
        <ele>35</ele>
        <time>2013-02-22T15:27:00.001Z</time>
      </trkpt>
      <trkpt lat="47.08403" lon="-0.10598">
        <ele>35</ele>
        <time>2013-02-22T15:27:02.001Z</time>
      </trkpt>
      <trkpt lat="47.08404" lon="-0.106">
        <ele>35</ele>
        <time>2013-02-22T15:27:03.001Z</time>
      </trkpt>
      <trkpt lat="47.08404" lon="-0.10606">
        <ele>35</ele>
        <time>2013-02-22T15:27:07.001Z</time>
      </trkpt>
      <trkpt lat="47.08404" lon="-0.10607">
        <ele>35</ele>
        <time>2013-02-22T15:27:08.001Z</time>
      </trkpt>
      <trkpt lat="47.08406" lon="-0.10612">
        <ele>35</ele>
        <time>2013-02-22T15:27:11.001Z</time>
      </trkpt>
      <trkpt lat="47.08406" lon="-0.10613">
        <ele>35</ele>
        <time>2013-02-22T15:27:12.001Z</time>
      </trkpt>
      <trkpt lat="47.08407" lon="-0.10619">
        <ele>36</ele>
        <time>2013-02-22T15:27:16.001Z</time>
      </trkpt>
      <trkpt lat="47.08407" lon="-0.1062">
        <ele>36</ele>
        <time>2013-02-22T15:27:17.001Z</time>
      </trkpt>
      <trkpt lat="47.08408" lon="-0.10625">
        <ele>36</ele>
        <time>2013-02-22T15:27:20.001Z</time>
      </trkpt>
      <trkpt lat="47.08409" lon="-0.10626">
        <ele>36</ele>
        <time>2013-02-22T15:27:21.001Z</time>
      </trkpt>
      <trkpt lat="47.0841" lon="-0.10632">
        <ele>36</ele>
        <time>2013-02-22T15:27:24.001Z</time>
      </trkpt>
      <trkpt lat="47.08411" lon="-0.10634">
        <ele>36</ele>
        <time>2013-02-22T15:27:25.001Z</time>
      </trkpt>
      <trkpt lat="47.08412" lon="-0.10639">
        <ele>36</ele>
        <time>2013-02-22T15:27:28.001Z</time>
      </trkpt>
      <trkpt lat="47.08412" lon="-0.1064">
        <ele>36</ele>
        <time>2013-02-22T15:27:29.001Z</time>
      </trkpt>
      <trkpt lat="47.08414" lon="-0.10645">
        <ele>36</ele>
        <time>2013-02-22T15:27:33.001Z</time>
      </trkpt>
      <trkpt lat="47.08415" lon="-0.10647">
        <ele>36</ele>
        <time>2013-02-22T15:27:34.001Z</time>
      </trkpt>
      <trkpt lat="47.08418" lon="-0.10651">
        <ele>36</ele>
        <time>2013-02-22T15:27:37.001Z</time>
      </trkpt>
      <trkpt lat="47.08419" lon="-0.10652">
        <ele>36</ele>
        <time>2013-02-22T15:27:38.001Z</time>
      </trkpt>
      <trkpt lat="47.08421" lon="-0.10658">
        <ele>36</ele>
        <time>2013-02-22T15:27:43.001Z</time>
      </trkpt>
      <trkpt lat="47.08421" lon="-0.10658">
        <ele>36</ele>
        <time>2013-02-22T15:27:44.001Z</time>
      </trkpt>
      <trkpt lat="47.08421" lon="-0.10664">
        <ele>36</ele>
        <time>2013-02-22T15:27:47.001Z</time>
      </trkpt>
      <trkpt lat="47.08422" lon="-0.10666">
        <ele>36</ele>
        <time>2013-02-22T15:27:48.001Z</time>
      </trkpt>
      <trkpt lat="47.08423" lon="-0.1067">
        <ele>36</ele>
        <time>2013-02-22T15:27:50.001Z</time>
      </trkpt>
      <trkpt lat="47.08424" lon="-0.10672">
        <ele>36</ele>
        <time>2013-02-22T15:27:51.001Z</time>
      </trkpt>
      <trkpt lat="47.08425" lon="-0.10676">
        <ele>36</ele>
        <time>2013-02-22T15:27:53.001Z</time>
      </trkpt>
      <trkpt lat="47.08426" lon="-0.10678">
        <ele>36</ele>
        <time>2013-02-22T15:27:54.001Z</time>
      </trkpt>
      <trkpt lat="47.08428" lon="-0.10682">
        <ele>37</ele>
        <time>2013-02-22T15:27:57.001Z</time>
      </trkpt>
      <trkpt lat="47.08429" lon="-0.10683">
        <ele>37</ele>
        <time>2013-02-22T15:27:58.001Z</time>
      </trkpt>
      <trkpt lat="47.0843" lon="-0.10687">
        <ele>37</ele>
        <time>2013-02-22T15:28:00.001Z</time>
      </trkpt>
      <trkpt lat="47.0843" lon="-0.1069">
        <ele>37</ele>
        <time>2013-02-22T15:28:01.001Z</time>
      </trkpt>
      <trkpt lat="47.08432" lon="-0.10694">
        <ele>37</ele>
        <time>2013-02-22T15:28:03.001Z</time>
      </trkpt>
      <trkpt lat="47.08432" lon="-0.10696">
        <ele>37</ele>
        <time>2013-02-22T15:28:04.001Z</time>
      </trkpt>
      <trkpt lat="47.08434" lon="-0.10702">
        <ele>37</ele>
        <time>2013-02-22T15:28:07.001Z</time>
      </trkpt>
      <trkpt lat="47.08434" lon="-0.10703">
        <ele>37</ele>
        <time>2013-02-22T15:28:08.001Z</time>
      </trkpt>
      <trkpt lat="47.08436" lon="-0.10708">
        <ele>37</ele>
        <time>2013-02-22T15:28:12.001Z</time>
      </trkpt>
      <trkpt lat="47.08437" lon="-0.1071">
        <ele>37</ele>
        <time>2013-02-22T15:28:13.001Z</time>
      </trkpt>
      <trkpt lat="47.08439" lon="-0.10713">
        <ele>37</ele>
        <time>2013-02-22T15:28:15.001Z</time>
      </trkpt>
      <trkpt lat="47.08439" lon="-0.10716">
        <ele>37</ele>
        <time>2013-02-22T15:28:16.001Z</time>
      </trkpt>
      <trkpt lat="47.0844" lon="-0.10721">
        <ele>37</ele>
        <time>2013-02-22T15:28:18.001Z</time>
      </trkpt>
      <trkpt lat="47.0844" lon="-0.10724">
        <ele>37</ele>
        <time>2013-02-22T15:28:19.001Z</time>
      </trkpt>
      <trkpt lat="47.0844" lon="-0.1073">
        <ele>37</ele>
        <time>2013-02-22T15:28:21.001Z</time>
      </trkpt>
      <trkpt lat="47.0844" lon="-0.10733">
        <ele>37</ele>
        <time>2013-02-22T15:28:22.001Z</time>
      </trkpt>
      <trkpt lat="47.08441" lon="-0.10738">
        <ele>37</ele>
        <time>2013-02-22T15:28:24.001Z</time>
      </trkpt>
      <trkpt lat="47.08441" lon="-0.10741">
        <ele>37</ele>
        <time>2013-02-22T15:28:25.001Z</time>
      </trkpt>
      <trkpt lat="47.08442" lon="-0.10747">
        <ele>37</ele>
        <time>2013-02-22T15:28:27.001Z</time>
      </trkpt>
      <trkpt lat="47.08443" lon="-0.1075">
        <ele>37</ele>
        <time>2013-02-22T15:28:28.001Z</time>
      </trkpt>
      <trkpt lat="47.08444" lon="-0.10755">
        <ele>38</ele>
        <time>2013-02-22T15:28:30.001Z</time>
      </trkpt>
      <trkpt lat="47.08445" lon="-0.10757">
        <ele>38</ele>
        <time>2013-02-22T15:28:31.001Z</time>
      </trkpt>
      <trkpt lat="47.08447" lon="-0.10761">
        <ele>38</ele>
        <time>2013-02-22T15:28:33.001Z</time>
      </trkpt>
      <trkpt lat="47.08448" lon="-0.10763">
        <ele>38</ele>
        <time>2013-02-22T15:28:34.001Z</time>
      </trkpt>
      <trkpt lat="47.08449" lon="-0.10769">
        <ele>38</ele>
        <time>2013-02-22T15:28:37.001Z</time>
      </trkpt>
      <trkpt lat="47.08449" lon="-0.1077">
        <ele>38</ele>
        <time>2013-02-22T15:28:38.001Z</time>
      </trkpt>
      <trkpt lat="47.0845" lon="-0.10774">
        <ele>38</ele>
        <time>2013-02-22T15:28:41.001Z</time>
      </trkpt>
      <trkpt lat="47.0845" lon="-0.10776">
        <ele>38</ele>
        <time>2013-02-22T15:28:42.001Z</time>
      </trkpt>
      <trkpt lat="47.0845" lon="-0.10782">
        <ele>38</ele>
        <time>2013-02-22T15:28:45.001Z</time>
      </trkpt>
      <trkpt lat="47.08451" lon="-0.10783">
        <ele>38</ele>
        <time>2013-02-22T15:28:46.001Z</time>
      </trkpt>
      <trkpt lat="47.08452" lon="-0.10789">
        <ele>38</ele>
        <time>2013-02-22T15:28:49.001Z</time>
      </trkpt>
      <trkpt lat="47.08452" lon="-0.1079">
        <ele>38</ele>
        <time>2013-02-22T15:28:50.001Z</time>
      </trkpt>
      <trkpt lat="47.08455" lon="-0.10795">
        <ele>39</ele>
        <time>2013-02-22T15:28:53.001Z</time>
      </trkpt>
      <trkpt lat="47.08455" lon="-0.10796">
        <ele>39</ele>
        <time>2013-02-22T15:28:54.001Z</time>
      </trkpt>
      <trkpt lat="47.08457" lon="-0.10802">
        <ele>39</ele>
        <time>2013-02-22T15:28:57.001Z</time>
      </trkpt>
      <trkpt lat="47.08458" lon="-0.10804">
        <ele>39</ele>
        <time>2013-02-22T15:28:58.001Z</time>
      </trkpt>
      <trkpt lat="47.08458" lon="-0.10808">
        <ele>39</ele>
        <time>2013-02-22T15:29:01.001Z</time>
      </trkpt>
      <trkpt lat="47.08459" lon="-0.1081">
        <ele>39</ele>
        <time>2013-02-22T15:29:02.001Z</time>
      </trkpt>
      <trkpt lat="47.08461" lon="-0.10815">
        <ele>39</ele>
        <time>2013-02-22T15:29:05.001Z</time>
      </trkpt>
      <trkpt lat="47.08462" lon="-0.10817">
        <ele>39</ele>
        <time>2013-02-22T15:29:06.001Z</time>
      </trkpt>
      <trkpt lat="47.08464" lon="-0.10822">
        <ele>39</ele>
        <time>2013-02-22T15:29:09.001Z</time>
      </trkpt>
      <trkpt lat="47.08465" lon="-0.10824">
        <ele>39</ele>
        <time>2013-02-22T15:29:10.001Z</time>
      </trkpt>
      <trkpt lat="47.08468" lon="-0.10829">
        <ele>39</ele>
        <time>2013-02-22T15:29:13.001Z</time>
      </trkpt>
      <trkpt lat="47.08469" lon="-0.1083">
        <ele>39</ele>
        <time>2013-02-22T15:29:14.001Z</time>
      </trkpt>
      <trkpt lat="47.0847" lon="-0.10835">
        <ele>40</ele>
        <time>2013-02-22T15:29:17.001Z</time>
      </trkpt>
      <trkpt lat="47.0847" lon="-0.10837">
        <ele>40</ele>
        <time>2013-02-22T15:29:18.001Z</time>
      </trkpt>
      <trkpt lat="47.08472" lon="-0.10842">
        <ele>40</ele>
        <time>2013-02-22T15:29:21.001Z</time>
      </trkpt>
      <trkpt lat="47.08473" lon="-0.10844">
        <ele>40</ele>
        <time>2013-02-22T15:29:22.001Z</time>
      </trkpt>
      <trkpt lat="47.08474" lon="-0.1085">
        <ele>40</ele>
        <time>2013-02-22T15:29:25.001Z</time>
      </trkpt>
      <trkpt lat="47.08474" lon="-0.10852">
        <ele>40</ele>
        <time>2013-02-22T15:29:26.001Z</time>
      </trkpt>
      <trkpt lat="47.08476" lon="-0.10856">
        <ele>40</ele>
        <time>2013-02-22T15:29:29.001Z</time>
      </trkpt>
      <trkpt lat="47.08477" lon="-0.10858">
        <ele>40</ele>
        <time>2013-02-22T15:29:30.001Z</time>
      </trkpt>
      <trkpt lat="47.08479" lon="-0.10863">
        <ele>40</ele>
        <time>2013-02-22T15:29:34.001Z</time>
      </trkpt>
      <trkpt lat="47.0848" lon="-0.10865">
        <ele>40</ele>
        <time>2013-02-22T15:29:35.001Z</time>
      </trkpt>
      <trkpt lat="47.08482" lon="-0.10869">
        <ele>40</ele>
        <time>2013-02-22T15:29:37.001Z</time>
      </trkpt>
      <trkpt lat="47.08483" lon="-0.10871">
        <ele>40</ele>
        <time>2013-02-22T15:29:38.001Z</time>
      </trkpt>
      <trkpt lat="47.08485" lon="-0.10876">
        <ele>40</ele>
        <time>2013-02-22T15:29:41.001Z</time>
      </trkpt>
      <trkpt lat="47.08486" lon="-0.10878">
        <ele>40</ele>
        <time>2013-02-22T15:29:42.001Z</time>
      </trkpt>
      <trkpt lat="47.08487" lon="-0.10883">
        <ele>40</ele>
        <time>2013-02-22T15:29:45.001Z</time>
      </trkpt>
      <trkpt lat="47.08488" lon="-0.10884">
        <ele>40</ele>
        <time>2013-02-22T15:29:46.001Z</time>
      </trkpt>
      <trkpt lat="47.08489" lon="-0.10888">
        <ele>39</ele>
        <time>2013-02-22T15:29:49.001Z</time>
      </trkpt>
      <trkpt lat="47.0849" lon="-0.1089">
        <ele>39</ele>
        <time>2013-02-22T15:29:50.001Z</time>
      </trkpt>
      <trkpt lat="47.08492" lon="-0.10893">
        <ele>39</ele>
        <time>2013-02-22T15:29:52.001Z</time>
      </trkpt>
      <trkpt lat="47.08493" lon="-0.10895">
        <ele>39</ele>
        <time>2013-02-22T15:29:53.001Z</time>
      </trkpt>
      <trkpt lat="47.08495" lon="-0.10899">
        <ele>39</ele>
        <time>2013-02-22T15:29:55.001Z</time>
      </trkpt>
      <trkpt lat="47.08496" lon="-0.10901">
        <ele>39</ele>
        <time>2013-02-22T15:29:56.001Z</time>
      </trkpt>
      <trkpt lat="47.08497" lon="-0.10905">
        <ele>39</ele>
        <time>2013-02-22T15:29:58.001Z</time>
      </trkpt>
      <trkpt lat="47.08497" lon="-0.10907">
        <ele>39</ele>
        <time>2013-02-22T15:29:59.001Z</time>
      </trkpt>
      <trkpt lat="47.08499" lon="-0.10913">
        <ele>39</ele>
        <time>2013-02-22T15:30:02.001Z</time>
      </trkpt>
      <trkpt lat="47.08499" lon="-0.10915">
        <ele>39</ele>
        <time>2013-02-22T15:30:03.001Z</time>
      </trkpt>
      <trkpt lat="47.085" lon="-0.1092">
        <ele>39</ele>
        <time>2013-02-22T15:30:06.001Z</time>
      </trkpt>
      <trkpt lat="47.08501" lon="-0.10922">
        <ele>39</ele>
        <time>2013-02-22T15:30:07.001Z</time>
      </trkpt>
      <trkpt lat="47.08503" lon="-0.10928">
        <ele>39</ele>
        <time>2013-02-22T15:30:10.001Z</time>
      </trkpt>
      <trkpt lat="47.08503" lon="-0.10929">
        <ele>39</ele>
        <time>2013-02-22T15:30:11.001Z</time>
      </trkpt>
      <trkpt lat="47.08506" lon="-0.10933">
        <ele>39</ele>
        <time>2013-02-22T15:30:14.001Z</time>
      </trkpt>
      <trkpt lat="47.08506" lon="-0.10935">
        <ele>39</ele>
        <time>2013-02-22T15:30:15.001Z</time>
      </trkpt>
      <trkpt lat="47.08507" lon="-0.1094">
        <ele>40</ele>
        <time>2013-02-22T15:30:17.001Z</time>
      </trkpt>
      <trkpt lat="47.08508" lon="-0.10942">
        <ele>40</ele>
        <time>2013-02-22T15:30:18.001Z</time>
      </trkpt>
      <trkpt lat="47.0851" lon="-0.10947">
        <ele>40</ele>
        <time>2013-02-22T15:30:21.001Z</time>
      </trkpt>
      <trkpt lat="47.08511" lon="-0.10948">
        <ele>40</ele>
        <time>2013-02-22T15:30:22.001Z</time>
      </trkpt>
      <trkpt lat="47.08514" lon="-0.10953">
        <ele>40</ele>
        <time>2013-02-22T15:30:25.001Z</time>
      </trkpt>
      <trkpt lat="47.08514" lon="-0.10955">
        <ele>40</ele>
        <time>2013-02-22T15:30:26.001Z</time>
      </trkpt>
      <trkpt lat="47.08515" lon="-0.1096">
        <ele>40</ele>
        <time>2013-02-22T15:30:29.001Z</time>
      </trkpt>
      <trkpt lat="47.08515" lon="-0.10962">
        <ele>40</ele>
        <time>2013-02-22T15:30:30.001Z</time>
      </trkpt>
      <trkpt lat="47.08517" lon="-0.10966">
        <ele>40</ele>
        <time>2013-02-22T15:30:33.001Z</time>
      </trkpt>
      <trkpt lat="47.08517" lon="-0.10968">
        <ele>40</ele>
        <time>2013-02-22T15:30:34.001Z</time>
      </trkpt>
      <trkpt lat="47.08519" lon="-0.10973">
        <ele>40</ele>
        <time>2013-02-22T15:30:37.001Z</time>
      </trkpt>
      <trkpt lat="47.08519" lon="-0.10974">
        <ele>40</ele>
        <time>2013-02-22T15:30:38.001Z</time>
      </trkpt>
      <trkpt lat="47.08519" lon="-0.10979">
        <ele>40</ele>
        <time>2013-02-22T15:30:41.001Z</time>
      </trkpt>
      <trkpt lat="47.08519" lon="-0.10982">
        <ele>40</ele>
        <time>2013-02-22T15:30:42.001Z</time>
      </trkpt>
      <trkpt lat="47.0852" lon="-0.10986">
        <ele>40</ele>
        <time>2013-02-22T15:30:45.001Z</time>
      </trkpt>
      <trkpt lat="47.0852" lon="-0.10988">
        <ele>40</ele>
        <time>2013-02-22T15:30:46.001Z</time>
      </trkpt>
      <trkpt lat="47.08521" lon="-0.10994">
        <ele>40</ele>
        <time>2013-02-22T15:30:49.001Z</time>
      </trkpt>
      <trkpt lat="47.08522" lon="-0.10996">
        <ele>40</ele>
        <time>2013-02-22T15:30:50.001Z</time>
      </trkpt>
      <trkpt lat="47.08523" lon="-0.11002">
        <ele>41</ele>
        <time>2013-02-22T15:30:54.001Z</time>
      </trkpt>
      <trkpt lat="47.08524" lon="-0.11003">
        <ele>41</ele>
        <time>2013-02-22T15:30:55.001Z</time>
      </trkpt>
      <trkpt lat="47.08525" lon="-0.11007">
        <ele>41</ele>
        <time>2013-02-22T15:30:58.001Z</time>
      </trkpt>
      <trkpt lat="47.08526" lon="-0.1101">
        <ele>41</ele>
        <time>2013-02-22T15:30:59.001Z</time>
      </trkpt>
      <trkpt lat="47.08526" lon="-0.11015">
        <ele>41</ele>
        <time>2013-02-22T15:31:01.001Z</time>
      </trkpt>
      <trkpt lat="47.08526" lon="-0.11017">
        <ele>41</ele>
        <time>2013-02-22T15:31:02.001Z</time>
      </trkpt>
      <trkpt lat="47.08527" lon="-0.11021">
        <ele>41</ele>
        <time>2013-02-22T15:31:04.001Z</time>
      </trkpt>
      <trkpt lat="47.08528" lon="-0.11023">
        <ele>41</ele>
        <time>2013-02-22T15:31:05.001Z</time>
      </trkpt>
      <trkpt lat="47.08528" lon="-0.11029">
        <ele>41</ele>
        <time>2013-02-22T15:31:10.001Z</time>
      </trkpt>
      <trkpt lat="47.08528" lon="-0.1103">
        <ele>41</ele>
        <time>2013-02-22T15:31:11.001Z</time>
      </trkpt>
      <trkpt lat="47.08529" lon="-0.11036">
        <ele>41</ele>
        <time>2013-02-22T15:31:17.001Z</time>
      </trkpt>
      <trkpt lat="47.0853" lon="-0.11037">
        <ele>41</ele>
        <time>2013-02-22T15:31:18.001Z</time>
      </trkpt>
      <trkpt lat="47.08529" lon="-0.11042">
        <ele>41</ele>
        <time>2013-02-22T15:31:27.001Z</time>
      </trkpt>
      <trkpt lat="47.08527" lon="-0.11043">
        <ele>41</ele>
        <time>2013-02-22T15:31:29.001Z</time>
      </trkpt>
      <trkpt lat="47.08531" lon="-0.11047">
        <ele>41</ele>
        <time>2013-02-22T15:32:21.001Z</time>
      </trkpt>
      <trkpt lat="47.08531" lon="-0.11047">
        <ele>41</ele>
        <time>2013-02-22T15:32:22.001Z</time>
      </trkpt>
      <trkpt lat="47.08527" lon="-0.11048">
        <ele>41</ele>
        <time>2013-02-22T15:32:36.001Z</time>
      </trkpt>
      <trkpt lat="47.08525" lon="-0.11047">
        <ele>41</ele>
        <time>2013-02-22T15:32:37.001Z</time>
      </trkpt>
      <trkpt lat="47.08525" lon="-0.11053">
        <ele>41</ele>
        <time>2013-02-22T15:32:55.001Z</time>
      </trkpt>
      <trkpt lat="47.08526" lon="-0.11054">
        <ele>41</ele>
        <time>2013-02-22T15:32:56.001Z</time>
      </trkpt>
      <trkpt lat="47.08526" lon="-0.11059">
        <ele>41</ele>
        <time>2013-02-22T15:32:59.001Z</time>
      </trkpt>
      <trkpt lat="47.08526" lon="-0.11061">
        <ele>41</ele>
        <time>2013-02-22T15:33:00.001Z</time>
      </trkpt>
      <trkpt lat="47.08524" lon="-0.11067">
        <ele>41</ele>
        <time>2013-02-22T15:33:12.001Z</time>
      </trkpt>
      <trkpt lat="47.08524" lon="-0.11068">
        <ele>41</ele>
        <time>2013-02-22T15:33:13.001Z</time>
      </trkpt>
      <trkpt lat="47.08521" lon="-0.11072">
        <ele>41</ele>
        <time>2013-02-22T15:33:18.001Z</time>
      </trkpt>
      <trkpt lat="47.08521" lon="-0.11074">
        <ele>41</ele>
        <time>2013-02-22T15:33:19.001Z</time>
      </trkpt>
      <trkpt lat="47.08518" lon="-0.11078">
        <ele>41</ele>
        <time>2013-02-22T15:33:24.001Z</time>
      </trkpt>
      <trkpt lat="47.08518" lon="-0.11079">
        <ele>41</ele>
        <time>2013-02-22T15:33:25.001Z</time>
      </trkpt>
      <trkpt lat="47.08516" lon="-0.11084">
        <ele>41</ele>
        <time>2013-02-22T15:33:29.001Z</time>
      </trkpt>
      <trkpt lat="47.08515" lon="-0.11085">
        <ele>41</ele>
        <time>2013-02-22T15:33:30.001Z</time>
      </trkpt>
      <trkpt lat="47.08512" lon="-0.11089">
        <ele>41</ele>
        <time>2013-02-22T15:33:33.001Z</time>
      </trkpt>
      <trkpt lat="47.08511" lon="-0.11091">
        <ele>41</ele>
        <time>2013-02-22T15:33:34.001Z</time>
      </trkpt>
      <trkpt lat="47.08508" lon="-0.11095">
        <ele>41</ele>
        <time>2013-02-22T15:33:37.001Z</time>
      </trkpt>
      <trkpt lat="47.08507" lon="-0.11096">
        <ele>41</ele>
        <time>2013-02-22T15:33:38.001Z</time>
      </trkpt>
      <trkpt lat="47.08505" lon="-0.11101">
        <ele>41</ele>
        <time>2013-02-22T15:33:41.001Z</time>
      </trkpt>
      <trkpt lat="47.08504" lon="-0.11102">
        <ele>41</ele>
        <time>2013-02-22T15:33:42.001Z</time>
      </trkpt>
      <trkpt lat="47.08502" lon="-0.11106">
        <ele>41</ele>
        <time>2013-02-22T15:33:46.001Z</time>
      </trkpt>
      <trkpt lat="47.08501" lon="-0.11107">
        <ele>41</ele>
        <time>2013-02-22T15:33:47.001Z</time>
      </trkpt>
      <trkpt lat="47.08497" lon="-0.1111">
        <ele>41</ele>
        <time>2013-02-22T15:33:50.001Z</time>
      </trkpt>
      <trkpt lat="47.08496" lon="-0.1111">
        <ele>41</ele>
        <time>2013-02-22T15:33:51.001Z</time>
      </trkpt>
      <trkpt lat="47.08493" lon="-0.11114">
        <ele>41</ele>
        <time>2013-02-22T15:33:55.001Z</time>
      </trkpt>
      <trkpt lat="47.08493" lon="-0.11115">
        <ele>41</ele>
        <time>2013-02-22T15:33:56.001Z</time>
      </trkpt>
      <trkpt lat="47.0849" lon="-0.1112">
        <ele>41</ele>
        <time>2013-02-22T15:34:01.001Z</time>
      </trkpt>
      <trkpt lat="47.0849" lon="-0.11121">
        <ele>41</ele>
        <time>2013-02-22T15:34:02.001Z</time>
      </trkpt>
      <trkpt lat="47.08488" lon="-0.11127">
        <ele>41</ele>
        <time>2013-02-22T15:34:06.001Z</time>
      </trkpt>
      <trkpt lat="47.08487" lon="-0.11127">
        <ele>41</ele>
        <time>2013-02-22T15:34:07.001Z</time>
      </trkpt>
      <trkpt lat="47.08485" lon="-0.11131">
        <ele>41</ele>
        <time>2013-02-22T15:34:10.001Z</time>
      </trkpt>
      <trkpt lat="47.08484" lon="-0.11133">
        <ele>41</ele>
        <time>2013-02-22T15:34:11.001Z</time>
      </trkpt>
      <trkpt lat="47.08481" lon="-0.11137">
        <ele>41</ele>
        <time>2013-02-22T15:34:14.001Z</time>
      </trkpt>
      <trkpt lat="47.08481" lon="-0.11137">
        <ele>41</ele>
        <time>2013-02-22T15:34:15.001Z</time>
      </trkpt>
      <trkpt lat="47.08477" lon="-0.11141">
        <ele>41</ele>
        <time>2013-02-22T15:34:19.001Z</time>
      </trkpt>
      <trkpt lat="47.08476" lon="-0.11142">
        <ele>41</ele>
        <time>2013-02-22T15:34:20.001Z</time>
      </trkpt>
      <trkpt lat="47.08473" lon="-0.11146">
        <ele>41</ele>
        <time>2013-02-22T15:34:22.001Z</time>
      </trkpt>
      <trkpt lat="47.08473" lon="-0.11147">
        <ele>41</ele>
        <time>2013-02-22T15:34:23.001Z</time>
      </trkpt>
      <trkpt lat="47.0847" lon="-0.11152">
        <ele>41</ele>
        <time>2013-02-22T15:34:27.001Z</time>
      </trkpt>
      <trkpt lat="47.08469" lon="-0.11154">
        <ele>41</ele>
        <time>2013-02-22T15:34:28.001Z</time>
      </trkpt>
      <trkpt lat="47.08467" lon="-0.11159">
        <ele>41</ele>
        <time>2013-02-22T15:34:32.001Z</time>
      </trkpt>
      <trkpt lat="47.08466" lon="-0.11161">
        <ele>41</ele>
        <time>2013-02-22T15:34:33.001Z</time>
      </trkpt>
      <trkpt lat="47.08463" lon="-0.11165">
        <ele>41</ele>
        <time>2013-02-22T15:34:38.001Z</time>
      </trkpt>
      <trkpt lat="47.08463" lon="-0.11167">
        <ele>42</ele>
        <time>2013-02-22T15:34:39.001Z</time>
      </trkpt>
      <trkpt lat="47.0846" lon="-0.11171">
        <ele>42</ele>
        <time>2013-02-22T15:34:42.001Z</time>
      </trkpt>
      <trkpt lat="47.0846" lon="-0.11172">
        <ele>42</ele>
        <time>2013-02-22T15:34:43.001Z</time>
      </trkpt>
      <trkpt lat="47.08459" lon="-0.11178">
        <ele>43</ele>
        <time>2013-02-22T15:34:47.001Z</time>
      </trkpt>
      <trkpt lat="47.08459" lon="-0.11179">
        <ele>43</ele>
        <time>2013-02-22T15:34:48.001Z</time>
      </trkpt>
      <trkpt lat="47.08463" lon="-0.11182">
        <ele>43</ele>
        <time>2013-02-22T15:34:55.001Z</time>
      </trkpt>
      <trkpt lat="47.08463" lon="-0.11182">
        <ele>43</ele>
        <time>2013-02-22T15:34:56.001Z</time>
      </trkpt>
      <trkpt lat="47.08466" lon="-0.11187">
        <ele>43</ele>
        <time>2013-02-22T15:34:59.001Z</time>
      </trkpt>
      <trkpt lat="47.08466" lon="-0.11189">
        <ele>43</ele>
        <time>2013-02-22T15:35:00.001Z</time>
      </trkpt>
      <trkpt lat="47.08469" lon="-0.11194">
        <ele>43</ele>
        <time>2013-02-22T15:35:04.001Z</time>
      </trkpt>
      <trkpt lat="47.08469" lon="-0.11195">
        <ele>43</ele>
        <time>2013-02-22T15:35:05.001Z</time>
      </trkpt>
      <trkpt lat="47.08472" lon="-0.11201">
        <ele>43</ele>
        <time>2013-02-22T15:35:10.001Z</time>
      </trkpt>
      <trkpt lat="47.08472" lon="-0.11202">
        <ele>43</ele>
        <time>2013-02-22T15:35:11.001Z</time>
      </trkpt>
      <trkpt lat="47.08473" lon="-0.11208">
        <ele>43</ele>
        <time>2013-02-22T15:35:16.001Z</time>
      </trkpt>
      <trkpt lat="47.08473" lon="-0.11209">
        <ele>43</ele>
        <time>2013-02-22T15:35:17.001Z</time>
      </trkpt>
      <trkpt lat="47.08469" lon="-0.11212">
        <ele>43</ele>
        <time>2013-02-22T15:35:36.001Z</time>
      </trkpt>
      <trkpt lat="47.08469" lon="-0.11212">
        <ele>43</ele>
        <time>2013-02-22T15:35:37.001Z</time>
      </trkpt>
      <trkpt lat="47.08466" lon="-0.11216">
        <ele>43</ele>
        <time>2013-02-22T15:35:42.001Z</time>
      </trkpt>
      <trkpt lat="47.08466" lon="-0.11217">
        <ele>43</ele>
        <time>2013-02-22T15:35:43.001Z</time>
      </trkpt>
      <trkpt lat="47.08465" lon="-0.11219">
        <ele>43</ele>
        <time>2013-02-22T15:35:51.001Z</time>
      </trkpt>
    </trkseg>
  </trk>
</gpx>